<?xml version="1.0" encoding="UTF-8" standalone="no" ?>
<gpx xmlns="http://www.topografix.com/GPX/1/1" xmlns:xsi="http://www.w3.org/2001/XMLSchema-instance" xsi:schemaLocation="http://www.topografix.com/GPX/1/1 http://www.topografix.com/GPX/1/1/gpx.xsd" version="1.1" creator="VisuGPX - https://www.visugpx.com">
  <metadata>
    <name>GR20</name>
    <desc><![CDATA[GR20 - Juin 2015]]></desc>
  </metadata>
  <trk>
    <name><![CDATA[GR20 Manganu - Ciottulu à i Mori]]></name>
    <trkseg>
      <trkpt lat="42.21992" lon="8.9805">
        <ele>1608.4</ele>
        <time>2015-06-27T03:49:41Z</time>
      </trkpt>
      <trkpt lat="42.21993" lon="8.9805">
        <ele>1608.4</ele>
        <time>2015-06-27T03:49:43Z</time>
      </trkpt>
      <trkpt lat="42.22002" lon="8.98053">
        <ele>1606.8</ele>
        <time>2015-06-27T03:49:59Z</time>
      </trkpt>
      <trkpt lat="42.22001" lon="8.98046">
        <ele>1607.2</ele>
        <time>2015-06-27T03:50:05Z</time>
      </trkpt>
      <trkpt lat="42.22006" lon="8.98042">
        <ele>1605.8</ele>
        <time>2015-06-27T03:50:14Z</time>
      </trkpt>
      <trkpt lat="42.22008" lon="8.98048">
        <ele>1605.2</ele>
        <time>2015-06-27T03:50:20Z</time>
      </trkpt>
      <trkpt lat="42.22013" lon="8.98059">
        <ele>1603.6</ele>
        <time>2015-06-27T03:50:32Z</time>
      </trkpt>
      <trkpt lat="42.22017" lon="8.9806">
        <ele>1602.6</ele>
        <time>2015-06-27T03:50:41Z</time>
      </trkpt>
      <trkpt lat="42.22023" lon="8.98062">
        <ele>1601.6</ele>
        <time>2015-06-27T03:50:51Z</time>
      </trkpt>
      <trkpt lat="42.22046" lon="8.98079">
        <ele>1600.6</ele>
        <time>2015-06-27T03:52:09Z</time>
      </trkpt>
      <trkpt lat="42.22048" lon="8.98076">
        <ele>1600.4</ele>
        <time>2015-06-27T03:52:12Z</time>
      </trkpt>
      <trkpt lat="42.22051" lon="8.98071">
        <ele>1599.8</ele>
        <time>2015-06-27T03:52:17Z</time>
      </trkpt>
      <trkpt lat="42.22052" lon="8.98066">
        <ele>1599.6</ele>
        <time>2015-06-27T03:52:20Z</time>
      </trkpt>
      <trkpt lat="42.22054" lon="8.98066">
        <ele>1598.8</ele>
        <time>2015-06-27T03:52:24Z</time>
      </trkpt>
      <trkpt lat="42.22058" lon="8.98057">
        <ele>1597.8</ele>
        <time>2015-06-27T03:52:35Z</time>
      </trkpt>
      <trkpt lat="42.22057" lon="8.98049">
        <ele>1596.8</ele>
        <time>2015-06-27T03:52:43Z</time>
      </trkpt>
      <trkpt lat="42.22057" lon="8.98043">
        <ele>1596</ele>
        <time>2015-06-27T03:52:49Z</time>
      </trkpt>
      <trkpt lat="42.2206" lon="8.98038">
        <ele>1594.8</ele>
        <time>2015-06-27T03:52:58Z</time>
      </trkpt>
      <trkpt lat="42.22065" lon="8.98037">
        <ele>1593.4</ele>
        <time>2015-06-27T03:53:06Z</time>
      </trkpt>
      <trkpt lat="42.22068" lon="8.98034">
        <ele>1592.6</ele>
        <time>2015-06-27T03:53:14Z</time>
      </trkpt>
      <trkpt lat="42.22071" lon="8.9803">
        <ele>1591.6</ele>
        <time>2015-06-27T03:53:22Z</time>
      </trkpt>
      <trkpt lat="42.22075" lon="8.98028">
        <ele>1590.2</ele>
        <time>2015-06-27T03:53:33Z</time>
      </trkpt>
      <trkpt lat="42.22079" lon="8.98026">
        <ele>1589.2</ele>
        <time>2015-06-27T03:53:41Z</time>
      </trkpt>
      <trkpt lat="42.22083" lon="8.9802">
        <ele>1587.8</ele>
        <time>2015-06-27T03:53:51Z</time>
      </trkpt>
      <trkpt lat="42.22091" lon="8.98018">
        <ele>1586.6</ele>
        <time>2015-06-27T03:54:03Z</time>
      </trkpt>
      <trkpt lat="42.22105" lon="8.98018">
        <ele>1586.8</ele>
        <time>2015-06-27T03:54:21Z</time>
      </trkpt>
      <trkpt lat="42.22112" lon="8.98015">
        <ele>1587.4</ele>
        <time>2015-06-27T03:54:30Z</time>
      </trkpt>
      <trkpt lat="42.22124" lon="8.98007">
        <ele>1587.8</ele>
        <time>2015-06-27T03:54:51Z</time>
      </trkpt>
      <trkpt lat="42.22129" lon="8.98001">
        <ele>1586.8</ele>
        <time>2015-06-27T03:55:00Z</time>
      </trkpt>
      <trkpt lat="42.2214" lon="8.98">
        <ele>1585.4</ele>
        <time>2015-06-27T03:55:15Z</time>
      </trkpt>
      <trkpt lat="42.22147" lon="8.97992">
        <ele>1585.2</ele>
        <time>2015-06-27T03:55:26Z</time>
      </trkpt>
      <trkpt lat="42.22149" lon="8.97987">
        <ele>1585</ele>
        <time>2015-06-27T03:55:30Z</time>
      </trkpt>
      <trkpt lat="42.22152" lon="8.97985">
        <ele>1585</ele>
        <time>2015-06-27T03:55:34Z</time>
      </trkpt>
      <trkpt lat="42.22157" lon="8.97987">
        <ele>1585</ele>
        <time>2015-06-27T03:55:39Z</time>
      </trkpt>
      <trkpt lat="42.22163" lon="8.97986">
        <ele>1585.6</ele>
        <time>2015-06-27T03:55:50Z</time>
      </trkpt>
      <trkpt lat="42.22168" lon="8.97988">
        <ele>1586.2</ele>
        <time>2015-06-27T03:55:57Z</time>
      </trkpt>
      <trkpt lat="42.22176" lon="8.97987">
        <ele>1587.2</ele>
        <time>2015-06-27T03:56:07Z</time>
      </trkpt>
      <trkpt lat="42.22186" lon="8.97982">
        <ele>1586.8</ele>
        <time>2015-06-27T03:56:20Z</time>
      </trkpt>
      <trkpt lat="42.22202" lon="8.97978">
        <ele>1585.6</ele>
        <time>2015-06-27T03:56:38Z</time>
      </trkpt>
      <trkpt lat="42.22205" lon="8.97977">
        <ele>1585.4</ele>
        <time>2015-06-27T03:56:41Z</time>
      </trkpt>
      <trkpt lat="42.22207" lon="8.97979">
        <ele>1585.2</ele>
        <time>2015-06-27T03:56:43Z</time>
      </trkpt>
      <trkpt lat="42.22214" lon="8.97975">
        <ele>1584.8</ele>
        <time>2015-06-27T03:56:56Z</time>
      </trkpt>
      <trkpt lat="42.22231" lon="8.97971">
        <ele>1583.2</ele>
        <time>2015-06-27T03:57:20Z</time>
      </trkpt>
      <trkpt lat="42.22237" lon="8.97966">
        <ele>1583</ele>
        <time>2015-06-27T03:57:29Z</time>
      </trkpt>
      <trkpt lat="42.2224" lon="8.97965">
        <ele>1582.6</ele>
        <time>2015-06-27T03:57:32Z</time>
      </trkpt>
      <trkpt lat="42.22256" lon="8.97966">
        <ele>1582.4</ele>
        <time>2015-06-27T03:57:53Z</time>
      </trkpt>
      <trkpt lat="42.22279" lon="8.97961">
        <ele>1582.8</ele>
        <time>2015-06-27T03:58:26Z</time>
      </trkpt>
      <trkpt lat="42.22285" lon="8.97956">
        <ele>1581.8</ele>
        <time>2015-06-27T03:58:35Z</time>
      </trkpt>
      <trkpt lat="42.22286" lon="8.97955">
        <ele>1581.8</ele>
        <time>2015-06-27T03:58:39Z</time>
      </trkpt>
      <trkpt lat="42.22301" lon="8.97959">
        <ele>1582</ele>
        <time>2015-06-27T03:59:02Z</time>
      </trkpt>
      <trkpt lat="42.22306" lon="8.97962">
        <ele>1583</ele>
        <time>2015-06-27T03:59:11Z</time>
      </trkpt>
      <trkpt lat="42.22311" lon="8.97964">
        <ele>1584.2</ele>
        <time>2015-06-27T03:59:20Z</time>
      </trkpt>
      <trkpt lat="42.22319" lon="8.97964">
        <ele>1585.4</ele>
        <time>2015-06-27T03:59:32Z</time>
      </trkpt>
      <trkpt lat="42.2235" lon="8.97964">
        <ele>1585.6</ele>
        <time>2015-06-27T04:00:12Z</time>
      </trkpt>
      <trkpt lat="42.22357" lon="8.97964">
        <ele>1585</ele>
        <time>2015-06-27T04:00:20Z</time>
      </trkpt>
      <trkpt lat="42.22383" lon="8.97967">
        <ele>1585.4</ele>
        <time>2015-06-27T04:00:57Z</time>
      </trkpt>
      <trkpt lat="42.22391" lon="8.97972">
        <ele>1585.8</ele>
        <time>2015-06-27T04:01:12Z</time>
      </trkpt>
      <trkpt lat="42.22396" lon="8.97973">
        <ele>1587</ele>
        <time>2015-06-27T04:01:20Z</time>
      </trkpt>
      <trkpt lat="42.22401" lon="8.97977">
        <ele>1588</ele>
        <time>2015-06-27T04:01:32Z</time>
      </trkpt>
      <trkpt lat="42.22414" lon="8.97973">
        <ele>1588.8</ele>
        <time>2015-06-27T04:02:07Z</time>
      </trkpt>
      <trkpt lat="42.22421" lon="8.97965">
        <ele>1588.2</ele>
        <time>2015-06-27T04:02:17Z</time>
      </trkpt>
      <trkpt lat="42.22431" lon="8.97955">
        <ele>1588.2</ele>
        <time>2015-06-27T04:02:32Z</time>
      </trkpt>
      <trkpt lat="42.22451" lon="8.97951">
        <ele>1587.6</ele>
        <time>2015-06-27T04:02:59Z</time>
      </trkpt>
      <trkpt lat="42.22455" lon="8.97948">
        <ele>1587.6</ele>
        <time>2015-06-27T04:03:06Z</time>
      </trkpt>
      <trkpt lat="42.22467" lon="8.97945">
        <ele>1586.8</ele>
        <time>2015-06-27T04:03:20Z</time>
      </trkpt>
      <trkpt lat="42.2247" lon="8.97943">
        <ele>1586.4</ele>
        <time>2015-06-27T04:03:24Z</time>
      </trkpt>
      <trkpt lat="42.22474" lon="8.9794">
        <ele>1586</ele>
        <time>2015-06-27T04:03:29Z</time>
      </trkpt>
      <trkpt lat="42.22476" lon="8.97938">
        <ele>1585.6</ele>
        <time>2015-06-27T04:03:32Z</time>
      </trkpt>
      <trkpt lat="42.22477" lon="8.97939">
        <ele>1585.6</ele>
        <time>2015-06-27T04:03:33Z</time>
      </trkpt>
      <trkpt lat="42.22503" lon="8.97922">
        <ele>1584.6</ele>
        <time>2015-06-27T04:04:03Z</time>
      </trkpt>
      <trkpt lat="42.22504" lon="8.97922">
        <ele>1584.6</ele>
        <time>2015-06-27T04:04:04Z</time>
      </trkpt>
      <trkpt lat="42.22509" lon="8.97922">
        <ele>1584.2</ele>
        <time>2015-06-27T04:04:11Z</time>
      </trkpt>
      <trkpt lat="42.22515" lon="8.97918">
        <ele>1583.8</ele>
        <time>2015-06-27T04:04:21Z</time>
      </trkpt>
      <trkpt lat="42.22524" lon="8.97916">
        <ele>1582.8</ele>
        <time>2015-06-27T04:04:32Z</time>
      </trkpt>
      <trkpt lat="42.22527" lon="8.97913">
        <ele>1582.6</ele>
        <time>2015-06-27T04:04:36Z</time>
      </trkpt>
      <trkpt lat="42.22528" lon="8.97912">
        <ele>1582.6</ele>
        <time>2015-06-27T04:04:38Z</time>
      </trkpt>
      <trkpt lat="42.2253" lon="8.97912">
        <ele>1582.4</ele>
        <time>2015-06-27T04:04:41Z</time>
      </trkpt>
      <trkpt lat="42.22543" lon="8.97915">
        <ele>1581.6</ele>
        <time>2015-06-27T04:05:05Z</time>
      </trkpt>
      <trkpt lat="42.22553" lon="8.97909">
        <ele>1581</ele>
        <time>2015-06-27T04:05:22Z</time>
      </trkpt>
      <trkpt lat="42.2258" lon="8.97885">
        <ele>1580.6</ele>
        <time>2015-06-27T04:05:55Z</time>
      </trkpt>
      <trkpt lat="42.22591" lon="8.97881">
        <ele>1580.2</ele>
        <time>2015-06-27T04:06:06Z</time>
      </trkpt>
      <trkpt lat="42.22597" lon="8.97877">
        <ele>1579.4</ele>
        <time>2015-06-27T04:06:13Z</time>
      </trkpt>
      <trkpt lat="42.22598" lon="8.97874">
        <ele>1579.2</ele>
        <time>2015-06-27T04:06:15Z</time>
      </trkpt>
      <trkpt lat="42.226" lon="8.97873">
        <ele>1579</ele>
        <time>2015-06-27T04:06:17Z</time>
      </trkpt>
      <trkpt lat="42.22601" lon="8.97871">
        <ele>1579</ele>
        <time>2015-06-27T04:06:19Z</time>
      </trkpt>
      <trkpt lat="42.22602" lon="8.9787">
        <ele>1578.6</ele>
        <time>2015-06-27T04:06:21Z</time>
      </trkpt>
      <trkpt lat="42.22603" lon="8.97868">
        <ele>1578.4</ele>
        <time>2015-06-27T04:06:23Z</time>
      </trkpt>
      <trkpt lat="42.22607" lon="8.97867">
        <ele>1578.2</ele>
        <time>2015-06-27T04:06:27Z</time>
      </trkpt>
      <trkpt lat="42.22612" lon="8.97861">
        <ele>1577.4</ele>
        <time>2015-06-27T04:06:35Z</time>
      </trkpt>
      <trkpt lat="42.22613" lon="8.97859">
        <ele>1577</ele>
        <time>2015-06-27T04:06:37Z</time>
      </trkpt>
      <trkpt lat="42.22614" lon="8.97856">
        <ele>1576.6</ele>
        <time>2015-06-27T04:06:40Z</time>
      </trkpt>
      <trkpt lat="42.22616" lon="8.97855">
        <ele>1576.4</ele>
        <time>2015-06-27T04:06:42Z</time>
      </trkpt>
      <trkpt lat="42.2262" lon="8.97853">
        <ele>1575.8</ele>
        <time>2015-06-27T04:06:45Z</time>
      </trkpt>
      <trkpt lat="42.22626" lon="8.97855">
        <ele>1575</ele>
        <time>2015-06-27T04:06:51Z</time>
      </trkpt>
      <trkpt lat="42.22632" lon="8.97853">
        <ele>1574.6</ele>
        <time>2015-06-27T04:06:56Z</time>
      </trkpt>
      <trkpt lat="42.22634" lon="8.97851">
        <ele>1574</ele>
        <time>2015-06-27T04:06:58Z</time>
      </trkpt>
      <trkpt lat="42.22636" lon="8.9785">
        <ele>1573.8</ele>
        <time>2015-06-27T04:07:00Z</time>
      </trkpt>
      <trkpt lat="42.22641" lon="8.97851">
        <ele>1573.6</ele>
        <time>2015-06-27T04:07:05Z</time>
      </trkpt>
      <trkpt lat="42.22665" lon="8.9785">
        <ele>1573</ele>
        <time>2015-06-27T04:07:30Z</time>
      </trkpt>
      <trkpt lat="42.22667" lon="8.97849">
        <ele>1573</ele>
        <time>2015-06-27T04:07:33Z</time>
      </trkpt>
      <trkpt lat="42.22668" lon="8.97847">
        <ele>1573</ele>
        <time>2015-06-27T04:07:35Z</time>
      </trkpt>
      <trkpt lat="42.2267" lon="8.97847">
        <ele>1573</ele>
        <time>2015-06-27T04:07:37Z</time>
      </trkpt>
      <trkpt lat="42.22674" lon="8.97843">
        <ele>1572.8</ele>
        <time>2015-06-27T04:07:44Z</time>
      </trkpt>
      <trkpt lat="42.22681" lon="8.97831">
        <ele>1571.4</ele>
        <time>2015-06-27T04:08:09Z</time>
      </trkpt>
      <trkpt lat="42.22683" lon="8.9783">
        <ele>1571.4</ele>
        <time>2015-06-27T04:08:13Z</time>
      </trkpt>
      <trkpt lat="42.22688" lon="8.97828">
        <ele>1570</ele>
        <time>2015-06-27T04:08:22Z</time>
      </trkpt>
      <trkpt lat="42.22688" lon="8.97829">
        <ele>1569.8</ele>
        <time>2015-06-27T04:08:23Z</time>
      </trkpt>
      <trkpt lat="42.22691" lon="8.97831">
        <ele>1569</ele>
        <time>2015-06-27T04:08:30Z</time>
      </trkpt>
      <trkpt lat="42.22696" lon="8.97828">
        <ele>1567.8</ele>
        <time>2015-06-27T04:08:37Z</time>
      </trkpt>
      <trkpt lat="42.22699" lon="8.97824">
        <ele>1566.6</ele>
        <time>2015-06-27T04:08:44Z</time>
      </trkpt>
      <trkpt lat="42.22703" lon="8.97821">
        <ele>1565.8</ele>
        <time>2015-06-27T04:08:51Z</time>
      </trkpt>
      <trkpt lat="42.22706" lon="8.97817">
        <ele>1564.8</ele>
        <time>2015-06-27T04:08:57Z</time>
      </trkpt>
      <trkpt lat="42.22709" lon="8.97813">
        <ele>1563.8</ele>
        <time>2015-06-27T04:09:03Z</time>
      </trkpt>
      <trkpt lat="42.22712" lon="8.9781">
        <ele>1562.6</ele>
        <time>2015-06-27T04:09:09Z</time>
      </trkpt>
      <trkpt lat="42.22715" lon="8.97806">
        <ele>1561.8</ele>
        <time>2015-06-27T04:09:14Z</time>
      </trkpt>
      <trkpt lat="42.22717" lon="8.97802">
        <ele>1560.8</ele>
        <time>2015-06-27T04:09:19Z</time>
      </trkpt>
      <trkpt lat="42.22723" lon="8.978">
        <ele>1559</ele>
        <time>2015-06-27T04:09:27Z</time>
      </trkpt>
      <trkpt lat="42.22729" lon="8.97798">
        <ele>1558.4</ele>
        <time>2015-06-27T04:09:33Z</time>
      </trkpt>
      <trkpt lat="42.22741" lon="8.97795">
        <ele>1557</ele>
        <time>2015-06-27T04:09:44Z</time>
      </trkpt>
      <trkpt lat="42.22747" lon="8.97792">
        <ele>1556.4</ele>
        <time>2015-06-27T04:09:51Z</time>
      </trkpt>
      <trkpt lat="42.22752" lon="8.97791">
        <ele>1556</ele>
        <time>2015-06-27T04:09:56Z</time>
      </trkpt>
      <trkpt lat="42.22761" lon="8.97788">
        <ele>1555</ele>
        <time>2015-06-27T04:10:06Z</time>
      </trkpt>
      <trkpt lat="42.22762" lon="8.97787">
        <ele>1555</ele>
        <time>2015-06-27T04:10:07Z</time>
      </trkpt>
      <trkpt lat="42.22765" lon="8.97787">
        <ele>1554.6</ele>
        <time>2015-06-27T04:10:11Z</time>
      </trkpt>
      <trkpt lat="42.2277" lon="8.97788">
        <ele>1554</ele>
        <time>2015-06-27T04:10:15Z</time>
      </trkpt>
      <trkpt lat="42.22771" lon="8.97788">
        <ele>1554</ele>
        <time>2015-06-27T04:10:16Z</time>
      </trkpt>
      <trkpt lat="42.22775" lon="8.97789">
        <ele>1553.6</ele>
        <time>2015-06-27T04:10:21Z</time>
      </trkpt>
      <trkpt lat="42.22777" lon="8.97787">
        <ele>1553.2</ele>
        <time>2015-06-27T04:10:24Z</time>
      </trkpt>
      <trkpt lat="42.22779" lon="8.97783">
        <ele>1553</ele>
        <time>2015-06-27T04:10:27Z</time>
      </trkpt>
      <trkpt lat="42.22783" lon="8.97778">
        <ele>1552.6</ele>
        <time>2015-06-27T04:10:32Z</time>
      </trkpt>
      <trkpt lat="42.22784" lon="8.97778">
        <ele>1552.4</ele>
        <time>2015-06-27T04:10:33Z</time>
      </trkpt>
      <trkpt lat="42.22803" lon="8.97777">
        <ele>1550.6</ele>
        <time>2015-06-27T04:10:51Z</time>
      </trkpt>
      <trkpt lat="42.22829" lon="8.97781">
        <ele>1550.4</ele>
        <time>2015-06-27T04:11:15Z</time>
      </trkpt>
      <trkpt lat="42.22873" lon="8.97776">
        <ele>1550</ele>
        <time>2015-06-27T04:11:56Z</time>
      </trkpt>
      <trkpt lat="42.22884" lon="8.97771">
        <ele>1550</ele>
        <time>2015-06-27T04:12:07Z</time>
      </trkpt>
      <trkpt lat="42.22921" lon="8.97769">
        <ele>1549.6</ele>
        <time>2015-06-27T04:12:41Z</time>
      </trkpt>
      <trkpt lat="42.22922" lon="8.97769">
        <ele>1549.6</ele>
        <time>2015-06-27T04:12:42Z</time>
      </trkpt>
      <trkpt lat="42.22964" lon="8.97765">
        <ele>1549.4</ele>
        <time>2015-06-27T04:13:20Z</time>
      </trkpt>
      <trkpt lat="42.22967" lon="8.97766">
        <ele>1549.4</ele>
        <time>2015-06-27T04:13:23Z</time>
      </trkpt>
      <trkpt lat="42.22977" lon="8.97768">
        <ele>1549.2</ele>
        <time>2015-06-27T04:13:32Z</time>
      </trkpt>
      <trkpt lat="42.22998" lon="8.9777">
        <ele>1549.8</ele>
        <time>2015-06-27T04:13:52Z</time>
      </trkpt>
      <trkpt lat="42.23003" lon="8.9777">
        <ele>1549.8</ele>
        <time>2015-06-27T04:13:56Z</time>
      </trkpt>
      <trkpt lat="42.23011" lon="8.97772">
        <ele>1549.8</ele>
        <time>2015-06-27T04:14:04Z</time>
      </trkpt>
      <trkpt lat="42.23021" lon="8.97772">
        <ele>1549.8</ele>
        <time>2015-06-27T04:14:14Z</time>
      </trkpt>
      <trkpt lat="42.23022" lon="8.97772">
        <ele>1549.8</ele>
        <time>2015-06-27T04:14:16Z</time>
      </trkpt>
      <trkpt lat="42.23027" lon="8.9777">
        <ele>1549.8</ele>
        <time>2015-06-27T04:14:21Z</time>
      </trkpt>
      <trkpt lat="42.23039" lon="8.97761">
        <ele>1549.8</ele>
        <time>2015-06-27T04:14:33Z</time>
      </trkpt>
      <trkpt lat="42.2306" lon="8.97749">
        <ele>1549.6</ele>
        <time>2015-06-27T04:14:57Z</time>
      </trkpt>
      <trkpt lat="42.23062" lon="8.9775">
        <ele>1549.6</ele>
        <time>2015-06-27T04:14:59Z</time>
      </trkpt>
      <trkpt lat="42.23071" lon="8.97743">
        <ele>1549.6</ele>
        <time>2015-06-27T04:15:25Z</time>
      </trkpt>
      <trkpt lat="42.23112" lon="8.97718">
        <ele>1548.8</ele>
        <time>2015-06-27T04:16:05Z</time>
      </trkpt>
      <trkpt lat="42.23117" lon="8.97717">
        <ele>1548.8</ele>
        <time>2015-06-27T04:16:09Z</time>
      </trkpt>
      <trkpt lat="42.23118" lon="8.97717">
        <ele>1548.6</ele>
        <time>2015-06-27T04:16:10Z</time>
      </trkpt>
      <trkpt lat="42.23145" lon="8.97708">
        <ele>1547.6</ele>
        <time>2015-06-27T04:16:33Z</time>
      </trkpt>
      <trkpt lat="42.23163" lon="8.97696">
        <ele>1547.4</ele>
        <time>2015-06-27T04:16:51Z</time>
      </trkpt>
      <trkpt lat="42.23183" lon="8.97676">
        <ele>1547.4</ele>
        <time>2015-06-27T04:17:13Z</time>
      </trkpt>
      <trkpt lat="42.23204" lon="8.97656">
        <ele>1547.4</ele>
        <time>2015-06-27T04:17:36Z</time>
      </trkpt>
      <trkpt lat="42.23247" lon="8.97634">
        <ele>1547.6</ele>
        <time>2015-06-27T04:18:19Z</time>
      </trkpt>
      <trkpt lat="42.23275" lon="8.97626">
        <ele>1547.6</ele>
        <time>2015-06-27T04:18:46Z</time>
      </trkpt>
      <trkpt lat="42.23319" lon="8.97614">
        <ele>1547.8</ele>
        <time>2015-06-27T04:19:26Z</time>
      </trkpt>
      <trkpt lat="42.23362" lon="8.97596">
        <ele>1548.4</ele>
        <time>2015-06-27T04:20:09Z</time>
      </trkpt>
      <trkpt lat="42.23368" lon="8.97593">
        <ele>1548.4</ele>
        <time>2015-06-27T04:20:15Z</time>
      </trkpt>
      <trkpt lat="42.23391" lon="8.97578">
        <ele>1548.8</ele>
        <time>2015-06-27T04:20:40Z</time>
      </trkpt>
      <trkpt lat="42.23405" lon="8.97576">
        <ele>1549</ele>
        <time>2015-06-27T04:20:54Z</time>
      </trkpt>
      <trkpt lat="42.23416" lon="8.97574">
        <ele>1548.4</ele>
        <time>2015-06-27T04:21:06Z</time>
      </trkpt>
      <trkpt lat="42.23418" lon="8.9757">
        <ele>1548.2</ele>
        <time>2015-06-27T04:21:10Z</time>
      </trkpt>
      <trkpt lat="42.23424" lon="8.97562">
        <ele>1548</ele>
        <time>2015-06-27T04:21:20Z</time>
      </trkpt>
      <trkpt lat="42.23436" lon="8.97557">
        <ele>1548.6</ele>
        <time>2015-06-27T04:21:33Z</time>
      </trkpt>
      <trkpt lat="42.23439" lon="8.97557">
        <ele>1548.8</ele>
        <time>2015-06-27T04:21:36Z</time>
      </trkpt>
      <trkpt lat="42.23443" lon="8.97556">
        <ele>1549.2</ele>
        <time>2015-06-27T04:21:40Z</time>
      </trkpt>
      <trkpt lat="42.23446" lon="8.97549">
        <ele>1550</ele>
        <time>2015-06-27T04:21:54Z</time>
      </trkpt>
      <trkpt lat="42.23448" lon="8.97548">
        <ele>1550</ele>
        <time>2015-06-27T04:21:57Z</time>
      </trkpt>
      <trkpt lat="42.2345" lon="8.97546">
        <ele>1550.2</ele>
        <time>2015-06-27T04:22:00Z</time>
      </trkpt>
      <trkpt lat="42.23457" lon="8.97543">
        <ele>1550.4</ele>
        <time>2015-06-27T04:22:08Z</time>
      </trkpt>
      <trkpt lat="42.23466" lon="8.97544">
        <ele>1551</ele>
        <time>2015-06-27T04:22:17Z</time>
      </trkpt>
      <trkpt lat="42.2347" lon="8.97543">
        <ele>1551</ele>
        <time>2015-06-27T04:22:22Z</time>
      </trkpt>
      <trkpt lat="42.23474" lon="8.9754">
        <ele>1551.2</ele>
        <time>2015-06-27T04:22:27Z</time>
      </trkpt>
      <trkpt lat="42.2348" lon="8.97537">
        <ele>1551.6</ele>
        <time>2015-06-27T04:22:34Z</time>
      </trkpt>
      <trkpt lat="42.23485" lon="8.97536">
        <ele>1552</ele>
        <time>2015-06-27T04:22:40Z</time>
      </trkpt>
      <trkpt lat="42.23489" lon="8.97534">
        <ele>1552.4</ele>
        <time>2015-06-27T04:22:45Z</time>
      </trkpt>
      <trkpt lat="42.23495" lon="8.97532">
        <ele>1552.6</ele>
        <time>2015-06-27T04:22:51Z</time>
      </trkpt>
      <trkpt lat="42.23502" lon="8.97529">
        <ele>1553.8</ele>
        <time>2015-06-27T04:22:59Z</time>
      </trkpt>
      <trkpt lat="42.23502" lon="8.97527">
        <ele>1553.8</ele>
        <time>2015-06-27T04:23:01Z</time>
      </trkpt>
      <trkpt lat="42.23502" lon="8.97526">
        <ele>1554</ele>
        <time>2015-06-27T04:23:02Z</time>
      </trkpt>
      <trkpt lat="42.23507" lon="8.97519">
        <ele>1555</ele>
        <time>2015-06-27T04:23:13Z</time>
      </trkpt>
      <trkpt lat="42.23514" lon="8.97511">
        <ele>1556.2</ele>
        <time>2015-06-27T04:23:24Z</time>
      </trkpt>
      <trkpt lat="42.23518" lon="8.97507">
        <ele>1557</ele>
        <time>2015-06-27T04:23:33Z</time>
      </trkpt>
      <trkpt lat="42.23522" lon="8.97502">
        <ele>1558</ele>
        <time>2015-06-27T04:23:41Z</time>
      </trkpt>
      <trkpt lat="42.2353" lon="8.975">
        <ele>1559.6</ele>
        <time>2015-06-27T04:23:54Z</time>
      </trkpt>
      <trkpt lat="42.23534" lon="8.97499">
        <ele>1560.6</ele>
        <time>2015-06-27T04:24:03Z</time>
      </trkpt>
      <trkpt lat="42.23537" lon="8.97496">
        <ele>1561.2</ele>
        <time>2015-06-27T04:24:10Z</time>
      </trkpt>
      <trkpt lat="42.23541" lon="8.97494">
        <ele>1562.8</ele>
        <time>2015-06-27T04:24:21Z</time>
      </trkpt>
      <trkpt lat="42.23547" lon="8.97491">
        <ele>1564</ele>
        <time>2015-06-27T04:24:35Z</time>
      </trkpt>
      <trkpt lat="42.23552" lon="8.97486">
        <ele>1564.8</ele>
        <time>2015-06-27T04:24:45Z</time>
      </trkpt>
      <trkpt lat="42.23558" lon="8.97484">
        <ele>1565.8</ele>
        <time>2015-06-27T04:24:57Z</time>
      </trkpt>
      <trkpt lat="42.23564" lon="8.97485">
        <ele>1566.8</ele>
        <time>2015-06-27T04:25:07Z</time>
      </trkpt>
      <trkpt lat="42.2357" lon="8.97481">
        <ele>1567.8</ele>
        <time>2015-06-27T04:25:17Z</time>
      </trkpt>
      <trkpt lat="42.23577" lon="8.97481">
        <ele>1569.4</ele>
        <time>2015-06-27T04:25:29Z</time>
      </trkpt>
      <trkpt lat="42.23582" lon="8.97479">
        <ele>1570.4</ele>
        <time>2015-06-27T04:25:39Z</time>
      </trkpt>
      <trkpt lat="42.23586" lon="8.97478">
        <ele>1571.2</ele>
        <time>2015-06-27T04:25:49Z</time>
      </trkpt>
      <trkpt lat="42.2359" lon="8.97477">
        <ele>1572</ele>
        <time>2015-06-27T04:25:56Z</time>
      </trkpt>
      <trkpt lat="42.23592" lon="8.97474">
        <ele>1573.6</ele>
        <time>2015-06-27T04:26:06Z</time>
      </trkpt>
      <trkpt lat="42.23595" lon="8.97471">
        <ele>1574.6</ele>
        <time>2015-06-27T04:26:14Z</time>
      </trkpt>
      <trkpt lat="42.23603" lon="8.97474">
        <ele>1576</ele>
        <time>2015-06-27T04:26:33Z</time>
      </trkpt>
      <trkpt lat="42.23608" lon="8.97475">
        <ele>1577</ele>
        <time>2015-06-27T04:26:43Z</time>
      </trkpt>
      <trkpt lat="42.23615" lon="8.97475">
        <ele>1577.8</ele>
        <time>2015-06-27T04:26:54Z</time>
      </trkpt>
      <trkpt lat="42.23618" lon="8.97472">
        <ele>1579</ele>
        <time>2015-06-27T04:27:02Z</time>
      </trkpt>
      <trkpt lat="42.23621" lon="8.9747">
        <ele>1579.6</ele>
        <time>2015-06-27T04:27:08Z</time>
      </trkpt>
      <trkpt lat="42.23623" lon="8.97464">
        <ele>1581.2</ele>
        <time>2015-06-27T04:27:18Z</time>
      </trkpt>
      <trkpt lat="42.23627" lon="8.97461">
        <ele>1582</ele>
        <time>2015-06-27T04:27:27Z</time>
      </trkpt>
      <trkpt lat="42.2363" lon="8.97458">
        <ele>1583.2</ele>
        <time>2015-06-27T04:27:34Z</time>
      </trkpt>
      <trkpt lat="42.23634" lon="8.97457">
        <ele>1584.4</ele>
        <time>2015-06-27T04:27:42Z</time>
      </trkpt>
      <trkpt lat="42.23637" lon="8.9745">
        <ele>1586</ele>
        <time>2015-06-27T04:27:52Z</time>
      </trkpt>
      <trkpt lat="42.23644" lon="8.97447">
        <ele>1586.8</ele>
        <time>2015-06-27T04:28:02Z</time>
      </trkpt>
      <trkpt lat="42.23648" lon="8.97443">
        <ele>1587.6</ele>
        <time>2015-06-27T04:28:11Z</time>
      </trkpt>
      <trkpt lat="42.23652" lon="8.97436">
        <ele>1588.8</ele>
        <time>2015-06-27T04:28:22Z</time>
      </trkpt>
      <trkpt lat="42.23656" lon="8.97438">
        <ele>1590</ele>
        <time>2015-06-27T04:28:33Z</time>
      </trkpt>
      <trkpt lat="42.23659" lon="8.97438">
        <ele>1591</ele>
        <time>2015-06-27T04:28:40Z</time>
      </trkpt>
      <trkpt lat="42.23663" lon="8.97437">
        <ele>1592</ele>
        <time>2015-06-27T04:28:47Z</time>
      </trkpt>
      <trkpt lat="42.23667" lon="8.97439">
        <ele>1593.2</ele>
        <time>2015-06-27T04:28:56Z</time>
      </trkpt>
      <trkpt lat="42.23673" lon="8.97439">
        <ele>1594.4</ele>
        <time>2015-06-27T04:29:06Z</time>
      </trkpt>
      <trkpt lat="42.23679" lon="8.97436">
        <ele>1595.4</ele>
        <time>2015-06-27T04:29:15Z</time>
      </trkpt>
      <trkpt lat="42.23683" lon="8.9743">
        <ele>1596.6</ele>
        <time>2015-06-27T04:29:25Z</time>
      </trkpt>
      <trkpt lat="42.2369" lon="8.97426">
        <ele>1597.8</ele>
        <time>2015-06-27T04:29:39Z</time>
      </trkpt>
      <trkpt lat="42.23694" lon="8.97425">
        <ele>1598.6</ele>
        <time>2015-06-27T04:29:52Z</time>
      </trkpt>
      <trkpt lat="42.23694" lon="8.97425">
        <ele>1598.8</ele>
        <time>2015-06-27T04:29:57Z</time>
      </trkpt>
      <trkpt lat="42.23704" lon="8.9743">
        <ele>1600.2</ele>
        <time>2015-06-27T04:30:32Z</time>
      </trkpt>
      <trkpt lat="42.23709" lon="8.97432">
        <ele>1600.8</ele>
        <time>2015-06-27T04:30:39Z</time>
      </trkpt>
      <trkpt lat="42.23711" lon="8.97429">
        <ele>1601.4</ele>
        <time>2015-06-27T04:30:44Z</time>
      </trkpt>
      <trkpt lat="42.23715" lon="8.97422">
        <ele>1603</ele>
        <time>2015-06-27T04:30:51Z</time>
      </trkpt>
      <trkpt lat="42.23717" lon="8.97424">
        <ele>1603.2</ele>
        <time>2015-06-27T04:30:54Z</time>
      </trkpt>
      <trkpt lat="42.23718" lon="8.97428">
        <ele>1603.4</ele>
        <time>2015-06-27T04:30:58Z</time>
      </trkpt>
      <trkpt lat="42.23718" lon="8.9743">
        <ele>1603.6</ele>
        <time>2015-06-27T04:31:00Z</time>
      </trkpt>
      <trkpt lat="42.23717" lon="8.97434">
        <ele>1603.8</ele>
        <time>2015-06-27T04:31:04Z</time>
      </trkpt>
      <trkpt lat="42.23717" lon="8.97437">
        <ele>1603.8</ele>
        <time>2015-06-27T04:31:06Z</time>
      </trkpt>
      <trkpt lat="42.23719" lon="8.97439">
        <ele>1604.2</ele>
        <time>2015-06-27T04:31:09Z</time>
      </trkpt>
      <trkpt lat="42.2372" lon="8.97443">
        <ele>1604.4</ele>
        <time>2015-06-27T04:31:13Z</time>
      </trkpt>
      <trkpt lat="42.23719" lon="8.97446">
        <ele>1604.4</ele>
        <time>2015-06-27T04:31:17Z</time>
      </trkpt>
      <trkpt lat="42.23718" lon="8.97452">
        <ele>1605.8</ele>
        <time>2015-06-27T04:31:38Z</time>
      </trkpt>
      <trkpt lat="42.23729" lon="8.97462">
        <ele>1606.2</ele>
        <time>2015-06-27T04:32:14Z</time>
      </trkpt>
      <trkpt lat="42.23733" lon="8.97458">
        <ele>1606</ele>
        <time>2015-06-27T04:34:23Z</time>
      </trkpt>
      <trkpt lat="42.23733" lon="8.9746">
        <ele>1605.6</ele>
        <time>2015-06-27T04:36:17Z</time>
      </trkpt>
      <trkpt lat="42.23738" lon="8.97457">
        <ele>1605.6</ele>
        <time>2015-06-27T04:37:34Z</time>
      </trkpt>
      <trkpt lat="42.23748" lon="8.97449">
        <ele>1605</ele>
        <time>2015-06-27T04:37:47Z</time>
      </trkpt>
      <trkpt lat="42.23758" lon="8.97444">
        <ele>1604.2</ele>
        <time>2015-06-27T04:37:57Z</time>
      </trkpt>
      <trkpt lat="42.23786" lon="8.97417">
        <ele>1603</ele>
        <time>2015-06-27T04:38:30Z</time>
      </trkpt>
      <trkpt lat="42.238" lon="8.97412">
        <ele>1602.8</ele>
        <time>2015-06-27T04:38:43Z</time>
      </trkpt>
      <trkpt lat="42.23829" lon="8.97383">
        <ele>1601.8</ele>
        <time>2015-06-27T04:39:15Z</time>
      </trkpt>
      <trkpt lat="42.23832" lon="8.97382">
        <ele>1601.6</ele>
        <time>2015-06-27T04:39:18Z</time>
      </trkpt>
      <trkpt lat="42.23834" lon="8.97381">
        <ele>1601.6</ele>
        <time>2015-06-27T04:39:20Z</time>
      </trkpt>
      <trkpt lat="42.23868" lon="8.97359">
        <ele>1600.8</ele>
        <time>2015-06-27T04:39:55Z</time>
      </trkpt>
      <trkpt lat="42.23902" lon="8.97329">
        <ele>1601.4</ele>
        <time>2015-06-27T04:40:35Z</time>
      </trkpt>
      <trkpt lat="42.23909" lon="8.97325">
        <ele>1601.2</ele>
        <time>2015-06-27T04:40:41Z</time>
      </trkpt>
      <trkpt lat="42.23945" lon="8.97297">
        <ele>1602</ele>
        <time>2015-06-27T04:41:33Z</time>
      </trkpt>
      <trkpt lat="42.23954" lon="8.97292">
        <ele>1602.2</ele>
        <time>2015-06-27T04:41:42Z</time>
      </trkpt>
      <trkpt lat="42.23955" lon="8.9729">
        <ele>1602.4</ele>
        <time>2015-06-27T04:41:44Z</time>
      </trkpt>
      <trkpt lat="42.23985" lon="8.97256">
        <ele>1603</ele>
        <time>2015-06-27T04:42:26Z</time>
      </trkpt>
      <trkpt lat="42.23985" lon="8.97253">
        <ele>1603.2</ele>
        <time>2015-06-27T04:42:29Z</time>
      </trkpt>
      <trkpt lat="42.24016" lon="8.97208">
        <ele>1603.6</ele>
        <time>2015-06-27T04:43:15Z</time>
      </trkpt>
      <trkpt lat="42.24027" lon="8.97196">
        <ele>1603</ele>
        <time>2015-06-27T04:43:31Z</time>
      </trkpt>
      <trkpt lat="42.24041" lon="8.97178">
        <ele>1602</ele>
        <time>2015-06-27T04:43:53Z</time>
      </trkpt>
      <trkpt lat="42.24046" lon="8.97172">
        <ele>1601.2</ele>
        <time>2015-06-27T04:44:01Z</time>
      </trkpt>
      <trkpt lat="42.24078" lon="8.97128">
        <ele>1601</ele>
        <time>2015-06-27T04:44:53Z</time>
      </trkpt>
      <trkpt lat="42.24091" lon="8.97116">
        <ele>1601.4</ele>
        <time>2015-06-27T04:45:10Z</time>
      </trkpt>
      <trkpt lat="42.24101" lon="8.97104">
        <ele>1602.2</ele>
        <time>2015-06-27T04:45:26Z</time>
      </trkpt>
      <trkpt lat="42.24106" lon="8.971">
        <ele>1602.6</ele>
        <time>2015-06-27T04:45:31Z</time>
      </trkpt>
      <trkpt lat="42.24116" lon="8.97093">
        <ele>1603.6</ele>
        <time>2015-06-27T04:45:43Z</time>
      </trkpt>
      <trkpt lat="42.24119" lon="8.97089">
        <ele>1604</ele>
        <time>2015-06-27T04:45:48Z</time>
      </trkpt>
      <trkpt lat="42.2415" lon="8.97046">
        <ele>1603.8</ele>
        <time>2015-06-27T04:46:34Z</time>
      </trkpt>
      <trkpt lat="42.24164" lon="8.97028">
        <ele>1604.6</ele>
        <time>2015-06-27T04:46:57Z</time>
      </trkpt>
      <trkpt lat="42.24178" lon="8.97019">
        <ele>1604.8</ele>
        <time>2015-06-27T04:47:14Z</time>
      </trkpt>
      <trkpt lat="42.24203" lon="8.96969">
        <ele>1605.8</ele>
        <time>2015-06-27T04:48:01Z</time>
      </trkpt>
      <trkpt lat="42.24205" lon="8.96963">
        <ele>1605.2</ele>
        <time>2015-06-27T04:48:06Z</time>
      </trkpt>
      <trkpt lat="42.24206" lon="8.96961">
        <ele>1605</ele>
        <time>2015-06-27T04:48:08Z</time>
      </trkpt>
      <trkpt lat="42.24213" lon="8.96948">
        <ele>1603.8</ele>
        <time>2015-06-27T04:48:21Z</time>
      </trkpt>
      <trkpt lat="42.24224" lon="8.9693">
        <ele>1602.6</ele>
        <time>2015-06-27T04:48:37Z</time>
      </trkpt>
      <trkpt lat="42.24229" lon="8.96914">
        <ele>1601.4</ele>
        <time>2015-06-27T04:48:50Z</time>
      </trkpt>
      <trkpt lat="42.24236" lon="8.969">
        <ele>1603</ele>
        <time>2015-06-27T04:49:17Z</time>
      </trkpt>
      <trkpt lat="42.24248" lon="8.96877">
        <ele>1603</ele>
        <time>2015-06-27T04:49:45Z</time>
      </trkpt>
      <trkpt lat="42.24257" lon="8.96869">
        <ele>1602.6</ele>
        <time>2015-06-27T04:49:56Z</time>
      </trkpt>
      <trkpt lat="42.24274" lon="8.96845">
        <ele>1601.4</ele>
        <time>2015-06-27T04:50:24Z</time>
      </trkpt>
      <trkpt lat="42.24296" lon="8.96816">
        <ele>1601.6</ele>
        <time>2015-06-27T04:51:05Z</time>
      </trkpt>
      <trkpt lat="42.24308" lon="8.96815">
        <ele>1602</ele>
        <time>2015-06-27T04:51:20Z</time>
      </trkpt>
      <trkpt lat="42.2431" lon="8.96814">
        <ele>1602</ele>
        <time>2015-06-27T04:51:22Z</time>
      </trkpt>
      <trkpt lat="42.24321" lon="8.96802">
        <ele>1602.4</ele>
        <time>2015-06-27T04:51:40Z</time>
      </trkpt>
      <trkpt lat="42.24343" lon="8.96778">
        <ele>1603.4</ele>
        <time>2015-06-27T04:52:06Z</time>
      </trkpt>
      <trkpt lat="42.24345" lon="8.96773">
        <ele>1603.4</ele>
        <time>2015-06-27T04:52:10Z</time>
      </trkpt>
      <trkpt lat="42.24351" lon="8.96764">
        <ele>1603.6</ele>
        <time>2015-06-27T04:52:17Z</time>
      </trkpt>
      <trkpt lat="42.24352" lon="8.96761">
        <ele>1603.6</ele>
        <time>2015-06-27T04:52:19Z</time>
      </trkpt>
      <trkpt lat="42.24354" lon="8.96759">
        <ele>1603.6</ele>
        <time>2015-06-27T04:52:21Z</time>
      </trkpt>
      <trkpt lat="42.24358" lon="8.96752">
        <ele>1603.4</ele>
        <time>2015-06-27T04:52:27Z</time>
      </trkpt>
      <trkpt lat="42.24361" lon="8.96748">
        <ele>1603.4</ele>
        <time>2015-06-27T04:52:30Z</time>
      </trkpt>
      <trkpt lat="42.24365" lon="8.9674">
        <ele>1603.6</ele>
        <time>2015-06-27T04:52:37Z</time>
      </trkpt>
      <trkpt lat="42.24367" lon="8.96727">
        <ele>1603.8</ele>
        <time>2015-06-27T04:52:45Z</time>
      </trkpt>
      <trkpt lat="42.24371" lon="8.96722">
        <ele>1603.8</ele>
        <time>2015-06-27T04:52:50Z</time>
      </trkpt>
      <trkpt lat="42.24374" lon="8.96717">
        <ele>1603.8</ele>
        <time>2015-06-27T04:52:55Z</time>
      </trkpt>
      <trkpt lat="42.24377" lon="8.96712">
        <ele>1603.8</ele>
        <time>2015-06-27T04:52:59Z</time>
      </trkpt>
      <trkpt lat="42.244" lon="8.96683">
        <ele>1603.6</ele>
        <time>2015-06-27T04:53:30Z</time>
      </trkpt>
      <trkpt lat="42.24411" lon="8.96663">
        <ele>1603.8</ele>
        <time>2015-06-27T04:53:47Z</time>
      </trkpt>
      <trkpt lat="42.24415" lon="8.96658">
        <ele>1604</ele>
        <time>2015-06-27T04:53:52Z</time>
      </trkpt>
      <trkpt lat="42.24417" lon="8.96653">
        <ele>1604</ele>
        <time>2015-06-27T04:53:56Z</time>
      </trkpt>
      <trkpt lat="42.24425" lon="8.96647">
        <ele>1603.8</ele>
        <time>2015-06-27T04:54:04Z</time>
      </trkpt>
      <trkpt lat="42.24429" lon="8.96644">
        <ele>1603.8</ele>
        <time>2015-06-27T04:54:08Z</time>
      </trkpt>
      <trkpt lat="42.2443" lon="8.96642">
        <ele>1604</ele>
        <time>2015-06-27T04:54:10Z</time>
      </trkpt>
      <trkpt lat="42.24431" lon="8.96642">
        <ele>1603.6</ele>
        <time>2015-06-27T04:54:11Z</time>
      </trkpt>
      <trkpt lat="42.24434" lon="8.96638">
        <ele>1603.6</ele>
        <time>2015-06-27T04:54:16Z</time>
      </trkpt>
      <trkpt lat="42.24461" lon="8.96595">
        <ele>1604.4</ele>
        <time>2015-06-27T04:55:04Z</time>
      </trkpt>
      <trkpt lat="42.24474" lon="8.96585">
        <ele>1604.2</ele>
        <time>2015-06-27T04:55:16Z</time>
      </trkpt>
      <trkpt lat="42.24504" lon="8.96563">
        <ele>1605.2</ele>
        <time>2015-06-27T04:55:50Z</time>
      </trkpt>
      <trkpt lat="42.24505" lon="8.96562">
        <ele>1605.2</ele>
        <time>2015-06-27T04:55:51Z</time>
      </trkpt>
      <trkpt lat="42.24517" lon="8.96552">
        <ele>1606.2</ele>
        <time>2015-06-27T04:56:06Z</time>
      </trkpt>
      <trkpt lat="42.24542" lon="8.96518">
        <ele>1607.2</ele>
        <time>2015-06-27T04:56:38Z</time>
      </trkpt>
      <trkpt lat="42.24548" lon="8.96477">
        <ele>1608</ele>
        <time>2015-06-27T04:57:19Z</time>
      </trkpt>
      <trkpt lat="42.24562" lon="8.96454">
        <ele>1609.2</ele>
        <time>2015-06-27T04:57:43Z</time>
      </trkpt>
      <trkpt lat="42.24564" lon="8.96448">
        <ele>1609.6</ele>
        <time>2015-06-27T04:57:50Z</time>
      </trkpt>
      <trkpt lat="42.24568" lon="8.96442">
        <ele>1610.8</ele>
        <time>2015-06-27T04:57:58Z</time>
      </trkpt>
      <trkpt lat="42.24574" lon="8.96433">
        <ele>1611.8</ele>
        <time>2015-06-27T04:58:07Z</time>
      </trkpt>
      <trkpt lat="42.24579" lon="8.96422">
        <ele>1613</ele>
        <time>2015-06-27T04:58:18Z</time>
      </trkpt>
      <trkpt lat="42.24598" lon="8.96406">
        <ele>1614.2</ele>
        <time>2015-06-27T04:58:39Z</time>
      </trkpt>
      <trkpt lat="42.24619" lon="8.96386">
        <ele>1615.6</ele>
        <time>2015-06-27T04:59:11Z</time>
      </trkpt>
      <trkpt lat="42.24622" lon="8.96383">
        <ele>1615.8</ele>
        <time>2015-06-27T04:59:16Z</time>
      </trkpt>
      <trkpt lat="42.24623" lon="8.96379">
        <ele>1616</ele>
        <time>2015-06-27T04:59:21Z</time>
      </trkpt>
      <trkpt lat="42.24621" lon="8.96371">
        <ele>1617.2</ele>
        <time>2015-06-27T04:59:29Z</time>
      </trkpt>
      <trkpt lat="42.24626" lon="8.96362">
        <ele>1618.6</ele>
        <time>2015-06-27T04:59:40Z</time>
      </trkpt>
      <trkpt lat="42.24634" lon="8.96345">
        <ele>1619.6</ele>
        <time>2015-06-27T04:59:57Z</time>
      </trkpt>
      <trkpt lat="42.24641" lon="8.96333">
        <ele>1620.6</ele>
        <time>2015-06-27T05:00:10Z</time>
      </trkpt>
      <trkpt lat="42.2465" lon="8.96306">
        <ele>1622</ele>
        <time>2015-06-27T05:00:32Z</time>
      </trkpt>
      <trkpt lat="42.2466" lon="8.9629">
        <ele>1622.6</ele>
        <time>2015-06-27T05:00:50Z</time>
      </trkpt>
      <trkpt lat="42.24671" lon="8.96284">
        <ele>1623.6</ele>
        <time>2015-06-27T05:01:05Z</time>
      </trkpt>
      <trkpt lat="42.24676" lon="8.96287">
        <ele>1624.6</ele>
        <time>2015-06-27T05:01:15Z</time>
      </trkpt>
      <trkpt lat="42.24682" lon="8.96288">
        <ele>1625.4</ele>
        <time>2015-06-27T05:01:23Z</time>
      </trkpt>
      <trkpt lat="42.24689" lon="8.96285">
        <ele>1626.8</ele>
        <time>2015-06-27T05:01:32Z</time>
      </trkpt>
      <trkpt lat="42.24693" lon="8.96282">
        <ele>1627.2</ele>
        <time>2015-06-27T05:01:37Z</time>
      </trkpt>
      <trkpt lat="42.24694" lon="8.9628">
        <ele>1627.4</ele>
        <time>2015-06-27T05:01:40Z</time>
      </trkpt>
      <trkpt lat="42.24703" lon="8.96268">
        <ele>1629</ele>
        <time>2015-06-27T05:02:00Z</time>
      </trkpt>
      <trkpt lat="42.24715" lon="8.96258">
        <ele>1629.6</ele>
        <time>2015-06-27T05:02:18Z</time>
      </trkpt>
      <trkpt lat="42.24726" lon="8.96263">
        <ele>1630.8</ele>
        <time>2015-06-27T05:02:33Z</time>
      </trkpt>
      <trkpt lat="42.24735" lon="8.9626">
        <ele>1631.8</ele>
        <time>2015-06-27T05:02:46Z</time>
      </trkpt>
      <trkpt lat="42.24749" lon="8.96247">
        <ele>1633.2</ele>
        <time>2015-06-27T05:03:05Z</time>
      </trkpt>
      <trkpt lat="42.24757" lon="8.96234">
        <ele>1634.2</ele>
        <time>2015-06-27T05:03:23Z</time>
      </trkpt>
      <trkpt lat="42.24763" lon="8.96229">
        <ele>1635</ele>
        <time>2015-06-27T05:03:34Z</time>
      </trkpt>
      <trkpt lat="42.24767" lon="8.96225">
        <ele>1635.6</ele>
        <time>2015-06-27T05:03:42Z</time>
      </trkpt>
      <trkpt lat="42.24775" lon="8.96225">
        <ele>1637.2</ele>
        <time>2015-06-27T05:03:54Z</time>
      </trkpt>
      <trkpt lat="42.24779" lon="8.9622">
        <ele>1638</ele>
        <time>2015-06-27T05:04:03Z</time>
      </trkpt>
      <trkpt lat="42.24781" lon="8.96216">
        <ele>1638.8</ele>
        <time>2015-06-27T05:04:10Z</time>
      </trkpt>
      <trkpt lat="42.24784" lon="8.96217">
        <ele>1639.4</ele>
        <time>2015-06-27T05:04:15Z</time>
      </trkpt>
      <trkpt lat="42.24787" lon="8.96221">
        <ele>1640.4</ele>
        <time>2015-06-27T05:04:22Z</time>
      </trkpt>
      <trkpt lat="42.24792" lon="8.96221">
        <ele>1640.8</ele>
        <time>2015-06-27T05:04:30Z</time>
      </trkpt>
      <trkpt lat="42.24796" lon="8.96222">
        <ele>1642.2</ele>
        <time>2015-06-27T05:04:40Z</time>
      </trkpt>
      <trkpt lat="42.24798" lon="8.96217">
        <ele>1643.2</ele>
        <time>2015-06-27T05:04:47Z</time>
      </trkpt>
      <trkpt lat="42.248" lon="8.96212">
        <ele>1644.4</ele>
        <time>2015-06-27T05:04:56Z</time>
      </trkpt>
      <trkpt lat="42.24802" lon="8.96208">
        <ele>1645</ele>
        <time>2015-06-27T05:05:03Z</time>
      </trkpt>
      <trkpt lat="42.24803" lon="8.96204">
        <ele>1645.8</ele>
        <time>2015-06-27T05:05:08Z</time>
      </trkpt>
      <trkpt lat="42.24808" lon="8.96203">
        <ele>1647.2</ele>
        <time>2015-06-27T05:05:19Z</time>
      </trkpt>
      <trkpt lat="42.24812" lon="8.96202">
        <ele>1647.8</ele>
        <time>2015-06-27T05:05:26Z</time>
      </trkpt>
      <trkpt lat="42.24815" lon="8.96193">
        <ele>1648.8</ele>
        <time>2015-06-27T05:05:37Z</time>
      </trkpt>
      <trkpt lat="42.2482" lon="8.96184">
        <ele>1649.8</ele>
        <time>2015-06-27T05:05:50Z</time>
      </trkpt>
      <trkpt lat="42.24825" lon="8.96177">
        <ele>1650.4</ele>
        <time>2015-06-27T05:06:04Z</time>
      </trkpt>
      <trkpt lat="42.24829" lon="8.96174">
        <ele>1651.4</ele>
        <time>2015-06-27T05:06:13Z</time>
      </trkpt>
      <trkpt lat="42.24832" lon="8.96173">
        <ele>1652.2</ele>
        <time>2015-06-27T05:06:19Z</time>
      </trkpt>
      <trkpt lat="42.24848" lon="8.96175">
        <ele>1654.4</ele>
        <time>2015-06-27T05:06:41Z</time>
      </trkpt>
      <trkpt lat="42.24856" lon="8.96173">
        <ele>1654.6</ele>
        <time>2015-06-27T05:06:55Z</time>
      </trkpt>
      <trkpt lat="42.24861" lon="8.96174">
        <ele>1655.6</ele>
        <time>2015-06-27T05:07:04Z</time>
      </trkpt>
      <trkpt lat="42.24865" lon="8.96176">
        <ele>1656.4</ele>
        <time>2015-06-27T05:07:11Z</time>
      </trkpt>
      <trkpt lat="42.24871" lon="8.96175">
        <ele>1657.6</ele>
        <time>2015-06-27T05:07:20Z</time>
      </trkpt>
      <trkpt lat="42.24877" lon="8.96176">
        <ele>1658.8</ele>
        <time>2015-06-27T05:07:30Z</time>
      </trkpt>
      <trkpt lat="42.24882" lon="8.96176">
        <ele>1659.6</ele>
        <time>2015-06-27T05:07:38Z</time>
      </trkpt>
      <trkpt lat="42.24888" lon="8.96175">
        <ele>1661</ele>
        <time>2015-06-27T05:07:50Z</time>
      </trkpt>
      <trkpt lat="42.24898" lon="8.96175">
        <ele>1662.2</ele>
        <time>2015-06-27T05:08:05Z</time>
      </trkpt>
      <trkpt lat="42.24902" lon="8.96184">
        <ele>1662.4</ele>
        <time>2015-06-27T05:08:13Z</time>
      </trkpt>
      <trkpt lat="42.2491" lon="8.96188">
        <ele>1662.6</ele>
        <time>2015-06-27T05:08:31Z</time>
      </trkpt>
      <trkpt lat="42.24914" lon="8.96191">
        <ele>1663.2</ele>
        <time>2015-06-27T05:08:36Z</time>
      </trkpt>
      <trkpt lat="42.24916" lon="8.96192">
        <ele>1664</ele>
        <time>2015-06-27T05:08:42Z</time>
      </trkpt>
      <trkpt lat="42.2492" lon="8.96192">
        <ele>1664.8</ele>
        <time>2015-06-27T05:08:50Z</time>
      </trkpt>
      <trkpt lat="42.24925" lon="8.96188">
        <ele>1665.6</ele>
        <time>2015-06-27T05:08:57Z</time>
      </trkpt>
      <trkpt lat="42.24933" lon="8.96186">
        <ele>1667.4</ele>
        <time>2015-06-27T05:09:10Z</time>
      </trkpt>
      <trkpt lat="42.24938" lon="8.96186">
        <ele>1668.2</ele>
        <time>2015-06-27T05:09:19Z</time>
      </trkpt>
      <trkpt lat="42.24941" lon="8.96185">
        <ele>1669</ele>
        <time>2015-06-27T05:09:26Z</time>
      </trkpt>
      <trkpt lat="42.24946" lon="8.96186">
        <ele>1670.2</ele>
        <time>2015-06-27T05:09:35Z</time>
      </trkpt>
      <trkpt lat="42.24952" lon="8.96194">
        <ele>1671.6</ele>
        <time>2015-06-27T05:09:46Z</time>
      </trkpt>
      <trkpt lat="42.24956" lon="8.96205">
        <ele>1672.6</ele>
        <time>2015-06-27T05:10:01Z</time>
      </trkpt>
      <trkpt lat="42.24961" lon="8.96208">
        <ele>1673.4</ele>
        <time>2015-06-27T05:10:11Z</time>
      </trkpt>
      <trkpt lat="42.24966" lon="8.96212">
        <ele>1674.4</ele>
        <time>2015-06-27T05:10:20Z</time>
      </trkpt>
      <trkpt lat="42.2497" lon="8.96211">
        <ele>1675.2</ele>
        <time>2015-06-27T05:10:28Z</time>
      </trkpt>
      <trkpt lat="42.24975" lon="8.96216">
        <ele>1676.4</ele>
        <time>2015-06-27T05:10:39Z</time>
      </trkpt>
      <trkpt lat="42.24978" lon="8.96212">
        <ele>1677.6</ele>
        <time>2015-06-27T05:10:49Z</time>
      </trkpt>
      <trkpt lat="42.24984" lon="8.9621">
        <ele>1678.6</ele>
        <time>2015-06-27T05:10:59Z</time>
      </trkpt>
      <trkpt lat="42.24985" lon="8.96211">
        <ele>1678.8</ele>
        <time>2015-06-27T05:11:02Z</time>
      </trkpt>
      <trkpt lat="42.24989" lon="8.96208">
        <ele>1679.4</ele>
        <time>2015-06-27T05:11:10Z</time>
      </trkpt>
      <trkpt lat="42.24993" lon="8.96208">
        <ele>1680.6</ele>
        <time>2015-06-27T05:11:17Z</time>
      </trkpt>
      <trkpt lat="42.25001" lon="8.9621">
        <ele>1682</ele>
        <time>2015-06-27T05:11:30Z</time>
      </trkpt>
      <trkpt lat="42.25006" lon="8.96211">
        <ele>1683</ele>
        <time>2015-06-27T05:11:40Z</time>
      </trkpt>
      <trkpt lat="42.25009" lon="8.96213">
        <ele>1683.6</ele>
        <time>2015-06-27T05:11:47Z</time>
      </trkpt>
      <trkpt lat="42.25014" lon="8.9621">
        <ele>1685.2</ele>
        <time>2015-06-27T05:11:56Z</time>
      </trkpt>
      <trkpt lat="42.25017" lon="8.96209">
        <ele>1685.8</ele>
        <time>2015-06-27T05:12:02Z</time>
      </trkpt>
      <trkpt lat="42.25023" lon="8.96203">
        <ele>1687.2</ele>
        <time>2015-06-27T05:12:16Z</time>
      </trkpt>
      <trkpt lat="42.25027" lon="8.96201">
        <ele>1688.4</ele>
        <time>2015-06-27T05:12:26Z</time>
      </trkpt>
      <trkpt lat="42.2503" lon="8.96194">
        <ele>1689.2</ele>
        <time>2015-06-27T05:12:34Z</time>
      </trkpt>
      <trkpt lat="42.25031" lon="8.96186">
        <ele>1690.6</ele>
        <time>2015-06-27T05:12:42Z</time>
      </trkpt>
      <trkpt lat="42.25037" lon="8.96177">
        <ele>1692</ele>
        <time>2015-06-27T05:12:55Z</time>
      </trkpt>
      <trkpt lat="42.25043" lon="8.96172">
        <ele>1692.8</ele>
        <time>2015-06-27T05:13:07Z</time>
      </trkpt>
      <trkpt lat="42.25047" lon="8.96171">
        <ele>1693.8</ele>
        <time>2015-06-27T05:13:16Z</time>
      </trkpt>
      <trkpt lat="42.25051" lon="8.96171">
        <ele>1694.6</ele>
        <time>2015-06-27T05:13:23Z</time>
      </trkpt>
      <trkpt lat="42.25055" lon="8.96169">
        <ele>1695.6</ele>
        <time>2015-06-27T05:13:29Z</time>
      </trkpt>
      <trkpt lat="42.25062" lon="8.96168">
        <ele>1697.2</ele>
        <time>2015-06-27T05:13:42Z</time>
      </trkpt>
      <trkpt lat="42.25068" lon="8.96168">
        <ele>1697.8</ele>
        <time>2015-06-27T05:13:52Z</time>
      </trkpt>
      <trkpt lat="42.2507" lon="8.96166">
        <ele>1698.4</ele>
        <time>2015-06-27T05:13:56Z</time>
      </trkpt>
      <trkpt lat="42.25072" lon="8.96161">
        <ele>1700</ele>
        <time>2015-06-27T05:14:03Z</time>
      </trkpt>
      <trkpt lat="42.25077" lon="8.96154">
        <ele>1701.2</ele>
        <time>2015-06-27T05:14:16Z</time>
      </trkpt>
      <trkpt lat="42.25084" lon="8.9615">
        <ele>1702</ele>
        <time>2015-06-27T05:14:27Z</time>
      </trkpt>
      <trkpt lat="42.25086" lon="8.96144">
        <ele>1703.2</ele>
        <time>2015-06-27T05:14:36Z</time>
      </trkpt>
      <trkpt lat="42.25088" lon="8.9614">
        <ele>1704</ele>
        <time>2015-06-27T05:14:44Z</time>
      </trkpt>
      <trkpt lat="42.25089" lon="8.96133">
        <ele>1705.2</ele>
        <time>2015-06-27T05:14:52Z</time>
      </trkpt>
      <trkpt lat="42.25092" lon="8.9613">
        <ele>1706</ele>
        <time>2015-06-27T05:15:00Z</time>
      </trkpt>
      <trkpt lat="42.25094" lon="8.96125">
        <ele>1707.4</ele>
        <time>2015-06-27T05:15:09Z</time>
      </trkpt>
      <trkpt lat="42.25095" lon="8.96119">
        <ele>1708</ele>
        <time>2015-06-27T05:15:17Z</time>
      </trkpt>
      <trkpt lat="42.25099" lon="8.96115">
        <ele>1709</ele>
        <time>2015-06-27T05:15:26Z</time>
      </trkpt>
      <trkpt lat="42.251" lon="8.96109">
        <ele>1710</ele>
        <time>2015-06-27T05:15:34Z</time>
      </trkpt>
      <trkpt lat="42.25105" lon="8.96104">
        <ele>1711</ele>
        <time>2015-06-27T05:15:44Z</time>
      </trkpt>
      <trkpt lat="42.25112" lon="8.96098">
        <ele>1712.2</ele>
        <time>2015-06-27T05:15:54Z</time>
      </trkpt>
      <trkpt lat="42.25124" lon="8.96072">
        <ele>1713.4</ele>
        <time>2015-06-27T05:16:20Z</time>
      </trkpt>
      <trkpt lat="42.25128" lon="8.96061">
        <ele>1714.4</ele>
        <time>2015-06-27T05:16:33Z</time>
      </trkpt>
      <trkpt lat="42.25131" lon="8.96054">
        <ele>1715.2</ele>
        <time>2015-06-27T05:16:42Z</time>
      </trkpt>
      <trkpt lat="42.25134" lon="8.96045">
        <ele>1716.2</ele>
        <time>2015-06-27T05:16:52Z</time>
      </trkpt>
      <trkpt lat="42.25139" lon="8.96035">
        <ele>1717</ele>
        <time>2015-06-27T05:17:05Z</time>
      </trkpt>
      <trkpt lat="42.25143" lon="8.96027">
        <ele>1718</ele>
        <time>2015-06-27T05:17:16Z</time>
      </trkpt>
      <trkpt lat="42.25146" lon="8.96022">
        <ele>1718.8</ele>
        <time>2015-06-27T05:17:24Z</time>
      </trkpt>
      <trkpt lat="42.25154" lon="8.96018">
        <ele>1720.2</ele>
        <time>2015-06-27T05:17:36Z</time>
      </trkpt>
      <trkpt lat="42.25159" lon="8.96016">
        <ele>1720.8</ele>
        <time>2015-06-27T05:17:44Z</time>
      </trkpt>
      <trkpt lat="42.2516" lon="8.96016">
        <ele>1722.2</ele>
        <time>2015-06-27T05:17:57Z</time>
      </trkpt>
      <trkpt lat="42.25157" lon="8.96019">
        <ele>1722.4</ele>
        <time>2015-06-27T05:21:22Z</time>
      </trkpt>
      <trkpt lat="42.25178" lon="8.95997">
        <ele>1723.2</ele>
        <time>2015-06-27T05:22:28Z</time>
      </trkpt>
      <trkpt lat="42.25179" lon="8.95996">
        <ele>1723.2</ele>
        <time>2015-06-27T05:22:29Z</time>
      </trkpt>
      <trkpt lat="42.25215" lon="8.9596">
        <ele>1723.2</ele>
        <time>2015-06-27T05:23:13Z</time>
      </trkpt>
      <trkpt lat="42.2524" lon="8.95933">
        <ele>1723.6</ele>
        <time>2015-06-27T05:23:45Z</time>
      </trkpt>
      <trkpt lat="42.25252" lon="8.9592">
        <ele>1724.8</ele>
        <time>2015-06-27T05:24:02Z</time>
      </trkpt>
      <trkpt lat="42.25262" lon="8.9591">
        <ele>1725.6</ele>
        <time>2015-06-27T05:24:17Z</time>
      </trkpt>
      <trkpt lat="42.25268" lon="8.95901">
        <ele>1726.4</ele>
        <time>2015-06-27T05:24:28Z</time>
      </trkpt>
      <trkpt lat="42.25268" lon="8.95899">
        <ele>1726.4</ele>
        <time>2015-06-27T05:24:29Z</time>
      </trkpt>
      <trkpt lat="42.25272" lon="8.95891">
        <ele>1727.4</ele>
        <time>2015-06-27T05:24:37Z</time>
      </trkpt>
      <trkpt lat="42.25278" lon="8.95879">
        <ele>1728.6</ele>
        <time>2015-06-27T05:24:49Z</time>
      </trkpt>
      <trkpt lat="42.25287" lon="8.95855">
        <ele>1729.8</ele>
        <time>2015-06-27T05:25:09Z</time>
      </trkpt>
      <trkpt lat="42.25301" lon="8.95836">
        <ele>1729.6</ele>
        <time>2015-06-27T05:25:28Z</time>
      </trkpt>
      <trkpt lat="42.25302" lon="8.95834">
        <ele>1729.4</ele>
        <time>2015-06-27T05:25:29Z</time>
      </trkpt>
      <trkpt lat="42.25305" lon="8.95828">
        <ele>1729</ele>
        <time>2015-06-27T05:25:34Z</time>
      </trkpt>
      <trkpt lat="42.25313" lon="8.95813">
        <ele>1729</ele>
        <time>2015-06-27T05:25:46Z</time>
      </trkpt>
      <trkpt lat="42.25314" lon="8.9581">
        <ele>1728.8</ele>
        <time>2015-06-27T05:25:48Z</time>
      </trkpt>
      <trkpt lat="42.25316" lon="8.95807">
        <ele>1728.8</ele>
        <time>2015-06-27T05:25:51Z</time>
      </trkpt>
      <trkpt lat="42.25328" lon="8.95793">
        <ele>1728.6</ele>
        <time>2015-06-27T05:26:05Z</time>
      </trkpt>
      <trkpt lat="42.25363" lon="8.95756">
        <ele>1728.4</ele>
        <time>2015-06-27T05:26:45Z</time>
      </trkpt>
      <trkpt lat="42.25372" lon="8.95749">
        <ele>1728.2</ele>
        <time>2015-06-27T05:26:55Z</time>
      </trkpt>
      <trkpt lat="42.25374" lon="8.9575">
        <ele>1728</ele>
        <time>2015-06-27T05:26:57Z</time>
      </trkpt>
      <trkpt lat="42.25376" lon="8.9575">
        <ele>1728</ele>
        <time>2015-06-27T05:26:59Z</time>
      </trkpt>
      <trkpt lat="42.25378" lon="8.95751">
        <ele>1727.8</ele>
        <time>2015-06-27T05:27:01Z</time>
      </trkpt>
      <trkpt lat="42.25379" lon="8.95751">
        <ele>1727.8</ele>
        <time>2015-06-27T05:27:02Z</time>
      </trkpt>
      <trkpt lat="42.25381" lon="8.95753">
        <ele>1727.8</ele>
        <time>2015-06-27T05:27:04Z</time>
      </trkpt>
      <trkpt lat="42.25386" lon="8.9575">
        <ele>1726.8</ele>
        <time>2015-06-27T05:27:13Z</time>
      </trkpt>
      <trkpt lat="42.25387" lon="8.95746">
        <ele>1726.6</ele>
        <time>2015-06-27T05:27:18Z</time>
      </trkpt>
      <trkpt lat="42.25398" lon="8.9575">
        <ele>1726.8</ele>
        <time>2015-06-27T05:27:51Z</time>
      </trkpt>
      <trkpt lat="42.25412" lon="8.95749">
        <ele>1728.2</ele>
        <time>2015-06-27T05:28:22Z</time>
      </trkpt>
      <trkpt lat="42.2542" lon="8.95747">
        <ele>1728.6</ele>
        <time>2015-06-27T05:28:31Z</time>
      </trkpt>
      <trkpt lat="42.25421" lon="8.95747">
        <ele>1728.8</ele>
        <time>2015-06-27T05:28:33Z</time>
      </trkpt>
      <trkpt lat="42.25425" lon="8.95747">
        <ele>1728.8</ele>
        <time>2015-06-27T05:28:37Z</time>
      </trkpt>
      <trkpt lat="42.25435" lon="8.95741">
        <ele>1729.8</ele>
        <time>2015-06-27T05:28:49Z</time>
      </trkpt>
      <trkpt lat="42.25447" lon="8.95736">
        <ele>1731.2</ele>
        <time>2015-06-27T05:29:07Z</time>
      </trkpt>
      <trkpt lat="42.25467" lon="8.95761">
        <ele>1732</ele>
        <time>2015-06-27T05:29:31Z</time>
      </trkpt>
      <trkpt lat="42.25471" lon="8.95766">
        <ele>1732</ele>
        <time>2015-06-27T05:29:36Z</time>
      </trkpt>
      <trkpt lat="42.25477" lon="8.95766">
        <ele>1731.8</ele>
        <time>2015-06-27T05:29:43Z</time>
      </trkpt>
      <trkpt lat="42.25479" lon="8.95768">
        <ele>1732</ele>
        <time>2015-06-27T05:29:45Z</time>
      </trkpt>
      <trkpt lat="42.25483" lon="8.95786">
        <ele>1731.8</ele>
        <time>2015-06-27T05:29:58Z</time>
      </trkpt>
      <trkpt lat="42.25481" lon="8.95805">
        <ele>1731.6</ele>
        <time>2015-06-27T05:30:13Z</time>
      </trkpt>
      <trkpt lat="42.25482" lon="8.95806">
        <ele>1732</ele>
        <time>2015-06-27T05:30:17Z</time>
      </trkpt>
      <trkpt lat="42.25494" lon="8.95815">
        <ele>1733.2</ele>
        <time>2015-06-27T05:30:30Z</time>
      </trkpt>
      <trkpt lat="42.25501" lon="8.95819">
        <ele>1733.8</ele>
        <time>2015-06-27T05:30:38Z</time>
      </trkpt>
      <trkpt lat="42.25512" lon="8.95828">
        <ele>1735.2</ele>
        <time>2015-06-27T05:30:49Z</time>
      </trkpt>
      <trkpt lat="42.25512" lon="8.95829">
        <ele>1735.2</ele>
        <time>2015-06-27T05:30:50Z</time>
      </trkpt>
      <trkpt lat="42.25518" lon="8.95838">
        <ele>1736</ele>
        <time>2015-06-27T05:31:01Z</time>
      </trkpt>
      <trkpt lat="42.25527" lon="8.9584">
        <ele>1737.4</ele>
        <time>2015-06-27T05:31:11Z</time>
      </trkpt>
      <trkpt lat="42.25535" lon="8.9584">
        <ele>1738</ele>
        <time>2015-06-27T05:31:21Z</time>
      </trkpt>
      <trkpt lat="42.25541" lon="8.95846">
        <ele>1739.4</ele>
        <time>2015-06-27T05:31:29Z</time>
      </trkpt>
      <trkpt lat="42.25551" lon="8.95855">
        <ele>1740.6</ele>
        <time>2015-06-27T05:31:42Z</time>
      </trkpt>
      <trkpt lat="42.25556" lon="8.95855">
        <ele>1740.8</ele>
        <time>2015-06-27T05:31:47Z</time>
      </trkpt>
      <trkpt lat="42.2556" lon="8.95857">
        <ele>1741.4</ele>
        <time>2015-06-27T05:31:53Z</time>
      </trkpt>
      <trkpt lat="42.25567" lon="8.95862">
        <ele>1742.4</ele>
        <time>2015-06-27T05:32:03Z</time>
      </trkpt>
      <trkpt lat="42.25576" lon="8.95857">
        <ele>1743.2</ele>
        <time>2015-06-27T05:32:15Z</time>
      </trkpt>
      <trkpt lat="42.25582" lon="8.95862">
        <ele>1743.8</ele>
        <time>2015-06-27T05:32:24Z</time>
      </trkpt>
      <trkpt lat="42.25596" lon="8.95848">
        <ele>1745</ele>
        <time>2015-06-27T05:32:42Z</time>
      </trkpt>
      <trkpt lat="42.25602" lon="8.9584">
        <ele>1745.2</ele>
        <time>2015-06-27T05:32:52Z</time>
      </trkpt>
      <trkpt lat="42.25625" lon="8.95822">
        <ele>1745.8</ele>
        <time>2015-06-27T05:33:24Z</time>
      </trkpt>
      <trkpt lat="42.25627" lon="8.95779">
        <ele>1746.4</ele>
        <time>2015-06-27T05:34:44Z</time>
      </trkpt>
      <trkpt lat="42.25629" lon="8.95779">
        <ele>1746.6</ele>
        <time>2015-06-27T05:34:48Z</time>
      </trkpt>
      <trkpt lat="42.2563" lon="8.95774">
        <ele>1746.8</ele>
        <time>2015-06-27T05:34:53Z</time>
      </trkpt>
      <trkpt lat="42.25631" lon="8.9576">
        <ele>1748.8</ele>
        <time>2015-06-27T05:35:13Z</time>
      </trkpt>
      <trkpt lat="42.25641" lon="8.95753">
        <ele>1749.2</ele>
        <time>2015-06-27T05:35:49Z</time>
      </trkpt>
      <trkpt lat="42.25646" lon="8.95752">
        <ele>1750.2</ele>
        <time>2015-06-27T05:36:00Z</time>
      </trkpt>
      <trkpt lat="42.25647" lon="8.95748">
        <ele>1751</ele>
        <time>2015-06-27T05:36:06Z</time>
      </trkpt>
      <trkpt lat="42.25648" lon="8.95744">
        <ele>1752.2</ele>
        <time>2015-06-27T05:36:14Z</time>
      </trkpt>
      <trkpt lat="42.25652" lon="8.95775">
        <ele>1752.4</ele>
        <time>2015-06-27T05:38:47Z</time>
      </trkpt>
      <trkpt lat="42.25656" lon="8.95778">
        <ele>1752.2</ele>
        <time>2015-06-27T05:38:52Z</time>
      </trkpt>
      <trkpt lat="42.25665" lon="8.9581">
        <ele>1753</ele>
        <time>2015-06-27T05:39:25Z</time>
      </trkpt>
      <trkpt lat="42.25662" lon="8.9582">
        <ele>1753.6</ele>
        <time>2015-06-27T05:39:34Z</time>
      </trkpt>
      <trkpt lat="42.25652" lon="8.95841">
        <ele>1754</ele>
        <time>2015-06-27T05:39:58Z</time>
      </trkpt>
      <trkpt lat="42.25645" lon="8.95862">
        <ele>1755</ele>
        <time>2015-06-27T05:40:18Z</time>
      </trkpt>
      <trkpt lat="42.25643" lon="8.95865">
        <ele>1754.8</ele>
        <time>2015-06-27T05:40:21Z</time>
      </trkpt>
      <trkpt lat="42.2564" lon="8.9587">
        <ele>1755</ele>
        <time>2015-06-27T05:40:27Z</time>
      </trkpt>
      <trkpt lat="42.25617" lon="8.95884">
        <ele>1754.6</ele>
        <time>2015-06-27T05:41:04Z</time>
      </trkpt>
      <trkpt lat="42.25618" lon="8.95871">
        <ele>1753.2</ele>
        <time>2015-06-27T05:41:23Z</time>
      </trkpt>
      <trkpt lat="42.25615" lon="8.95866">
        <ele>1752</ele>
        <time>2015-06-27T05:41:46Z</time>
      </trkpt>
      <trkpt lat="42.25615" lon="8.95859">
        <ele>1751.2</ele>
        <time>2015-06-27T05:41:56Z</time>
      </trkpt>
      <trkpt lat="42.25614" lon="8.95856">
        <ele>1750.2</ele>
        <time>2015-06-27T05:42:02Z</time>
      </trkpt>
      <trkpt lat="42.25618" lon="8.95849">
        <ele>1748.2</ele>
        <time>2015-06-27T05:42:36Z</time>
      </trkpt>
      <trkpt lat="42.25616" lon="8.95834">
        <ele>1747</ele>
        <time>2015-06-27T05:42:58Z</time>
      </trkpt>
      <trkpt lat="42.2562" lon="8.9583">
        <ele>1746.8</ele>
        <time>2015-06-27T05:43:04Z</time>
      </trkpt>
      <trkpt lat="42.25616" lon="8.95822">
        <ele>1746.2</ele>
        <time>2015-06-27T05:43:16Z</time>
      </trkpt>
      <trkpt lat="42.25615" lon="8.95815">
        <ele>1746</ele>
        <time>2015-06-27T05:43:28Z</time>
      </trkpt>
      <trkpt lat="42.25595" lon="8.95761">
        <ele>1745.8</ele>
        <time>2015-06-27T05:44:20Z</time>
      </trkpt>
      <trkpt lat="42.25584" lon="8.95732">
        <ele>1745.8</ele>
        <time>2015-06-27T05:44:46Z</time>
      </trkpt>
      <trkpt lat="42.25568" lon="8.95711">
        <ele>1747</ele>
        <time>2015-06-27T05:45:14Z</time>
      </trkpt>
      <trkpt lat="42.25546" lon="8.95688">
        <ele>1746.6</ele>
        <time>2015-06-27T05:45:43Z</time>
      </trkpt>
      <trkpt lat="42.25543" lon="8.95686">
        <ele>1746.6</ele>
        <time>2015-06-27T05:45:46Z</time>
      </trkpt>
      <trkpt lat="42.25542" lon="8.95683">
        <ele>1746.8</ele>
        <time>2015-06-27T05:45:49Z</time>
      </trkpt>
      <trkpt lat="42.2554" lon="8.9568">
        <ele>1746.6</ele>
        <time>2015-06-27T05:45:53Z</time>
      </trkpt>
      <trkpt lat="42.25535" lon="8.95667">
        <ele>1746</ele>
        <time>2015-06-27T05:46:12Z</time>
      </trkpt>
      <trkpt lat="42.25529" lon="8.95668">
        <ele>1745.8</ele>
        <time>2015-06-27T05:46:19Z</time>
      </trkpt>
      <trkpt lat="42.25523" lon="8.95662">
        <ele>1745.8</ele>
        <time>2015-06-27T05:46:26Z</time>
      </trkpt>
      <trkpt lat="42.25508" lon="8.95647">
        <ele>1746</ele>
        <time>2015-06-27T05:46:44Z</time>
      </trkpt>
      <trkpt lat="42.25506" lon="8.95645">
        <ele>1746</ele>
        <time>2015-06-27T05:46:46Z</time>
      </trkpt>
      <trkpt lat="42.25497" lon="8.95637">
        <ele>1746.2</ele>
        <time>2015-06-27T05:46:57Z</time>
      </trkpt>
      <trkpt lat="42.25463" lon="8.95597">
        <ele>1745.6</ele>
        <time>2015-06-27T05:47:37Z</time>
      </trkpt>
      <trkpt lat="42.25448" lon="8.95572">
        <ele>1745.4</ele>
        <time>2015-06-27T05:47:59Z</time>
      </trkpt>
      <trkpt lat="42.25437" lon="8.95542">
        <ele>1745</ele>
        <time>2015-06-27T05:48:21Z</time>
      </trkpt>
      <trkpt lat="42.25436" lon="8.95534">
        <ele>1745</ele>
        <time>2015-06-27T05:48:26Z</time>
      </trkpt>
      <trkpt lat="42.25424" lon="8.95518">
        <ele>1744.8</ele>
        <time>2015-06-27T05:48:42Z</time>
      </trkpt>
      <trkpt lat="42.25398" lon="8.95467">
        <ele>1744.4</ele>
        <time>2015-06-27T05:49:19Z</time>
      </trkpt>
      <trkpt lat="42.25378" lon="8.95414">
        <ele>1743.6</ele>
        <time>2015-06-27T05:49:56Z</time>
      </trkpt>
      <trkpt lat="42.25359" lon="8.95382">
        <ele>1743.4</ele>
        <time>2015-06-27T05:50:21Z</time>
      </trkpt>
      <trkpt lat="42.25359" lon="8.95381">
        <ele>1743.4</ele>
        <time>2015-06-27T05:50:22Z</time>
      </trkpt>
      <trkpt lat="42.25356" lon="8.9537">
        <ele>1743.2</ele>
        <time>2015-06-27T05:50:32Z</time>
      </trkpt>
      <trkpt lat="42.2534" lon="8.95336">
        <ele>1742.8</ele>
        <time>2015-06-27T05:50:59Z</time>
      </trkpt>
      <trkpt lat="42.25327" lon="8.95279">
        <ele>1743.2</ele>
        <time>2015-06-27T05:51:37Z</time>
      </trkpt>
      <trkpt lat="42.25325" lon="8.95266">
        <ele>1743.6</ele>
        <time>2015-06-27T05:51:46Z</time>
      </trkpt>
      <trkpt lat="42.25324" lon="8.95249">
        <ele>1743.4</ele>
        <time>2015-06-27T05:51:57Z</time>
      </trkpt>
      <trkpt lat="42.25323" lon="8.95188">
        <ele>1743.6</ele>
        <time>2015-06-27T05:52:36Z</time>
      </trkpt>
      <trkpt lat="42.25323" lon="8.95181">
        <ele>1743.8</ele>
        <time>2015-06-27T05:52:40Z</time>
      </trkpt>
      <trkpt lat="42.25325" lon="8.95153">
        <ele>1744</ele>
        <time>2015-06-27T05:52:56Z</time>
      </trkpt>
      <trkpt lat="42.25325" lon="8.95126">
        <ele>1743.8</ele>
        <time>2015-06-27T05:53:14Z</time>
      </trkpt>
      <trkpt lat="42.25324" lon="8.95126">
        <ele>1743.6</ele>
        <time>2015-06-27T05:53:16Z</time>
      </trkpt>
      <trkpt lat="42.25322" lon="8.95119">
        <ele>1743.8</ele>
        <time>2015-06-27T05:53:23Z</time>
      </trkpt>
      <trkpt lat="42.25311" lon="8.95091">
        <ele>1744.4</ele>
        <time>2015-06-27T05:53:45Z</time>
      </trkpt>
      <trkpt lat="42.25306" lon="8.95073">
        <ele>1744.2</ele>
        <time>2015-06-27T05:54:14Z</time>
      </trkpt>
      <trkpt lat="42.25298" lon="8.95013">
        <ele>1743.8</ele>
        <time>2015-06-27T05:54:53Z</time>
      </trkpt>
      <trkpt lat="42.25284" lon="8.94957">
        <ele>1743.6</ele>
        <time>2015-06-27T05:55:30Z</time>
      </trkpt>
      <trkpt lat="42.25281" lon="8.94952">
        <ele>1743.8</ele>
        <time>2015-06-27T05:55:35Z</time>
      </trkpt>
      <trkpt lat="42.25259" lon="8.94899">
        <ele>1744</ele>
        <time>2015-06-27T05:56:12Z</time>
      </trkpt>
      <trkpt lat="42.25254" lon="8.9484">
        <ele>1744.2</ele>
        <time>2015-06-27T05:56:50Z</time>
      </trkpt>
      <trkpt lat="42.25252" lon="8.94815">
        <ele>1744.4</ele>
        <time>2015-06-27T05:57:05Z</time>
      </trkpt>
      <trkpt lat="42.25253" lon="8.94755">
        <ele>1744.4</ele>
        <time>2015-06-27T05:57:41Z</time>
      </trkpt>
      <trkpt lat="42.25257" lon="8.94735">
        <ele>1744.6</ele>
        <time>2015-06-27T05:57:53Z</time>
      </trkpt>
      <trkpt lat="42.25262" lon="8.9472">
        <ele>1744.6</ele>
        <time>2015-06-27T05:58:03Z</time>
      </trkpt>
      <trkpt lat="42.25278" lon="8.94664">
        <ele>1744.6</ele>
        <time>2015-06-27T05:58:39Z</time>
      </trkpt>
      <trkpt lat="42.25288" lon="8.94642">
        <ele>1744.6</ele>
        <time>2015-06-27T05:58:55Z</time>
      </trkpt>
      <trkpt lat="42.25292" lon="8.94634">
        <ele>1744.4</ele>
        <time>2015-06-27T05:59:01Z</time>
      </trkpt>
      <trkpt lat="42.25293" lon="8.94619">
        <ele>1744.4</ele>
        <time>2015-06-27T05:59:10Z</time>
      </trkpt>
      <trkpt lat="42.25296" lon="8.94613">
        <ele>1744.2</ele>
        <time>2015-06-27T05:59:15Z</time>
      </trkpt>
      <trkpt lat="42.25323" lon="8.94582">
        <ele>1743.8</ele>
        <time>2015-06-27T05:59:46Z</time>
      </trkpt>
      <trkpt lat="42.25325" lon="8.94583">
        <ele>1743.8</ele>
        <time>2015-06-27T05:59:48Z</time>
      </trkpt>
      <trkpt lat="42.25326" lon="8.94582">
        <ele>1743.8</ele>
        <time>2015-06-27T05:59:50Z</time>
      </trkpt>
      <trkpt lat="42.25328" lon="8.9458">
        <ele>1743.6</ele>
        <time>2015-06-27T05:59:52Z</time>
      </trkpt>
      <trkpt lat="42.25335" lon="8.94567">
        <ele>1744</ele>
        <time>2015-06-27T06:00:02Z</time>
      </trkpt>
      <trkpt lat="42.25337" lon="8.94563">
        <ele>1744</ele>
        <time>2015-06-27T06:00:05Z</time>
      </trkpt>
      <trkpt lat="42.25342" lon="8.94555">
        <ele>1744.4</ele>
        <time>2015-06-27T06:00:12Z</time>
      </trkpt>
      <trkpt lat="42.25354" lon="8.94527">
        <ele>1745</ele>
        <time>2015-06-27T06:00:37Z</time>
      </trkpt>
      <trkpt lat="42.25358" lon="8.94493">
        <ele>1745.6</ele>
        <time>2015-06-27T06:00:59Z</time>
      </trkpt>
      <trkpt lat="42.25367" lon="8.94467">
        <ele>1745.6</ele>
        <time>2015-06-27T06:01:19Z</time>
      </trkpt>
      <trkpt lat="42.25367" lon="8.94466">
        <ele>1745.8</ele>
        <time>2015-06-27T06:01:20Z</time>
      </trkpt>
      <trkpt lat="42.2537" lon="8.94459">
        <ele>1746.2</ele>
        <time>2015-06-27T06:01:26Z</time>
      </trkpt>
      <trkpt lat="42.25371" lon="8.94457">
        <ele>1746</ele>
        <time>2015-06-27T06:01:28Z</time>
      </trkpt>
      <trkpt lat="42.25373" lon="8.94455">
        <ele>1746.2</ele>
        <time>2015-06-27T06:01:30Z</time>
      </trkpt>
      <trkpt lat="42.25375" lon="8.94452">
        <ele>1746</ele>
        <time>2015-06-27T06:01:38Z</time>
      </trkpt>
      <trkpt lat="42.25386" lon="8.94429">
        <ele>1745.8</ele>
        <time>2015-06-27T06:01:54Z</time>
      </trkpt>
      <trkpt lat="42.25402" lon="8.94392">
        <ele>1745.4</ele>
        <time>2015-06-27T06:02:22Z</time>
      </trkpt>
      <trkpt lat="42.25418" lon="8.9436">
        <ele>1745.8</ele>
        <time>2015-06-27T06:02:48Z</time>
      </trkpt>
      <trkpt lat="42.25424" lon="8.9435">
        <ele>1745.8</ele>
        <time>2015-06-27T06:02:57Z</time>
      </trkpt>
      <trkpt lat="42.25425" lon="8.94335">
        <ele>1745.8</ele>
        <time>2015-06-27T06:03:05Z</time>
      </trkpt>
      <trkpt lat="42.25433" lon="8.94307">
        <ele>1746</ele>
        <time>2015-06-27T06:03:26Z</time>
      </trkpt>
      <trkpt lat="42.25435" lon="8.94305">
        <ele>1746</ele>
        <time>2015-06-27T06:03:28Z</time>
      </trkpt>
      <trkpt lat="42.25438" lon="8.943">
        <ele>1746.2</ele>
        <time>2015-06-27T06:03:33Z</time>
      </trkpt>
      <trkpt lat="42.25462" lon="8.94253">
        <ele>1746.2</ele>
        <time>2015-06-27T06:04:24Z</time>
      </trkpt>
      <trkpt lat="42.25463" lon="8.94248">
        <ele>1745.8</ele>
        <time>2015-06-27T06:04:28Z</time>
      </trkpt>
      <trkpt lat="42.25465" lon="8.94236">
        <ele>1745.4</ele>
        <time>2015-06-27T06:04:39Z</time>
      </trkpt>
      <trkpt lat="42.25464" lon="8.94233">
        <ele>1745.4</ele>
        <time>2015-06-27T06:04:41Z</time>
      </trkpt>
      <trkpt lat="42.25491" lon="8.9423">
        <ele>1744.6</ele>
        <time>2015-06-27T06:05:33Z</time>
      </trkpt>
      <trkpt lat="42.25508" lon="8.94221">
        <ele>1746</ele>
        <time>2015-06-27T06:05:51Z</time>
      </trkpt>
      <trkpt lat="42.25528" lon="8.94214">
        <ele>1746.2</ele>
        <time>2015-06-27T06:06:12Z</time>
      </trkpt>
      <trkpt lat="42.2553" lon="8.94216">
        <ele>1746.2</ele>
        <time>2015-06-27T06:06:14Z</time>
      </trkpt>
      <trkpt lat="42.25543" lon="8.9421">
        <ele>1745.4</ele>
        <time>2015-06-27T06:06:26Z</time>
      </trkpt>
      <trkpt lat="42.25543" lon="8.94209">
        <ele>1745.4</ele>
        <time>2015-06-27T06:06:27Z</time>
      </trkpt>
      <trkpt lat="42.25558" lon="8.942">
        <ele>1744.8</ele>
        <time>2015-06-27T06:06:40Z</time>
      </trkpt>
      <trkpt lat="42.25562" lon="8.94198">
        <ele>1744.8</ele>
        <time>2015-06-27T06:06:44Z</time>
      </trkpt>
      <trkpt lat="42.25571" lon="8.94191">
        <ele>1745</ele>
        <time>2015-06-27T06:06:53Z</time>
      </trkpt>
      <trkpt lat="42.25587" lon="8.94172">
        <ele>1744.6</ele>
        <time>2015-06-27T06:07:11Z</time>
      </trkpt>
      <trkpt lat="42.25589" lon="8.94169">
        <ele>1744.6</ele>
        <time>2015-06-27T06:07:14Z</time>
      </trkpt>
      <trkpt lat="42.25601" lon="8.94154">
        <ele>1744</ele>
        <time>2015-06-27T06:07:29Z</time>
      </trkpt>
      <trkpt lat="42.25605" lon="8.94146">
        <ele>1744.2</ele>
        <time>2015-06-27T06:07:35Z</time>
      </trkpt>
      <trkpt lat="42.25622" lon="8.94118">
        <ele>1744</ele>
        <time>2015-06-27T06:08:00Z</time>
      </trkpt>
      <trkpt lat="42.25628" lon="8.94104">
        <ele>1744</ele>
        <time>2015-06-27T06:08:12Z</time>
      </trkpt>
      <trkpt lat="42.25648" lon="8.94052">
        <ele>1744.4</ele>
        <time>2015-06-27T06:08:59Z</time>
      </trkpt>
      <trkpt lat="42.25653" lon="8.94046">
        <ele>1744.4</ele>
        <time>2015-06-27T06:09:05Z</time>
      </trkpt>
      <trkpt lat="42.25663" lon="8.94003">
        <ele>1745.6</ele>
        <time>2015-06-27T06:09:39Z</time>
      </trkpt>
      <trkpt lat="42.25665" lon="8.93989">
        <ele>1745.4</ele>
        <time>2015-06-27T06:09:50Z</time>
      </trkpt>
      <trkpt lat="42.2567" lon="8.93976">
        <ele>1745</ele>
        <time>2015-06-27T06:09:59Z</time>
      </trkpt>
      <trkpt lat="42.25674" lon="8.93969">
        <ele>1744.6</ele>
        <time>2015-06-27T06:10:05Z</time>
      </trkpt>
      <trkpt lat="42.25678" lon="8.93964">
        <ele>1744.6</ele>
        <time>2015-06-27T06:10:11Z</time>
      </trkpt>
      <trkpt lat="42.25685" lon="8.93948">
        <ele>1744.8</ele>
        <time>2015-06-27T06:10:24Z</time>
      </trkpt>
      <trkpt lat="42.25702" lon="8.93916">
        <ele>1745.2</ele>
        <time>2015-06-27T06:10:50Z</time>
      </trkpt>
      <trkpt lat="42.25707" lon="8.9391">
        <ele>1745.4</ele>
        <time>2015-06-27T06:10:56Z</time>
      </trkpt>
      <trkpt lat="42.25707" lon="8.93909">
        <ele>1745.4</ele>
        <time>2015-06-27T06:10:57Z</time>
      </trkpt>
      <trkpt lat="42.25712" lon="8.93904">
        <ele>1745.8</ele>
        <time>2015-06-27T06:11:02Z</time>
      </trkpt>
      <trkpt lat="42.25741" lon="8.93864">
        <ele>1745.8</ele>
        <time>2015-06-27T06:11:39Z</time>
      </trkpt>
      <trkpt lat="42.25748" lon="8.93849">
        <ele>1745.8</ele>
        <time>2015-06-27T06:11:51Z</time>
      </trkpt>
      <trkpt lat="42.2576" lon="8.93837">
        <ele>1745.8</ele>
        <time>2015-06-27T06:12:05Z</time>
      </trkpt>
      <trkpt lat="42.25793" lon="8.93796">
        <ele>1746.2</ele>
        <time>2015-06-27T06:12:50Z</time>
      </trkpt>
      <trkpt lat="42.25797" lon="8.9379">
        <ele>1746.4</ele>
        <time>2015-06-27T06:12:55Z</time>
      </trkpt>
      <trkpt lat="42.25804" lon="8.93779">
        <ele>1746.6</ele>
        <time>2015-06-27T06:13:04Z</time>
      </trkpt>
      <trkpt lat="42.25805" lon="8.93774">
        <ele>1746.6</ele>
        <time>2015-06-27T06:13:08Z</time>
      </trkpt>
      <trkpt lat="42.25811" lon="8.93756">
        <ele>1746.6</ele>
        <time>2015-06-27T06:13:20Z</time>
      </trkpt>
      <trkpt lat="42.25814" lon="8.93749">
        <ele>1746.4</ele>
        <time>2015-06-27T06:13:25Z</time>
      </trkpt>
      <trkpt lat="42.25815" lon="8.93728">
        <ele>1746.4</ele>
        <time>2015-06-27T06:13:37Z</time>
      </trkpt>
      <trkpt lat="42.25817" lon="8.93717">
        <ele>1746.4</ele>
        <time>2015-06-27T06:13:44Z</time>
      </trkpt>
      <trkpt lat="42.25829" lon="8.93669">
        <ele>1746.2</ele>
        <time>2015-06-27T06:14:17Z</time>
      </trkpt>
      <trkpt lat="42.2584" lon="8.93627">
        <ele>1746.6</ele>
        <time>2015-06-27T06:14:48Z</time>
      </trkpt>
      <trkpt lat="42.25837" lon="8.93601">
        <ele>1746.8</ele>
        <time>2015-06-27T06:16:53Z</time>
      </trkpt>
      <trkpt lat="42.25836" lon="8.93604">
        <ele>1746.8</ele>
        <time>2015-06-27T06:18:06Z</time>
      </trkpt>
      <trkpt lat="42.25825" lon="8.93611">
        <ele>1746.4</ele>
        <time>2015-06-27T06:18:16Z</time>
      </trkpt>
      <trkpt lat="42.25821" lon="8.93611">
        <ele>1746</ele>
        <time>2015-06-27T06:18:19Z</time>
      </trkpt>
      <trkpt lat="42.25801" lon="8.9361">
        <ele>1744.8</ele>
        <time>2015-06-27T06:18:39Z</time>
      </trkpt>
      <trkpt lat="42.25796" lon="8.93609">
        <ele>1744.8</ele>
        <time>2015-06-27T06:18:44Z</time>
      </trkpt>
      <trkpt lat="42.25793" lon="8.93611">
        <ele>1744.6</ele>
        <time>2015-06-27T06:18:47Z</time>
      </trkpt>
      <trkpt lat="42.25784" lon="8.93619">
        <ele>1744.6</ele>
        <time>2015-06-27T06:18:56Z</time>
      </trkpt>
      <trkpt lat="42.25781" lon="8.93624">
        <ele>1744.8</ele>
        <time>2015-06-27T06:19:00Z</time>
      </trkpt>
      <trkpt lat="42.25779" lon="8.93628">
        <ele>1744.8</ele>
        <time>2015-06-27T06:19:03Z</time>
      </trkpt>
      <trkpt lat="42.25773" lon="8.93636">
        <ele>1744.6</ele>
        <time>2015-06-27T06:19:11Z</time>
      </trkpt>
      <trkpt lat="42.25767" lon="8.9364">
        <ele>1744.4</ele>
        <time>2015-06-27T06:19:17Z</time>
      </trkpt>
      <trkpt lat="42.2575" lon="8.93654">
        <ele>1744.4</ele>
        <time>2015-06-27T06:19:34Z</time>
      </trkpt>
      <trkpt lat="42.25738" lon="8.93667">
        <ele>1744.4</ele>
        <time>2015-06-27T06:19:48Z</time>
      </trkpt>
      <trkpt lat="42.25737" lon="8.93669">
        <ele>1744.4</ele>
        <time>2015-06-27T06:19:51Z</time>
      </trkpt>
      <trkpt lat="42.25722" lon="8.93672">
        <ele>1744.4</ele>
        <time>2015-06-27T06:20:13Z</time>
      </trkpt>
      <trkpt lat="42.25707" lon="8.93681">
        <ele>1744.4</ele>
        <time>2015-06-27T06:20:28Z</time>
      </trkpt>
      <trkpt lat="42.25693" lon="8.93685">
        <ele>1744.4</ele>
        <time>2015-06-27T06:20:44Z</time>
      </trkpt>
      <trkpt lat="42.25689" lon="8.9369">
        <ele>1744.6</ele>
        <time>2015-06-27T06:20:50Z</time>
      </trkpt>
      <trkpt lat="42.25688" lon="8.93692">
        <ele>1744.6</ele>
        <time>2015-06-27T06:20:52Z</time>
      </trkpt>
      <trkpt lat="42.25685" lon="8.93705">
        <ele>1746</ele>
        <time>2015-06-27T06:21:02Z</time>
      </trkpt>
      <trkpt lat="42.25684" lon="8.93713">
        <ele>1746.6</ele>
        <time>2015-06-27T06:21:09Z</time>
      </trkpt>
      <trkpt lat="42.25683" lon="8.93715">
        <ele>1746.8</ele>
        <time>2015-06-27T06:21:12Z</time>
      </trkpt>
      <trkpt lat="42.2568" lon="8.93714">
        <ele>1746.8</ele>
        <time>2015-06-27T06:21:16Z</time>
      </trkpt>
      <trkpt lat="42.25676" lon="8.93714">
        <ele>1747.8</ele>
        <time>2015-06-27T06:21:23Z</time>
      </trkpt>
      <trkpt lat="42.25671" lon="8.93718">
        <ele>1749.2</ele>
        <time>2015-06-27T06:21:32Z</time>
      </trkpt>
      <trkpt lat="42.25667" lon="8.93719">
        <ele>1750.2</ele>
        <time>2015-06-27T06:21:40Z</time>
      </trkpt>
      <trkpt lat="42.25664" lon="8.93718">
        <ele>1750.8</ele>
        <time>2015-06-27T06:21:46Z</time>
      </trkpt>
      <trkpt lat="42.2566" lon="8.93713">
        <ele>1752.4</ele>
        <time>2015-06-27T06:21:54Z</time>
      </trkpt>
      <trkpt lat="42.25653" lon="8.93717">
        <ele>1753.6</ele>
        <time>2015-06-27T06:22:05Z</time>
      </trkpt>
      <trkpt lat="42.25649" lon="8.93721">
        <ele>1754.4</ele>
        <time>2015-06-27T06:22:13Z</time>
      </trkpt>
      <trkpt lat="42.25643" lon="8.93727">
        <ele>1755.6</ele>
        <time>2015-06-27T06:22:23Z</time>
      </trkpt>
      <trkpt lat="42.25635" lon="8.93732">
        <ele>1756.8</ele>
        <time>2015-06-27T06:22:38Z</time>
      </trkpt>
      <trkpt lat="42.25635" lon="8.93732">
        <ele>1756.8</ele>
        <time>2015-06-27T06:22:41Z</time>
      </trkpt>
      <trkpt lat="42.25633" lon="8.9373">
        <ele>1757.6</ele>
        <time>2015-06-27T06:23:08Z</time>
      </trkpt>
      <trkpt lat="42.25628" lon="8.93721">
        <ele>1758.6</ele>
        <time>2015-06-27T06:23:22Z</time>
      </trkpt>
      <trkpt lat="42.25625" lon="8.93714">
        <ele>1759.6</ele>
        <time>2015-06-27T06:23:30Z</time>
      </trkpt>
      <trkpt lat="42.25621" lon="8.93707">
        <ele>1760.6</ele>
        <time>2015-06-27T06:23:38Z</time>
      </trkpt>
      <trkpt lat="42.25618" lon="8.93701">
        <ele>1761.8</ele>
        <time>2015-06-27T06:23:46Z</time>
      </trkpt>
      <trkpt lat="42.25614" lon="8.93695">
        <ele>1762.8</ele>
        <time>2015-06-27T06:23:54Z</time>
      </trkpt>
      <trkpt lat="42.25609" lon="8.93693">
        <ele>1764.2</ele>
        <time>2015-06-27T06:24:02Z</time>
      </trkpt>
      <trkpt lat="42.25603" lon="8.9369">
        <ele>1765.4</ele>
        <time>2015-06-27T06:24:11Z</time>
      </trkpt>
      <trkpt lat="42.25598" lon="8.93687">
        <ele>1766.4</ele>
        <time>2015-06-27T06:24:19Z</time>
      </trkpt>
      <trkpt lat="42.25594" lon="8.93681">
        <ele>1767.4</ele>
        <time>2015-06-27T06:24:27Z</time>
      </trkpt>
      <trkpt lat="42.25593" lon="8.93677">
        <ele>1768</ele>
        <time>2015-06-27T06:24:33Z</time>
      </trkpt>
      <trkpt lat="42.2559" lon="8.9367">
        <ele>1769.6</ele>
        <time>2015-06-27T06:24:41Z</time>
      </trkpt>
      <trkpt lat="42.25587" lon="8.93662">
        <ele>1770.6</ele>
        <time>2015-06-27T06:24:50Z</time>
      </trkpt>
      <trkpt lat="42.25579" lon="8.93655">
        <ele>1771.8</ele>
        <time>2015-06-27T06:25:02Z</time>
      </trkpt>
      <trkpt lat="42.25573" lon="8.93649">
        <ele>1772.8</ele>
        <time>2015-06-27T06:25:11Z</time>
      </trkpt>
      <trkpt lat="42.25568" lon="8.93643">
        <ele>1773.8</ele>
        <time>2015-06-27T06:25:20Z</time>
      </trkpt>
      <trkpt lat="42.25563" lon="8.93637">
        <ele>1775</ele>
        <time>2015-06-27T06:25:29Z</time>
      </trkpt>
      <trkpt lat="42.2556" lon="8.93635">
        <ele>1775.6</ele>
        <time>2015-06-27T06:25:35Z</time>
      </trkpt>
      <trkpt lat="42.25558" lon="8.93629">
        <ele>1777</ele>
        <time>2015-06-27T06:25:45Z</time>
      </trkpt>
      <trkpt lat="42.25558" lon="8.93622">
        <ele>1778.2</ele>
        <time>2015-06-27T06:25:53Z</time>
      </trkpt>
      <trkpt lat="42.25557" lon="8.93615">
        <ele>1779.6</ele>
        <time>2015-06-27T06:26:03Z</time>
      </trkpt>
      <trkpt lat="42.25554" lon="8.9361">
        <ele>1780.2</ele>
        <time>2015-06-27T06:26:10Z</time>
      </trkpt>
      <trkpt lat="42.25551" lon="8.93602">
        <ele>1781.4</ele>
        <time>2015-06-27T06:26:19Z</time>
      </trkpt>
      <trkpt lat="42.25552" lon="8.93591">
        <ele>1782.6</ele>
        <time>2015-06-27T06:26:28Z</time>
      </trkpt>
      <trkpt lat="42.25551" lon="8.93582">
        <ele>1784</ele>
        <time>2015-06-27T06:26:38Z</time>
      </trkpt>
      <trkpt lat="42.2555" lon="8.93578">
        <ele>1784.4</ele>
        <time>2015-06-27T06:26:44Z</time>
      </trkpt>
      <trkpt lat="42.25549" lon="8.93576">
        <ele>1785</ele>
        <time>2015-06-27T06:26:48Z</time>
      </trkpt>
      <trkpt lat="42.25549" lon="8.93562">
        <ele>1786</ele>
        <time>2015-06-27T06:27:02Z</time>
      </trkpt>
      <trkpt lat="42.25549" lon="8.93555">
        <ele>1786.8</ele>
        <time>2015-06-27T06:27:12Z</time>
      </trkpt>
      <trkpt lat="42.25548" lon="8.93548">
        <ele>1787.8</ele>
        <time>2015-06-27T06:27:21Z</time>
      </trkpt>
      <trkpt lat="42.25552" lon="8.93541">
        <ele>1789.2</ele>
        <time>2015-06-27T06:27:32Z</time>
      </trkpt>
      <trkpt lat="42.25556" lon="8.9353">
        <ele>1790.4</ele>
        <time>2015-06-27T06:27:47Z</time>
      </trkpt>
      <trkpt lat="42.25554" lon="8.93525">
        <ele>1790.8</ele>
        <time>2015-06-27T06:27:55Z</time>
      </trkpt>
      <trkpt lat="42.2555" lon="8.93522">
        <ele>1792</ele>
        <time>2015-06-27T06:28:03Z</time>
      </trkpt>
      <trkpt lat="42.25549" lon="8.93518">
        <ele>1793</ele>
        <time>2015-06-27T06:28:10Z</time>
      </trkpt>
      <trkpt lat="42.25553" lon="8.93512">
        <ele>1794.4</ele>
        <time>2015-06-27T06:28:19Z</time>
      </trkpt>
      <trkpt lat="42.25553" lon="8.935">
        <ele>1795.4</ele>
        <time>2015-06-27T06:28:32Z</time>
      </trkpt>
      <trkpt lat="42.25549" lon="8.93499">
        <ele>1796.2</ele>
        <time>2015-06-27T06:28:39Z</time>
      </trkpt>
      <trkpt lat="42.25548" lon="8.93498">
        <ele>1796.2</ele>
        <time>2015-06-27T06:28:42Z</time>
      </trkpt>
      <trkpt lat="42.25542" lon="8.935">
        <ele>1797.8</ele>
        <time>2015-06-27T06:28:51Z</time>
      </trkpt>
      <trkpt lat="42.25536" lon="8.935">
        <ele>1799</ele>
        <time>2015-06-27T06:29:03Z</time>
      </trkpt>
      <trkpt lat="42.25539" lon="8.93483">
        <ele>1799.8</ele>
        <time>2015-06-27T06:29:21Z</time>
      </trkpt>
      <trkpt lat="42.25541" lon="8.93476">
        <ele>1800.6</ele>
        <time>2015-06-27T06:29:30Z</time>
      </trkpt>
      <trkpt lat="42.25544" lon="8.93471">
        <ele>1801.6</ele>
        <time>2015-06-27T06:29:38Z</time>
      </trkpt>
      <trkpt lat="42.25548" lon="8.93463">
        <ele>1802.8</ele>
        <time>2015-06-27T06:29:51Z</time>
      </trkpt>
      <trkpt lat="42.2555" lon="8.93456">
        <ele>1803.8</ele>
        <time>2015-06-27T06:30:01Z</time>
      </trkpt>
      <trkpt lat="42.25553" lon="8.93447">
        <ele>1804.8</ele>
        <time>2015-06-27T06:30:13Z</time>
      </trkpt>
      <trkpt lat="42.25558" lon="8.93441">
        <ele>1806</ele>
        <time>2015-06-27T06:30:24Z</time>
      </trkpt>
      <trkpt lat="42.25556" lon="8.93431">
        <ele>1807.2</ele>
        <time>2015-06-27T06:30:39Z</time>
      </trkpt>
      <trkpt lat="42.25553" lon="8.93429">
        <ele>1807.6</ele>
        <time>2015-06-27T06:30:45Z</time>
      </trkpt>
      <trkpt lat="42.25549" lon="8.93426">
        <ele>1809.2</ele>
        <time>2015-06-27T06:30:53Z</time>
      </trkpt>
      <trkpt lat="42.25545" lon="8.93425">
        <ele>1809.8</ele>
        <time>2015-06-27T06:31:00Z</time>
      </trkpt>
      <trkpt lat="42.25543" lon="8.93423">
        <ele>1811.2</ele>
        <time>2015-06-27T06:31:08Z</time>
      </trkpt>
      <trkpt lat="42.25545" lon="8.93417">
        <ele>1812.2</ele>
        <time>2015-06-27T06:31:20Z</time>
      </trkpt>
      <trkpt lat="42.25551" lon="8.93411">
        <ele>1813.2</ele>
        <time>2015-06-27T06:31:29Z</time>
      </trkpt>
      <trkpt lat="42.25551" lon="8.93404">
        <ele>1814</ele>
        <time>2015-06-27T06:31:37Z</time>
      </trkpt>
      <trkpt lat="42.25552" lon="8.93399">
        <ele>1814.8</ele>
        <time>2015-06-27T06:31:44Z</time>
      </trkpt>
      <trkpt lat="42.25552" lon="8.93396">
        <ele>1816</ele>
        <time>2015-06-27T06:31:49Z</time>
      </trkpt>
      <trkpt lat="42.25553" lon="8.93393">
        <ele>1816.4</ele>
        <time>2015-06-27T06:31:54Z</time>
      </trkpt>
      <trkpt lat="42.25551" lon="8.93387">
        <ele>1817.2</ele>
        <time>2015-06-27T06:32:03Z</time>
      </trkpt>
      <trkpt lat="42.25546" lon="8.93379">
        <ele>1818.8</ele>
        <time>2015-06-27T06:32:15Z</time>
      </trkpt>
      <trkpt lat="42.25542" lon="8.93377">
        <ele>1819.6</ele>
        <time>2015-06-27T06:32:24Z</time>
      </trkpt>
      <trkpt lat="42.25539" lon="8.93374">
        <ele>1820.2</ele>
        <time>2015-06-27T06:32:31Z</time>
      </trkpt>
      <trkpt lat="42.25537" lon="8.93371">
        <ele>1821.4</ele>
        <time>2015-06-27T06:32:38Z</time>
      </trkpt>
      <trkpt lat="42.25531" lon="8.93371">
        <ele>1822.8</ele>
        <time>2015-06-27T06:32:46Z</time>
      </trkpt>
      <trkpt lat="42.25526" lon="8.93371">
        <ele>1823.6</ele>
        <time>2015-06-27T06:32:55Z</time>
      </trkpt>
      <trkpt lat="42.2552" lon="8.93377">
        <ele>1824.8</ele>
        <time>2015-06-27T06:33:06Z</time>
      </trkpt>
      <trkpt lat="42.25515" lon="8.9338">
        <ele>1826</ele>
        <time>2015-06-27T06:33:16Z</time>
      </trkpt>
      <trkpt lat="42.25513" lon="8.93381">
        <ele>1827.2</ele>
        <time>2015-06-27T06:33:28Z</time>
      </trkpt>
      <trkpt lat="42.25514" lon="8.93381">
        <ele>1827.4</ele>
        <time>2015-06-27T06:33:33Z</time>
      </trkpt>
      <trkpt lat="42.25513" lon="8.93353">
        <ele>1829</ele>
        <time>2015-06-27T06:34:27Z</time>
      </trkpt>
      <trkpt lat="42.25513" lon="8.93346">
        <ele>1829.6</ele>
        <time>2015-06-27T06:34:33Z</time>
      </trkpt>
      <trkpt lat="42.25521" lon="8.93335">
        <ele>1831</ele>
        <time>2015-06-27T06:34:48Z</time>
      </trkpt>
      <trkpt lat="42.25521" lon="8.93325">
        <ele>1832</ele>
        <time>2015-06-27T06:34:55Z</time>
      </trkpt>
      <trkpt lat="42.25518" lon="8.93289">
        <ele>1833.6</ele>
        <time>2015-06-27T06:35:24Z</time>
      </trkpt>
      <trkpt lat="42.25517" lon="8.93276">
        <ele>1834.4</ele>
        <time>2015-06-27T06:35:34Z</time>
      </trkpt>
      <trkpt lat="42.25515" lon="8.93272">
        <ele>1834.6</ele>
        <time>2015-06-27T06:35:38Z</time>
      </trkpt>
      <trkpt lat="42.25512" lon="8.93269">
        <ele>1835.8</ele>
        <time>2015-06-27T06:35:43Z</time>
      </trkpt>
      <trkpt lat="42.25509" lon="8.93251">
        <ele>1836.4</ele>
        <time>2015-06-27T06:35:59Z</time>
      </trkpt>
      <trkpt lat="42.25493" lon="8.93216">
        <ele>1837.2</ele>
        <time>2015-06-27T06:36:29Z</time>
      </trkpt>
      <trkpt lat="42.25489" lon="8.93202">
        <ele>1837.4</ele>
        <time>2015-06-27T06:36:39Z</time>
      </trkpt>
      <trkpt lat="42.2548" lon="8.93172">
        <ele>1837.6</ele>
        <time>2015-06-27T06:37:02Z</time>
      </trkpt>
      <trkpt lat="42.25475" lon="8.93151">
        <ele>1838</ele>
        <time>2015-06-27T06:37:19Z</time>
      </trkpt>
      <trkpt lat="42.25474" lon="8.9314">
        <ele>1838.2</ele>
        <time>2015-06-27T06:37:26Z</time>
      </trkpt>
      <trkpt lat="42.25484" lon="8.9308">
        <ele>1839.8</ele>
        <time>2015-06-27T06:38:05Z</time>
      </trkpt>
      <trkpt lat="42.25484" lon="8.93071">
        <ele>1840</ele>
        <time>2015-06-27T06:38:11Z</time>
      </trkpt>
      <trkpt lat="42.25485" lon="8.93054">
        <ele>1840.6</ele>
        <time>2015-06-27T06:38:25Z</time>
      </trkpt>
      <trkpt lat="42.25486" lon="8.93046">
        <ele>1841</ele>
        <time>2015-06-27T06:38:31Z</time>
      </trkpt>
      <trkpt lat="42.25483" lon="8.93013">
        <ele>1841.4</ele>
        <time>2015-06-27T06:38:51Z</time>
      </trkpt>
      <trkpt lat="42.25482" lon="8.93009">
        <ele>1841.4</ele>
        <time>2015-06-27T06:38:54Z</time>
      </trkpt>
      <trkpt lat="42.2548" lon="8.92988">
        <ele>1841.6</ele>
        <time>2015-06-27T06:39:08Z</time>
      </trkpt>
      <trkpt lat="42.2548" lon="8.92985">
        <ele>1841.4</ele>
        <time>2015-06-27T06:39:10Z</time>
      </trkpt>
      <trkpt lat="42.25479" lon="8.92954">
        <ele>1841.8</ele>
        <time>2015-06-27T06:39:33Z</time>
      </trkpt>
      <trkpt lat="42.25476" lon="8.92937">
        <ele>1842.6</ele>
        <time>2015-06-27T06:39:45Z</time>
      </trkpt>
      <trkpt lat="42.25472" lon="8.92918">
        <ele>1843.4</ele>
        <time>2015-06-27T06:39:59Z</time>
      </trkpt>
      <trkpt lat="42.2547" lon="8.92877">
        <ele>1845</ele>
        <time>2015-06-27T06:40:27Z</time>
      </trkpt>
      <trkpt lat="42.25465" lon="8.92863">
        <ele>1845.8</ele>
        <time>2015-06-27T06:40:39Z</time>
      </trkpt>
      <trkpt lat="42.25465" lon="8.92861">
        <ele>1846</ele>
        <time>2015-06-27T06:40:41Z</time>
      </trkpt>
      <trkpt lat="42.25463" lon="8.92854">
        <ele>1846.6</ele>
        <time>2015-06-27T06:40:47Z</time>
      </trkpt>
      <trkpt lat="42.25463" lon="8.92853">
        <ele>1846.6</ele>
        <time>2015-06-27T06:40:48Z</time>
      </trkpt>
      <trkpt lat="42.25464" lon="8.92846">
        <ele>1847.6</ele>
        <time>2015-06-27T06:40:55Z</time>
      </trkpt>
      <trkpt lat="42.25463" lon="8.92837">
        <ele>1848.6</ele>
        <time>2015-06-27T06:41:02Z</time>
      </trkpt>
      <trkpt lat="42.2546" lon="8.92827">
        <ele>1849.8</ele>
        <time>2015-06-27T06:41:11Z</time>
      </trkpt>
      <trkpt lat="42.25458" lon="8.92818">
        <ele>1850.8</ele>
        <time>2015-06-27T06:41:19Z</time>
      </trkpt>
      <trkpt lat="42.25453" lon="8.92812">
        <ele>1852</ele>
        <time>2015-06-27T06:41:28Z</time>
      </trkpt>
      <trkpt lat="42.2545" lon="8.92805">
        <ele>1853</ele>
        <time>2015-06-27T06:41:36Z</time>
      </trkpt>
      <trkpt lat="42.25449" lon="8.92797">
        <ele>1853.8</ele>
        <time>2015-06-27T06:41:44Z</time>
      </trkpt>
      <trkpt lat="42.25446" lon="8.9279">
        <ele>1855</ele>
        <time>2015-06-27T06:41:52Z</time>
      </trkpt>
      <trkpt lat="42.25444" lon="8.92783">
        <ele>1856</ele>
        <time>2015-06-27T06:42:00Z</time>
      </trkpt>
      <trkpt lat="42.25444" lon="8.92775">
        <ele>1857</ele>
        <time>2015-06-27T06:42:08Z</time>
      </trkpt>
      <trkpt lat="42.25442" lon="8.92769">
        <ele>1858.2</ele>
        <time>2015-06-27T06:42:15Z</time>
      </trkpt>
      <trkpt lat="42.25441" lon="8.92762">
        <ele>1859.2</ele>
        <time>2015-06-27T06:42:23Z</time>
      </trkpt>
      <trkpt lat="42.25438" lon="8.92757">
        <ele>1860</ele>
        <time>2015-06-27T06:42:30Z</time>
      </trkpt>
      <trkpt lat="42.25435" lon="8.9275">
        <ele>1861.2</ele>
        <time>2015-06-27T06:42:37Z</time>
      </trkpt>
      <trkpt lat="42.25434" lon="8.92743">
        <ele>1862.4</ele>
        <time>2015-06-27T06:42:44Z</time>
      </trkpt>
      <trkpt lat="42.25433" lon="8.92735">
        <ele>1863.4</ele>
        <time>2015-06-27T06:42:52Z</time>
      </trkpt>
      <trkpt lat="42.25433" lon="8.92728">
        <ele>1864</ele>
        <time>2015-06-27T06:42:58Z</time>
      </trkpt>
      <trkpt lat="42.2543" lon="8.92719">
        <ele>1865.4</ele>
        <time>2015-06-27T06:43:06Z</time>
      </trkpt>
      <trkpt lat="42.2543" lon="8.92718">
        <ele>1865.2</ele>
        <time>2015-06-27T06:43:07Z</time>
      </trkpt>
      <trkpt lat="42.2543" lon="8.92716">
        <ele>1865.6</ele>
        <time>2015-06-27T06:43:09Z</time>
      </trkpt>
      <trkpt lat="42.25428" lon="8.92709">
        <ele>1866.4</ele>
        <time>2015-06-27T06:43:17Z</time>
      </trkpt>
      <trkpt lat="42.25427" lon="8.92698">
        <ele>1867.4</ele>
        <time>2015-06-27T06:43:26Z</time>
      </trkpt>
      <trkpt lat="42.25428" lon="8.92687">
        <ele>1868.6</ele>
        <time>2015-06-27T06:43:35Z</time>
      </trkpt>
      <trkpt lat="42.25428" lon="8.92679">
        <ele>1869.4</ele>
        <time>2015-06-27T06:43:41Z</time>
      </trkpt>
      <trkpt lat="42.25429" lon="8.92667">
        <ele>1870.8</ele>
        <time>2015-06-27T06:43:50Z</time>
      </trkpt>
      <trkpt lat="42.2543" lon="8.92657">
        <ele>1871.4</ele>
        <time>2015-06-27T06:43:58Z</time>
      </trkpt>
      <trkpt lat="42.25431" lon="8.92652">
        <ele>1872.2</ele>
        <time>2015-06-27T06:44:03Z</time>
      </trkpt>
      <trkpt lat="42.2543" lon="8.9265">
        <ele>1872.6</ele>
        <time>2015-06-27T06:44:10Z</time>
      </trkpt>
      <trkpt lat="42.2543" lon="8.9264">
        <ele>1873</ele>
        <time>2015-06-27T06:44:28Z</time>
      </trkpt>
      <trkpt lat="42.25428" lon="8.92629">
        <ele>1873.6</ele>
        <time>2015-06-27T06:44:57Z</time>
      </trkpt>
      <trkpt lat="42.25424" lon="8.92604">
        <ele>1873.4</ele>
        <time>2015-06-27T06:45:17Z</time>
      </trkpt>
      <trkpt lat="42.25421" lon="8.92595">
        <ele>1873</ele>
        <time>2015-06-27T06:45:23Z</time>
      </trkpt>
      <trkpt lat="42.25421" lon="8.92588">
        <ele>1872.4</ele>
        <time>2015-06-27T06:45:28Z</time>
      </trkpt>
      <trkpt lat="42.2542" lon="8.92577">
        <ele>1871.4</ele>
        <time>2015-06-27T06:45:36Z</time>
      </trkpt>
      <trkpt lat="42.25419" lon="8.92566">
        <ele>1869.8</ele>
        <time>2015-06-27T06:45:51Z</time>
      </trkpt>
      <trkpt lat="42.25419" lon="8.92564">
        <ele>1869.6</ele>
        <time>2015-06-27T06:45:53Z</time>
      </trkpt>
      <trkpt lat="42.25416" lon="8.92549">
        <ele>1868.8</ele>
        <time>2015-06-27T06:46:03Z</time>
      </trkpt>
      <trkpt lat="42.25417" lon="8.92548">
        <ele>1868.6</ele>
        <time>2015-06-27T06:46:04Z</time>
      </trkpt>
      <trkpt lat="42.25419" lon="8.92547">
        <ele>1868</ele>
        <time>2015-06-27T06:46:09Z</time>
      </trkpt>
      <trkpt lat="42.25421" lon="8.92545">
        <ele>1866.8</ele>
        <time>2015-06-27T06:48:11Z</time>
      </trkpt>
      <trkpt lat="42.25419" lon="8.92547">
        <ele>1866.6</ele>
        <time>2015-06-27T06:49:47Z</time>
      </trkpt>
      <trkpt lat="42.25416" lon="8.9255">
        <ele>1866.2</ele>
        <time>2015-06-27T06:52:05Z</time>
      </trkpt>
      <trkpt lat="42.25421" lon="8.92545">
        <ele>1866.6</ele>
        <time>2015-06-27T06:52:36Z</time>
      </trkpt>
      <trkpt lat="42.2542" lon="8.92549">
        <ele>1866</ele>
        <time>2015-06-27T06:57:04Z</time>
      </trkpt>
      <trkpt lat="42.25421" lon="8.92546">
        <ele>1866.6</ele>
        <time>2015-06-27T06:57:29Z</time>
      </trkpt>
      <trkpt lat="42.25418" lon="8.92549">
        <ele>1865.6</ele>
        <time>2015-06-27T07:02:47Z</time>
      </trkpt>
      <trkpt lat="42.25422" lon="8.92548">
        <ele>1866</ele>
        <time>2015-06-27T07:04:49Z</time>
      </trkpt>
      <trkpt lat="42.25417" lon="8.92542">
        <ele>1866.6</ele>
        <time>2015-06-27T07:07:55Z</time>
      </trkpt>
      <trkpt lat="42.25417" lon="8.92538">
        <ele>1865.4</ele>
        <time>2015-06-27T07:08:44Z</time>
      </trkpt>
      <trkpt lat="42.25418" lon="8.92526">
        <ele>1865</ele>
        <time>2015-06-27T07:08:53Z</time>
      </trkpt>
      <trkpt lat="42.25416" lon="8.92518">
        <ele>1864</ele>
        <time>2015-06-27T07:08:59Z</time>
      </trkpt>
      <trkpt lat="42.25418" lon="8.92511">
        <ele>1863</ele>
        <time>2015-06-27T07:09:05Z</time>
      </trkpt>
      <trkpt lat="42.2542" lon="8.92509">
        <ele>1862.6</ele>
        <time>2015-06-27T07:09:07Z</time>
      </trkpt>
      <trkpt lat="42.25421" lon="8.92505">
        <ele>1862</ele>
        <time>2015-06-27T07:09:10Z</time>
      </trkpt>
      <trkpt lat="42.25422" lon="8.92499">
        <ele>1860.6</ele>
        <time>2015-06-27T07:09:15Z</time>
      </trkpt>
      <trkpt lat="42.25421" lon="8.92497">
        <ele>1860.2</ele>
        <time>2015-06-27T07:09:17Z</time>
      </trkpt>
      <trkpt lat="42.25422" lon="8.92494">
        <ele>1860</ele>
        <time>2015-06-27T07:09:18Z</time>
      </trkpt>
      <trkpt lat="42.25422" lon="8.92492">
        <ele>1859.8</ele>
        <time>2015-06-27T07:09:20Z</time>
      </trkpt>
      <trkpt lat="42.25424" lon="8.92489">
        <ele>1859.4</ele>
        <time>2015-06-27T07:09:22Z</time>
      </trkpt>
      <trkpt lat="42.25426" lon="8.92483">
        <ele>1858.4</ele>
        <time>2015-06-27T07:09:27Z</time>
      </trkpt>
      <trkpt lat="42.25427" lon="8.92469">
        <ele>1856.8</ele>
        <time>2015-06-27T07:09:36Z</time>
      </trkpt>
      <trkpt lat="42.25429" lon="8.92461">
        <ele>1856.2</ele>
        <time>2015-06-27T07:09:42Z</time>
      </trkpt>
      <trkpt lat="42.25433" lon="8.92443">
        <ele>1854.2</ele>
        <time>2015-06-27T07:09:54Z</time>
      </trkpt>
      <trkpt lat="42.25435" lon="8.92429">
        <ele>1853.6</ele>
        <time>2015-06-27T07:10:03Z</time>
      </trkpt>
      <trkpt lat="42.25435" lon="8.92417">
        <ele>1852.6</ele>
        <time>2015-06-27T07:10:10Z</time>
      </trkpt>
      <trkpt lat="42.25435" lon="8.92405">
        <ele>1851.4</ele>
        <time>2015-06-27T07:10:18Z</time>
      </trkpt>
      <trkpt lat="42.25436" lon="8.92398">
        <ele>1850.8</ele>
        <time>2015-06-27T07:10:23Z</time>
      </trkpt>
      <trkpt lat="42.25438" lon="8.92392">
        <ele>1849.4</ele>
        <time>2015-06-27T07:10:28Z</time>
      </trkpt>
      <trkpt lat="42.25443" lon="8.92375">
        <ele>1847.8</ele>
        <time>2015-06-27T07:10:39Z</time>
      </trkpt>
      <trkpt lat="42.25445" lon="8.92365">
        <ele>1847.4</ele>
        <time>2015-06-27T07:10:46Z</time>
      </trkpt>
      <trkpt lat="42.25447" lon="8.92359">
        <ele>1847</ele>
        <time>2015-06-27T07:10:51Z</time>
      </trkpt>
      <trkpt lat="42.25447" lon="8.92352">
        <ele>1846.8</ele>
        <time>2015-06-27T07:10:56Z</time>
      </trkpt>
      <trkpt lat="42.25447" lon="8.92351">
        <ele>1846.6</ele>
        <time>2015-06-27T07:10:57Z</time>
      </trkpt>
      <trkpt lat="42.25448" lon="8.9235">
        <ele>1846.6</ele>
        <time>2015-06-27T07:10:58Z</time>
      </trkpt>
      <trkpt lat="42.25449" lon="8.92346">
        <ele>1846.2</ele>
        <time>2015-06-27T07:11:02Z</time>
      </trkpt>
      <trkpt lat="42.25451" lon="8.92343">
        <ele>1845.6</ele>
        <time>2015-06-27T07:11:06Z</time>
      </trkpt>
      <trkpt lat="42.25451" lon="8.92335">
        <ele>1845</ele>
        <time>2015-06-27T07:11:13Z</time>
      </trkpt>
      <trkpt lat="42.25452" lon="8.92322">
        <ele>1843.8</ele>
        <time>2015-06-27T07:11:22Z</time>
      </trkpt>
      <trkpt lat="42.25455" lon="8.92309">
        <ele>1842.6</ele>
        <time>2015-06-27T07:11:32Z</time>
      </trkpt>
      <trkpt lat="42.25457" lon="8.92304">
        <ele>1842.4</ele>
        <time>2015-06-27T07:11:36Z</time>
      </trkpt>
      <trkpt lat="42.25458" lon="8.92297">
        <ele>1842.2</ele>
        <time>2015-06-27T07:11:41Z</time>
      </trkpt>
      <trkpt lat="42.25458" lon="8.92295">
        <ele>1842</ele>
        <time>2015-06-27T07:11:43Z</time>
      </trkpt>
      <trkpt lat="42.2546" lon="8.9229">
        <ele>1841.6</ele>
        <time>2015-06-27T07:11:48Z</time>
      </trkpt>
      <trkpt lat="42.25466" lon="8.92272">
        <ele>1840.4</ele>
        <time>2015-06-27T07:12:08Z</time>
      </trkpt>
      <trkpt lat="42.25468" lon="8.92266">
        <ele>1840</ele>
        <time>2015-06-27T07:12:13Z</time>
      </trkpt>
      <trkpt lat="42.25471" lon="8.92258">
        <ele>1839.4</ele>
        <time>2015-06-27T07:12:21Z</time>
      </trkpt>
      <trkpt lat="42.25472" lon="8.92254">
        <ele>1839.2</ele>
        <time>2015-06-27T07:12:24Z</time>
      </trkpt>
      <trkpt lat="42.25472" lon="8.92253">
        <ele>1839.2</ele>
        <time>2015-06-27T07:12:25Z</time>
      </trkpt>
      <trkpt lat="42.25477" lon="8.92238">
        <ele>1838.4</ele>
        <time>2015-06-27T07:12:40Z</time>
      </trkpt>
      <trkpt lat="42.25481" lon="8.92226">
        <ele>1837.6</ele>
        <time>2015-06-27T07:12:49Z</time>
      </trkpt>
      <trkpt lat="42.25482" lon="8.9221">
        <ele>1837.2</ele>
        <time>2015-06-27T07:13:00Z</time>
      </trkpt>
      <trkpt lat="42.25484" lon="8.92196">
        <ele>1836.4</ele>
        <time>2015-06-27T07:13:11Z</time>
      </trkpt>
      <trkpt lat="42.25485" lon="8.9219">
        <ele>1836</ele>
        <time>2015-06-27T07:13:21Z</time>
      </trkpt>
      <trkpt lat="42.25493" lon="8.92177">
        <ele>1834.8</ele>
        <time>2015-06-27T07:13:33Z</time>
      </trkpt>
      <trkpt lat="42.25494" lon="8.92175">
        <ele>1834.8</ele>
        <time>2015-06-27T07:13:35Z</time>
      </trkpt>
      <trkpt lat="42.25504" lon="8.92159">
        <ele>1833.8</ele>
        <time>2015-06-27T07:14:31Z</time>
      </trkpt>
      <trkpt lat="42.25507" lon="8.92153">
        <ele>1833.2</ele>
        <time>2015-06-27T07:14:39Z</time>
      </trkpt>
      <trkpt lat="42.25511" lon="8.92146">
        <ele>1832.2</ele>
        <time>2015-06-27T07:14:47Z</time>
      </trkpt>
      <trkpt lat="42.25515" lon="8.92136">
        <ele>1831.6</ele>
        <time>2015-06-27T07:14:57Z</time>
      </trkpt>
      <trkpt lat="42.25526" lon="8.92121">
        <ele>1832.2</ele>
        <time>2015-06-27T07:15:17Z</time>
      </trkpt>
      <trkpt lat="42.25528" lon="8.92113">
        <ele>1832</ele>
        <time>2015-06-27T07:15:27Z</time>
      </trkpt>
      <trkpt lat="42.2553" lon="8.92103">
        <ele>1831</ele>
        <time>2015-06-27T07:15:35Z</time>
      </trkpt>
      <trkpt lat="42.2553" lon="8.921">
        <ele>1830.6</ele>
        <time>2015-06-27T07:15:38Z</time>
      </trkpt>
      <trkpt lat="42.25531" lon="8.92093">
        <ele>1829.6</ele>
        <time>2015-06-27T07:15:45Z</time>
      </trkpt>
      <trkpt lat="42.25533" lon="8.92079">
        <ele>1828.6</ele>
        <time>2015-06-27T07:15:59Z</time>
      </trkpt>
      <trkpt lat="42.25535" lon="8.92065">
        <ele>1827.6</ele>
        <time>2015-06-27T07:16:10Z</time>
      </trkpt>
      <trkpt lat="42.25536" lon="8.92051">
        <ele>1826.6</ele>
        <time>2015-06-27T07:16:19Z</time>
      </trkpt>
      <trkpt lat="42.25537" lon="8.92039">
        <ele>1826.2</ele>
        <time>2015-06-27T07:16:29Z</time>
      </trkpt>
      <trkpt lat="42.25539" lon="8.92036">
        <ele>1826.2</ele>
        <time>2015-06-27T07:16:33Z</time>
      </trkpt>
      <trkpt lat="42.2555" lon="8.92002">
        <ele>1827.4</ele>
        <time>2015-06-27T07:17:08Z</time>
      </trkpt>
      <trkpt lat="42.25555" lon="8.91997">
        <ele>1828.4</ele>
        <time>2015-06-27T07:17:24Z</time>
      </trkpt>
      <trkpt lat="42.25552" lon="8.91975">
        <ele>1829.4</ele>
        <time>2015-06-27T07:18:06Z</time>
      </trkpt>
      <trkpt lat="42.25555" lon="8.91963">
        <ele>1828.8</ele>
        <time>2015-06-27T07:18:16Z</time>
      </trkpt>
      <trkpt lat="42.25555" lon="8.91961">
        <ele>1828.6</ele>
        <time>2015-06-27T07:18:17Z</time>
      </trkpt>
      <trkpt lat="42.25557" lon="8.91941">
        <ele>1827.4</ele>
        <time>2015-06-27T07:18:33Z</time>
      </trkpt>
      <trkpt lat="42.25559" lon="8.91932">
        <ele>1826.8</ele>
        <time>2015-06-27T07:18:40Z</time>
      </trkpt>
      <trkpt lat="42.25558" lon="8.91916">
        <ele>1825.6</ele>
        <time>2015-06-27T07:18:51Z</time>
      </trkpt>
      <trkpt lat="42.2556" lon="8.91889">
        <ele>1824</ele>
        <time>2015-06-27T07:19:15Z</time>
      </trkpt>
      <trkpt lat="42.25561" lon="8.91873">
        <ele>1823.6</ele>
        <time>2015-06-27T07:19:27Z</time>
      </trkpt>
      <trkpt lat="42.25561" lon="8.91867">
        <ele>1823.4</ele>
        <time>2015-06-27T07:19:32Z</time>
      </trkpt>
      <trkpt lat="42.25561" lon="8.91865">
        <ele>1823.2</ele>
        <time>2015-06-27T07:19:33Z</time>
      </trkpt>
      <trkpt lat="42.25561" lon="8.91853">
        <ele>1822.4</ele>
        <time>2015-06-27T07:19:44Z</time>
      </trkpt>
      <trkpt lat="42.2556" lon="8.91846">
        <ele>1821.2</ele>
        <time>2015-06-27T07:20:00Z</time>
      </trkpt>
      <trkpt lat="42.2556" lon="8.91826">
        <ele>1820.2</ele>
        <time>2015-06-27T07:20:37Z</time>
      </trkpt>
      <trkpt lat="42.25566" lon="8.91817">
        <ele>1819.6</ele>
        <time>2015-06-27T07:20:46Z</time>
      </trkpt>
      <trkpt lat="42.25577" lon="8.91812">
        <ele>1818.4</ele>
        <time>2015-06-27T07:21:04Z</time>
      </trkpt>
      <trkpt lat="42.25571" lon="8.91805">
        <ele>1817.2</ele>
        <time>2015-06-27T07:21:22Z</time>
      </trkpt>
      <trkpt lat="42.25566" lon="8.91803">
        <ele>1816.8</ele>
        <time>2015-06-27T07:21:27Z</time>
      </trkpt>
      <trkpt lat="42.25563" lon="8.91803">
        <ele>1816.6</ele>
        <time>2015-06-27T07:21:30Z</time>
      </trkpt>
      <trkpt lat="42.25554" lon="8.91809">
        <ele>1815.4</ele>
        <time>2015-06-27T07:21:40Z</time>
      </trkpt>
      <trkpt lat="42.25551" lon="8.91809">
        <ele>1815</ele>
        <time>2015-06-27T07:21:44Z</time>
      </trkpt>
      <trkpt lat="42.25552" lon="8.91807">
        <ele>1814.6</ele>
        <time>2015-06-27T07:21:47Z</time>
      </trkpt>
      <trkpt lat="42.25558" lon="8.91796">
        <ele>1813</ele>
        <time>2015-06-27T07:21:57Z</time>
      </trkpt>
      <trkpt lat="42.25563" lon="8.91787">
        <ele>1812</ele>
        <time>2015-06-27T07:22:06Z</time>
      </trkpt>
      <trkpt lat="42.25568" lon="8.91782">
        <ele>1811.2</ele>
        <time>2015-06-27T07:22:15Z</time>
      </trkpt>
      <trkpt lat="42.25567" lon="8.91778">
        <ele>1810.4</ele>
        <time>2015-06-27T07:22:21Z</time>
      </trkpt>
      <trkpt lat="42.2556" lon="8.91778">
        <ele>1809.4</ele>
        <time>2015-06-27T07:22:30Z</time>
      </trkpt>
      <trkpt lat="42.25559" lon="8.91775">
        <ele>1808</ele>
        <time>2015-06-27T07:22:39Z</time>
      </trkpt>
      <trkpt lat="42.2556" lon="8.91769">
        <ele>1807</ele>
        <time>2015-06-27T07:22:46Z</time>
      </trkpt>
      <trkpt lat="42.25556" lon="8.91768">
        <ele>1805.6</ele>
        <time>2015-06-27T07:22:58Z</time>
      </trkpt>
      <trkpt lat="42.25553" lon="8.91768">
        <ele>1804.4</ele>
        <time>2015-06-27T07:23:08Z</time>
      </trkpt>
      <trkpt lat="42.25548" lon="8.91771">
        <ele>1804</ele>
        <time>2015-06-27T07:23:14Z</time>
      </trkpt>
      <trkpt lat="42.25543" lon="8.91777">
        <ele>1802.6</ele>
        <time>2015-06-27T07:23:21Z</time>
      </trkpt>
      <trkpt lat="42.2554" lon="8.91778">
        <ele>1802</ele>
        <time>2015-06-27T07:23:27Z</time>
      </trkpt>
      <trkpt lat="42.25542" lon="8.91773">
        <ele>1800.8</ele>
        <time>2015-06-27T07:23:34Z</time>
      </trkpt>
      <trkpt lat="42.25544" lon="8.91762">
        <ele>1799.2</ele>
        <time>2015-06-27T07:23:44Z</time>
      </trkpt>
      <trkpt lat="42.25546" lon="8.91748">
        <ele>1798.4</ele>
        <time>2015-06-27T07:23:58Z</time>
      </trkpt>
      <trkpt lat="42.25545" lon="8.91743">
        <ele>1797.2</ele>
        <time>2015-06-27T07:24:07Z</time>
      </trkpt>
      <trkpt lat="42.25543" lon="8.9174">
        <ele>1796.6</ele>
        <time>2015-06-27T07:24:20Z</time>
      </trkpt>
      <trkpt lat="42.25539" lon="8.91747">
        <ele>1795.4</ele>
        <time>2015-06-27T07:24:28Z</time>
      </trkpt>
      <trkpt lat="42.25539" lon="8.91747">
        <ele>1795</ele>
        <time>2015-06-27T07:24:29Z</time>
      </trkpt>
      <trkpt lat="42.25536" lon="8.91748">
        <ele>1794.6</ele>
        <time>2015-06-27T07:24:34Z</time>
      </trkpt>
      <trkpt lat="42.25534" lon="8.91743">
        <ele>1793.8</ele>
        <time>2015-06-27T07:24:39Z</time>
      </trkpt>
      <trkpt lat="42.25534" lon="8.91737">
        <ele>1792.6</ele>
        <time>2015-06-27T07:24:45Z</time>
      </trkpt>
      <trkpt lat="42.25534" lon="8.91732">
        <ele>1791.6</ele>
        <time>2015-06-27T07:24:50Z</time>
      </trkpt>
      <trkpt lat="42.25533" lon="8.91728">
        <ele>1790.8</ele>
        <time>2015-06-27T07:24:56Z</time>
      </trkpt>
      <trkpt lat="42.25533" lon="8.91728">
        <ele>1790</ele>
        <time>2015-06-27T07:25:05Z</time>
      </trkpt>
      <trkpt lat="42.25533" lon="8.91717">
        <ele>1789.8</ele>
        <time>2015-06-27T07:25:26Z</time>
      </trkpt>
      <trkpt lat="42.25533" lon="8.91707">
        <ele>1789</ele>
        <time>2015-06-27T07:25:33Z</time>
      </trkpt>
      <trkpt lat="42.25533" lon="8.91704">
        <ele>1789</ele>
        <time>2015-06-27T07:25:35Z</time>
      </trkpt>
      <trkpt lat="42.25535" lon="8.91691">
        <ele>1788</ele>
        <time>2015-06-27T07:25:44Z</time>
      </trkpt>
      <trkpt lat="42.25533" lon="8.91683">
        <ele>1787.4</ele>
        <time>2015-06-27T07:25:51Z</time>
      </trkpt>
      <trkpt lat="42.25533" lon="8.91677">
        <ele>1786.4</ele>
        <time>2015-06-27T07:26:02Z</time>
      </trkpt>
      <trkpt lat="42.25532" lon="8.91666">
        <ele>1786</ele>
        <time>2015-06-27T07:26:10Z</time>
      </trkpt>
      <trkpt lat="42.25531" lon="8.91662">
        <ele>1785.8</ele>
        <time>2015-06-27T07:26:13Z</time>
      </trkpt>
      <trkpt lat="42.25531" lon="8.91659">
        <ele>1785.4</ele>
        <time>2015-06-27T07:26:15Z</time>
      </trkpt>
      <trkpt lat="42.2553" lon="8.91627">
        <ele>1786</ele>
        <time>2015-06-27T07:26:57Z</time>
      </trkpt>
      <trkpt lat="42.25532" lon="8.91625">
        <ele>1787</ele>
        <time>2015-06-27T07:27:07Z</time>
      </trkpt>
      <trkpt lat="42.25531" lon="8.91621">
        <ele>1787.6</ele>
        <time>2015-06-27T07:27:13Z</time>
      </trkpt>
      <trkpt lat="42.25532" lon="8.91616">
        <ele>1789.8</ele>
        <time>2015-06-27T07:27:26Z</time>
      </trkpt>
      <trkpt lat="42.2553" lon="8.91611">
        <ele>1790.4</ele>
        <time>2015-06-27T07:27:36Z</time>
      </trkpt>
      <trkpt lat="42.25529" lon="8.91599">
        <ele>1791.6</ele>
        <time>2015-06-27T07:27:50Z</time>
      </trkpt>
      <trkpt lat="42.25528" lon="8.91593">
        <ele>1792.2</ele>
        <time>2015-06-27T07:27:59Z</time>
      </trkpt>
      <trkpt lat="42.25528" lon="8.91587">
        <ele>1793.2</ele>
        <time>2015-06-27T07:28:06Z</time>
      </trkpt>
      <trkpt lat="42.25529" lon="8.91583">
        <ele>1794.8</ele>
        <time>2015-06-27T07:28:17Z</time>
      </trkpt>
      <trkpt lat="42.25532" lon="8.91586">
        <ele>1796</ele>
        <time>2015-06-27T07:28:27Z</time>
      </trkpt>
      <trkpt lat="42.25533" lon="8.9159">
        <ele>1797</ele>
        <time>2015-06-27T07:28:37Z</time>
      </trkpt>
      <trkpt lat="42.25535" lon="8.91595">
        <ele>1798.2</ele>
        <time>2015-06-27T07:28:47Z</time>
      </trkpt>
      <trkpt lat="42.25537" lon="8.91591">
        <ele>1799.6</ele>
        <time>2015-06-27T07:28:59Z</time>
      </trkpt>
      <trkpt lat="42.25537" lon="8.9158">
        <ele>1800.8</ele>
        <time>2015-06-27T07:29:12Z</time>
      </trkpt>
      <trkpt lat="42.25542" lon="8.91561">
        <ele>1800.8</ele>
        <time>2015-06-27T07:29:44Z</time>
      </trkpt>
      <trkpt lat="42.25534" lon="8.91531">
        <ele>1799.4</ele>
        <time>2015-06-27T07:30:08Z</time>
      </trkpt>
      <trkpt lat="42.25533" lon="8.91519">
        <ele>1799</ele>
        <time>2015-06-27T07:30:17Z</time>
      </trkpt>
      <trkpt lat="42.25531" lon="8.91512">
        <ele>1798</ele>
        <time>2015-06-27T07:30:24Z</time>
      </trkpt>
      <trkpt lat="42.25531" lon="8.91511">
        <ele>1797.8</ele>
        <time>2015-06-27T07:30:25Z</time>
      </trkpt>
      <trkpt lat="42.25531" lon="8.91507">
        <ele>1797.2</ele>
        <time>2015-06-27T07:30:31Z</time>
      </trkpt>
      <trkpt lat="42.25531" lon="8.91503">
        <ele>1796.2</ele>
        <time>2015-06-27T07:30:36Z</time>
      </trkpt>
      <trkpt lat="42.25532" lon="8.91496">
        <ele>1794.8</ele>
        <time>2015-06-27T07:30:42Z</time>
      </trkpt>
      <trkpt lat="42.25532" lon="8.91491">
        <ele>1793.8</ele>
        <time>2015-06-27T07:30:48Z</time>
      </trkpt>
      <trkpt lat="42.25529" lon="8.91478">
        <ele>1792.6</ele>
        <time>2015-06-27T07:31:00Z</time>
      </trkpt>
      <trkpt lat="42.25527" lon="8.91468">
        <ele>1791.6</ele>
        <time>2015-06-27T07:31:08Z</time>
      </trkpt>
      <trkpt lat="42.25526" lon="8.9146">
        <ele>1790.4</ele>
        <time>2015-06-27T07:31:16Z</time>
      </trkpt>
      <trkpt lat="42.25526" lon="8.91453">
        <ele>1789.6</ele>
        <time>2015-06-27T07:31:22Z</time>
      </trkpt>
      <trkpt lat="42.25525" lon="8.91446">
        <ele>1788.2</ele>
        <time>2015-06-27T07:31:29Z</time>
      </trkpt>
      <trkpt lat="42.25523" lon="8.91437">
        <ele>1787.2</ele>
        <time>2015-06-27T07:31:37Z</time>
      </trkpt>
      <trkpt lat="42.25521" lon="8.9143">
        <ele>1786.6</ele>
        <time>2015-06-27T07:31:43Z</time>
      </trkpt>
      <trkpt lat="42.2552" lon="8.91426">
        <ele>1786</ele>
        <time>2015-06-27T07:31:46Z</time>
      </trkpt>
      <trkpt lat="42.2552" lon="8.91424">
        <ele>1785.6</ele>
        <time>2015-06-27T07:31:49Z</time>
      </trkpt>
      <trkpt lat="42.2552" lon="8.91417">
        <ele>1784.4</ele>
        <time>2015-06-27T07:31:56Z</time>
      </trkpt>
      <trkpt lat="42.25519" lon="8.9141">
        <ele>1783.4</ele>
        <time>2015-06-27T07:32:02Z</time>
      </trkpt>
      <trkpt lat="42.25518" lon="8.91402">
        <ele>1782.4</ele>
        <time>2015-06-27T07:32:09Z</time>
      </trkpt>
      <trkpt lat="42.25516" lon="8.91393">
        <ele>1781.2</ele>
        <time>2015-06-27T07:32:16Z</time>
      </trkpt>
      <trkpt lat="42.25516" lon="8.91389">
        <ele>1780.6</ele>
        <time>2015-06-27T07:32:19Z</time>
      </trkpt>
      <trkpt lat="42.25516" lon="8.91385">
        <ele>1780.2</ele>
        <time>2015-06-27T07:32:22Z</time>
      </trkpt>
      <trkpt lat="42.25515" lon="8.91374">
        <ele>1779</ele>
        <time>2015-06-27T07:32:30Z</time>
      </trkpt>
      <trkpt lat="42.25514" lon="8.91359">
        <ele>1778</ele>
        <time>2015-06-27T07:32:39Z</time>
      </trkpt>
      <trkpt lat="42.25514" lon="8.91351">
        <ele>1777.4</ele>
        <time>2015-06-27T07:32:44Z</time>
      </trkpt>
      <trkpt lat="42.25517" lon="8.91343">
        <ele>1776.8</ele>
        <time>2015-06-27T07:32:49Z</time>
      </trkpt>
      <trkpt lat="42.25517" lon="8.91341">
        <ele>1776.6</ele>
        <time>2015-06-27T07:32:51Z</time>
      </trkpt>
      <trkpt lat="42.25518" lon="8.91323">
        <ele>1775.8</ele>
        <time>2015-06-27T07:33:03Z</time>
      </trkpt>
      <trkpt lat="42.25517" lon="8.9132">
        <ele>1775.6</ele>
        <time>2015-06-27T07:33:05Z</time>
      </trkpt>
      <trkpt lat="42.25519" lon="8.91295">
        <ele>1774.6</ele>
        <time>2015-06-27T07:33:22Z</time>
      </trkpt>
      <trkpt lat="42.25522" lon="8.91272">
        <ele>1774</ele>
        <time>2015-06-27T07:33:37Z</time>
      </trkpt>
      <trkpt lat="42.25522" lon="8.91267">
        <ele>1773.8</ele>
        <time>2015-06-27T07:33:40Z</time>
      </trkpt>
      <trkpt lat="42.25529" lon="8.91229">
        <ele>1772.8</ele>
        <time>2015-06-27T07:34:06Z</time>
      </trkpt>
      <trkpt lat="42.25532" lon="8.91218">
        <ele>1772.2</ele>
        <time>2015-06-27T07:34:14Z</time>
      </trkpt>
      <trkpt lat="42.25534" lon="8.91204">
        <ele>1772</ele>
        <time>2015-06-27T07:34:23Z</time>
      </trkpt>
      <trkpt lat="42.25535" lon="8.91196">
        <ele>1771.4</ele>
        <time>2015-06-27T07:34:29Z</time>
      </trkpt>
      <trkpt lat="42.25539" lon="8.91178">
        <ele>1770.6</ele>
        <time>2015-06-27T07:34:42Z</time>
      </trkpt>
      <trkpt lat="42.25543" lon="8.91159">
        <ele>1770</ele>
        <time>2015-06-27T07:34:55Z</time>
      </trkpt>
      <trkpt lat="42.25543" lon="8.91158">
        <ele>1769.8</ele>
        <time>2015-06-27T07:34:56Z</time>
      </trkpt>
      <trkpt lat="42.25547" lon="8.91142">
        <ele>1769.2</ele>
        <time>2015-06-27T07:35:09Z</time>
      </trkpt>
      <trkpt lat="42.25546" lon="8.91126">
        <ele>1768.2</ele>
        <time>2015-06-27T07:35:24Z</time>
      </trkpt>
      <trkpt lat="42.25546" lon="8.91115">
        <ele>1767.6</ele>
        <time>2015-06-27T07:35:32Z</time>
      </trkpt>
      <trkpt lat="42.25545" lon="8.91109">
        <ele>1767.2</ele>
        <time>2015-06-27T07:35:36Z</time>
      </trkpt>
      <trkpt lat="42.25545" lon="8.91108">
        <ele>1767.2</ele>
        <time>2015-06-27T07:35:37Z</time>
      </trkpt>
      <trkpt lat="42.25545" lon="8.91106">
        <ele>1767.2</ele>
        <time>2015-06-27T07:35:39Z</time>
      </trkpt>
      <trkpt lat="42.25545" lon="8.91094">
        <ele>1766.4</ele>
        <time>2015-06-27T07:35:56Z</time>
      </trkpt>
      <trkpt lat="42.25545" lon="8.91087">
        <ele>1765.6</ele>
        <time>2015-06-27T07:36:02Z</time>
      </trkpt>
      <trkpt lat="42.25543" lon="8.91071">
        <ele>1764.2</ele>
        <time>2015-06-27T07:36:59Z</time>
      </trkpt>
      <trkpt lat="42.25536" lon="8.91053">
        <ele>1763.4</ele>
        <time>2015-06-27T07:37:12Z</time>
      </trkpt>
      <trkpt lat="42.25536" lon="8.9105">
        <ele>1763.2</ele>
        <time>2015-06-27T07:37:14Z</time>
      </trkpt>
      <trkpt lat="42.25535" lon="8.91048">
        <ele>1763.2</ele>
        <time>2015-06-27T07:37:16Z</time>
      </trkpt>
      <trkpt lat="42.25532" lon="8.9104">
        <ele>1762.8</ele>
        <time>2015-06-27T07:37:22Z</time>
      </trkpt>
      <trkpt lat="42.25532" lon="8.91038">
        <ele>1762.8</ele>
        <time>2015-06-27T07:37:24Z</time>
      </trkpt>
      <trkpt lat="42.25529" lon="8.91029">
        <ele>1762.4</ele>
        <time>2015-06-27T07:37:32Z</time>
      </trkpt>
      <trkpt lat="42.25528" lon="8.91028">
        <ele>1762.4</ele>
        <time>2015-06-27T07:37:33Z</time>
      </trkpt>
      <trkpt lat="42.25525" lon="8.91022">
        <ele>1761.8</ele>
        <time>2015-06-27T07:37:39Z</time>
      </trkpt>
      <trkpt lat="42.25523" lon="8.91019">
        <ele>1761.2</ele>
        <time>2015-06-27T07:37:42Z</time>
      </trkpt>
      <trkpt lat="42.25518" lon="8.91012">
        <ele>1760.6</ele>
        <time>2015-06-27T07:37:50Z</time>
      </trkpt>
      <trkpt lat="42.25516" lon="8.9101">
        <ele>1760.4</ele>
        <time>2015-06-27T07:37:52Z</time>
      </trkpt>
      <trkpt lat="42.25514" lon="8.91008">
        <ele>1760.2</ele>
        <time>2015-06-27T07:37:54Z</time>
      </trkpt>
      <trkpt lat="42.25502" lon="8.9098">
        <ele>1760</ele>
        <time>2015-06-27T07:38:18Z</time>
      </trkpt>
      <trkpt lat="42.25502" lon="8.90965">
        <ele>1758.2</ele>
        <time>2015-06-27T07:38:27Z</time>
      </trkpt>
      <trkpt lat="42.25502" lon="8.90957">
        <ele>1757.6</ele>
        <time>2015-06-27T07:38:34Z</time>
      </trkpt>
      <trkpt lat="42.25503" lon="8.90948">
        <ele>1756.2</ele>
        <time>2015-06-27T07:38:42Z</time>
      </trkpt>
      <trkpt lat="42.25502" lon="8.90924">
        <ele>1754.8</ele>
        <time>2015-06-27T07:38:59Z</time>
      </trkpt>
      <trkpt lat="42.25502" lon="8.9091">
        <ele>1754.2</ele>
        <time>2015-06-27T07:39:12Z</time>
      </trkpt>
      <trkpt lat="42.25504" lon="8.90901">
        <ele>1753.2</ele>
        <time>2015-06-27T07:39:21Z</time>
      </trkpt>
      <trkpt lat="42.25507" lon="8.90892">
        <ele>1752.6</ele>
        <time>2015-06-27T07:39:28Z</time>
      </trkpt>
      <trkpt lat="42.25511" lon="8.90876">
        <ele>1751.2</ele>
        <time>2015-06-27T07:39:46Z</time>
      </trkpt>
      <trkpt lat="42.25513" lon="8.90871">
        <ele>1750.8</ele>
        <time>2015-06-27T07:39:52Z</time>
      </trkpt>
      <trkpt lat="42.25516" lon="8.90863">
        <ele>1749.4</ele>
        <time>2015-06-27T07:40:00Z</time>
      </trkpt>
      <trkpt lat="42.25518" lon="8.90855">
        <ele>1748.4</ele>
        <time>2015-06-27T07:40:07Z</time>
      </trkpt>
      <trkpt lat="42.2552" lon="8.90843">
        <ele>1747.6</ele>
        <time>2015-06-27T07:40:16Z</time>
      </trkpt>
      <trkpt lat="42.25523" lon="8.90827">
        <ele>1747.2</ele>
        <time>2015-06-27T07:40:34Z</time>
      </trkpt>
      <trkpt lat="42.25525" lon="8.90822">
        <ele>1746.6</ele>
        <time>2015-06-27T07:40:43Z</time>
      </trkpt>
      <trkpt lat="42.25529" lon="8.90814">
        <ele>1745.4</ele>
        <time>2015-06-27T07:40:54Z</time>
      </trkpt>
      <trkpt lat="42.25532" lon="8.9081">
        <ele>1744.8</ele>
        <time>2015-06-27T07:40:59Z</time>
      </trkpt>
      <trkpt lat="42.25534" lon="8.90809">
        <ele>1743.2</ele>
        <time>2015-06-27T07:41:18Z</time>
      </trkpt>
      <trkpt lat="42.25537" lon="8.90803">
        <ele>1742.6</ele>
        <time>2015-06-27T07:41:35Z</time>
      </trkpt>
      <trkpt lat="42.25538" lon="8.90799">
        <ele>1742.4</ele>
        <time>2015-06-27T07:41:38Z</time>
      </trkpt>
      <trkpt lat="42.25538" lon="8.90798">
        <ele>1742.2</ele>
        <time>2015-06-27T07:41:39Z</time>
      </trkpt>
      <trkpt lat="42.25538" lon="8.90791">
        <ele>1740.6</ele>
        <time>2015-06-27T07:41:44Z</time>
      </trkpt>
      <trkpt lat="42.25538" lon="8.90785">
        <ele>1739.2</ele>
        <time>2015-06-27T07:41:50Z</time>
      </trkpt>
      <trkpt lat="42.25538" lon="8.90782">
        <ele>1738.8</ele>
        <time>2015-06-27T07:41:53Z</time>
      </trkpt>
      <trkpt lat="42.25539" lon="8.9078">
        <ele>1738.4</ele>
        <time>2015-06-27T07:41:55Z</time>
      </trkpt>
      <trkpt lat="42.2554" lon="8.90775">
        <ele>1737.4</ele>
        <time>2015-06-27T07:42:00Z</time>
      </trkpt>
      <trkpt lat="42.25541" lon="8.9077">
        <ele>1736</ele>
        <time>2015-06-27T07:42:07Z</time>
      </trkpt>
      <trkpt lat="42.25543" lon="8.90769">
        <ele>1735</ele>
        <time>2015-06-27T07:42:14Z</time>
      </trkpt>
      <trkpt lat="42.25543" lon="8.90762">
        <ele>1733.8</ele>
        <time>2015-06-27T07:42:32Z</time>
      </trkpt>
      <trkpt lat="42.25545" lon="8.90757">
        <ele>1732.8</ele>
        <time>2015-06-27T07:42:38Z</time>
      </trkpt>
      <trkpt lat="42.25544" lon="8.90749">
        <ele>1731.8</ele>
        <time>2015-06-27T07:42:44Z</time>
      </trkpt>
      <trkpt lat="42.2554" lon="8.90738">
        <ele>1730.6</ele>
        <time>2015-06-27T07:42:52Z</time>
      </trkpt>
      <trkpt lat="42.25536" lon="8.9073">
        <ele>1729.8</ele>
        <time>2015-06-27T07:42:58Z</time>
      </trkpt>
      <trkpt lat="42.25534" lon="8.90728">
        <ele>1729.6</ele>
        <time>2015-06-27T07:43:00Z</time>
      </trkpt>
      <trkpt lat="42.25534" lon="8.90726">
        <ele>1729.4</ele>
        <time>2015-06-27T07:43:02Z</time>
      </trkpt>
      <trkpt lat="42.25532" lon="8.90723">
        <ele>1729.2</ele>
        <time>2015-06-27T07:43:05Z</time>
      </trkpt>
      <trkpt lat="42.2553" lon="8.90714">
        <ele>1728.4</ele>
        <time>2015-06-27T07:43:15Z</time>
      </trkpt>
      <trkpt lat="42.25521" lon="8.90699">
        <ele>1726.8</ele>
        <time>2015-06-27T07:43:29Z</time>
      </trkpt>
      <trkpt lat="42.25519" lon="8.90691">
        <ele>1726.6</ele>
        <time>2015-06-27T07:43:35Z</time>
      </trkpt>
      <trkpt lat="42.25514" lon="8.90678">
        <ele>1725.2</ele>
        <time>2015-06-27T07:43:48Z</time>
      </trkpt>
      <trkpt lat="42.25511" lon="8.9067">
        <ele>1724.6</ele>
        <time>2015-06-27T07:43:55Z</time>
      </trkpt>
      <trkpt lat="42.25509" lon="8.90666">
        <ele>1723.6</ele>
        <time>2015-06-27T07:44:01Z</time>
      </trkpt>
      <trkpt lat="42.25511" lon="8.90665">
        <ele>1722.6</ele>
        <time>2015-06-27T07:44:07Z</time>
      </trkpt>
      <trkpt lat="42.25515" lon="8.90666">
        <ele>1721.4</ele>
        <time>2015-06-27T07:44:14Z</time>
      </trkpt>
      <trkpt lat="42.25519" lon="8.9067">
        <ele>1720.6</ele>
        <time>2015-06-27T07:44:19Z</time>
      </trkpt>
      <trkpt lat="42.25525" lon="8.90673">
        <ele>1719.6</ele>
        <time>2015-06-27T07:44:26Z</time>
      </trkpt>
      <trkpt lat="42.2553" lon="8.90676">
        <ele>1718.6</ele>
        <time>2015-06-27T07:44:32Z</time>
      </trkpt>
      <trkpt lat="42.25535" lon="8.9068">
        <ele>1717.4</ele>
        <time>2015-06-27T07:44:38Z</time>
      </trkpt>
      <trkpt lat="42.25545" lon="8.90699">
        <ele>1715.8</ele>
        <time>2015-06-27T07:45:00Z</time>
      </trkpt>
      <trkpt lat="42.25556" lon="8.90708">
        <ele>1714.8</ele>
        <time>2015-06-27T07:45:14Z</time>
      </trkpt>
      <trkpt lat="42.2556" lon="8.90712">
        <ele>1713.8</ele>
        <time>2015-06-27T07:45:22Z</time>
      </trkpt>
      <trkpt lat="42.25565" lon="8.90717">
        <ele>1713</ele>
        <time>2015-06-27T07:45:30Z</time>
      </trkpt>
      <trkpt lat="42.25573" lon="8.90723">
        <ele>1712</ele>
        <time>2015-06-27T07:45:40Z</time>
      </trkpt>
      <trkpt lat="42.25581" lon="8.90733">
        <ele>1710.8</ele>
        <time>2015-06-27T07:45:53Z</time>
      </trkpt>
      <trkpt lat="42.25583" lon="8.90737">
        <ele>1710.2</ele>
        <time>2015-06-27T07:46:39Z</time>
      </trkpt>
      <trkpt lat="42.25589" lon="8.90741">
        <ele>1709.4</ele>
        <time>2015-06-27T07:46:49Z</time>
      </trkpt>
      <trkpt lat="42.25591" lon="8.90736">
        <ele>1708.8</ele>
        <time>2015-06-27T07:46:55Z</time>
      </trkpt>
      <trkpt lat="42.25591" lon="8.90729">
        <ele>1707.6</ele>
        <time>2015-06-27T07:47:02Z</time>
      </trkpt>
      <trkpt lat="42.25591" lon="8.90722">
        <ele>1706.4</ele>
        <time>2015-06-27T07:47:10Z</time>
      </trkpt>
      <trkpt lat="42.2559" lon="8.90714">
        <ele>1705.4</ele>
        <time>2015-06-27T07:47:19Z</time>
      </trkpt>
      <trkpt lat="42.25588" lon="8.90707">
        <ele>1704.8</ele>
        <time>2015-06-27T07:47:25Z</time>
      </trkpt>
      <trkpt lat="42.25585" lon="8.907">
        <ele>1703.6</ele>
        <time>2015-06-27T07:47:31Z</time>
      </trkpt>
      <trkpt lat="42.25582" lon="8.90693">
        <ele>1702.4</ele>
        <time>2015-06-27T07:47:38Z</time>
      </trkpt>
      <trkpt lat="42.25576" lon="8.90685">
        <ele>1701.4</ele>
        <time>2015-06-27T07:47:46Z</time>
      </trkpt>
      <trkpt lat="42.25568" lon="8.90675">
        <ele>1700</ele>
        <time>2015-06-27T07:47:56Z</time>
      </trkpt>
      <trkpt lat="42.25563" lon="8.90664">
        <ele>1698.8</ele>
        <time>2015-06-27T07:48:07Z</time>
      </trkpt>
      <trkpt lat="42.25563" lon="8.90664">
        <ele>1698.6</ele>
        <time>2015-06-27T07:48:09Z</time>
      </trkpt>
      <trkpt lat="42.25563" lon="8.90657">
        <ele>1698.4</ele>
        <time>2015-06-27T07:48:16Z</time>
      </trkpt>
      <trkpt lat="42.25563" lon="8.90653">
        <ele>1698.2</ele>
        <time>2015-06-27T07:48:19Z</time>
      </trkpt>
      <trkpt lat="42.25563" lon="8.90647">
        <ele>1696.6</ele>
        <time>2015-06-27T07:48:24Z</time>
      </trkpt>
      <trkpt lat="42.25564" lon="8.90646">
        <ele>1696.2</ele>
        <time>2015-06-27T07:48:25Z</time>
      </trkpt>
      <trkpt lat="42.25565" lon="8.90643">
        <ele>1695.6</ele>
        <time>2015-06-27T07:48:28Z</time>
      </trkpt>
      <trkpt lat="42.25566" lon="8.90638">
        <ele>1694.8</ele>
        <time>2015-06-27T07:48:32Z</time>
      </trkpt>
      <trkpt lat="42.25567" lon="8.90633">
        <ele>1693.2</ele>
        <time>2015-06-27T07:48:37Z</time>
      </trkpt>
      <trkpt lat="42.25571" lon="8.9063">
        <ele>1692.2</ele>
        <time>2015-06-27T07:48:42Z</time>
      </trkpt>
      <trkpt lat="42.25573" lon="8.90631">
        <ele>1691.4</ele>
        <time>2015-06-27T07:48:46Z</time>
      </trkpt>
      <trkpt lat="42.25574" lon="8.90628">
        <ele>1690.2</ele>
        <time>2015-06-27T07:48:50Z</time>
      </trkpt>
      <trkpt lat="42.25577" lon="8.90624">
        <ele>1688.4</ele>
        <time>2015-06-27T07:48:57Z</time>
      </trkpt>
      <trkpt lat="42.25579" lon="8.90624">
        <ele>1687.6</ele>
        <time>2015-06-27T07:49:01Z</time>
      </trkpt>
      <trkpt lat="42.25583" lon="8.90634">
        <ele>1685.8</ele>
        <time>2015-06-27T07:49:13Z</time>
      </trkpt>
      <trkpt lat="42.2559" lon="8.90647">
        <ele>1685</ele>
        <time>2015-06-27T07:49:24Z</time>
      </trkpt>
      <trkpt lat="42.25594" lon="8.90654">
        <ele>1684.2</ele>
        <time>2015-06-27T07:49:30Z</time>
      </trkpt>
      <trkpt lat="42.25596" lon="8.90652">
        <ele>1683</ele>
        <time>2015-06-27T07:49:37Z</time>
      </trkpt>
      <trkpt lat="42.25594" lon="8.90643">
        <ele>1682</ele>
        <time>2015-06-27T07:49:44Z</time>
      </trkpt>
      <trkpt lat="42.25594" lon="8.90636">
        <ele>1681</ele>
        <time>2015-06-27T07:49:50Z</time>
      </trkpt>
      <trkpt lat="42.25594" lon="8.90627">
        <ele>1679.8</ele>
        <time>2015-06-27T07:49:57Z</time>
      </trkpt>
      <trkpt lat="42.25594" lon="8.90614">
        <ele>1678.4</ele>
        <time>2015-06-27T07:50:08Z</time>
      </trkpt>
      <trkpt lat="42.25598" lon="8.90598">
        <ele>1677.6</ele>
        <time>2015-06-27T07:50:23Z</time>
      </trkpt>
      <trkpt lat="42.25598" lon="8.90591">
        <ele>1677.2</ele>
        <time>2015-06-27T07:50:29Z</time>
      </trkpt>
      <trkpt lat="42.25597" lon="8.90581">
        <ele>1675.6</ele>
        <time>2015-06-27T07:50:37Z</time>
      </trkpt>
      <trkpt lat="42.25598" lon="8.9057">
        <ele>1674.8</ele>
        <time>2015-06-27T07:50:45Z</time>
      </trkpt>
      <trkpt lat="42.25598" lon="8.90561">
        <ele>1673.6</ele>
        <time>2015-06-27T07:50:53Z</time>
      </trkpt>
      <trkpt lat="42.25597" lon="8.90544">
        <ele>1672.2</ele>
        <time>2015-06-27T07:51:06Z</time>
      </trkpt>
      <trkpt lat="42.25598" lon="8.90535">
        <ele>1671.6</ele>
        <time>2015-06-27T07:51:14Z</time>
      </trkpt>
      <trkpt lat="42.25596" lon="8.90524">
        <ele>1670.6</ele>
        <time>2015-06-27T07:51:22Z</time>
      </trkpt>
      <trkpt lat="42.256" lon="8.90513">
        <ele>1669.4</ele>
        <time>2015-06-27T07:51:34Z</time>
      </trkpt>
      <trkpt lat="42.25603" lon="8.90504">
        <ele>1668.4</ele>
        <time>2015-06-27T07:51:42Z</time>
      </trkpt>
      <trkpt lat="42.25606" lon="8.90498">
        <ele>1667.4</ele>
        <time>2015-06-27T07:51:49Z</time>
      </trkpt>
      <trkpt lat="42.25609" lon="8.90484">
        <ele>1666.2</ele>
        <time>2015-06-27T07:52:07Z</time>
      </trkpt>
      <trkpt lat="42.25614" lon="8.90463">
        <ele>1665.2</ele>
        <time>2015-06-27T07:52:25Z</time>
      </trkpt>
      <trkpt lat="42.25614" lon="8.90413">
        <ele>1664.6</ele>
        <time>2015-06-27T07:53:33Z</time>
      </trkpt>
      <trkpt lat="42.25619" lon="8.90408">
        <ele>1664.2</ele>
        <time>2015-06-27T07:53:40Z</time>
      </trkpt>
      <trkpt lat="42.25626" lon="8.90401">
        <ele>1663</ele>
        <time>2015-06-27T07:53:48Z</time>
      </trkpt>
      <trkpt lat="42.25631" lon="8.90394">
        <ele>1662.2</ele>
        <time>2015-06-27T07:53:55Z</time>
      </trkpt>
      <trkpt lat="42.25635" lon="8.90391">
        <ele>1661.6</ele>
        <time>2015-06-27T07:54:00Z</time>
      </trkpt>
      <trkpt lat="42.25639" lon="8.90388">
        <ele>1660.4</ele>
        <time>2015-06-27T07:54:05Z</time>
      </trkpt>
      <trkpt lat="42.25642" lon="8.90379">
        <ele>1658.6</ele>
        <time>2015-06-27T07:54:15Z</time>
      </trkpt>
      <trkpt lat="42.25646" lon="8.90374">
        <ele>1658</ele>
        <time>2015-06-27T07:54:22Z</time>
      </trkpt>
      <trkpt lat="42.25649" lon="8.90367">
        <ele>1657</ele>
        <time>2015-06-27T07:54:29Z</time>
      </trkpt>
      <trkpt lat="42.25654" lon="8.90359">
        <ele>1656.2</ele>
        <time>2015-06-27T07:54:37Z</time>
      </trkpt>
      <trkpt lat="42.25665" lon="8.90349">
        <ele>1655</ele>
        <time>2015-06-27T07:54:51Z</time>
      </trkpt>
      <trkpt lat="42.25671" lon="8.90347">
        <ele>1654.2</ele>
        <time>2015-06-27T07:54:57Z</time>
      </trkpt>
      <trkpt lat="42.25679" lon="8.90341">
        <ele>1652.6</ele>
        <time>2015-06-27T07:55:06Z</time>
      </trkpt>
      <trkpt lat="42.25699" lon="8.90324">
        <ele>1651.4</ele>
        <time>2015-06-27T07:55:25Z</time>
      </trkpt>
      <trkpt lat="42.25719" lon="8.90295">
        <ele>1650.8</ele>
        <time>2015-06-27T07:55:55Z</time>
      </trkpt>
      <trkpt lat="42.25722" lon="8.90291">
        <ele>1650</ele>
        <time>2015-06-27T07:56:02Z</time>
      </trkpt>
      <trkpt lat="42.25729" lon="8.90283">
        <ele>1648.6</ele>
        <time>2015-06-27T07:56:13Z</time>
      </trkpt>
      <trkpt lat="42.25744" lon="8.90269">
        <ele>1647.4</ele>
        <time>2015-06-27T07:56:32Z</time>
      </trkpt>
      <trkpt lat="42.25751" lon="8.90258">
        <ele>1646.8</ele>
        <time>2015-06-27T07:56:46Z</time>
      </trkpt>
      <trkpt lat="42.25764" lon="8.90248">
        <ele>1645.6</ele>
        <time>2015-06-27T07:57:00Z</time>
      </trkpt>
      <trkpt lat="42.25771" lon="8.90245">
        <ele>1645</ele>
        <time>2015-06-27T07:57:07Z</time>
      </trkpt>
      <trkpt lat="42.25782" lon="8.90239">
        <ele>1643.8</ele>
        <time>2015-06-27T07:57:18Z</time>
      </trkpt>
      <trkpt lat="42.25792" lon="8.90233">
        <ele>1642.6</ele>
        <time>2015-06-27T07:57:28Z</time>
      </trkpt>
      <trkpt lat="42.25805" lon="8.90223">
        <ele>1641.8</ele>
        <time>2015-06-27T07:57:40Z</time>
      </trkpt>
      <trkpt lat="42.25808" lon="8.90219">
        <ele>1641</ele>
        <time>2015-06-27T07:57:45Z</time>
      </trkpt>
      <trkpt lat="42.2581" lon="8.90208">
        <ele>1639.8</ele>
        <time>2015-06-27T07:57:54Z</time>
      </trkpt>
      <trkpt lat="42.25812" lon="8.90196">
        <ele>1638.6</ele>
        <time>2015-06-27T07:58:04Z</time>
      </trkpt>
      <trkpt lat="42.25815" lon="8.90186">
        <ele>1637.8</ele>
        <time>2015-06-27T07:58:12Z</time>
      </trkpt>
      <trkpt lat="42.25816" lon="8.90177">
        <ele>1637.6</ele>
        <time>2015-06-27T07:58:18Z</time>
      </trkpt>
      <trkpt lat="42.25816" lon="8.90168">
        <ele>1636.6</ele>
        <time>2015-06-27T07:58:25Z</time>
      </trkpt>
      <trkpt lat="42.25817" lon="8.90158">
        <ele>1635.6</ele>
        <time>2015-06-27T07:58:33Z</time>
      </trkpt>
      <trkpt lat="42.25819" lon="8.90145">
        <ele>1634.4</ele>
        <time>2015-06-27T07:58:47Z</time>
      </trkpt>
      <trkpt lat="42.25821" lon="8.9014">
        <ele>1633.8</ele>
        <time>2015-06-27T07:58:53Z</time>
      </trkpt>
      <trkpt lat="42.25824" lon="8.90132">
        <ele>1632.8</ele>
        <time>2015-06-27T07:59:00Z</time>
      </trkpt>
      <trkpt lat="42.25827" lon="8.90122">
        <ele>1631.6</ele>
        <time>2015-06-27T07:59:07Z</time>
      </trkpt>
      <trkpt lat="42.25829" lon="8.90115">
        <ele>1630.8</ele>
        <time>2015-06-27T07:59:12Z</time>
      </trkpt>
      <trkpt lat="42.25832" lon="8.90104">
        <ele>1629.2</ele>
        <time>2015-06-27T07:59:20Z</time>
      </trkpt>
      <trkpt lat="42.25835" lon="8.90098">
        <ele>1628.4</ele>
        <time>2015-06-27T07:59:26Z</time>
      </trkpt>
      <trkpt lat="42.2584" lon="8.90085">
        <ele>1627.2</ele>
        <time>2015-06-27T07:59:34Z</time>
      </trkpt>
      <trkpt lat="42.25845" lon="8.90074">
        <ele>1626.2</ele>
        <time>2015-06-27T07:59:43Z</time>
      </trkpt>
      <trkpt lat="42.25851" lon="8.90064">
        <ele>1625.2</ele>
        <time>2015-06-27T07:59:53Z</time>
      </trkpt>
      <trkpt lat="42.2585" lon="8.90058">
        <ele>1624.2</ele>
        <time>2015-06-27T08:00:00Z</time>
      </trkpt>
      <trkpt lat="42.25854" lon="8.90047">
        <ele>1623.4</ele>
        <time>2015-06-27T08:00:11Z</time>
      </trkpt>
      <trkpt lat="42.25855" lon="8.90039">
        <ele>1622.6</ele>
        <time>2015-06-27T08:00:17Z</time>
      </trkpt>
      <trkpt lat="42.2586" lon="8.90032">
        <ele>1621.4</ele>
        <time>2015-06-27T08:00:25Z</time>
      </trkpt>
      <trkpt lat="42.25864" lon="8.90022">
        <ele>1620.2</ele>
        <time>2015-06-27T08:00:34Z</time>
      </trkpt>
      <trkpt lat="42.25867" lon="8.90013">
        <ele>1619</ele>
        <time>2015-06-27T08:00:41Z</time>
      </trkpt>
      <trkpt lat="42.25869" lon="8.90007">
        <ele>1618.2</ele>
        <time>2015-06-27T08:00:47Z</time>
      </trkpt>
      <trkpt lat="42.25871" lon="8.90001">
        <ele>1617.2</ele>
        <time>2015-06-27T08:00:53Z</time>
      </trkpt>
      <trkpt lat="42.25873" lon="8.89996">
        <ele>1616.2</ele>
        <time>2015-06-27T08:00:58Z</time>
      </trkpt>
      <trkpt lat="42.25876" lon="8.89988">
        <ele>1615</ele>
        <time>2015-06-27T08:01:04Z</time>
      </trkpt>
      <trkpt lat="42.25879" lon="8.89982">
        <ele>1614.2</ele>
        <time>2015-06-27T08:01:10Z</time>
      </trkpt>
      <trkpt lat="42.25881" lon="8.89977">
        <ele>1613</ele>
        <time>2015-06-27T08:01:15Z</time>
      </trkpt>
      <trkpt lat="42.25883" lon="8.89963">
        <ele>1611.2</ele>
        <time>2015-06-27T08:01:28Z</time>
      </trkpt>
      <trkpt lat="42.25884" lon="8.89958">
        <ele>1611</ele>
        <time>2015-06-27T08:01:32Z</time>
      </trkpt>
      <trkpt lat="42.25884" lon="8.89955">
        <ele>1611</ele>
        <time>2015-06-27T08:01:34Z</time>
      </trkpt>
      <trkpt lat="42.25887" lon="8.89949">
        <ele>1609.8</ele>
        <time>2015-06-27T08:01:40Z</time>
      </trkpt>
      <trkpt lat="42.25892" lon="8.89946">
        <ele>1608.4</ele>
        <time>2015-06-27T08:01:47Z</time>
      </trkpt>
      <trkpt lat="42.25899" lon="8.89939">
        <ele>1607.4</ele>
        <time>2015-06-27T08:01:55Z</time>
      </trkpt>
      <trkpt lat="42.25904" lon="8.89933">
        <ele>1606.2</ele>
        <time>2015-06-27T08:02:02Z</time>
      </trkpt>
      <trkpt lat="42.25909" lon="8.89926">
        <ele>1605.2</ele>
        <time>2015-06-27T08:02:09Z</time>
      </trkpt>
      <trkpt lat="42.25914" lon="8.89911">
        <ele>1603.6</ele>
        <time>2015-06-27T08:02:21Z</time>
      </trkpt>
      <trkpt lat="42.25916" lon="8.89909">
        <ele>1603.2</ele>
        <time>2015-06-27T08:02:23Z</time>
      </trkpt>
      <trkpt lat="42.25918" lon="8.89903">
        <ele>1603</ele>
        <time>2015-06-27T08:02:28Z</time>
      </trkpt>
      <trkpt lat="42.25919" lon="8.899">
        <ele>1602.8</ele>
        <time>2015-06-27T08:02:30Z</time>
      </trkpt>
      <trkpt lat="42.25921" lon="8.89895">
        <ele>1602.2</ele>
        <time>2015-06-27T08:02:34Z</time>
      </trkpt>
      <trkpt lat="42.25922" lon="8.8989">
        <ele>1602</ele>
        <time>2015-06-27T08:02:37Z</time>
      </trkpt>
      <trkpt lat="42.25923" lon="8.89886">
        <ele>1601.6</ele>
        <time>2015-06-27T08:02:40Z</time>
      </trkpt>
      <trkpt lat="42.25923" lon="8.89884">
        <ele>1601.6</ele>
        <time>2015-06-27T08:02:41Z</time>
      </trkpt>
      <trkpt lat="42.25925" lon="8.89881">
        <ele>1601.2</ele>
        <time>2015-06-27T08:02:44Z</time>
      </trkpt>
      <trkpt lat="42.25926" lon="8.89879">
        <ele>1601.2</ele>
        <time>2015-06-27T08:02:46Z</time>
      </trkpt>
      <trkpt lat="42.25931" lon="8.89871">
        <ele>1601</ele>
        <time>2015-06-27T08:02:54Z</time>
      </trkpt>
      <trkpt lat="42.25932" lon="8.89869">
        <ele>1600.6</ele>
        <time>2015-06-27T08:02:56Z</time>
      </trkpt>
      <trkpt lat="42.25934" lon="8.89862">
        <ele>1600.2</ele>
        <time>2015-06-27T08:03:02Z</time>
      </trkpt>
      <trkpt lat="42.25934" lon="8.89861">
        <ele>1600</ele>
        <time>2015-06-27T08:03:03Z</time>
      </trkpt>
      <trkpt lat="42.25934" lon="8.8986">
        <ele>1600</ele>
        <time>2015-06-27T08:03:04Z</time>
      </trkpt>
      <trkpt lat="42.25934" lon="8.89852">
        <ele>1599</ele>
        <time>2015-06-27T08:03:10Z</time>
      </trkpt>
      <trkpt lat="42.25934" lon="8.8985">
        <ele>1599</ele>
        <time>2015-06-27T08:03:11Z</time>
      </trkpt>
      <trkpt lat="42.25934" lon="8.89849">
        <ele>1599</ele>
        <time>2015-06-27T08:03:12Z</time>
      </trkpt>
      <trkpt lat="42.25932" lon="8.89842">
        <ele>1598.2</ele>
        <time>2015-06-27T08:03:17Z</time>
      </trkpt>
      <trkpt lat="42.25931" lon="8.89837">
        <ele>1598</ele>
        <time>2015-06-27T08:03:20Z</time>
      </trkpt>
      <trkpt lat="42.25931" lon="8.89834">
        <ele>1597.6</ele>
        <time>2015-06-27T08:03:22Z</time>
      </trkpt>
      <trkpt lat="42.2593" lon="8.89827">
        <ele>1596.8</ele>
        <time>2015-06-27T08:03:27Z</time>
      </trkpt>
      <trkpt lat="42.25931" lon="8.89825">
        <ele>1596.4</ele>
        <time>2015-06-27T08:03:30Z</time>
      </trkpt>
      <trkpt lat="42.25934" lon="8.89819">
        <ele>1595.4</ele>
        <time>2015-06-27T08:03:35Z</time>
      </trkpt>
      <trkpt lat="42.25938" lon="8.89817">
        <ele>1594.6</ele>
        <time>2015-06-27T08:03:40Z</time>
      </trkpt>
      <trkpt lat="42.25948" lon="8.89813">
        <ele>1593.4</ele>
        <time>2015-06-27T08:03:51Z</time>
      </trkpt>
      <trkpt lat="42.25951" lon="8.89805">
        <ele>1593</ele>
        <time>2015-06-27T08:03:58Z</time>
      </trkpt>
      <trkpt lat="42.25959" lon="8.89793">
        <ele>1591.4</ele>
        <time>2015-06-27T08:04:11Z</time>
      </trkpt>
      <trkpt lat="42.25962" lon="8.89792">
        <ele>1591.4</ele>
        <time>2015-06-27T08:04:15Z</time>
      </trkpt>
      <trkpt lat="42.25963" lon="8.89791">
        <ele>1590.8</ele>
        <time>2015-06-27T08:04:17Z</time>
      </trkpt>
      <trkpt lat="42.25963" lon="8.8979">
        <ele>1590.8</ele>
        <time>2015-06-27T08:04:19Z</time>
      </trkpt>
      <trkpt lat="42.25967" lon="8.89783">
        <ele>1589.8</ele>
        <time>2015-06-27T08:04:25Z</time>
      </trkpt>
      <trkpt lat="42.25972" lon="8.89773">
        <ele>1588.6</ele>
        <time>2015-06-27T08:04:33Z</time>
      </trkpt>
      <trkpt lat="42.25973" lon="8.89772">
        <ele>1588.2</ele>
        <time>2015-06-27T08:04:35Z</time>
      </trkpt>
      <trkpt lat="42.25974" lon="8.8977">
        <ele>1588</ele>
        <time>2015-06-27T08:04:37Z</time>
      </trkpt>
      <trkpt lat="42.25976" lon="8.89766">
        <ele>1587.4</ele>
        <time>2015-06-27T08:04:41Z</time>
      </trkpt>
      <trkpt lat="42.25977" lon="8.89763">
        <ele>1587</ele>
        <time>2015-06-27T08:04:44Z</time>
      </trkpt>
      <trkpt lat="42.25978" lon="8.89762">
        <ele>1586.8</ele>
        <time>2015-06-27T08:04:46Z</time>
      </trkpt>
      <trkpt lat="42.25978" lon="8.89762">
        <ele>1586.8</ele>
        <time>2015-06-27T08:04:47Z</time>
      </trkpt>
      <trkpt lat="42.25981" lon="8.89757">
        <ele>1585.4</ele>
        <time>2015-06-27T08:04:54Z</time>
      </trkpt>
      <trkpt lat="42.25984" lon="8.89751">
        <ele>1584.4</ele>
        <time>2015-06-27T08:05:00Z</time>
      </trkpt>
      <trkpt lat="42.25987" lon="8.89745">
        <ele>1583.2</ele>
        <time>2015-06-27T08:05:07Z</time>
      </trkpt>
      <trkpt lat="42.25994" lon="8.89738">
        <ele>1581.8</ele>
        <time>2015-06-27T08:05:15Z</time>
      </trkpt>
      <trkpt lat="42.25999" lon="8.89731">
        <ele>1581</ele>
        <time>2015-06-27T08:05:22Z</time>
      </trkpt>
      <trkpt lat="42.26001" lon="8.89726">
        <ele>1580</ele>
        <time>2015-06-27T08:05:28Z</time>
      </trkpt>
      <trkpt lat="42.26005" lon="8.89723">
        <ele>1579.4</ele>
        <time>2015-06-27T08:05:33Z</time>
      </trkpt>
      <trkpt lat="42.26006" lon="8.89721">
        <ele>1579</ele>
        <time>2015-06-27T08:05:35Z</time>
      </trkpt>
      <trkpt lat="42.26006" lon="8.89717">
        <ele>1578.8</ele>
        <time>2015-06-27T08:05:38Z</time>
      </trkpt>
      <trkpt lat="42.26008" lon="8.89713">
        <ele>1577.8</ele>
        <time>2015-06-27T08:05:42Z</time>
      </trkpt>
      <trkpt lat="42.2601" lon="8.89707">
        <ele>1576.2</ele>
        <time>2015-06-27T08:05:47Z</time>
      </trkpt>
      <trkpt lat="42.26009" lon="8.89704">
        <ele>1576</ele>
        <time>2015-06-27T08:05:49Z</time>
      </trkpt>
      <trkpt lat="42.2601" lon="8.89702">
        <ele>1576</ele>
        <time>2015-06-27T08:05:51Z</time>
      </trkpt>
      <trkpt lat="42.26011" lon="8.89699">
        <ele>1575.2</ele>
        <time>2015-06-27T08:05:54Z</time>
      </trkpt>
      <trkpt lat="42.26013" lon="8.89692">
        <ele>1573.8</ele>
        <time>2015-06-27T08:06:00Z</time>
      </trkpt>
      <trkpt lat="42.26016" lon="8.89685">
        <ele>1572.4</ele>
        <time>2015-06-27T08:06:06Z</time>
      </trkpt>
      <trkpt lat="42.26017" lon="8.89684">
        <ele>1572.2</ele>
        <time>2015-06-27T08:06:08Z</time>
      </trkpt>
      <trkpt lat="42.2602" lon="8.89679">
        <ele>1571.6</ele>
        <time>2015-06-27T08:06:14Z</time>
      </trkpt>
      <trkpt lat="42.26022" lon="8.89674">
        <ele>1570.8</ele>
        <time>2015-06-27T08:06:19Z</time>
      </trkpt>
      <trkpt lat="42.26024" lon="8.89671">
        <ele>1569.4</ele>
        <time>2015-06-27T08:06:25Z</time>
      </trkpt>
      <trkpt lat="42.26029" lon="8.89667">
        <ele>1568.4</ele>
        <time>2015-06-27T08:06:30Z</time>
      </trkpt>
      <trkpt lat="42.26031" lon="8.89661">
        <ele>1568</ele>
        <time>2015-06-27T08:06:36Z</time>
      </trkpt>
      <trkpt lat="42.2603" lon="8.89654">
        <ele>1567.2</ele>
        <time>2015-06-27T08:06:42Z</time>
      </trkpt>
      <trkpt lat="42.26031" lon="8.89653">
        <ele>1567</ele>
        <time>2015-06-27T08:06:43Z</time>
      </trkpt>
      <trkpt lat="42.26037" lon="8.89648">
        <ele>1565.8</ele>
        <time>2015-06-27T08:06:51Z</time>
      </trkpt>
      <trkpt lat="42.26038" lon="8.89644">
        <ele>1565.6</ele>
        <time>2015-06-27T08:06:54Z</time>
      </trkpt>
      <trkpt lat="42.2604" lon="8.8964">
        <ele>1564.8</ele>
        <time>2015-06-27T08:06:58Z</time>
      </trkpt>
      <trkpt lat="42.26041" lon="8.89636">
        <ele>1563.2</ele>
        <time>2015-06-27T08:07:02Z</time>
      </trkpt>
      <trkpt lat="42.26045" lon="8.89634">
        <ele>1562.8</ele>
        <time>2015-06-27T08:07:07Z</time>
      </trkpt>
      <trkpt lat="42.26047" lon="8.89633">
        <ele>1562.4</ele>
        <time>2015-06-27T08:07:09Z</time>
      </trkpt>
      <trkpt lat="42.26046" lon="8.89629">
        <ele>1562</ele>
        <time>2015-06-27T08:07:13Z</time>
      </trkpt>
      <trkpt lat="42.26048" lon="8.89624">
        <ele>1561.2</ele>
        <time>2015-06-27T08:07:18Z</time>
      </trkpt>
      <trkpt lat="42.26051" lon="8.8962">
        <ele>1559.8</ele>
        <time>2015-06-27T08:07:25Z</time>
      </trkpt>
      <trkpt lat="42.26052" lon="8.8962">
        <ele>1559.6</ele>
        <time>2015-06-27T08:07:26Z</time>
      </trkpt>
      <trkpt lat="42.26052" lon="8.8962">
        <ele>1559.6</ele>
        <time>2015-06-27T08:07:27Z</time>
      </trkpt>
      <trkpt lat="42.26054" lon="8.89617">
        <ele>1558.8</ele>
        <time>2015-06-27T08:07:31Z</time>
      </trkpt>
      <trkpt lat="42.26056" lon="8.89612">
        <ele>1558</ele>
        <time>2015-06-27T08:07:36Z</time>
      </trkpt>
      <trkpt lat="42.26059" lon="8.89607">
        <ele>1556.4</ele>
        <time>2015-06-27T08:07:43Z</time>
      </trkpt>
      <trkpt lat="42.26066" lon="8.89601">
        <ele>1555</ele>
        <time>2015-06-27T08:07:53Z</time>
      </trkpt>
      <trkpt lat="42.26069" lon="8.89601">
        <ele>1554.4</ele>
        <time>2015-06-27T08:07:57Z</time>
      </trkpt>
      <trkpt lat="42.26074" lon="8.89599">
        <ele>1553.2</ele>
        <time>2015-06-27T08:08:03Z</time>
      </trkpt>
      <trkpt lat="42.26077" lon="8.89595">
        <ele>1552.4</ele>
        <time>2015-06-27T08:08:08Z</time>
      </trkpt>
      <trkpt lat="42.2608" lon="8.89592">
        <ele>1551.6</ele>
        <time>2015-06-27T08:08:12Z</time>
      </trkpt>
      <trkpt lat="42.2608" lon="8.89592">
        <ele>1551.4</ele>
        <time>2015-06-27T08:08:13Z</time>
      </trkpt>
      <trkpt lat="42.26084" lon="8.89589">
        <ele>1550</ele>
        <time>2015-06-27T08:08:18Z</time>
      </trkpt>
      <trkpt lat="42.26087" lon="8.89588">
        <ele>1549</ele>
        <time>2015-06-27T08:08:23Z</time>
      </trkpt>
      <trkpt lat="42.26089" lon="8.89585">
        <ele>1548</ele>
        <time>2015-06-27T08:08:29Z</time>
      </trkpt>
      <trkpt lat="42.26089" lon="8.89582">
        <ele>1547.8</ele>
        <time>2015-06-27T08:08:32Z</time>
      </trkpt>
      <trkpt lat="42.26086" lon="8.89575">
        <ele>1545.4</ele>
        <time>2015-06-27T08:08:38Z</time>
      </trkpt>
      <trkpt lat="42.26086" lon="8.89573">
        <ele>1545.4</ele>
        <time>2015-06-27T08:08:40Z</time>
      </trkpt>
      <trkpt lat="42.26089" lon="8.89569">
        <ele>1544.4</ele>
        <time>2015-06-27T08:08:47Z</time>
      </trkpt>
      <trkpt lat="42.26092" lon="8.89568">
        <ele>1543.6</ele>
        <time>2015-06-27T08:08:52Z</time>
      </trkpt>
      <trkpt lat="42.26095" lon="8.89567">
        <ele>1542.8</ele>
        <time>2015-06-27T08:08:56Z</time>
      </trkpt>
      <trkpt lat="42.26096" lon="8.89564">
        <ele>1541.4</ele>
        <time>2015-06-27T08:09:01Z</time>
      </trkpt>
      <trkpt lat="42.26096" lon="8.8956">
        <ele>1540.6</ele>
        <time>2015-06-27T08:09:06Z</time>
      </trkpt>
      <trkpt lat="42.26097" lon="8.89558">
        <ele>1539.6</ele>
        <time>2015-06-27T08:09:10Z</time>
      </trkpt>
      <trkpt lat="42.26104" lon="8.89562">
        <ele>1537.6</ele>
        <time>2015-06-27T08:09:21Z</time>
      </trkpt>
      <trkpt lat="42.26107" lon="8.89561">
        <ele>1537</ele>
        <time>2015-06-27T08:09:27Z</time>
      </trkpt>
      <trkpt lat="42.2611" lon="8.89559">
        <ele>1536</ele>
        <time>2015-06-27T08:09:33Z</time>
      </trkpt>
      <trkpt lat="42.26113" lon="8.89556">
        <ele>1535</ele>
        <time>2015-06-27T08:09:38Z</time>
      </trkpt>
      <trkpt lat="42.26114" lon="8.89552">
        <ele>1534.4</ele>
        <time>2015-06-27T08:09:42Z</time>
      </trkpt>
      <trkpt lat="42.26114" lon="8.89548">
        <ele>1532.8</ele>
        <time>2015-06-27T08:09:47Z</time>
      </trkpt>
      <trkpt lat="42.26117" lon="8.89546">
        <ele>1531.4</ele>
        <time>2015-06-27T08:09:54Z</time>
      </trkpt>
      <trkpt lat="42.26119" lon="8.89543">
        <ele>1530.8</ele>
        <time>2015-06-27T08:09:58Z</time>
      </trkpt>
      <trkpt lat="42.26122" lon="8.89542">
        <ele>1530</ele>
        <time>2015-06-27T08:10:02Z</time>
      </trkpt>
      <trkpt lat="42.26124" lon="8.89539">
        <ele>1529</ele>
        <time>2015-06-27T08:10:07Z</time>
      </trkpt>
      <trkpt lat="42.26126" lon="8.89538">
        <ele>1528</ele>
        <time>2015-06-27T08:10:11Z</time>
      </trkpt>
      <trkpt lat="42.26127" lon="8.89534">
        <ele>1527</ele>
        <time>2015-06-27T08:10:15Z</time>
      </trkpt>
      <trkpt lat="42.26129" lon="8.8953">
        <ele>1525.6</ele>
        <time>2015-06-27T08:10:20Z</time>
      </trkpt>
      <trkpt lat="42.26131" lon="8.89527">
        <ele>1524.4</ele>
        <time>2015-06-27T08:10:24Z</time>
      </trkpt>
      <trkpt lat="42.26134" lon="8.89524">
        <ele>1523</ele>
        <time>2015-06-27T08:10:31Z</time>
      </trkpt>
      <trkpt lat="42.26136" lon="8.89518">
        <ele>1522.4</ele>
        <time>2015-06-27T08:10:36Z</time>
      </trkpt>
      <trkpt lat="42.26139" lon="8.89514">
        <ele>1521.2</ele>
        <time>2015-06-27T08:10:41Z</time>
      </trkpt>
      <trkpt lat="42.26143" lon="8.89511">
        <ele>1520.2</ele>
        <time>2015-06-27T08:10:46Z</time>
      </trkpt>
      <trkpt lat="42.26147" lon="8.89507">
        <ele>1519</ele>
        <time>2015-06-27T08:10:52Z</time>
      </trkpt>
      <trkpt lat="42.26148" lon="8.89502">
        <ele>1518</ele>
        <time>2015-06-27T08:10:57Z</time>
      </trkpt>
      <trkpt lat="42.26152" lon="8.89498">
        <ele>1516.8</ele>
        <time>2015-06-27T08:11:03Z</time>
      </trkpt>
      <trkpt lat="42.26159" lon="8.89497">
        <ele>1515.4</ele>
        <time>2015-06-27T08:11:12Z</time>
      </trkpt>
      <trkpt lat="42.26169" lon="8.89498">
        <ele>1514.2</ele>
        <time>2015-06-27T08:11:22Z</time>
      </trkpt>
      <trkpt lat="42.26177" lon="8.89498">
        <ele>1513.4</ele>
        <time>2015-06-27T08:11:30Z</time>
      </trkpt>
      <trkpt lat="42.26184" lon="8.89498">
        <ele>1512.6</ele>
        <time>2015-06-27T08:11:37Z</time>
      </trkpt>
      <trkpt lat="42.26189" lon="8.89495">
        <ele>1511.6</ele>
        <time>2015-06-27T08:11:43Z</time>
      </trkpt>
      <trkpt lat="42.26191" lon="8.89494">
        <ele>1511</ele>
        <time>2015-06-27T08:11:46Z</time>
      </trkpt>
      <trkpt lat="42.26193" lon="8.89495">
        <ele>1510.8</ele>
        <time>2015-06-27T08:11:48Z</time>
      </trkpt>
      <trkpt lat="42.26195" lon="8.89493">
        <ele>1509.4</ele>
        <time>2015-06-27T08:11:54Z</time>
      </trkpt>
      <trkpt lat="42.26198" lon="8.89489">
        <ele>1508.2</ele>
        <time>2015-06-27T08:12:01Z</time>
      </trkpt>
      <trkpt lat="42.26201" lon="8.89487">
        <ele>1507.6</ele>
        <time>2015-06-27T08:12:05Z</time>
      </trkpt>
      <trkpt lat="42.26205" lon="8.89489">
        <ele>1506</ele>
        <time>2015-06-27T08:12:11Z</time>
      </trkpt>
      <trkpt lat="42.2621" lon="8.89485">
        <ele>1505.2</ele>
        <time>2015-06-27T08:12:17Z</time>
      </trkpt>
      <trkpt lat="42.26213" lon="8.89487">
        <ele>1504.2</ele>
        <time>2015-06-27T08:12:22Z</time>
      </trkpt>
      <trkpt lat="42.26217" lon="8.89484">
        <ele>1502.8</ele>
        <time>2015-06-27T08:12:28Z</time>
      </trkpt>
      <trkpt lat="42.26219" lon="8.89481">
        <ele>1502</ele>
        <time>2015-06-27T08:12:32Z</time>
      </trkpt>
      <trkpt lat="42.26222" lon="8.89476">
        <ele>1500.8</ele>
        <time>2015-06-27T08:12:37Z</time>
      </trkpt>
      <trkpt lat="42.26224" lon="8.89472">
        <ele>1500.2</ele>
        <time>2015-06-27T08:12:41Z</time>
      </trkpt>
      <trkpt lat="42.26228" lon="8.89466">
        <ele>1498.4</ele>
        <time>2015-06-27T08:12:47Z</time>
      </trkpt>
      <trkpt lat="42.26232" lon="8.89462">
        <ele>1497.6</ele>
        <time>2015-06-27T08:12:52Z</time>
      </trkpt>
      <trkpt lat="42.26238" lon="8.89459">
        <ele>1495.8</ele>
        <time>2015-06-27T08:12:58Z</time>
      </trkpt>
      <trkpt lat="42.26243" lon="8.89457">
        <ele>1495</ele>
        <time>2015-06-27T08:13:03Z</time>
      </trkpt>
      <trkpt lat="42.26248" lon="8.89454">
        <ele>1493.8</ele>
        <time>2015-06-27T08:13:09Z</time>
      </trkpt>
      <trkpt lat="42.26254" lon="8.89452">
        <ele>1493</ele>
        <time>2015-06-27T08:13:14Z</time>
      </trkpt>
      <trkpt lat="42.26262" lon="8.89448">
        <ele>1491.8</ele>
        <time>2015-06-27T08:13:21Z</time>
      </trkpt>
      <trkpt lat="42.26269" lon="8.89442">
        <ele>1490.4</ele>
        <time>2015-06-27T08:13:29Z</time>
      </trkpt>
      <trkpt lat="42.26273" lon="8.89437">
        <ele>1489.6</ele>
        <time>2015-06-27T08:13:36Z</time>
      </trkpt>
      <trkpt lat="42.26276" lon="8.89427">
        <ele>1488.4</ele>
        <time>2015-06-27T08:13:46Z</time>
      </trkpt>
      <trkpt lat="42.26281" lon="8.89418">
        <ele>1487.2</ele>
        <time>2015-06-27T08:13:57Z</time>
      </trkpt>
      <trkpt lat="42.26283" lon="8.89412">
        <ele>1486.8</ele>
        <time>2015-06-27T08:14:02Z</time>
      </trkpt>
      <trkpt lat="42.26284" lon="8.89409">
        <ele>1486</ele>
        <time>2015-06-27T08:14:07Z</time>
      </trkpt>
      <trkpt lat="42.26286" lon="8.89406">
        <ele>1484.2</ele>
        <time>2015-06-27T08:14:32Z</time>
      </trkpt>
      <trkpt lat="42.26288" lon="8.89402">
        <ele>1483.8</ele>
        <time>2015-06-27T08:14:38Z</time>
      </trkpt>
      <trkpt lat="42.26289" lon="8.89396">
        <ele>1482.4</ele>
        <time>2015-06-27T08:14:44Z</time>
      </trkpt>
      <trkpt lat="42.26289" lon="8.89387">
        <ele>1481</ele>
        <time>2015-06-27T08:14:52Z</time>
      </trkpt>
      <trkpt lat="42.26287" lon="8.89379">
        <ele>1480.4</ele>
        <time>2015-06-27T08:14:58Z</time>
      </trkpt>
      <trkpt lat="42.26288" lon="8.89378">
        <ele>1479.8</ele>
        <time>2015-06-27T08:15:00Z</time>
      </trkpt>
      <trkpt lat="42.26288" lon="8.89377">
        <ele>1479.8</ele>
        <time>2015-06-27T08:15:01Z</time>
      </trkpt>
      <trkpt lat="42.26289" lon="8.89373">
        <ele>1479.4</ele>
        <time>2015-06-27T08:15:04Z</time>
      </trkpt>
      <trkpt lat="42.2629" lon="8.89373">
        <ele>1479.2</ele>
        <time>2015-06-27T08:15:05Z</time>
      </trkpt>
      <trkpt lat="42.26291" lon="8.8937">
        <ele>1478.6</ele>
        <time>2015-06-27T08:15:08Z</time>
      </trkpt>
      <trkpt lat="42.26294" lon="8.89365">
        <ele>1477</ele>
        <time>2015-06-27T08:15:15Z</time>
      </trkpt>
      <trkpt lat="42.26296" lon="8.89363">
        <ele>1476.6</ele>
        <time>2015-06-27T08:15:18Z</time>
      </trkpt>
      <trkpt lat="42.26301" lon="8.89358">
        <ele>1475.2</ele>
        <time>2015-06-27T08:15:24Z</time>
      </trkpt>
      <trkpt lat="42.26301" lon="8.89357">
        <ele>1474.8</ele>
        <time>2015-06-27T08:15:25Z</time>
      </trkpt>
      <trkpt lat="42.26301" lon="8.89354">
        <ele>1474.4</ele>
        <time>2015-06-27T08:15:28Z</time>
      </trkpt>
      <trkpt lat="42.26302" lon="8.89353">
        <ele>1474.2</ele>
        <time>2015-06-27T08:15:29Z</time>
      </trkpt>
      <trkpt lat="42.26305" lon="8.89349">
        <ele>1473</ele>
        <time>2015-06-27T08:15:34Z</time>
      </trkpt>
      <trkpt lat="42.26305" lon="8.89348">
        <ele>1472.8</ele>
        <time>2015-06-27T08:15:35Z</time>
      </trkpt>
      <trkpt lat="42.26305" lon="8.89344">
        <ele>1472.2</ele>
        <time>2015-06-27T08:15:39Z</time>
      </trkpt>
      <trkpt lat="42.26307" lon="8.8934">
        <ele>1471.2</ele>
        <time>2015-06-27T08:15:43Z</time>
      </trkpt>
      <trkpt lat="42.26309" lon="8.89336">
        <ele>1469.8</ele>
        <time>2015-06-27T08:15:48Z</time>
      </trkpt>
      <trkpt lat="42.2631" lon="8.89336">
        <ele>1469.6</ele>
        <time>2015-06-27T08:15:49Z</time>
      </trkpt>
      <trkpt lat="42.26312" lon="8.89334">
        <ele>1468.8</ele>
        <time>2015-06-27T08:15:52Z</time>
      </trkpt>
      <trkpt lat="42.26314" lon="8.89332">
        <ele>1468</ele>
        <time>2015-06-27T08:15:57Z</time>
      </trkpt>
      <trkpt lat="42.26315" lon="8.89328">
        <ele>1467.8</ele>
        <time>2015-06-27T08:16:02Z</time>
      </trkpt>
      <trkpt lat="42.26318" lon="8.89327">
        <ele>1467.2</ele>
        <time>2015-06-27T08:16:05Z</time>
      </trkpt>
      <trkpt lat="42.26321" lon="8.89323">
        <ele>1465.8</ele>
        <time>2015-06-27T08:16:10Z</time>
      </trkpt>
      <trkpt lat="42.26323" lon="8.89317">
        <ele>1464.8</ele>
        <time>2015-06-27T08:16:15Z</time>
      </trkpt>
      <trkpt lat="42.26324" lon="8.89312">
        <ele>1463.8</ele>
        <time>2015-06-27T08:16:19Z</time>
      </trkpt>
      <trkpt lat="42.2633" lon="8.89295">
        <ele>1463</ele>
        <time>2015-06-27T08:16:51Z</time>
      </trkpt>
      <trkpt lat="42.26332" lon="8.89296">
        <ele>1463</ele>
        <time>2015-06-27T08:18:05Z</time>
      </trkpt>
      <trkpt lat="42.2633" lon="8.89295">
        <ele>1463.4</ele>
        <time>2015-06-27T08:18:41Z</time>
      </trkpt>
      <trkpt lat="42.2633" lon="8.89295">
        <ele>1463.6</ele>
        <time>2015-06-27T08:18:50Z</time>
      </trkpt>
      <trkpt lat="42.26329" lon="8.89296">
        <ele>1462.8</ele>
        <time>2015-06-27T08:19:29Z</time>
      </trkpt>
      <trkpt lat="42.26328" lon="8.89296">
        <ele>1463.2</ele>
        <time>2015-06-27T08:20:10Z</time>
      </trkpt>
      <trkpt lat="42.2633" lon="8.89295">
        <ele>1463.2</ele>
        <time>2015-06-27T08:21:33Z</time>
      </trkpt>
      <trkpt lat="42.26328" lon="8.89299">
        <ele>1463</ele>
        <time>2015-06-27T08:22:25Z</time>
      </trkpt>
      <trkpt lat="42.26326" lon="8.89295">
        <ele>1463.4</ele>
        <time>2015-06-27T08:24:31Z</time>
      </trkpt>
      <trkpt lat="42.26338" lon="8.89291">
        <ele>1463.2</ele>
        <time>2015-06-27T08:25:02Z</time>
      </trkpt>
      <trkpt lat="42.26332" lon="8.89295">
        <ele>1463.4</ele>
        <time>2015-06-27T08:25:19Z</time>
      </trkpt>
      <trkpt lat="42.26329" lon="8.89297">
        <ele>1463.4</ele>
        <time>2015-06-27T08:25:22Z</time>
      </trkpt>
      <trkpt lat="42.26329" lon="8.89298">
        <ele>1463</ele>
        <time>2015-06-27T08:25:50Z</time>
      </trkpt>
      <trkpt lat="42.26331" lon="8.89301">
        <ele>1462.6</ele>
        <time>2015-06-27T08:27:20Z</time>
      </trkpt>
      <trkpt lat="42.26333" lon="8.89311">
        <ele>1462</ele>
        <time>2015-06-27T08:27:29Z</time>
      </trkpt>
      <trkpt lat="42.26335" lon="8.89318">
        <ele>1461.4</ele>
        <time>2015-06-27T08:27:34Z</time>
      </trkpt>
      <trkpt lat="42.26336" lon="8.89323">
        <ele>1460.8</ele>
        <time>2015-06-27T08:27:38Z</time>
      </trkpt>
      <trkpt lat="42.26337" lon="8.89326">
        <ele>1460</ele>
        <time>2015-06-27T08:27:40Z</time>
      </trkpt>
      <trkpt lat="42.26338" lon="8.8933">
        <ele>1459</ele>
        <time>2015-06-27T08:27:44Z</time>
      </trkpt>
      <trkpt lat="42.2634" lon="8.89333">
        <ele>1458.8</ele>
        <time>2015-06-27T08:27:46Z</time>
      </trkpt>
      <trkpt lat="42.2634" lon="8.89335">
        <ele>1458.6</ele>
        <time>2015-06-27T08:27:48Z</time>
      </trkpt>
      <trkpt lat="42.26341" lon="8.89341">
        <ele>1457.8</ele>
        <time>2015-06-27T08:27:53Z</time>
      </trkpt>
      <trkpt lat="42.26342" lon="8.89341">
        <ele>1457.6</ele>
        <time>2015-06-27T08:27:54Z</time>
      </trkpt>
      <trkpt lat="42.26342" lon="8.89348">
        <ele>1457</ele>
        <time>2015-06-27T08:27:59Z</time>
      </trkpt>
      <trkpt lat="42.26344" lon="8.89355">
        <ele>1455.8</ele>
        <time>2015-06-27T08:28:06Z</time>
      </trkpt>
      <trkpt lat="42.26345" lon="8.89355">
        <ele>1455.6</ele>
        <time>2015-06-27T08:28:07Z</time>
      </trkpt>
      <trkpt lat="42.26347" lon="8.89353">
        <ele>1455.4</ele>
        <time>2015-06-27T08:28:10Z</time>
      </trkpt>
      <trkpt lat="42.26347" lon="8.89349">
        <ele>1454.8</ele>
        <time>2015-06-27T08:28:13Z</time>
      </trkpt>
      <trkpt lat="42.26349" lon="8.89344">
        <ele>1454</ele>
        <time>2015-06-27T08:28:18Z</time>
      </trkpt>
      <trkpt lat="42.26352" lon="8.89336">
        <ele>1452.4</ele>
        <time>2015-06-27T08:28:25Z</time>
      </trkpt>
      <trkpt lat="42.26355" lon="8.89328">
        <ele>1451.4</ele>
        <time>2015-06-27T08:28:32Z</time>
      </trkpt>
      <trkpt lat="42.2636" lon="8.89317">
        <ele>1450.2</ele>
        <time>2015-06-27T08:28:43Z</time>
      </trkpt>
      <trkpt lat="42.26362" lon="8.89305">
        <ele>1449</ele>
        <time>2015-06-27T08:28:54Z</time>
      </trkpt>
      <trkpt lat="42.26363" lon="8.89295">
        <ele>1448.2</ele>
        <time>2015-06-27T08:29:04Z</time>
      </trkpt>
      <trkpt lat="42.26368" lon="8.89287">
        <ele>1447.4</ele>
        <time>2015-06-27T08:29:12Z</time>
      </trkpt>
      <trkpt lat="42.2637" lon="8.89283">
        <ele>1446.8</ele>
        <time>2015-06-27T08:29:17Z</time>
      </trkpt>
      <trkpt lat="42.26375" lon="8.89271">
        <ele>1444.8</ele>
        <time>2015-06-27T08:29:32Z</time>
      </trkpt>
      <trkpt lat="42.26379" lon="8.89266">
        <ele>1444.4</ele>
        <time>2015-06-27T08:29:38Z</time>
      </trkpt>
      <trkpt lat="42.26386" lon="8.89258">
        <ele>1443</ele>
        <time>2015-06-27T08:29:46Z</time>
      </trkpt>
      <trkpt lat="42.26395" lon="8.89254">
        <ele>1441.8</ele>
        <time>2015-06-27T08:29:57Z</time>
      </trkpt>
      <trkpt lat="42.26401" lon="8.89256">
        <ele>1441</ele>
        <time>2015-06-27T08:30:03Z</time>
      </trkpt>
      <trkpt lat="42.26408" lon="8.89256">
        <ele>1440.2</ele>
        <time>2015-06-27T08:30:09Z</time>
      </trkpt>
      <trkpt lat="42.26418" lon="8.89258">
        <ele>1438.6</ele>
        <time>2015-06-27T08:30:19Z</time>
      </trkpt>
      <trkpt lat="42.26425" lon="8.89256">
        <ele>1437.8</ele>
        <time>2015-06-27T08:30:26Z</time>
      </trkpt>
      <trkpt lat="42.26431" lon="8.89257">
        <ele>1436.6</ele>
        <time>2015-06-27T08:30:34Z</time>
      </trkpt>
      <trkpt lat="42.26435" lon="8.89259">
        <ele>1436</ele>
        <time>2015-06-27T08:30:38Z</time>
      </trkpt>
      <trkpt lat="42.26439" lon="8.89261">
        <ele>1434.8</ele>
        <time>2015-06-27T08:30:43Z</time>
      </trkpt>
      <trkpt lat="42.26444" lon="8.89262">
        <ele>1433.8</ele>
        <time>2015-06-27T08:30:48Z</time>
      </trkpt>
      <trkpt lat="42.26446" lon="8.89262">
        <ele>1433.6</ele>
        <time>2015-06-27T08:30:49Z</time>
      </trkpt>
      <trkpt lat="42.26447" lon="8.89263">
        <ele>1433.2</ele>
        <time>2015-06-27T08:30:51Z</time>
      </trkpt>
      <trkpt lat="42.26451" lon="8.89262">
        <ele>1433</ele>
        <time>2015-06-27T08:30:54Z</time>
      </trkpt>
      <trkpt lat="42.26459" lon="8.89264">
        <ele>1431.4</ele>
        <time>2015-06-27T08:31:01Z</time>
      </trkpt>
      <trkpt lat="42.26465" lon="8.89265">
        <ele>1430.2</ele>
        <time>2015-06-27T08:31:08Z</time>
      </trkpt>
      <trkpt lat="42.26466" lon="8.89265">
        <ele>1430.2</ele>
        <time>2015-06-27T08:31:09Z</time>
      </trkpt>
      <trkpt lat="42.26472" lon="8.89263">
        <ele>1429.4</ele>
        <time>2015-06-27T08:31:15Z</time>
      </trkpt>
      <trkpt lat="42.26478" lon="8.89264">
        <ele>1428.4</ele>
        <time>2015-06-27T08:31:22Z</time>
      </trkpt>
      <trkpt lat="42.26482" lon="8.89264">
        <ele>1427.4</ele>
        <time>2015-06-27T08:31:28Z</time>
      </trkpt>
      <trkpt lat="42.26492" lon="8.89269">
        <ele>1426</ele>
        <time>2015-06-27T08:31:42Z</time>
      </trkpt>
      <trkpt lat="42.26498" lon="8.89272">
        <ele>1425.2</ele>
        <time>2015-06-27T08:31:48Z</time>
      </trkpt>
      <trkpt lat="42.26503" lon="8.89273">
        <ele>1424.2</ele>
        <time>2015-06-27T08:31:54Z</time>
      </trkpt>
      <trkpt lat="42.26511" lon="8.89272">
        <ele>1423</ele>
        <time>2015-06-27T08:32:02Z</time>
      </trkpt>
      <trkpt lat="42.26519" lon="8.89275">
        <ele>1421.6</ele>
        <time>2015-06-27T08:32:11Z</time>
      </trkpt>
      <trkpt lat="42.26527" lon="8.89276">
        <ele>1420.6</ele>
        <time>2015-06-27T08:32:23Z</time>
      </trkpt>
      <trkpt lat="42.26533" lon="8.89278">
        <ele>1419.8</ele>
        <time>2015-06-27T08:32:33Z</time>
      </trkpt>
      <trkpt lat="42.26536" lon="8.89278">
        <ele>1419</ele>
        <time>2015-06-27T08:32:39Z</time>
      </trkpt>
      <trkpt lat="42.26549" lon="8.89268">
        <ele>1417.2</ele>
        <time>2015-06-27T08:33:04Z</time>
      </trkpt>
      <trkpt lat="42.26555" lon="8.89269">
        <ele>1416.4</ele>
        <time>2015-06-27T08:33:13Z</time>
      </trkpt>
      <trkpt lat="42.26558" lon="8.8927">
        <ele>1415.6</ele>
        <time>2015-06-27T08:33:21Z</time>
      </trkpt>
      <trkpt lat="42.26565" lon="8.89261">
        <ele>1415.4</ele>
        <time>2015-06-27T08:34:10Z</time>
      </trkpt>
      <trkpt lat="42.26571" lon="8.89255">
        <ele>1416.4</ele>
        <time>2015-06-27T08:34:34Z</time>
      </trkpt>
      <trkpt lat="42.26591" lon="8.89259">
        <ele>1417.2</ele>
        <time>2015-06-27T08:36:06Z</time>
      </trkpt>
      <trkpt lat="42.26593" lon="8.89261">
        <ele>1416.4</ele>
        <time>2015-06-27T08:36:13Z</time>
      </trkpt>
      <trkpt lat="42.26594" lon="8.89263">
        <ele>1415.8</ele>
        <time>2015-06-27T08:36:17Z</time>
      </trkpt>
      <trkpt lat="42.26595" lon="8.89264">
        <ele>1415.4</ele>
        <time>2015-06-27T08:36:20Z</time>
      </trkpt>
      <trkpt lat="42.26598" lon="8.89267">
        <ele>1413.8</ele>
        <time>2015-06-27T08:36:25Z</time>
      </trkpt>
      <trkpt lat="42.26599" lon="8.89268">
        <ele>1412.8</ele>
        <time>2015-06-27T08:36:29Z</time>
      </trkpt>
      <trkpt lat="42.26601" lon="8.8927">
        <ele>1411.6</ele>
        <time>2015-06-27T08:36:34Z</time>
      </trkpt>
      <trkpt lat="42.26603" lon="8.89272">
        <ele>1409.6</ele>
        <time>2015-06-27T08:36:44Z</time>
      </trkpt>
      <trkpt lat="42.26604" lon="8.89271">
        <ele>1409.6</ele>
        <time>2015-06-27T08:36:46Z</time>
      </trkpt>
      <trkpt lat="42.266" lon="8.89266">
        <ele>1409.8</ele>
        <time>2015-06-27T08:37:02Z</time>
      </trkpt>
      <trkpt lat="42.266" lon="8.89267">
        <ele>1410</ele>
        <time>2015-06-27T08:37:03Z</time>
      </trkpt>
      <trkpt lat="42.26595" lon="8.89266">
        <ele>1411.2</ele>
        <time>2015-06-27T08:37:09Z</time>
      </trkpt>
      <trkpt lat="42.26592" lon="8.89266">
        <ele>1411.8</ele>
        <time>2015-06-27T08:37:12Z</time>
      </trkpt>
      <trkpt lat="42.26588" lon="8.89266">
        <ele>1412.4</ele>
        <time>2015-06-27T08:37:17Z</time>
      </trkpt>
      <trkpt lat="42.26556" lon="8.89271">
        <ele>1414</ele>
        <time>2015-06-27T08:38:10Z</time>
      </trkpt>
      <trkpt lat="42.26551" lon="8.89272">
        <ele>1414.4</ele>
        <time>2015-06-27T08:38:15Z</time>
      </trkpt>
      <trkpt lat="42.26531" lon="8.89275">
        <ele>1416.4</ele>
        <time>2015-06-27T08:38:44Z</time>
      </trkpt>
      <trkpt lat="42.26527" lon="8.89273">
        <ele>1417.2</ele>
        <time>2015-06-27T08:38:50Z</time>
      </trkpt>
      <trkpt lat="42.26517" lon="8.89271">
        <ele>1418.8</ele>
        <time>2015-06-27T08:39:03Z</time>
      </trkpt>
      <trkpt lat="42.2651" lon="8.89271">
        <ele>1419.8</ele>
        <time>2015-06-27T08:39:13Z</time>
      </trkpt>
      <trkpt lat="42.26503" lon="8.8927">
        <ele>1421.2</ele>
        <time>2015-06-27T08:39:24Z</time>
      </trkpt>
      <trkpt lat="42.26498" lon="8.89267">
        <ele>1422</ele>
        <time>2015-06-27T08:39:36Z</time>
      </trkpt>
      <trkpt lat="42.26491" lon="8.89263">
        <ele>1423.2</ele>
        <time>2015-06-27T08:39:51Z</time>
      </trkpt>
      <trkpt lat="42.26483" lon="8.89261">
        <ele>1424.6</ele>
        <time>2015-06-27T08:40:02Z</time>
      </trkpt>
      <trkpt lat="42.26476" lon="8.89267">
        <ele>1425.2</ele>
        <time>2015-06-27T08:40:21Z</time>
      </trkpt>
      <trkpt lat="42.26472" lon="8.89273">
        <ele>1424.2</ele>
        <time>2015-06-27T08:40:27Z</time>
      </trkpt>
      <trkpt lat="42.2647" lon="8.89276">
        <ele>1423.4</ele>
        <time>2015-06-27T08:40:31Z</time>
      </trkpt>
      <trkpt lat="42.26465" lon="8.89283">
        <ele>1421.8</ele>
        <time>2015-06-27T08:40:39Z</time>
      </trkpt>
      <trkpt lat="42.2646" lon="8.89287">
        <ele>1421</ele>
        <time>2015-06-27T08:40:44Z</time>
      </trkpt>
      <trkpt lat="42.26458" lon="8.89288">
        <ele>1420.6</ele>
        <time>2015-06-27T08:40:46Z</time>
      </trkpt>
      <trkpt lat="42.26431" lon="8.89292">
        <ele>1419</ele>
        <time>2015-06-27T08:41:26Z</time>
      </trkpt>
      <trkpt lat="42.26421" lon="8.89302">
        <ele>1418.4</ele>
        <time>2015-06-27T08:41:39Z</time>
      </trkpt>
      <trkpt lat="42.26418" lon="8.89308">
        <ele>1417.8</ele>
        <time>2015-06-27T08:41:45Z</time>
      </trkpt>
      <trkpt lat="42.26417" lon="8.89316">
        <ele>1416.4</ele>
        <time>2015-06-27T08:41:53Z</time>
      </trkpt>
      <trkpt lat="42.26418" lon="8.89321">
        <ele>1416</ele>
        <time>2015-06-27T08:41:57Z</time>
      </trkpt>
      <trkpt lat="42.2642" lon="8.89326">
        <ele>1415.2</ele>
        <time>2015-06-27T08:42:01Z</time>
      </trkpt>
      <trkpt lat="42.26424" lon="8.89332">
        <ele>1413.6</ele>
        <time>2015-06-27T08:42:07Z</time>
      </trkpt>
      <trkpt lat="42.26429" lon="8.89342">
        <ele>1412</ele>
        <time>2015-06-27T08:42:17Z</time>
      </trkpt>
      <trkpt lat="42.26432" lon="8.89353">
        <ele>1410.8</ele>
        <time>2015-06-27T08:42:27Z</time>
      </trkpt>
      <trkpt lat="42.26432" lon="8.89359">
        <ele>1410.4</ele>
        <time>2015-06-27T08:42:32Z</time>
      </trkpt>
      <trkpt lat="42.26429" lon="8.89371">
        <ele>1408.6</ele>
        <time>2015-06-27T08:42:43Z</time>
      </trkpt>
      <trkpt lat="42.26428" lon="8.8938">
        <ele>1408.2</ele>
        <time>2015-06-27T08:42:49Z</time>
      </trkpt>
      <trkpt lat="42.26428" lon="8.89389">
        <ele>1407</ele>
        <time>2015-06-27T08:42:56Z</time>
      </trkpt>
      <trkpt lat="42.2643" lon="8.89399">
        <ele>1405.8</ele>
        <time>2015-06-27T08:43:04Z</time>
      </trkpt>
      <trkpt lat="42.26431" lon="8.89405">
        <ele>1405</ele>
        <time>2015-06-27T08:43:09Z</time>
      </trkpt>
      <trkpt lat="42.26439" lon="8.89413">
        <ele>1403.2</ele>
        <time>2015-06-27T08:43:18Z</time>
      </trkpt>
      <trkpt lat="42.26442" lon="8.89424">
        <ele>1402.4</ele>
        <time>2015-06-27T08:43:25Z</time>
      </trkpt>
      <trkpt lat="42.26446" lon="8.89435">
        <ele>1401.4</ele>
        <time>2015-06-27T08:43:33Z</time>
      </trkpt>
      <trkpt lat="42.26447" lon="8.89452">
        <ele>1399.8</ele>
        <time>2015-06-27T08:43:44Z</time>
      </trkpt>
      <trkpt lat="42.26448" lon="8.89462">
        <ele>1399.4</ele>
        <time>2015-06-27T08:43:52Z</time>
      </trkpt>
      <trkpt lat="42.26453" lon="8.89472">
        <ele>1398</ele>
        <time>2015-06-27T08:44:01Z</time>
      </trkpt>
      <trkpt lat="42.26462" lon="8.89483">
        <ele>1396.8</ele>
        <time>2015-06-27T08:44:11Z</time>
      </trkpt>
      <trkpt lat="42.26467" lon="8.89492">
        <ele>1395.8</ele>
        <time>2015-06-27T08:44:20Z</time>
      </trkpt>
      <trkpt lat="42.26471" lon="8.89502">
        <ele>1394.8</ele>
        <time>2015-06-27T08:44:27Z</time>
      </trkpt>
      <trkpt lat="42.26476" lon="8.89513">
        <ele>1393.6</ele>
        <time>2015-06-27T08:44:34Z</time>
      </trkpt>
      <trkpt lat="42.2648" lon="8.8952">
        <ele>1392.6</ele>
        <time>2015-06-27T08:44:41Z</time>
      </trkpt>
      <trkpt lat="42.26483" lon="8.89526">
        <ele>1391.8</ele>
        <time>2015-06-27T08:44:46Z</time>
      </trkpt>
      <trkpt lat="42.26485" lon="8.89534">
        <ele>1390.4</ele>
        <time>2015-06-27T08:44:52Z</time>
      </trkpt>
      <trkpt lat="42.26488" lon="8.8954">
        <ele>1389.6</ele>
        <time>2015-06-27T08:44:57Z</time>
      </trkpt>
      <trkpt lat="42.26486" lon="8.89558">
        <ele>1387.6</ele>
        <time>2015-06-27T08:45:11Z</time>
      </trkpt>
      <trkpt lat="42.26488" lon="8.89561">
        <ele>1386.8</ele>
        <time>2015-06-27T08:45:18Z</time>
      </trkpt>
      <trkpt lat="42.26491" lon="8.89564">
        <ele>1385.6</ele>
        <time>2015-06-27T08:45:26Z</time>
      </trkpt>
      <trkpt lat="42.26495" lon="8.89562">
        <ele>1384.4</ele>
        <time>2015-06-27T08:45:36Z</time>
      </trkpt>
      <trkpt lat="42.26497" lon="8.89563">
        <ele>1383.2</ele>
        <time>2015-06-27T08:45:43Z</time>
      </trkpt>
      <trkpt lat="42.265" lon="8.89566">
        <ele>1382</ele>
        <time>2015-06-27T08:45:58Z</time>
      </trkpt>
      <trkpt lat="42.265" lon="8.89575">
        <ele>1381.2</ele>
        <time>2015-06-27T08:46:07Z</time>
      </trkpt>
      <trkpt lat="42.26503" lon="8.89577">
        <ele>1379.8</ele>
        <time>2015-06-27T08:46:16Z</time>
      </trkpt>
      <trkpt lat="42.26506" lon="8.89576">
        <ele>1378.8</ele>
        <time>2015-06-27T08:46:23Z</time>
      </trkpt>
      <trkpt lat="42.26507" lon="8.8958">
        <ele>1378.4</ele>
        <time>2015-06-27T08:46:28Z</time>
      </trkpt>
      <trkpt lat="42.26509" lon="8.89584">
        <ele>1376.8</ele>
        <time>2015-06-27T08:46:34Z</time>
      </trkpt>
      <trkpt lat="42.26512" lon="8.89587">
        <ele>1375.4</ele>
        <time>2015-06-27T08:46:42Z</time>
      </trkpt>
      <trkpt lat="42.26514" lon="8.89583">
        <ele>1374.2</ele>
        <time>2015-06-27T08:46:50Z</time>
      </trkpt>
      <trkpt lat="42.26516" lon="8.89581">
        <ele>1373</ele>
        <time>2015-06-27T08:46:57Z</time>
      </trkpt>
      <trkpt lat="42.26516" lon="8.89585">
        <ele>1372</ele>
        <time>2015-06-27T08:47:05Z</time>
      </trkpt>
      <trkpt lat="42.26478" lon="8.8961">
        <ele>1371.2</ele>
        <time>2015-06-27T08:47:51Z</time>
      </trkpt>
      <trkpt lat="42.26477" lon="8.89613">
        <ele>1371.4</ele>
        <time>2015-06-27T08:47:54Z</time>
      </trkpt>
      <trkpt lat="42.26448" lon="8.89659">
        <ele>1370.6</ele>
        <time>2015-06-27T08:48:36Z</time>
      </trkpt>
      <trkpt lat="42.26446" lon="8.89664">
        <ele>1370.4</ele>
        <time>2015-06-27T08:48:40Z</time>
      </trkpt>
      <trkpt lat="42.26458" lon="8.89725">
        <ele>1370.4</ele>
        <time>2015-06-27T08:49:28Z</time>
      </trkpt>
      <trkpt lat="42.26428" lon="8.89758">
        <ele>1371.2</ele>
        <time>2015-06-27T08:50:19Z</time>
      </trkpt>
      <trkpt lat="42.26421" lon="8.89764">
        <ele>1371.4</ele>
        <time>2015-06-27T08:50:26Z</time>
      </trkpt>
      <trkpt lat="42.26395" lon="8.89804">
        <ele>1371.6</ele>
        <time>2015-06-27T08:51:09Z</time>
      </trkpt>
      <trkpt lat="42.26388" lon="8.89818">
        <ele>1371.2</ele>
        <time>2015-06-27T08:51:22Z</time>
      </trkpt>
      <trkpt lat="42.2637" lon="8.89869">
        <ele>1371</ele>
        <time>2015-06-27T08:52:11Z</time>
      </trkpt>
      <trkpt lat="42.26368" lon="8.89873">
        <ele>1371.4</ele>
        <time>2015-06-27T08:52:14Z</time>
      </trkpt>
      <trkpt lat="42.26338" lon="8.89912">
        <ele>1371</ele>
        <time>2015-06-27T08:52:54Z</time>
      </trkpt>
      <trkpt lat="42.2633" lon="8.89925">
        <ele>1371.2</ele>
        <time>2015-06-27T08:53:05Z</time>
      </trkpt>
      <trkpt lat="42.26328" lon="8.8994">
        <ele>1371</ele>
        <time>2015-06-27T08:53:29Z</time>
      </trkpt>
      <trkpt lat="42.26372" lon="8.89942">
        <ele>1369.8</ele>
        <time>2015-06-27T08:54:40Z</time>
      </trkpt>
      <trkpt lat="42.26391" lon="8.89951">
        <ele>1370</ele>
        <time>2015-06-27T08:55:06Z</time>
      </trkpt>
      <trkpt lat="42.2641" lon="8.89963">
        <ele>1369.6</ele>
        <time>2015-06-27T08:55:28Z</time>
      </trkpt>
      <trkpt lat="42.2641" lon="8.8996">
        <ele>1369.6</ele>
        <time>2015-06-27T08:55:31Z</time>
      </trkpt>
      <trkpt lat="42.26394" lon="8.8995">
        <ele>1369.8</ele>
        <time>2015-06-27T08:55:47Z</time>
      </trkpt>
      <trkpt lat="42.26386" lon="8.89949">
        <ele>1369.8</ele>
        <time>2015-06-27T08:55:55Z</time>
      </trkpt>
      <trkpt lat="42.26373" lon="8.89944">
        <ele>1369.8</ele>
        <time>2015-06-27T08:56:45Z</time>
      </trkpt>
      <trkpt lat="42.26408" lon="8.89963">
        <ele>1369.6</ele>
        <time>2015-06-27T08:57:19Z</time>
      </trkpt>
      <trkpt lat="42.2644" lon="8.90006">
        <ele>1369.6</ele>
        <time>2015-06-27T08:58:03Z</time>
      </trkpt>
      <trkpt lat="42.26473" lon="8.90048">
        <ele>1369.6</ele>
        <time>2015-06-27T08:58:43Z</time>
      </trkpt>
      <trkpt lat="42.26482" lon="8.90062">
        <ele>1370.2</ele>
        <time>2015-06-27T09:01:07Z</time>
      </trkpt>
      <trkpt lat="42.26481" lon="8.90057">
        <ele>1370</ele>
        <time>2015-06-27T09:01:26Z</time>
      </trkpt>
      <trkpt lat="42.26467" lon="8.90041">
        <ele>1369.8</ele>
        <time>2015-06-27T09:01:57Z</time>
      </trkpt>
      <trkpt lat="42.26465" lon="8.90039">
        <ele>1370</ele>
        <time>2015-06-27T09:01:59Z</time>
      </trkpt>
      <trkpt lat="42.26433" lon="8.89999">
        <ele>1370.2</ele>
        <time>2015-06-27T09:02:37Z</time>
      </trkpt>
      <trkpt lat="42.26399" lon="8.89958">
        <ele>1370.4</ele>
        <time>2015-06-27T09:03:14Z</time>
      </trkpt>
      <trkpt lat="42.26356" lon="8.89939">
        <ele>1371</ele>
        <time>2015-06-27T09:03:55Z</time>
      </trkpt>
      <trkpt lat="42.26345" lon="8.8994">
        <ele>1370.8</ele>
        <time>2015-06-27T09:04:04Z</time>
      </trkpt>
      <trkpt lat="42.26328" lon="8.8994">
        <ele>1371.8</ele>
        <time>2015-06-27T09:04:24Z</time>
      </trkpt>
      <trkpt lat="42.2633" lon="8.89919">
        <ele>1372.2</ele>
        <time>2015-06-27T09:04:53Z</time>
      </trkpt>
      <trkpt lat="42.26359" lon="8.89872">
        <ele>1372.2</ele>
        <time>2015-06-27T09:05:23Z</time>
      </trkpt>
      <trkpt lat="42.26384" lon="8.89828">
        <ele>1372</ele>
        <time>2015-06-27T09:06:08Z</time>
      </trkpt>
      <trkpt lat="42.26414" lon="8.8979">
        <ele>1371.8</ele>
        <time>2015-06-27T09:06:49Z</time>
      </trkpt>
      <trkpt lat="42.26442" lon="8.89752">
        <ele>1372.6</ele>
        <time>2015-06-27T09:07:35Z</time>
      </trkpt>
      <trkpt lat="42.26451" lon="8.89747">
        <ele>1372</ele>
        <time>2015-06-27T09:07:44Z</time>
      </trkpt>
      <trkpt lat="42.26446" lon="8.89693">
        <ele>1371.4</ele>
        <time>2015-06-27T09:08:22Z</time>
      </trkpt>
      <trkpt lat="42.26452" lon="8.89653">
        <ele>1371.2</ele>
        <time>2015-06-27T09:08:57Z</time>
      </trkpt>
      <trkpt lat="42.26472" lon="8.89622">
        <ele>1372</ele>
        <time>2015-06-27T09:09:20Z</time>
      </trkpt>
      <trkpt lat="42.26507" lon="8.89592">
        <ele>1372.6</ele>
        <time>2015-06-27T09:09:58Z</time>
      </trkpt>
      <trkpt lat="42.26506" lon="8.89589">
        <ele>1372.4</ele>
        <time>2015-06-27T09:10:01Z</time>
      </trkpt>
      <trkpt lat="42.2652" lon="8.89537">
        <ele>1371.8</ele>
        <time>2015-06-27T09:10:55Z</time>
      </trkpt>
      <trkpt lat="42.2652" lon="8.89532">
        <ele>1372</ele>
        <time>2015-06-27T09:10:59Z</time>
      </trkpt>
      <trkpt lat="42.2652" lon="8.89525">
        <ele>1372</ele>
        <time>2015-06-27T09:11:04Z</time>
      </trkpt>
      <trkpt lat="42.26518" lon="8.89503">
        <ele>1372</ele>
        <time>2015-06-27T09:11:18Z</time>
      </trkpt>
      <trkpt lat="42.26516" lon="8.89488">
        <ele>1372</ele>
        <time>2015-06-27T09:11:26Z</time>
      </trkpt>
      <trkpt lat="42.26516" lon="8.89483">
        <ele>1371.8</ele>
        <time>2015-06-27T09:11:29Z</time>
      </trkpt>
      <trkpt lat="42.26515" lon="8.89474">
        <ele>1371.8</ele>
        <time>2015-06-27T09:11:35Z</time>
      </trkpt>
      <trkpt lat="42.26505" lon="8.89436">
        <ele>1372</ele>
        <time>2015-06-27T09:12:02Z</time>
      </trkpt>
      <trkpt lat="42.26506" lon="8.89427">
        <ele>1372</ele>
        <time>2015-06-27T09:12:07Z</time>
      </trkpt>
      <trkpt lat="42.26513" lon="8.89376">
        <ele>1372.8</ele>
        <time>2015-06-27T09:12:48Z</time>
      </trkpt>
      <trkpt lat="42.26533" lon="8.89372">
        <ele>1372.2</ele>
        <time>2015-06-27T09:13:06Z</time>
      </trkpt>
      <trkpt lat="42.26539" lon="8.89371">
        <ele>1371.8</ele>
        <time>2015-06-27T09:13:13Z</time>
      </trkpt>
      <trkpt lat="42.26542" lon="8.89371">
        <ele>1371.6</ele>
        <time>2015-06-27T09:13:16Z</time>
      </trkpt>
      <trkpt lat="42.26552" lon="8.89371">
        <ele>1371.4</ele>
        <time>2015-06-27T09:13:25Z</time>
      </trkpt>
      <trkpt lat="42.26555" lon="8.89368">
        <ele>1371.2</ele>
        <time>2015-06-27T09:13:28Z</time>
      </trkpt>
      <trkpt lat="42.26577" lon="8.89365">
        <ele>1370.8</ele>
        <time>2015-06-27T09:13:47Z</time>
      </trkpt>
      <trkpt lat="42.2659" lon="8.89374">
        <ele>1370.2</ele>
        <time>2015-06-27T09:14:00Z</time>
      </trkpt>
      <trkpt lat="42.26627" lon="8.89367">
        <ele>1369.2</ele>
        <time>2015-06-27T09:14:34Z</time>
      </trkpt>
      <trkpt lat="42.26664" lon="8.89335">
        <ele>1369.4</ele>
        <time>2015-06-27T09:15:10Z</time>
      </trkpt>
      <trkpt lat="42.2667" lon="8.89335">
        <ele>1369.4</ele>
        <time>2015-06-27T09:15:16Z</time>
      </trkpt>
      <trkpt lat="42.26675" lon="8.8934">
        <ele>1369.2</ele>
        <time>2015-06-27T09:15:21Z</time>
      </trkpt>
      <trkpt lat="42.26691" lon="8.89351">
        <ele>1367.6</ele>
        <time>2015-06-27T09:15:38Z</time>
      </trkpt>
      <trkpt lat="42.26697" lon="8.89355">
        <ele>1367.6</ele>
        <time>2015-06-27T09:15:43Z</time>
      </trkpt>
      <trkpt lat="42.26714" lon="8.89359">
        <ele>1367</ele>
        <time>2015-06-27T09:16:00Z</time>
      </trkpt>
      <trkpt lat="42.26726" lon="8.89344">
        <ele>1366.2</ele>
        <time>2015-06-27T09:16:16Z</time>
      </trkpt>
      <trkpt lat="42.26732" lon="8.89332">
        <ele>1366</ele>
        <time>2015-06-27T09:16:29Z</time>
      </trkpt>
      <trkpt lat="42.26737" lon="8.89324">
        <ele>1365.8</ele>
        <time>2015-06-27T09:16:35Z</time>
      </trkpt>
      <trkpt lat="42.26764" lon="8.89312">
        <ele>1365.2</ele>
        <time>2015-06-27T09:17:17Z</time>
      </trkpt>
      <trkpt lat="42.26809" lon="8.89331">
        <ele>1365.4</ele>
        <time>2015-06-27T09:18:02Z</time>
      </trkpt>
      <trkpt lat="42.26832" lon="8.89333">
        <ele>1365.4</ele>
        <time>2015-06-27T09:18:21Z</time>
      </trkpt>
      <trkpt lat="42.26843" lon="8.8933">
        <ele>1365.4</ele>
        <time>2015-06-27T09:18:27Z</time>
      </trkpt>
      <trkpt lat="42.26845" lon="8.89332">
        <ele>1365.2</ele>
        <time>2015-06-27T09:18:29Z</time>
      </trkpt>
      <trkpt lat="42.26846" lon="8.89335">
        <ele>1365</ele>
        <time>2015-06-27T09:18:31Z</time>
      </trkpt>
      <trkpt lat="42.26847" lon="8.89338">
        <ele>1365</ele>
        <time>2015-06-27T09:18:33Z</time>
      </trkpt>
      <trkpt lat="42.26854" lon="8.89341">
        <ele>1365</ele>
        <time>2015-06-27T09:18:39Z</time>
      </trkpt>
      <trkpt lat="42.2686" lon="8.89344">
        <ele>1365</ele>
        <time>2015-06-27T09:18:43Z</time>
      </trkpt>
      <trkpt lat="42.26862" lon="8.89345">
        <ele>1364.8</ele>
        <time>2015-06-27T09:18:45Z</time>
      </trkpt>
      <trkpt lat="42.26866" lon="8.89347">
        <ele>1364.8</ele>
        <time>2015-06-27T09:18:48Z</time>
      </trkpt>
      <trkpt lat="42.26873" lon="8.89348">
        <ele>1364.4</ele>
        <time>2015-06-27T09:18:53Z</time>
      </trkpt>
      <trkpt lat="42.26875" lon="8.89348">
        <ele>1364.4</ele>
        <time>2015-06-27T09:18:54Z</time>
      </trkpt>
      <trkpt lat="42.26881" lon="8.89346">
        <ele>1364.2</ele>
        <time>2015-06-27T09:18:59Z</time>
      </trkpt>
      <trkpt lat="42.26884" lon="8.89348">
        <ele>1364</ele>
        <time>2015-06-27T09:19:04Z</time>
      </trkpt>
      <trkpt lat="42.26888" lon="8.89346">
        <ele>1364</ele>
        <time>2015-06-27T09:19:08Z</time>
      </trkpt>
      <trkpt lat="42.26891" lon="8.89343">
        <ele>1363.8</ele>
        <time>2015-06-27T09:19:11Z</time>
      </trkpt>
      <trkpt lat="42.26898" lon="8.89328">
        <ele>1363.6</ele>
        <time>2015-06-27T09:19:21Z</time>
      </trkpt>
      <trkpt lat="42.26899" lon="8.89326">
        <ele>1363.6</ele>
        <time>2015-06-27T09:19:23Z</time>
      </trkpt>
      <trkpt lat="42.26904" lon="8.8932">
        <ele>1363.4</ele>
        <time>2015-06-27T09:19:29Z</time>
      </trkpt>
      <trkpt lat="42.26906" lon="8.89318">
        <ele>1363.6</ele>
        <time>2015-06-27T09:19:31Z</time>
      </trkpt>
      <trkpt lat="42.26911" lon="8.89313">
        <ele>1363</ele>
        <time>2015-06-27T09:19:38Z</time>
      </trkpt>
      <trkpt lat="42.26918" lon="8.89299">
        <ele>1362.8</ele>
        <time>2015-06-27T09:19:48Z</time>
      </trkpt>
      <trkpt lat="42.26928" lon="8.89274">
        <ele>1362.8</ele>
        <time>2015-06-27T09:20:14Z</time>
      </trkpt>
      <trkpt lat="42.26932" lon="8.89262">
        <ele>1362.6</ele>
        <time>2015-06-27T09:20:20Z</time>
      </trkpt>
      <trkpt lat="42.26932" lon="8.8926">
        <ele>1362.6</ele>
        <time>2015-06-27T09:20:21Z</time>
      </trkpt>
      <trkpt lat="42.26936" lon="8.89245">
        <ele>1362</ele>
        <time>2015-06-27T09:20:35Z</time>
      </trkpt>
      <trkpt lat="42.26935" lon="8.89239">
        <ele>1362</ele>
        <time>2015-06-27T09:20:38Z</time>
      </trkpt>
      <trkpt lat="42.26935" lon="8.89225">
        <ele>1362</ele>
        <time>2015-06-27T09:20:45Z</time>
      </trkpt>
      <trkpt lat="42.2694" lon="8.89205">
        <ele>1361.4</ele>
        <time>2015-06-27T09:20:56Z</time>
      </trkpt>
      <trkpt lat="42.26952" lon="8.89161">
        <ele>1360.4</ele>
        <time>2015-06-27T09:21:24Z</time>
      </trkpt>
      <trkpt lat="42.26963" lon="8.89147">
        <ele>1359.6</ele>
        <time>2015-06-27T09:21:37Z</time>
      </trkpt>
      <trkpt lat="42.26969" lon="8.89139">
        <ele>1359</ele>
        <time>2015-06-27T09:21:46Z</time>
      </trkpt>
      <trkpt lat="42.26986" lon="8.89111">
        <ele>1358</ele>
        <time>2015-06-27T09:22:06Z</time>
      </trkpt>
      <trkpt lat="42.26993" lon="8.89092">
        <ele>1357</ele>
        <time>2015-06-27T09:22:21Z</time>
      </trkpt>
      <trkpt lat="42.27008" lon="8.89083">
        <ele>1356.6</ele>
        <time>2015-06-27T09:22:35Z</time>
      </trkpt>
      <trkpt lat="42.27039" lon="8.89064">
        <ele>1355.8</ele>
        <time>2015-06-27T09:23:10Z</time>
      </trkpt>
      <trkpt lat="42.27052" lon="8.89054">
        <ele>1355.6</ele>
        <time>2015-06-27T09:23:19Z</time>
      </trkpt>
      <trkpt lat="42.27056" lon="8.89055">
        <ele>1354.8</ele>
        <time>2015-06-27T09:23:26Z</time>
      </trkpt>
      <trkpt lat="42.2706" lon="8.89055">
        <ele>1354.2</ele>
        <time>2015-06-27T09:23:30Z</time>
      </trkpt>
      <trkpt lat="42.27069" lon="8.89063">
        <ele>1352.4</ele>
        <time>2015-06-27T09:23:41Z</time>
      </trkpt>
      <trkpt lat="42.27087" lon="8.89102">
        <ele>1351.8</ele>
        <time>2015-06-27T09:24:20Z</time>
      </trkpt>
      <trkpt lat="42.27088" lon="8.89139">
        <ele>1351.6</ele>
        <time>2015-06-27T09:24:42Z</time>
      </trkpt>
      <trkpt lat="42.27095" lon="8.89156">
        <ele>1350.6</ele>
        <time>2015-06-27T09:24:54Z</time>
      </trkpt>
      <trkpt lat="42.27101" lon="8.89172">
        <ele>1349.8</ele>
        <time>2015-06-27T09:25:09Z</time>
      </trkpt>
      <trkpt lat="42.27119" lon="8.89211">
        <ele>1348.8</ele>
        <time>2015-06-27T09:25:35Z</time>
      </trkpt>
      <trkpt lat="42.27139" lon="8.89268">
        <ele>1348.4</ele>
        <time>2015-06-27T09:26:19Z</time>
      </trkpt>
      <trkpt lat="42.27151" lon="8.89306">
        <ele>1348.8</ele>
        <time>2015-06-27T09:26:47Z</time>
      </trkpt>
      <trkpt lat="42.27174" lon="8.89349">
        <ele>1348.2</ele>
        <time>2015-06-27T09:27:21Z</time>
      </trkpt>
      <trkpt lat="42.27191" lon="8.8937">
        <ele>1347.6</ele>
        <time>2015-06-27T09:27:39Z</time>
      </trkpt>
      <trkpt lat="42.2721" lon="8.89425">
        <ele>1348</ele>
        <time>2015-06-27T09:28:20Z</time>
      </trkpt>
      <trkpt lat="42.27228" lon="8.89447">
        <ele>1348.4</ele>
        <time>2015-06-27T09:28:43Z</time>
      </trkpt>
      <trkpt lat="42.27229" lon="8.89447">
        <ele>1348.6</ele>
        <time>2015-06-27T09:28:45Z</time>
      </trkpt>
      <trkpt lat="42.27238" lon="8.89447">
        <ele>1348.6</ele>
        <time>2015-06-27T09:28:52Z</time>
      </trkpt>
      <trkpt lat="42.27267" lon="8.89422">
        <ele>1349.2</ele>
        <time>2015-06-27T09:29:27Z</time>
      </trkpt>
      <trkpt lat="42.27278" lon="8.89407">
        <ele>1349</ele>
        <time>2015-06-27T09:29:41Z</time>
      </trkpt>
      <trkpt lat="42.27293" lon="8.89406">
        <ele>1348</ele>
        <time>2015-06-27T09:29:59Z</time>
      </trkpt>
      <trkpt lat="42.27332" lon="8.89374">
        <ele>1347.4</ele>
        <time>2015-06-27T09:30:37Z</time>
      </trkpt>
      <trkpt lat="42.27355" lon="8.89366">
        <ele>1347.4</ele>
        <time>2015-06-27T09:31:05Z</time>
      </trkpt>
      <trkpt lat="42.27363" lon="8.89364">
        <ele>1347.2</ele>
        <time>2015-06-27T09:31:10Z</time>
      </trkpt>
      <trkpt lat="42.27383" lon="8.89359">
        <ele>1347.4</ele>
        <time>2015-06-27T09:31:36Z</time>
      </trkpt>
      <trkpt lat="42.27385" lon="8.89358">
        <ele>1347.4</ele>
        <time>2015-06-27T09:31:39Z</time>
      </trkpt>
      <trkpt lat="42.27403" lon="8.89343">
        <ele>1347.4</ele>
        <time>2015-06-27T09:31:55Z</time>
      </trkpt>
      <trkpt lat="42.27449" lon="8.8933">
        <ele>1347.4</ele>
        <time>2015-06-27T09:32:32Z</time>
      </trkpt>
      <trkpt lat="42.27458" lon="8.89326">
        <ele>1347</ele>
        <time>2015-06-27T09:32:43Z</time>
      </trkpt>
      <trkpt lat="42.27465" lon="8.89325">
        <ele>1346.8</ele>
        <time>2015-06-27T09:32:50Z</time>
      </trkpt>
      <trkpt lat="42.27467" lon="8.89323">
        <ele>1346.8</ele>
        <time>2015-06-27T09:32:52Z</time>
      </trkpt>
      <trkpt lat="42.27471" lon="8.89323">
        <ele>1346.6</ele>
        <time>2015-06-27T09:32:55Z</time>
      </trkpt>
      <trkpt lat="42.27471" lon="8.89332">
        <ele>1346.6</ele>
        <time>2015-06-27T09:33:00Z</time>
      </trkpt>
      <trkpt lat="42.2748" lon="8.89344">
        <ele>1346.8</ele>
        <time>2015-06-27T09:33:13Z</time>
      </trkpt>
      <trkpt lat="42.27501" lon="8.89336">
        <ele>1346.8</ele>
        <time>2015-06-27T09:33:43Z</time>
      </trkpt>
      <trkpt lat="42.27502" lon="8.89327">
        <ele>1347.2</ele>
        <time>2015-06-27T09:33:51Z</time>
      </trkpt>
      <trkpt lat="42.2751" lon="8.89267">
        <ele>1347</ele>
        <time>2015-06-27T09:34:31Z</time>
      </trkpt>
      <trkpt lat="42.2751" lon="8.89227">
        <ele>1346.2</ele>
        <time>2015-06-27T09:34:58Z</time>
      </trkpt>
      <trkpt lat="42.27513" lon="8.89166">
        <ele>1345</ele>
        <time>2015-06-27T09:35:32Z</time>
      </trkpt>
      <trkpt lat="42.27527" lon="8.89107">
        <ele>1344</ele>
        <time>2015-06-27T09:36:01Z</time>
      </trkpt>
      <trkpt lat="42.27541" lon="8.89085">
        <ele>1344.4</ele>
        <time>2015-06-27T09:36:26Z</time>
      </trkpt>
      <trkpt lat="42.27558" lon="8.89088">
        <ele>1343.6</ele>
        <time>2015-06-27T09:36:50Z</time>
      </trkpt>
      <trkpt lat="42.27594" lon="8.89054">
        <ele>1343.4</ele>
        <time>2015-06-27T09:37:25Z</time>
      </trkpt>
      <trkpt lat="42.27595" lon="8.8905">
        <ele>1343.6</ele>
        <time>2015-06-27T09:37:30Z</time>
      </trkpt>
      <trkpt lat="42.27603" lon="8.89045">
        <ele>1344.2</ele>
        <time>2015-06-27T09:37:42Z</time>
      </trkpt>
      <trkpt lat="42.27606" lon="8.89043">
        <ele>1344.2</ele>
        <time>2015-06-27T09:37:46Z</time>
      </trkpt>
      <trkpt lat="42.27648" lon="8.89051">
        <ele>1343</ele>
        <time>2015-06-27T09:38:28Z</time>
      </trkpt>
      <trkpt lat="42.27687" lon="8.89058">
        <ele>1343.8</ele>
        <time>2015-06-27T09:39:05Z</time>
      </trkpt>
      <trkpt lat="42.27705" lon="8.89052">
        <ele>1344.6</ele>
        <time>2015-06-27T09:39:24Z</time>
      </trkpt>
      <trkpt lat="42.27716" lon="8.8905">
        <ele>1344.6</ele>
        <time>2015-06-27T09:39:37Z</time>
      </trkpt>
      <trkpt lat="42.27723" lon="8.89043">
        <ele>1344.4</ele>
        <time>2015-06-27T09:39:42Z</time>
      </trkpt>
      <trkpt lat="42.2775" lon="8.88994">
        <ele>1344.4</ele>
        <time>2015-06-27T09:40:20Z</time>
      </trkpt>
      <trkpt lat="42.27764" lon="8.8898">
        <ele>1344.2</ele>
        <time>2015-06-27T09:40:36Z</time>
      </trkpt>
      <trkpt lat="42.27793" lon="8.88984">
        <ele>1344.4</ele>
        <time>2015-06-27T09:41:04Z</time>
      </trkpt>
      <trkpt lat="42.27801" lon="8.88982">
        <ele>1344.2</ele>
        <time>2015-06-27T09:41:14Z</time>
      </trkpt>
      <trkpt lat="42.27815" lon="8.88968">
        <ele>1343.8</ele>
        <time>2015-06-27T09:41:24Z</time>
      </trkpt>
      <trkpt lat="42.27817" lon="8.88964">
        <ele>1344</ele>
        <time>2015-06-27T09:41:27Z</time>
      </trkpt>
      <trkpt lat="42.27823" lon="8.88957">
        <ele>1344.2</ele>
        <time>2015-06-27T09:41:35Z</time>
      </trkpt>
      <trkpt lat="42.27859" lon="8.88946">
        <ele>1344.4</ele>
        <time>2015-06-27T09:42:06Z</time>
      </trkpt>
      <trkpt lat="42.2787" lon="8.88942">
        <ele>1343.8</ele>
        <time>2015-06-27T09:42:21Z</time>
      </trkpt>
      <trkpt lat="42.27909" lon="8.88922">
        <ele>1344</ele>
        <time>2015-06-27T09:43:03Z</time>
      </trkpt>
      <trkpt lat="42.2795" lon="8.88951">
        <ele>1343.2</ele>
        <time>2015-06-27T09:43:45Z</time>
      </trkpt>
      <trkpt lat="42.27958" lon="8.88956">
        <ele>1343</ele>
        <time>2015-06-27T09:43:52Z</time>
      </trkpt>
      <trkpt lat="42.27983" lon="8.88996">
        <ele>1341.8</ele>
        <time>2015-06-27T09:44:29Z</time>
      </trkpt>
      <trkpt lat="42.28026" lon="8.89028">
        <ele>1341.6</ele>
        <time>2015-06-27T09:45:13Z</time>
      </trkpt>
      <trkpt lat="42.28043" lon="8.89043">
        <ele>1341.4</ele>
        <time>2015-06-27T09:45:31Z</time>
      </trkpt>
      <trkpt lat="42.28059" lon="8.8906">
        <ele>1340.4</ele>
        <time>2015-06-27T09:45:48Z</time>
      </trkpt>
      <trkpt lat="42.28107" lon="8.89066">
        <ele>1340</ele>
        <time>2015-06-27T09:46:27Z</time>
      </trkpt>
      <trkpt lat="42.2811" lon="8.89065">
        <ele>1340</ele>
        <time>2015-06-27T09:46:28Z</time>
      </trkpt>
      <trkpt lat="42.28152" lon="8.89085">
        <ele>1339.2</ele>
        <time>2015-06-27T09:47:11Z</time>
      </trkpt>
      <trkpt lat="42.28161" lon="8.89095">
        <ele>1339</ele>
        <time>2015-06-27T09:47:21Z</time>
      </trkpt>
      <trkpt lat="42.28173" lon="8.89138">
        <ele>1338.2</ele>
        <time>2015-06-27T09:47:53Z</time>
      </trkpt>
      <trkpt lat="42.28183" lon="8.89155">
        <ele>1338.6</ele>
        <time>2015-06-27T09:48:08Z</time>
      </trkpt>
      <trkpt lat="42.28201" lon="8.89181">
        <ele>1339</ele>
        <time>2015-06-27T09:48:33Z</time>
      </trkpt>
      <trkpt lat="42.28215" lon="8.89178">
        <ele>1338.6</ele>
        <time>2015-06-27T09:48:48Z</time>
      </trkpt>
      <trkpt lat="42.28248" lon="8.89171">
        <ele>1338.2</ele>
        <time>2015-06-27T09:49:14Z</time>
      </trkpt>
      <trkpt lat="42.28264" lon="8.89171">
        <ele>1338.4</ele>
        <time>2015-06-27T09:49:28Z</time>
      </trkpt>
      <trkpt lat="42.28265" lon="8.89174">
        <ele>1338.4</ele>
        <time>2015-06-27T09:49:31Z</time>
      </trkpt>
      <trkpt lat="42.28269" lon="8.89183">
        <ele>1338.4</ele>
        <time>2015-06-27T09:49:40Z</time>
      </trkpt>
      <trkpt lat="42.28297" lon="8.89232">
        <ele>1338.2</ele>
        <time>2015-06-27T09:50:23Z</time>
      </trkpt>
      <trkpt lat="42.28311" lon="8.89244">
        <ele>1338</ele>
        <time>2015-06-27T09:50:41Z</time>
      </trkpt>
      <trkpt lat="42.2831" lon="8.89246">
        <ele>1338</ele>
        <time>2015-06-27T09:50:43Z</time>
      </trkpt>
      <trkpt lat="42.28305" lon="8.89268">
        <ele>1338</ele>
        <time>2015-06-27T09:50:54Z</time>
      </trkpt>
      <trkpt lat="42.28305" lon="8.89316">
        <ele>1337.4</ele>
        <time>2015-06-27T09:51:25Z</time>
      </trkpt>
      <trkpt lat="42.28303" lon="8.89324">
        <ele>1337.4</ele>
        <time>2015-06-27T09:51:30Z</time>
      </trkpt>
      <trkpt lat="42.28304" lon="8.89326">
        <ele>1337.2</ele>
        <time>2015-06-27T09:51:31Z</time>
      </trkpt>
      <trkpt lat="42.283" lon="8.89361">
        <ele>1336.8</ele>
        <time>2015-06-27T09:51:46Z</time>
      </trkpt>
      <trkpt lat="42.28297" lon="8.89402">
        <ele>1336.8</ele>
        <time>2015-06-27T09:52:07Z</time>
      </trkpt>
      <trkpt lat="42.28298" lon="8.8941">
        <ele>1336.8</ele>
        <time>2015-06-27T09:52:13Z</time>
      </trkpt>
      <trkpt lat="42.283" lon="8.89414">
        <ele>1337</ele>
        <time>2015-06-27T09:52:17Z</time>
      </trkpt>
      <trkpt lat="42.28302" lon="8.89433">
        <ele>1337.4</ele>
        <time>2015-06-27T09:52:29Z</time>
      </trkpt>
      <trkpt lat="42.28303" lon="8.89442">
        <ele>1337.6</ele>
        <time>2015-06-27T09:52:36Z</time>
      </trkpt>
      <trkpt lat="42.28304" lon="8.89446">
        <ele>1337.6</ele>
        <time>2015-06-27T09:52:39Z</time>
      </trkpt>
      <trkpt lat="42.28306" lon="8.89453">
        <ele>1337.8</ele>
        <time>2015-06-27T09:52:46Z</time>
      </trkpt>
      <trkpt lat="42.28309" lon="8.89456">
        <ele>1337.8</ele>
        <time>2015-06-27T09:52:50Z</time>
      </trkpt>
      <trkpt lat="42.28314" lon="8.89464">
        <ele>1337.6</ele>
        <time>2015-06-27T09:52:58Z</time>
      </trkpt>
      <trkpt lat="42.28316" lon="8.89466">
        <ele>1337.6</ele>
        <time>2015-06-27T09:53:00Z</time>
      </trkpt>
      <trkpt lat="42.28318" lon="8.8947">
        <ele>1337.8</ele>
        <time>2015-06-27T09:53:03Z</time>
      </trkpt>
      <trkpt lat="42.28323" lon="8.89474">
        <ele>1337.6</ele>
        <time>2015-06-27T09:53:09Z</time>
      </trkpt>
      <trkpt lat="42.28325" lon="8.89483">
        <ele>1337.8</ele>
        <time>2015-06-27T09:53:13Z</time>
      </trkpt>
      <trkpt lat="42.28336" lon="8.89514">
        <ele>1338.2</ele>
        <time>2015-06-27T09:53:31Z</time>
      </trkpt>
      <trkpt lat="42.28338" lon="8.89518">
        <ele>1338</ele>
        <time>2015-06-27T09:53:34Z</time>
      </trkpt>
      <trkpt lat="42.28339" lon="8.89522">
        <ele>1338.2</ele>
        <time>2015-06-27T09:53:36Z</time>
      </trkpt>
      <trkpt lat="42.28343" lon="8.89525">
        <ele>1338.2</ele>
        <time>2015-06-27T09:53:40Z</time>
      </trkpt>
      <trkpt lat="42.28351" lon="8.8951">
        <ele>1338.8</ele>
        <time>2015-06-27T09:53:54Z</time>
      </trkpt>
      <trkpt lat="42.28352" lon="8.89504">
        <ele>1339.2</ele>
        <time>2015-06-27T09:54:01Z</time>
      </trkpt>
      <trkpt lat="42.28353" lon="8.89496">
        <ele>1340.2</ele>
        <time>2015-06-27T09:54:07Z</time>
      </trkpt>
      <trkpt lat="42.28353" lon="8.89491">
        <ele>1341.2</ele>
        <time>2015-06-27T09:54:13Z</time>
      </trkpt>
      <trkpt lat="42.28356" lon="8.89487">
        <ele>1342.2</ele>
        <time>2015-06-27T09:54:19Z</time>
      </trkpt>
      <trkpt lat="42.28358" lon="8.89484">
        <ele>1343</ele>
        <time>2015-06-27T09:54:24Z</time>
      </trkpt>
      <trkpt lat="42.28361" lon="8.89481">
        <ele>1343.4</ele>
        <time>2015-06-27T09:54:26Z</time>
      </trkpt>
      <trkpt lat="42.28363" lon="8.89482">
        <ele>1344.4</ele>
        <time>2015-06-27T09:54:30Z</time>
      </trkpt>
      <trkpt lat="42.28367" lon="8.89475">
        <ele>1345.6</ele>
        <time>2015-06-27T09:54:36Z</time>
      </trkpt>
      <trkpt lat="42.28368" lon="8.89474">
        <ele>1345.6</ele>
        <time>2015-06-27T09:54:37Z</time>
      </trkpt>
      <trkpt lat="42.28371" lon="8.8947">
        <ele>1346.6</ele>
        <time>2015-06-27T09:54:43Z</time>
      </trkpt>
      <trkpt lat="42.28374" lon="8.89465">
        <ele>1347.2</ele>
        <time>2015-06-27T09:54:47Z</time>
      </trkpt>
      <trkpt lat="42.28383" lon="8.89463">
        <ele>1348</ele>
        <time>2015-06-27T09:54:54Z</time>
      </trkpt>
      <trkpt lat="42.28388" lon="8.89465">
        <ele>1348.4</ele>
        <time>2015-06-27T09:55:00Z</time>
      </trkpt>
      <trkpt lat="42.28394" lon="8.89465">
        <ele>1349.8</ele>
        <time>2015-06-27T09:55:07Z</time>
      </trkpt>
      <trkpt lat="42.28408" lon="8.89469">
        <ele>1351</ele>
        <time>2015-06-27T09:55:15Z</time>
      </trkpt>
      <trkpt lat="42.28413" lon="8.8947">
        <ele>1351.8</ele>
        <time>2015-06-27T09:55:23Z</time>
      </trkpt>
      <trkpt lat="42.28415" lon="8.89472">
        <ele>1353</ele>
        <time>2015-06-27T09:55:31Z</time>
      </trkpt>
      <trkpt lat="42.28417" lon="8.89477">
        <ele>1353.8</ele>
        <time>2015-06-27T09:55:38Z</time>
      </trkpt>
      <trkpt lat="42.28422" lon="8.89477">
        <ele>1355.2</ele>
        <time>2015-06-27T09:55:48Z</time>
      </trkpt>
      <trkpt lat="42.28426" lon="8.89478">
        <ele>1355.6</ele>
        <time>2015-06-27T09:55:53Z</time>
      </trkpt>
      <trkpt lat="42.28428" lon="8.89477">
        <ele>1356</ele>
        <time>2015-06-27T09:55:55Z</time>
      </trkpt>
      <trkpt lat="42.28434" lon="8.89474">
        <ele>1357.2</ele>
        <time>2015-06-27T09:56:02Z</time>
      </trkpt>
      <trkpt lat="42.28437" lon="8.89473">
        <ele>1357.8</ele>
        <time>2015-06-27T09:56:08Z</time>
      </trkpt>
      <trkpt lat="42.28437" lon="8.89473">
        <ele>1358.8</ele>
        <time>2015-06-27T09:56:14Z</time>
      </trkpt>
      <trkpt lat="42.2844" lon="8.8947">
        <ele>1360</ele>
        <time>2015-06-27T09:56:20Z</time>
      </trkpt>
      <trkpt lat="42.28442" lon="8.89468">
        <ele>1360.8</ele>
        <time>2015-06-27T09:56:25Z</time>
      </trkpt>
      <trkpt lat="42.28442" lon="8.89468">
        <ele>1361.6</ele>
        <time>2015-06-27T09:56:30Z</time>
      </trkpt>
      <trkpt lat="42.28443" lon="8.89462">
        <ele>1362.8</ele>
        <time>2015-06-27T09:56:36Z</time>
      </trkpt>
      <trkpt lat="42.28446" lon="8.89458">
        <ele>1364</ele>
        <time>2015-06-27T09:56:42Z</time>
      </trkpt>
      <trkpt lat="42.28448" lon="8.89456">
        <ele>1364.2</ele>
        <time>2015-06-27T09:56:44Z</time>
      </trkpt>
      <trkpt lat="42.28451" lon="8.89453">
        <ele>1365.2</ele>
        <time>2015-06-27T09:56:49Z</time>
      </trkpt>
      <trkpt lat="42.28453" lon="8.89451">
        <ele>1365.4</ele>
        <time>2015-06-27T09:56:51Z</time>
      </trkpt>
      <trkpt lat="42.28455" lon="8.89449">
        <ele>1365.8</ele>
        <time>2015-06-27T09:56:53Z</time>
      </trkpt>
      <trkpt lat="42.28457" lon="8.89447">
        <ele>1366</ele>
        <time>2015-06-27T09:56:55Z</time>
      </trkpt>
      <trkpt lat="42.28465" lon="8.89444">
        <ele>1367.4</ele>
        <time>2015-06-27T09:57:04Z</time>
      </trkpt>
      <trkpt lat="42.28468" lon="8.89444">
        <ele>1368.4</ele>
        <time>2015-06-27T09:57:12Z</time>
      </trkpt>
      <trkpt lat="42.28475" lon="8.89445">
        <ele>1369.4</ele>
        <time>2015-06-27T09:57:21Z</time>
      </trkpt>
      <trkpt lat="42.28482" lon="8.89443">
        <ele>1370</ele>
        <time>2015-06-27T09:57:30Z</time>
      </trkpt>
      <trkpt lat="42.28484" lon="8.89442">
        <ele>1370.2</ele>
        <time>2015-06-27T09:57:32Z</time>
      </trkpt>
      <trkpt lat="42.28488" lon="8.89441">
        <ele>1371</ele>
        <time>2015-06-27T09:57:37Z</time>
      </trkpt>
      <trkpt lat="42.28491" lon="8.89439">
        <ele>1371.6</ele>
        <time>2015-06-27T09:57:42Z</time>
      </trkpt>
      <trkpt lat="42.28491" lon="8.89439">
        <ele>1372</ele>
        <time>2015-06-27T09:57:44Z</time>
      </trkpt>
      <trkpt lat="42.28496" lon="8.89436">
        <ele>1373</ele>
        <time>2015-06-27T09:57:51Z</time>
      </trkpt>
      <trkpt lat="42.285" lon="8.89436">
        <ele>1374</ele>
        <time>2015-06-27T09:57:58Z</time>
      </trkpt>
      <trkpt lat="42.28503" lon="8.89437">
        <ele>1374.8</ele>
        <time>2015-06-27T09:58:04Z</time>
      </trkpt>
      <trkpt lat="42.28505" lon="8.89432">
        <ele>1375.8</ele>
        <time>2015-06-27T09:58:12Z</time>
      </trkpt>
      <trkpt lat="42.28505" lon="8.89427">
        <ele>1376.6</ele>
        <time>2015-06-27T09:58:17Z</time>
      </trkpt>
      <trkpt lat="42.28509" lon="8.89424">
        <ele>1377.6</ele>
        <time>2015-06-27T09:58:22Z</time>
      </trkpt>
      <trkpt lat="42.28512" lon="8.89423">
        <ele>1378.6</ele>
        <time>2015-06-27T09:58:28Z</time>
      </trkpt>
      <trkpt lat="42.28516" lon="8.89426">
        <ele>1379.4</ele>
        <time>2015-06-27T09:58:33Z</time>
      </trkpt>
      <trkpt lat="42.28521" lon="8.89425">
        <ele>1379.6</ele>
        <time>2015-06-27T09:58:36Z</time>
      </trkpt>
      <trkpt lat="42.28524" lon="8.89425">
        <ele>1380.4</ele>
        <time>2015-06-27T09:58:39Z</time>
      </trkpt>
      <trkpt lat="42.28526" lon="8.89428">
        <ele>1381.2</ele>
        <time>2015-06-27T09:58:43Z</time>
      </trkpt>
      <trkpt lat="42.28526" lon="8.89427">
        <ele>1381.4</ele>
        <time>2015-06-27T09:58:45Z</time>
      </trkpt>
      <trkpt lat="42.2853" lon="8.89428">
        <ele>1382.2</ele>
        <time>2015-06-27T09:58:51Z</time>
      </trkpt>
      <trkpt lat="42.28533" lon="8.89426">
        <ele>1383.4</ele>
        <time>2015-06-27T09:58:57Z</time>
      </trkpt>
      <trkpt lat="42.28536" lon="8.89425">
        <ele>1384.4</ele>
        <time>2015-06-27T09:59:05Z</time>
      </trkpt>
      <trkpt lat="42.28541" lon="8.89428">
        <ele>1385</ele>
        <time>2015-06-27T09:59:11Z</time>
      </trkpt>
      <trkpt lat="42.28544" lon="8.89429">
        <ele>1386.2</ele>
        <time>2015-06-27T09:59:17Z</time>
      </trkpt>
      <trkpt lat="42.28547" lon="8.89428">
        <ele>1387</ele>
        <time>2015-06-27T09:59:22Z</time>
      </trkpt>
      <trkpt lat="42.28549" lon="8.89426">
        <ele>1387.8</ele>
        <time>2015-06-27T09:59:27Z</time>
      </trkpt>
      <trkpt lat="42.28552" lon="8.89426">
        <ele>1389</ele>
        <time>2015-06-27T09:59:32Z</time>
      </trkpt>
      <trkpt lat="42.28555" lon="8.89428">
        <ele>1389.8</ele>
        <time>2015-06-27T09:59:38Z</time>
      </trkpt>
      <trkpt lat="42.28557" lon="8.89431">
        <ele>1390.6</ele>
        <time>2015-06-27T09:59:42Z</time>
      </trkpt>
      <trkpt lat="42.28563" lon="8.8944">
        <ele>1392</ele>
        <time>2015-06-27T09:59:49Z</time>
      </trkpt>
      <trkpt lat="42.28567" lon="8.89445">
        <ele>1393</ele>
        <time>2015-06-27T09:59:56Z</time>
      </trkpt>
      <trkpt lat="42.28571" lon="8.89448">
        <ele>1393.6</ele>
        <time>2015-06-27T10:00:00Z</time>
      </trkpt>
      <trkpt lat="42.28573" lon="8.89452">
        <ele>1393.8</ele>
        <time>2015-06-27T10:00:03Z</time>
      </trkpt>
      <trkpt lat="42.28579" lon="8.89461">
        <ele>1394.8</ele>
        <time>2015-06-27T10:00:10Z</time>
      </trkpt>
      <trkpt lat="42.28585" lon="8.89464">
        <ele>1395.8</ele>
        <time>2015-06-27T10:00:17Z</time>
      </trkpt>
      <trkpt lat="42.28592" lon="8.8947">
        <ele>1397.2</ele>
        <time>2015-06-27T10:00:26Z</time>
      </trkpt>
      <trkpt lat="42.28598" lon="8.89476">
        <ele>1397.8</ele>
        <time>2015-06-27T10:00:34Z</time>
      </trkpt>
      <trkpt lat="42.28602" lon="8.89479">
        <ele>1398.6</ele>
        <time>2015-06-27T10:00:41Z</time>
      </trkpt>
      <trkpt lat="42.28607" lon="8.89481">
        <ele>1399.4</ele>
        <time>2015-06-27T10:00:46Z</time>
      </trkpt>
      <trkpt lat="42.28611" lon="8.89482">
        <ele>1400.4</ele>
        <time>2015-06-27T10:00:52Z</time>
      </trkpt>
      <trkpt lat="42.28617" lon="8.8948">
        <ele>1401.8</ele>
        <time>2015-06-27T10:01:00Z</time>
      </trkpt>
      <trkpt lat="42.28621" lon="8.8948">
        <ele>1402.4</ele>
        <time>2015-06-27T10:01:06Z</time>
      </trkpt>
      <trkpt lat="42.28623" lon="8.89479">
        <ele>1403</ele>
        <time>2015-06-27T10:01:11Z</time>
      </trkpt>
      <trkpt lat="42.28625" lon="8.89476">
        <ele>1404.4</ele>
        <time>2015-06-27T10:01:17Z</time>
      </trkpt>
      <trkpt lat="42.28625" lon="8.89474">
        <ele>1405.4</ele>
        <time>2015-06-27T10:01:22Z</time>
      </trkpt>
      <trkpt lat="42.28626" lon="8.89471">
        <ele>1406.4</ele>
        <time>2015-06-27T10:01:28Z</time>
      </trkpt>
      <trkpt lat="42.28628" lon="8.89463">
        <ele>1407.8</ele>
        <time>2015-06-27T10:01:52Z</time>
      </trkpt>
      <trkpt lat="42.28631" lon="8.89451">
        <ele>1408</ele>
        <time>2015-06-27T10:02:07Z</time>
      </trkpt>
      <trkpt lat="42.28637" lon="8.89423">
        <ele>1409.2</ele>
        <time>2015-06-27T10:02:29Z</time>
      </trkpt>
      <trkpt lat="42.28637" lon="8.89395">
        <ele>1409.8</ele>
        <time>2015-06-27T10:02:50Z</time>
      </trkpt>
      <trkpt lat="42.28644" lon="8.89367">
        <ele>1410.4</ele>
        <time>2015-06-27T10:03:14Z</time>
      </trkpt>
      <trkpt lat="42.28646" lon="8.89359">
        <ele>1411</ele>
        <time>2015-06-27T10:03:31Z</time>
      </trkpt>
      <trkpt lat="42.28649" lon="8.89336">
        <ele>1411</ele>
        <time>2015-06-27T10:03:39Z</time>
      </trkpt>
      <trkpt lat="42.28653" lon="8.89313">
        <ele>1411.2</ele>
        <time>2015-06-27T10:03:50Z</time>
      </trkpt>
      <trkpt lat="42.28654" lon="8.89295">
        <ele>1412.4</ele>
        <time>2015-06-27T10:04:02Z</time>
      </trkpt>
      <trkpt lat="42.28655" lon="8.89283">
        <ele>1412.8</ele>
        <time>2015-06-27T10:04:08Z</time>
      </trkpt>
      <trkpt lat="42.28656" lon="8.89267">
        <ele>1413.2</ele>
        <time>2015-06-27T10:04:18Z</time>
      </trkpt>
      <trkpt lat="42.28665" lon="8.89249">
        <ele>1414.4</ele>
        <time>2015-06-27T10:04:36Z</time>
      </trkpt>
      <trkpt lat="42.28666" lon="8.89247">
        <ele>1414.4</ele>
        <time>2015-06-27T10:04:42Z</time>
      </trkpt>
      <trkpt lat="42.2866" lon="8.89252">
        <ele>1414.6</ele>
        <time>2015-06-27T10:05:21Z</time>
      </trkpt>
      <trkpt lat="42.2866" lon="8.89253">
        <ele>1414.8</ele>
        <time>2015-06-27T10:05:25Z</time>
      </trkpt>
      <trkpt lat="42.2866" lon="8.89254">
        <ele>1414.6</ele>
        <time>2015-06-27T10:05:27Z</time>
      </trkpt>
      <trkpt lat="42.2866" lon="8.89254">
        <ele>1414.6</ele>
        <time>2015-06-27T10:05:29Z</time>
      </trkpt>
      <trkpt lat="42.28664" lon="8.89242">
        <ele>1420.6</ele>
        <time>2015-06-27T12:21:16Z</time>
      </trkpt>
      <trkpt lat="42.28672" lon="8.89251">
        <ele>1420.6</ele>
        <time>2015-06-27T12:21:27Z</time>
      </trkpt>
      <trkpt lat="42.28668" lon="8.8925">
        <ele>1420.8</ele>
        <time>2015-06-27T12:21:31Z</time>
      </trkpt>
      <trkpt lat="42.28669" lon="8.89244">
        <ele>1420.6</ele>
        <time>2015-06-27T12:23:27Z</time>
      </trkpt>
      <trkpt lat="42.2865" lon="8.89235">
        <ele>1421</ele>
        <time>2015-06-27T12:23:50Z</time>
      </trkpt>
      <trkpt lat="42.28667" lon="8.89243">
        <ele>1421</ele>
        <time>2015-06-27T12:26:42Z</time>
      </trkpt>
      <trkpt lat="42.28669" lon="8.89249">
        <ele>1420.4</ele>
        <time>2015-06-27T12:29:01Z</time>
      </trkpt>
      <trkpt lat="42.2867" lon="8.89222">
        <ele>1420.4</ele>
        <time>2015-06-27T12:29:21Z</time>
      </trkpt>
      <trkpt lat="42.28686" lon="8.8918">
        <ele>1421.2</ele>
        <time>2015-06-27T12:29:54Z</time>
      </trkpt>
      <trkpt lat="42.28687" lon="8.89178">
        <ele>1421.4</ele>
        <time>2015-06-27T12:29:56Z</time>
      </trkpt>
      <trkpt lat="42.28688" lon="8.89177">
        <ele>1421.4</ele>
        <time>2015-06-27T12:29:58Z</time>
      </trkpt>
      <trkpt lat="42.28692" lon="8.89175">
        <ele>1422.2</ele>
        <time>2015-06-27T12:30:04Z</time>
      </trkpt>
      <trkpt lat="42.28699" lon="8.89177">
        <ele>1423.4</ele>
        <time>2015-06-27T12:30:15Z</time>
      </trkpt>
      <trkpt lat="42.28708" lon="8.89176">
        <ele>1424.2</ele>
        <time>2015-06-27T12:30:23Z</time>
      </trkpt>
      <trkpt lat="42.2872" lon="8.89178">
        <ele>1425.6</ele>
        <time>2015-06-27T12:30:33Z</time>
      </trkpt>
      <trkpt lat="42.28739" lon="8.89184">
        <ele>1426.8</ele>
        <time>2015-06-27T12:30:50Z</time>
      </trkpt>
      <trkpt lat="42.28764" lon="8.89181">
        <ele>1428</ele>
        <time>2015-06-27T12:31:11Z</time>
      </trkpt>
      <trkpt lat="42.28784" lon="8.89161">
        <ele>1429.2</ele>
        <time>2015-06-27T12:31:34Z</time>
      </trkpt>
      <trkpt lat="42.28784" lon="8.89159">
        <ele>1429.2</ele>
        <time>2015-06-27T12:31:36Z</time>
      </trkpt>
      <trkpt lat="42.28794" lon="8.8916">
        <ele>1429</ele>
        <time>2015-06-27T12:31:59Z</time>
      </trkpt>
      <trkpt lat="42.288" lon="8.89151">
        <ele>1427.8</ele>
        <time>2015-06-27T12:32:09Z</time>
      </trkpt>
      <trkpt lat="42.28804" lon="8.89142">
        <ele>1426.2</ele>
        <time>2015-06-27T12:32:18Z</time>
      </trkpt>
      <trkpt lat="42.28809" lon="8.8913">
        <ele>1425.2</ele>
        <time>2015-06-27T12:32:31Z</time>
      </trkpt>
      <trkpt lat="42.28813" lon="8.89118">
        <ele>1424.6</ele>
        <time>2015-06-27T12:32:44Z</time>
      </trkpt>
      <trkpt lat="42.28815" lon="8.89111">
        <ele>1423.6</ele>
        <time>2015-06-27T12:32:50Z</time>
      </trkpt>
      <trkpt lat="42.28816" lon="8.89075">
        <ele>1422.2</ele>
        <time>2015-06-27T12:33:33Z</time>
      </trkpt>
      <trkpt lat="42.28818" lon="8.89066">
        <ele>1422</ele>
        <time>2015-06-27T12:33:41Z</time>
      </trkpt>
      <trkpt lat="42.28821" lon="8.89061">
        <ele>1422.2</ele>
        <time>2015-06-27T12:33:46Z</time>
      </trkpt>
      <trkpt lat="42.28822" lon="8.89057">
        <ele>1422</ele>
        <time>2015-06-27T12:33:49Z</time>
      </trkpt>
      <trkpt lat="42.28826" lon="8.89041">
        <ele>1422.2</ele>
        <time>2015-06-27T12:33:59Z</time>
      </trkpt>
      <trkpt lat="42.28827" lon="8.89014">
        <ele>1422</ele>
        <time>2015-06-27T12:34:19Z</time>
      </trkpt>
      <trkpt lat="42.28836" lon="8.88997">
        <ele>1422.2</ele>
        <time>2015-06-27T12:34:38Z</time>
      </trkpt>
      <trkpt lat="42.28848" lon="8.88985">
        <ele>1422</ele>
        <time>2015-06-27T12:35:00Z</time>
      </trkpt>
      <trkpt lat="42.28852" lon="8.88977">
        <ele>1422</ele>
        <time>2015-06-27T12:35:09Z</time>
      </trkpt>
      <trkpt lat="42.28855" lon="8.88974">
        <ele>1422.8</ele>
        <time>2015-06-27T12:35:14Z</time>
      </trkpt>
      <trkpt lat="42.28858" lon="8.88972">
        <ele>1423</ele>
        <time>2015-06-27T12:35:17Z</time>
      </trkpt>
      <trkpt lat="42.28882" lon="8.88937">
        <ele>1423.8</ele>
        <time>2015-06-27T12:35:49Z</time>
      </trkpt>
      <trkpt lat="42.28888" lon="8.88929">
        <ele>1422.8</ele>
        <time>2015-06-27T12:35:57Z</time>
      </trkpt>
      <trkpt lat="42.28894" lon="8.88923">
        <ele>1421.6</ele>
        <time>2015-06-27T12:36:05Z</time>
      </trkpt>
      <trkpt lat="42.289" lon="8.88917">
        <ele>1420.8</ele>
        <time>2015-06-27T12:36:11Z</time>
      </trkpt>
      <trkpt lat="42.28905" lon="8.88914">
        <ele>1420</ele>
        <time>2015-06-27T12:36:16Z</time>
      </trkpt>
      <trkpt lat="42.28909" lon="8.88911">
        <ele>1418.8</ele>
        <time>2015-06-27T12:36:21Z</time>
      </trkpt>
      <trkpt lat="42.28914" lon="8.88908">
        <ele>1417.4</ele>
        <time>2015-06-27T12:36:28Z</time>
      </trkpt>
      <trkpt lat="42.28918" lon="8.88902">
        <ele>1416.4</ele>
        <time>2015-06-27T12:36:35Z</time>
      </trkpt>
      <trkpt lat="42.2892" lon="8.88896">
        <ele>1415.4</ele>
        <time>2015-06-27T12:36:41Z</time>
      </trkpt>
      <trkpt lat="42.28922" lon="8.88889">
        <ele>1414</ele>
        <time>2015-06-27T12:36:51Z</time>
      </trkpt>
      <trkpt lat="42.28926" lon="8.88875">
        <ele>1412.6</ele>
        <time>2015-06-27T12:37:31Z</time>
      </trkpt>
      <trkpt lat="42.28927" lon="8.8887">
        <ele>1412.2</ele>
        <time>2015-06-27T12:37:38Z</time>
      </trkpt>
      <trkpt lat="42.28925" lon="8.88865">
        <ele>1411.6</ele>
        <time>2015-06-27T12:37:42Z</time>
      </trkpt>
      <trkpt lat="42.28924" lon="8.88859">
        <ele>1411.4</ele>
        <time>2015-06-27T12:37:47Z</time>
      </trkpt>
      <trkpt lat="42.28923" lon="8.88858">
        <ele>1411.4</ele>
        <time>2015-06-27T12:37:49Z</time>
      </trkpt>
      <trkpt lat="42.28922" lon="8.88853">
        <ele>1411.6</ele>
        <time>2015-06-27T12:37:53Z</time>
      </trkpt>
      <trkpt lat="42.28922" lon="8.88851">
        <ele>1411.8</ele>
        <time>2015-06-27T12:37:55Z</time>
      </trkpt>
      <trkpt lat="42.28922" lon="8.88847">
        <ele>1412</ele>
        <time>2015-06-27T12:37:57Z</time>
      </trkpt>
      <trkpt lat="42.28924" lon="8.88832">
        <ele>1411.6</ele>
        <time>2015-06-27T12:38:06Z</time>
      </trkpt>
      <trkpt lat="42.28925" lon="8.88813">
        <ele>1411.6</ele>
        <time>2015-06-27T12:38:20Z</time>
      </trkpt>
      <trkpt lat="42.28926" lon="8.88795">
        <ele>1413</ele>
        <time>2015-06-27T12:38:37Z</time>
      </trkpt>
      <trkpt lat="42.28941" lon="8.88763">
        <ele>1414.2</ele>
        <time>2015-06-27T12:39:01Z</time>
      </trkpt>
      <trkpt lat="42.28941" lon="8.88758">
        <ele>1414.4</ele>
        <time>2015-06-27T12:39:07Z</time>
      </trkpt>
      <trkpt lat="42.28941" lon="8.88755">
        <ele>1415.4</ele>
        <time>2015-06-27T12:39:12Z</time>
      </trkpt>
      <trkpt lat="42.28939" lon="8.8875">
        <ele>1416.8</ele>
        <time>2015-06-27T12:39:20Z</time>
      </trkpt>
      <trkpt lat="42.28942" lon="8.88746">
        <ele>1417.8</ele>
        <time>2015-06-27T12:39:26Z</time>
      </trkpt>
      <trkpt lat="42.28945" lon="8.8874">
        <ele>1419</ele>
        <time>2015-06-27T12:39:33Z</time>
      </trkpt>
      <trkpt lat="42.2895" lon="8.88723">
        <ele>1418.2</ele>
        <time>2015-06-27T12:39:50Z</time>
      </trkpt>
      <trkpt lat="42.2895" lon="8.88712">
        <ele>1417.8</ele>
        <time>2015-06-27T12:40:03Z</time>
      </trkpt>
      <trkpt lat="42.2895" lon="8.88706">
        <ele>1417.4</ele>
        <time>2015-06-27T12:40:08Z</time>
      </trkpt>
      <trkpt lat="42.28949" lon="8.88698">
        <ele>1415.8</ele>
        <time>2015-06-27T12:40:14Z</time>
      </trkpt>
      <trkpt lat="42.28945" lon="8.88692">
        <ele>1415</ele>
        <time>2015-06-27T12:40:21Z</time>
      </trkpt>
      <trkpt lat="42.28939" lon="8.88683">
        <ele>1415.6</ele>
        <time>2015-06-27T12:40:34Z</time>
      </trkpt>
      <trkpt lat="42.28937" lon="8.8868">
        <ele>1416</ele>
        <time>2015-06-27T12:40:38Z</time>
      </trkpt>
      <trkpt lat="42.28925" lon="8.88657">
        <ele>1415.2</ele>
        <time>2015-06-27T12:41:03Z</time>
      </trkpt>
      <trkpt lat="42.28922" lon="8.88649">
        <ele>1415.4</ele>
        <time>2015-06-27T12:41:10Z</time>
      </trkpt>
      <trkpt lat="42.28917" lon="8.88646">
        <ele>1415.8</ele>
        <time>2015-06-27T12:41:15Z</time>
      </trkpt>
      <trkpt lat="42.28909" lon="8.88636">
        <ele>1416.8</ele>
        <time>2015-06-27T12:41:28Z</time>
      </trkpt>
      <trkpt lat="42.28908" lon="8.88636">
        <ele>1417</ele>
        <time>2015-06-27T12:41:29Z</time>
      </trkpt>
      <trkpt lat="42.28904" lon="8.88634">
        <ele>1417.2</ele>
        <time>2015-06-27T12:41:33Z</time>
      </trkpt>
      <trkpt lat="42.28892" lon="8.88623">
        <ele>1417.2</ele>
        <time>2015-06-27T12:41:48Z</time>
      </trkpt>
      <trkpt lat="42.28889" lon="8.88618">
        <ele>1417.2</ele>
        <time>2015-06-27T12:41:51Z</time>
      </trkpt>
      <trkpt lat="42.28887" lon="8.88615">
        <ele>1417.2</ele>
        <time>2015-06-27T12:41:55Z</time>
      </trkpt>
      <trkpt lat="42.28887" lon="8.88613">
        <ele>1417.2</ele>
        <time>2015-06-27T12:41:57Z</time>
      </trkpt>
      <trkpt lat="42.28892" lon="8.88589">
        <ele>1418.6</ele>
        <time>2015-06-27T12:42:18Z</time>
      </trkpt>
      <trkpt lat="42.289" lon="8.88568">
        <ele>1417.6</ele>
        <time>2015-06-27T12:42:39Z</time>
      </trkpt>
      <trkpt lat="42.28901" lon="8.8856">
        <ele>1417.8</ele>
        <time>2015-06-27T12:42:43Z</time>
      </trkpt>
      <trkpt lat="42.28903" lon="8.88557">
        <ele>1418</ele>
        <time>2015-06-27T12:42:46Z</time>
      </trkpt>
      <trkpt lat="42.28905" lon="8.88554">
        <ele>1418.2</ele>
        <time>2015-06-27T12:42:49Z</time>
      </trkpt>
      <trkpt lat="42.28906" lon="8.88553">
        <ele>1418.4</ele>
        <time>2015-06-27T12:42:51Z</time>
      </trkpt>
      <trkpt lat="42.28911" lon="8.88545">
        <ele>1419.4</ele>
        <time>2015-06-27T12:43:01Z</time>
      </trkpt>
      <trkpt lat="42.28913" lon="8.8854">
        <ele>1420</ele>
        <time>2015-06-27T12:43:06Z</time>
      </trkpt>
      <trkpt lat="42.28914" lon="8.88537">
        <ele>1420</ele>
        <time>2015-06-27T12:43:08Z</time>
      </trkpt>
      <trkpt lat="42.28915" lon="8.88536">
        <ele>1420.2</ele>
        <time>2015-06-27T12:43:09Z</time>
      </trkpt>
      <trkpt lat="42.28915" lon="8.88535">
        <ele>1420.6</ele>
        <time>2015-06-27T12:43:11Z</time>
      </trkpt>
      <trkpt lat="42.28915" lon="8.8853">
        <ele>1421.4</ele>
        <time>2015-06-27T12:43:14Z</time>
      </trkpt>
      <trkpt lat="42.28914" lon="8.88528">
        <ele>1421.4</ele>
        <time>2015-06-27T12:43:16Z</time>
      </trkpt>
      <trkpt lat="42.28915" lon="8.88526">
        <ele>1421.6</ele>
        <time>2015-06-27T12:43:18Z</time>
      </trkpt>
      <trkpt lat="42.28925" lon="8.88513">
        <ele>1422.4</ele>
        <time>2015-06-27T12:43:31Z</time>
      </trkpt>
      <trkpt lat="42.28926" lon="8.88511">
        <ele>1422.4</ele>
        <time>2015-06-27T12:43:33Z</time>
      </trkpt>
      <trkpt lat="42.28926" lon="8.88509">
        <ele>1422.4</ele>
        <time>2015-06-27T12:43:36Z</time>
      </trkpt>
      <trkpt lat="42.28926" lon="8.88508">
        <ele>1422.4</ele>
        <time>2015-06-27T12:43:38Z</time>
      </trkpt>
      <trkpt lat="42.28925" lon="8.88504">
        <ele>1422.8</ele>
        <time>2015-06-27T12:43:43Z</time>
      </trkpt>
      <trkpt lat="42.28932" lon="8.88495">
        <ele>1423.8</ele>
        <time>2015-06-27T12:43:56Z</time>
      </trkpt>
      <trkpt lat="42.28937" lon="8.88489">
        <ele>1423.6</ele>
        <time>2015-06-27T12:44:01Z</time>
      </trkpt>
      <trkpt lat="42.2894" lon="8.88488">
        <ele>1423.6</ele>
        <time>2015-06-27T12:44:03Z</time>
      </trkpt>
      <trkpt lat="42.28942" lon="8.88484">
        <ele>1423.4</ele>
        <time>2015-06-27T12:44:06Z</time>
      </trkpt>
      <trkpt lat="42.28941" lon="8.8848">
        <ele>1422.8</ele>
        <time>2015-06-27T12:44:08Z</time>
      </trkpt>
      <trkpt lat="42.28944" lon="8.88477">
        <ele>1422.6</ele>
        <time>2015-06-27T12:44:11Z</time>
      </trkpt>
      <trkpt lat="42.28951" lon="8.88469">
        <ele>1422.6</ele>
        <time>2015-06-27T12:44:19Z</time>
      </trkpt>
      <trkpt lat="42.28956" lon="8.88463">
        <ele>1422.8</ele>
        <time>2015-06-27T12:44:25Z</time>
      </trkpt>
      <trkpt lat="42.28955" lon="8.88457">
        <ele>1422.8</ele>
        <time>2015-06-27T12:44:30Z</time>
      </trkpt>
      <trkpt lat="42.28968" lon="8.8844">
        <ele>1423.2</ele>
        <time>2015-06-27T12:44:53Z</time>
      </trkpt>
      <trkpt lat="42.28988" lon="8.88427">
        <ele>1422.2</ele>
        <time>2015-06-27T12:45:08Z</time>
      </trkpt>
      <trkpt lat="42.28992" lon="8.88423">
        <ele>1422.6</ele>
        <time>2015-06-27T12:45:12Z</time>
      </trkpt>
      <trkpt lat="42.28996" lon="8.88405">
        <ele>1423.2</ele>
        <time>2015-06-27T12:45:30Z</time>
      </trkpt>
      <trkpt lat="42.28996" lon="8.88402">
        <ele>1423.2</ele>
        <time>2015-06-27T12:45:32Z</time>
      </trkpt>
      <trkpt lat="42.28995" lon="8.88399">
        <ele>1423.2</ele>
        <time>2015-06-27T12:45:35Z</time>
      </trkpt>
      <trkpt lat="42.28996" lon="8.88395">
        <ele>1423.4</ele>
        <time>2015-06-27T12:45:39Z</time>
      </trkpt>
      <trkpt lat="42.29009" lon="8.88387">
        <ele>1423.8</ele>
        <time>2015-06-27T12:45:52Z</time>
      </trkpt>
      <trkpt lat="42.29011" lon="8.88382">
        <ele>1424</ele>
        <time>2015-06-27T12:45:56Z</time>
      </trkpt>
      <trkpt lat="42.29012" lon="8.88378">
        <ele>1424</ele>
        <time>2015-06-27T12:45:58Z</time>
      </trkpt>
      <trkpt lat="42.29013" lon="8.88371">
        <ele>1424.2</ele>
        <time>2015-06-27T12:46:03Z</time>
      </trkpt>
      <trkpt lat="42.29031" lon="8.88354">
        <ele>1424.2</ele>
        <time>2015-06-27T12:46:18Z</time>
      </trkpt>
      <trkpt lat="42.29033" lon="8.88352">
        <ele>1424.4</ele>
        <time>2015-06-27T12:46:21Z</time>
      </trkpt>
      <trkpt lat="42.29035" lon="8.88348">
        <ele>1424.8</ele>
        <time>2015-06-27T12:46:24Z</time>
      </trkpt>
      <trkpt lat="42.29034" lon="8.88344">
        <ele>1425</ele>
        <time>2015-06-27T12:46:28Z</time>
      </trkpt>
      <trkpt lat="42.29035" lon="8.88341">
        <ele>1425.2</ele>
        <time>2015-06-27T12:46:31Z</time>
      </trkpt>
      <trkpt lat="42.29037" lon="8.88333">
        <ele>1425.2</ele>
        <time>2015-06-27T12:46:37Z</time>
      </trkpt>
      <trkpt lat="42.2904" lon="8.8833">
        <ele>1425.2</ele>
        <time>2015-06-27T12:46:39Z</time>
      </trkpt>
      <trkpt lat="42.29043" lon="8.88325">
        <ele>1425</ele>
        <time>2015-06-27T12:46:44Z</time>
      </trkpt>
      <trkpt lat="42.29044" lon="8.88313">
        <ele>1424.8</ele>
        <time>2015-06-27T12:46:51Z</time>
      </trkpt>
      <trkpt lat="42.29043" lon="8.88309">
        <ele>1424.8</ele>
        <time>2015-06-27T12:46:54Z</time>
      </trkpt>
      <trkpt lat="42.29044" lon="8.88305">
        <ele>1424.8</ele>
        <time>2015-06-27T12:46:57Z</time>
      </trkpt>
      <trkpt lat="42.29045" lon="8.883">
        <ele>1425.2</ele>
        <time>2015-06-27T12:47:00Z</time>
      </trkpt>
      <trkpt lat="42.29046" lon="8.88297">
        <ele>1425.8</ele>
        <time>2015-06-27T12:47:03Z</time>
      </trkpt>
      <trkpt lat="42.29049" lon="8.88282">
        <ele>1426</ele>
        <time>2015-06-27T12:47:15Z</time>
      </trkpt>
      <trkpt lat="42.2905" lon="8.88279">
        <ele>1426</ele>
        <time>2015-06-27T12:47:19Z</time>
      </trkpt>
      <trkpt lat="42.29053" lon="8.88275">
        <ele>1425.2</ele>
        <time>2015-06-27T12:47:24Z</time>
      </trkpt>
      <trkpt lat="42.29056" lon="8.88271">
        <ele>1424</ele>
        <time>2015-06-27T12:47:31Z</time>
      </trkpt>
      <trkpt lat="42.29058" lon="8.88268">
        <ele>1423.4</ele>
        <time>2015-06-27T12:47:35Z</time>
      </trkpt>
      <trkpt lat="42.2906" lon="8.88265">
        <ele>1423</ele>
        <time>2015-06-27T12:47:37Z</time>
      </trkpt>
      <trkpt lat="42.29061" lon="8.88264">
        <ele>1423</ele>
        <time>2015-06-27T12:47:39Z</time>
      </trkpt>
      <trkpt lat="42.29062" lon="8.88261">
        <ele>1422.8</ele>
        <time>2015-06-27T12:47:42Z</time>
      </trkpt>
      <trkpt lat="42.29068" lon="8.8825">
        <ele>1423.4</ele>
        <time>2015-06-27T12:47:52Z</time>
      </trkpt>
      <trkpt lat="42.29071" lon="8.88247">
        <ele>1424</ele>
        <time>2015-06-27T12:47:55Z</time>
      </trkpt>
      <trkpt lat="42.29073" lon="8.8824">
        <ele>1424.2</ele>
        <time>2015-06-27T12:48:00Z</time>
      </trkpt>
      <trkpt lat="42.29078" lon="8.88233">
        <ele>1424.2</ele>
        <time>2015-06-27T12:48:07Z</time>
      </trkpt>
      <trkpt lat="42.29083" lon="8.88228">
        <ele>1423.6</ele>
        <time>2015-06-27T12:48:11Z</time>
      </trkpt>
      <trkpt lat="42.2909" lon="8.88223">
        <ele>1422.8</ele>
        <time>2015-06-27T12:48:17Z</time>
      </trkpt>
      <trkpt lat="42.29089" lon="8.88221">
        <ele>1422.6</ele>
        <time>2015-06-27T12:48:18Z</time>
      </trkpt>
      <trkpt lat="42.29093" lon="8.88218">
        <ele>1422</ele>
        <time>2015-06-27T12:48:23Z</time>
      </trkpt>
      <trkpt lat="42.29095" lon="8.88216">
        <ele>1421.6</ele>
        <time>2015-06-27T12:48:26Z</time>
      </trkpt>
      <trkpt lat="42.29108" lon="8.88214">
        <ele>1421.4</ele>
        <time>2015-06-27T12:48:41Z</time>
      </trkpt>
      <trkpt lat="42.2913" lon="8.8823">
        <ele>1421.8</ele>
        <time>2015-06-27T12:49:53Z</time>
      </trkpt>
      <trkpt lat="42.29135" lon="8.88234">
        <ele>1422.4</ele>
        <time>2015-06-27T12:49:59Z</time>
      </trkpt>
      <trkpt lat="42.29147" lon="8.88237">
        <ele>1423.4</ele>
        <time>2015-06-27T12:50:09Z</time>
      </trkpt>
      <trkpt lat="42.2915" lon="8.88237">
        <ele>1424.8</ele>
        <time>2015-06-27T12:50:16Z</time>
      </trkpt>
      <trkpt lat="42.29155" lon="8.88237">
        <ele>1426</ele>
        <time>2015-06-27T12:50:25Z</time>
      </trkpt>
      <trkpt lat="42.29161" lon="8.88245">
        <ele>1427.2</ele>
        <time>2015-06-27T12:50:35Z</time>
      </trkpt>
      <trkpt lat="42.29178" lon="8.88255">
        <ele>1427.2</ele>
        <time>2015-06-27T12:50:49Z</time>
      </trkpt>
      <trkpt lat="42.2918" lon="8.88278">
        <ele>1426.8</ele>
        <time>2015-06-27T12:51:10Z</time>
      </trkpt>
      <trkpt lat="42.29183" lon="8.88279">
        <ele>1426.8</ele>
        <time>2015-06-27T12:51:12Z</time>
      </trkpt>
      <trkpt lat="42.29192" lon="8.88273">
        <ele>1427.4</ele>
        <time>2015-06-27T12:51:28Z</time>
      </trkpt>
      <trkpt lat="42.29195" lon="8.88269">
        <ele>1428.2</ele>
        <time>2015-06-27T12:51:35Z</time>
      </trkpt>
      <trkpt lat="42.29206" lon="8.8826">
        <ele>1430</ele>
        <time>2015-06-27T12:51:49Z</time>
      </trkpt>
      <trkpt lat="42.29244" lon="8.88244">
        <ele>1431.2</ele>
        <time>2015-06-27T12:52:37Z</time>
      </trkpt>
      <trkpt lat="42.2925" lon="8.8824">
        <ele>1432</ele>
        <time>2015-06-27T12:52:46Z</time>
      </trkpt>
      <trkpt lat="42.29257" lon="8.88233">
        <ele>1433</ele>
        <time>2015-06-27T12:52:57Z</time>
      </trkpt>
      <trkpt lat="42.29273" lon="8.88234">
        <ele>1433.6</ele>
        <time>2015-06-27T12:53:18Z</time>
      </trkpt>
      <trkpt lat="42.29278" lon="8.88235">
        <ele>1432.6</ele>
        <time>2015-06-27T12:53:26Z</time>
      </trkpt>
      <trkpt lat="42.29284" lon="8.88235">
        <ele>1432</ele>
        <time>2015-06-27T12:53:31Z</time>
      </trkpt>
      <trkpt lat="42.29287" lon="8.88233">
        <ele>1431.4</ele>
        <time>2015-06-27T12:53:34Z</time>
      </trkpt>
      <trkpt lat="42.29293" lon="8.88225">
        <ele>1430.6</ele>
        <time>2015-06-27T12:53:47Z</time>
      </trkpt>
      <trkpt lat="42.29297" lon="8.88222">
        <ele>1431.8</ele>
        <time>2015-06-27T12:53:53Z</time>
      </trkpt>
      <trkpt lat="42.29341" lon="8.88226">
        <ele>1432.8</ele>
        <time>2015-06-27T12:54:41Z</time>
      </trkpt>
      <trkpt lat="42.29377" lon="8.8823">
        <ele>1433.2</ele>
        <time>2015-06-27T12:55:17Z</time>
      </trkpt>
      <trkpt lat="42.29388" lon="8.88229">
        <ele>1435</ele>
        <time>2015-06-27T12:55:28Z</time>
      </trkpt>
      <trkpt lat="42.29424" lon="8.88208">
        <ele>1435</ele>
        <time>2015-06-27T12:56:08Z</time>
      </trkpt>
      <trkpt lat="42.29431" lon="8.88204">
        <ele>1434</ele>
        <time>2015-06-27T12:56:19Z</time>
      </trkpt>
      <trkpt lat="42.29438" lon="8.88202">
        <ele>1433</ele>
        <time>2015-06-27T12:56:28Z</time>
      </trkpt>
      <trkpt lat="42.29443" lon="8.882">
        <ele>1432.2</ele>
        <time>2015-06-27T12:56:34Z</time>
      </trkpt>
      <trkpt lat="42.29448" lon="8.88197">
        <ele>1431</ele>
        <time>2015-06-27T12:56:39Z</time>
      </trkpt>
      <trkpt lat="42.29462" lon="8.88188">
        <ele>1429.4</ele>
        <time>2015-06-27T12:56:54Z</time>
      </trkpt>
      <trkpt lat="42.29466" lon="8.88186">
        <ele>1429.2</ele>
        <time>2015-06-27T12:56:58Z</time>
      </trkpt>
      <trkpt lat="42.29476" lon="8.88176">
        <ele>1427.8</ele>
        <time>2015-06-27T12:57:15Z</time>
      </trkpt>
      <trkpt lat="42.29516" lon="8.88191">
        <ele>1427.4</ele>
        <time>2015-06-27T12:57:57Z</time>
      </trkpt>
      <trkpt lat="42.29523" lon="8.88196">
        <ele>1427.8</ele>
        <time>2015-06-27T12:58:04Z</time>
      </trkpt>
      <trkpt lat="42.29524" lon="8.88199">
        <ele>1428</ele>
        <time>2015-06-27T12:58:07Z</time>
      </trkpt>
      <trkpt lat="42.29527" lon="8.88203">
        <ele>1428</ele>
        <time>2015-06-27T12:58:11Z</time>
      </trkpt>
      <trkpt lat="42.29529" lon="8.88206">
        <ele>1427.2</ele>
        <time>2015-06-27T12:58:16Z</time>
      </trkpt>
      <trkpt lat="42.29531" lon="8.88208">
        <ele>1426.8</ele>
        <time>2015-06-27T12:58:18Z</time>
      </trkpt>
      <trkpt lat="42.29534" lon="8.88213">
        <ele>1426</ele>
        <time>2015-06-27T12:58:23Z</time>
      </trkpt>
      <trkpt lat="42.29537" lon="8.88219">
        <ele>1425</ele>
        <time>2015-06-27T12:58:28Z</time>
      </trkpt>
      <trkpt lat="42.2954" lon="8.88225">
        <ele>1423.4</ele>
        <time>2015-06-27T12:58:34Z</time>
      </trkpt>
      <trkpt lat="42.29563" lon="8.88241">
        <ele>1421.6</ele>
        <time>2015-06-27T12:59:06Z</time>
      </trkpt>
      <trkpt lat="42.29579" lon="8.88248">
        <ele>1420.2</ele>
        <time>2015-06-27T12:59:20Z</time>
      </trkpt>
      <trkpt lat="42.2959" lon="8.88252">
        <ele>1419.2</ele>
        <time>2015-06-27T12:59:31Z</time>
      </trkpt>
      <trkpt lat="42.29609" lon="8.88253">
        <ele>1418</ele>
        <time>2015-06-27T12:59:49Z</time>
      </trkpt>
      <trkpt lat="42.29619" lon="8.88249">
        <ele>1416.8</ele>
        <time>2015-06-27T12:59:59Z</time>
      </trkpt>
      <trkpt lat="42.2962" lon="8.88249">
        <ele>1416.6</ele>
        <time>2015-06-27T13:00:00Z</time>
      </trkpt>
      <trkpt lat="42.29631" lon="8.88245">
        <ele>1416.2</ele>
        <time>2015-06-27T13:00:10Z</time>
      </trkpt>
      <trkpt lat="42.29636" lon="8.88242">
        <ele>1415.6</ele>
        <time>2015-06-27T13:00:14Z</time>
      </trkpt>
      <trkpt lat="42.2965" lon="8.88229">
        <ele>1413.2</ele>
        <time>2015-06-27T13:00:31Z</time>
      </trkpt>
      <trkpt lat="42.29651" lon="8.88225">
        <ele>1413.2</ele>
        <time>2015-06-27T13:00:34Z</time>
      </trkpt>
      <trkpt lat="42.29657" lon="8.88224">
        <ele>1413.2</ele>
        <time>2015-06-27T13:00:37Z</time>
      </trkpt>
      <trkpt lat="42.29661" lon="8.88221">
        <ele>1413.2</ele>
        <time>2015-06-27T13:00:40Z</time>
      </trkpt>
      <trkpt lat="42.29669" lon="8.88207">
        <ele>1412.2</ele>
        <time>2015-06-27T13:00:55Z</time>
      </trkpt>
      <trkpt lat="42.29671" lon="8.88205">
        <ele>1412.2</ele>
        <time>2015-06-27T13:00:58Z</time>
      </trkpt>
      <trkpt lat="42.29673" lon="8.88201">
        <ele>1412</ele>
        <time>2015-06-27T13:01:02Z</time>
      </trkpt>
      <trkpt lat="42.29675" lon="8.88198">
        <ele>1411.8</ele>
        <time>2015-06-27T13:01:06Z</time>
      </trkpt>
      <trkpt lat="42.29682" lon="8.8819">
        <ele>1411</ele>
        <time>2015-06-27T13:01:15Z</time>
      </trkpt>
      <trkpt lat="42.29691" lon="8.88185">
        <ele>1410.2</ele>
        <time>2015-06-27T13:01:23Z</time>
      </trkpt>
      <trkpt lat="42.29696" lon="8.8818">
        <ele>1409.2</ele>
        <time>2015-06-27T13:01:29Z</time>
      </trkpt>
      <trkpt lat="42.29699" lon="8.88177">
        <ele>1408.6</ele>
        <time>2015-06-27T13:01:32Z</time>
      </trkpt>
      <trkpt lat="42.29699" lon="8.88173">
        <ele>1408</ele>
        <time>2015-06-27T13:01:35Z</time>
      </trkpt>
      <trkpt lat="42.297" lon="8.88172">
        <ele>1407.8</ele>
        <time>2015-06-27T13:01:36Z</time>
      </trkpt>
      <trkpt lat="42.29702" lon="8.88171">
        <ele>1407.6</ele>
        <time>2015-06-27T13:01:38Z</time>
      </trkpt>
      <trkpt lat="42.29704" lon="8.88169">
        <ele>1407.2</ele>
        <time>2015-06-27T13:01:41Z</time>
      </trkpt>
      <trkpt lat="42.29704" lon="8.88169">
        <ele>1407</ele>
        <time>2015-06-27T13:01:42Z</time>
      </trkpt>
      <trkpt lat="42.29705" lon="8.88167">
        <ele>1406.4</ele>
        <time>2015-06-27T13:01:44Z</time>
      </trkpt>
      <trkpt lat="42.29706" lon="8.88162">
        <ele>1406</ele>
        <time>2015-06-27T13:01:47Z</time>
      </trkpt>
      <trkpt lat="42.29714" lon="8.88159">
        <ele>1404.4</ele>
        <time>2015-06-27T13:01:54Z</time>
      </trkpt>
      <trkpt lat="42.29722" lon="8.88156">
        <ele>1403.4</ele>
        <time>2015-06-27T13:02:00Z</time>
      </trkpt>
      <trkpt lat="42.29726" lon="8.88148">
        <ele>1402.2</ele>
        <time>2015-06-27T13:02:08Z</time>
      </trkpt>
      <trkpt lat="42.29727" lon="8.88144">
        <ele>1401.4</ele>
        <time>2015-06-27T13:02:13Z</time>
      </trkpt>
      <trkpt lat="42.29727" lon="8.88141">
        <ele>1401</ele>
        <time>2015-06-27T13:02:15Z</time>
      </trkpt>
      <trkpt lat="42.29732" lon="8.88137">
        <ele>1399.8</ele>
        <time>2015-06-27T13:02:19Z</time>
      </trkpt>
      <trkpt lat="42.29732" lon="8.88135">
        <ele>1399.2</ele>
        <time>2015-06-27T13:02:21Z</time>
      </trkpt>
      <trkpt lat="42.29734" lon="8.88134">
        <ele>1398.8</ele>
        <time>2015-06-27T13:02:24Z</time>
      </trkpt>
      <trkpt lat="42.29738" lon="8.88129">
        <ele>1399</ele>
        <time>2015-06-27T13:02:29Z</time>
      </trkpt>
      <trkpt lat="42.29742" lon="8.88119">
        <ele>1400</ele>
        <time>2015-06-27T13:02:37Z</time>
      </trkpt>
      <trkpt lat="42.29745" lon="8.88102">
        <ele>1399.8</ele>
        <time>2015-06-27T13:02:51Z</time>
      </trkpt>
      <trkpt lat="42.29748" lon="8.88099">
        <ele>1399.6</ele>
        <time>2015-06-27T13:02:54Z</time>
      </trkpt>
      <trkpt lat="42.29748" lon="8.88098">
        <ele>1399.6</ele>
        <time>2015-06-27T13:02:55Z</time>
      </trkpt>
      <trkpt lat="42.29749" lon="8.88097">
        <ele>1399.6</ele>
        <time>2015-06-27T13:02:56Z</time>
      </trkpt>
      <trkpt lat="42.29744" lon="8.8809">
        <ele>1398.6</ele>
        <time>2015-06-27T13:03:00Z</time>
      </trkpt>
      <trkpt lat="42.29744" lon="8.88074">
        <ele>1398.6</ele>
        <time>2015-06-27T13:03:10Z</time>
      </trkpt>
      <trkpt lat="42.29744" lon="8.88073">
        <ele>1398.6</ele>
        <time>2015-06-27T13:03:12Z</time>
      </trkpt>
      <trkpt lat="42.29745" lon="8.88069">
        <ele>1399.2</ele>
        <time>2015-06-27T13:03:15Z</time>
      </trkpt>
      <trkpt lat="42.29749" lon="8.88067">
        <ele>1399.6</ele>
        <time>2015-06-27T13:03:18Z</time>
      </trkpt>
      <trkpt lat="42.29747" lon="8.88059">
        <ele>1399.6</ele>
        <time>2015-06-27T13:03:23Z</time>
      </trkpt>
      <trkpt lat="42.29747" lon="8.88057">
        <ele>1400</ele>
        <time>2015-06-27T13:03:26Z</time>
      </trkpt>
      <trkpt lat="42.2975" lon="8.88054">
        <ele>1400</ele>
        <time>2015-06-27T13:03:33Z</time>
      </trkpt>
      <trkpt lat="42.29753" lon="8.88051">
        <ele>1400.6</ele>
        <time>2015-06-27T13:03:41Z</time>
      </trkpt>
      <trkpt lat="42.29756" lon="8.88051">
        <ele>1401</ele>
        <time>2015-06-27T13:03:43Z</time>
      </trkpt>
      <trkpt lat="42.29759" lon="8.8805">
        <ele>1401.2</ele>
        <time>2015-06-27T13:03:45Z</time>
      </trkpt>
      <trkpt lat="42.29767" lon="8.88045">
        <ele>1402</ele>
        <time>2015-06-27T13:03:56Z</time>
      </trkpt>
      <trkpt lat="42.29773" lon="8.88044">
        <ele>1402.8</ele>
        <time>2015-06-27T13:04:04Z</time>
      </trkpt>
      <trkpt lat="42.29793" lon="8.88048">
        <ele>1402.8</ele>
        <time>2015-06-27T13:04:43Z</time>
      </trkpt>
      <trkpt lat="42.29798" lon="8.88053">
        <ele>1402</ele>
        <time>2015-06-27T13:04:51Z</time>
      </trkpt>
      <trkpt lat="42.298" lon="8.88057">
        <ele>1401.4</ele>
        <time>2015-06-27T13:04:55Z</time>
      </trkpt>
      <trkpt lat="42.29801" lon="8.8806">
        <ele>1401.2</ele>
        <time>2015-06-27T13:04:57Z</time>
      </trkpt>
      <trkpt lat="42.29804" lon="8.88065">
        <ele>1400</ele>
        <time>2015-06-27T13:05:03Z</time>
      </trkpt>
      <trkpt lat="42.29805" lon="8.88066">
        <ele>1400</ele>
        <time>2015-06-27T13:05:04Z</time>
      </trkpt>
      <trkpt lat="42.29811" lon="8.88069">
        <ele>1399</ele>
        <time>2015-06-27T13:05:10Z</time>
      </trkpt>
      <trkpt lat="42.29812" lon="8.88069">
        <ele>1398.6</ele>
        <time>2015-06-27T13:05:11Z</time>
      </trkpt>
      <trkpt lat="42.2982" lon="8.88066">
        <ele>1398.2</ele>
        <time>2015-06-27T13:05:23Z</time>
      </trkpt>
      <trkpt lat="42.29846" lon="8.88063">
        <ele>1398</ele>
        <time>2015-06-27T13:06:20Z</time>
      </trkpt>
      <trkpt lat="42.29857" lon="8.88071">
        <ele>1396.8</ele>
        <time>2015-06-27T13:06:47Z</time>
      </trkpt>
      <trkpt lat="42.2986" lon="8.88076">
        <ele>1396.4</ele>
        <time>2015-06-27T13:06:53Z</time>
      </trkpt>
      <trkpt lat="42.29864" lon="8.8808">
        <ele>1395</ele>
        <time>2015-06-27T13:06:59Z</time>
      </trkpt>
      <trkpt lat="42.29873" lon="8.88086">
        <ele>1393.4</ele>
        <time>2015-06-27T13:07:11Z</time>
      </trkpt>
      <trkpt lat="42.29884" lon="8.88094">
        <ele>1392.2</ele>
        <time>2015-06-27T13:07:27Z</time>
      </trkpt>
      <trkpt lat="42.29897" lon="8.88112">
        <ele>1391.2</ele>
        <time>2015-06-27T13:07:53Z</time>
      </trkpt>
      <trkpt lat="42.29913" lon="8.88113">
        <ele>1390.4</ele>
        <time>2015-06-27T13:08:21Z</time>
      </trkpt>
      <trkpt lat="42.2993" lon="8.8812">
        <ele>1390.6</ele>
        <time>2015-06-27T13:08:49Z</time>
      </trkpt>
      <trkpt lat="42.29939" lon="8.88128">
        <ele>1389.2</ele>
        <time>2015-06-27T13:09:05Z</time>
      </trkpt>
      <trkpt lat="42.29948" lon="8.88141">
        <ele>1388.2</ele>
        <time>2015-06-27T13:09:30Z</time>
      </trkpt>
      <trkpt lat="42.29952" lon="8.88146">
        <ele>1387.4</ele>
        <time>2015-06-27T13:09:37Z</time>
      </trkpt>
      <trkpt lat="42.29955" lon="8.88147">
        <ele>1386.8</ele>
        <time>2015-06-27T13:09:40Z</time>
      </trkpt>
      <trkpt lat="42.29968" lon="8.88155">
        <ele>1386.2</ele>
        <time>2015-06-27T13:10:07Z</time>
      </trkpt>
      <trkpt lat="42.29969" lon="8.88162">
        <ele>1384.8</ele>
        <time>2015-06-27T13:10:15Z</time>
      </trkpt>
      <trkpt lat="42.29974" lon="8.88164">
        <ele>1384.2</ele>
        <time>2015-06-27T13:10:20Z</time>
      </trkpt>
      <trkpt lat="42.29983" lon="8.88174">
        <ele>1382.4</ele>
        <time>2015-06-27T13:10:36Z</time>
      </trkpt>
      <trkpt lat="42.29993" lon="8.88176">
        <ele>1382</ele>
        <time>2015-06-27T13:10:47Z</time>
      </trkpt>
      <trkpt lat="42.29998" lon="8.88181">
        <ele>1382.4</ele>
        <time>2015-06-27T13:10:54Z</time>
      </trkpt>
      <trkpt lat="42.3" lon="8.88186">
        <ele>1383.2</ele>
        <time>2015-06-27T13:11:01Z</time>
      </trkpt>
      <trkpt lat="42.30002" lon="8.88193">
        <ele>1384.2</ele>
        <time>2015-06-27T13:11:08Z</time>
      </trkpt>
      <trkpt lat="42.30007" lon="8.88199">
        <ele>1385.4</ele>
        <time>2015-06-27T13:11:19Z</time>
      </trkpt>
      <trkpt lat="42.30007" lon="8.88202">
        <ele>1386.4</ele>
        <time>2015-06-27T13:11:25Z</time>
      </trkpt>
      <trkpt lat="42.30008" lon="8.88204">
        <ele>1387.2</ele>
        <time>2015-06-27T13:11:31Z</time>
      </trkpt>
      <trkpt lat="42.30013" lon="8.88209">
        <ele>1388.8</ele>
        <time>2015-06-27T13:11:39Z</time>
      </trkpt>
      <trkpt lat="42.30017" lon="8.88211">
        <ele>1389.4</ele>
        <time>2015-06-27T13:11:44Z</time>
      </trkpt>
      <trkpt lat="42.30018" lon="8.88216">
        <ele>1390.6</ele>
        <time>2015-06-27T13:11:50Z</time>
      </trkpt>
      <trkpt lat="42.30018" lon="8.8822">
        <ele>1391.2</ele>
        <time>2015-06-27T13:11:53Z</time>
      </trkpt>
      <trkpt lat="42.30018" lon="8.88223">
        <ele>1391.6</ele>
        <time>2015-06-27T13:11:56Z</time>
      </trkpt>
      <trkpt lat="42.30022" lon="8.88227">
        <ele>1393</ele>
        <time>2015-06-27T13:12:04Z</time>
      </trkpt>
      <trkpt lat="42.30024" lon="8.88233">
        <ele>1394.2</ele>
        <time>2015-06-27T13:12:13Z</time>
      </trkpt>
      <trkpt lat="42.30033" lon="8.88236">
        <ele>1395.4</ele>
        <time>2015-06-27T13:12:21Z</time>
      </trkpt>
      <trkpt lat="42.30044" lon="8.88234">
        <ele>1396.2</ele>
        <time>2015-06-27T13:12:29Z</time>
      </trkpt>
      <trkpt lat="42.30044" lon="8.88233">
        <ele>1396.6</ele>
        <time>2015-06-27T13:12:30Z</time>
      </trkpt>
      <trkpt lat="42.30041" lon="8.88229">
        <ele>1397.8</ele>
        <time>2015-06-27T13:12:49Z</time>
      </trkpt>
      <trkpt lat="42.3004" lon="8.88226">
        <ele>1398.8</ele>
        <time>2015-06-27T13:13:22Z</time>
      </trkpt>
      <trkpt lat="42.30043" lon="8.88231">
        <ele>1398.6</ele>
        <time>2015-06-27T13:14:48Z</time>
      </trkpt>
      <trkpt lat="42.30048" lon="8.88222">
        <ele>1399.2</ele>
        <time>2015-06-27T13:15:25Z</time>
      </trkpt>
      <trkpt lat="42.30051" lon="8.8822">
        <ele>1399.4</ele>
        <time>2015-06-27T13:15:30Z</time>
      </trkpt>
      <trkpt lat="42.30062" lon="8.88174">
        <ele>1399.8</ele>
        <time>2015-06-27T13:16:08Z</time>
      </trkpt>
      <trkpt lat="42.30062" lon="8.88163">
        <ele>1398.4</ele>
        <time>2015-06-27T13:16:16Z</time>
      </trkpt>
      <trkpt lat="42.30067" lon="8.88153">
        <ele>1397.2</ele>
        <time>2015-06-27T13:16:26Z</time>
      </trkpt>
      <trkpt lat="42.30065" lon="8.88149">
        <ele>1397.2</ele>
        <time>2015-06-27T13:16:29Z</time>
      </trkpt>
      <trkpt lat="42.30066" lon="8.88147">
        <ele>1396.6</ele>
        <time>2015-06-27T13:16:32Z</time>
      </trkpt>
      <trkpt lat="42.30066" lon="8.88144">
        <ele>1395.8</ele>
        <time>2015-06-27T13:16:37Z</time>
      </trkpt>
      <trkpt lat="42.30069" lon="8.88138">
        <ele>1395</ele>
        <time>2015-06-27T13:16:41Z</time>
      </trkpt>
      <trkpt lat="42.30075" lon="8.8813">
        <ele>1393.2</ele>
        <time>2015-06-27T13:16:48Z</time>
      </trkpt>
      <trkpt lat="42.30082" lon="8.881">
        <ele>1392</ele>
        <time>2015-06-27T13:17:19Z</time>
      </trkpt>
      <trkpt lat="42.30086" lon="8.88097">
        <ele>1390.2</ele>
        <time>2015-06-27T13:17:28Z</time>
      </trkpt>
      <trkpt lat="42.3009" lon="8.88091">
        <ele>1389.8</ele>
        <time>2015-06-27T13:17:36Z</time>
      </trkpt>
      <trkpt lat="42.3012" lon="8.88047">
        <ele>1389</ele>
        <time>2015-06-27T13:18:16Z</time>
      </trkpt>
      <trkpt lat="42.30123" lon="8.88024">
        <ele>1390.6</ele>
        <time>2015-06-27T13:18:38Z</time>
      </trkpt>
      <trkpt lat="42.30123" lon="8.88019">
        <ele>1390.6</ele>
        <time>2015-06-27T13:18:41Z</time>
      </trkpt>
      <trkpt lat="42.30126" lon="8.88014">
        <ele>1390.2</ele>
        <time>2015-06-27T13:18:48Z</time>
      </trkpt>
      <trkpt lat="42.3013" lon="8.88004">
        <ele>1389.6</ele>
        <time>2015-06-27T13:18:58Z</time>
      </trkpt>
      <trkpt lat="42.30144" lon="8.87977">
        <ele>1388.6</ele>
        <time>2015-06-27T13:19:22Z</time>
      </trkpt>
      <trkpt lat="42.30149" lon="8.87961">
        <ele>1388.8</ele>
        <time>2015-06-27T13:19:38Z</time>
      </trkpt>
      <trkpt lat="42.30149" lon="8.87957">
        <ele>1388.8</ele>
        <time>2015-06-27T13:19:42Z</time>
      </trkpt>
      <trkpt lat="42.30153" lon="8.87949">
        <ele>1387.8</ele>
        <time>2015-06-27T13:19:50Z</time>
      </trkpt>
      <trkpt lat="42.30152" lon="8.87924">
        <ele>1387</ele>
        <time>2015-06-27T13:20:07Z</time>
      </trkpt>
      <trkpt lat="42.3016" lon="8.87899">
        <ele>1387.8</ele>
        <time>2015-06-27T13:20:36Z</time>
      </trkpt>
      <trkpt lat="42.30163" lon="8.8789">
        <ele>1386.6</ele>
        <time>2015-06-27T13:20:43Z</time>
      </trkpt>
      <trkpt lat="42.30166" lon="8.87886">
        <ele>1386.4</ele>
        <time>2015-06-27T13:20:46Z</time>
      </trkpt>
      <trkpt lat="42.30169" lon="8.87874">
        <ele>1385.6</ele>
        <time>2015-06-27T13:20:59Z</time>
      </trkpt>
      <trkpt lat="42.30171" lon="8.87873">
        <ele>1385.6</ele>
        <time>2015-06-27T13:21:00Z</time>
      </trkpt>
      <trkpt lat="42.30171" lon="8.87869">
        <ele>1385.4</ele>
        <time>2015-06-27T13:21:03Z</time>
      </trkpt>
      <trkpt lat="42.30176" lon="8.87854">
        <ele>1385.6</ele>
        <time>2015-06-27T13:21:15Z</time>
      </trkpt>
      <trkpt lat="42.30179" lon="8.87851">
        <ele>1385.6</ele>
        <time>2015-06-27T13:21:18Z</time>
      </trkpt>
      <trkpt lat="42.30179" lon="8.87848">
        <ele>1385.8</ele>
        <time>2015-06-27T13:21:20Z</time>
      </trkpt>
      <trkpt lat="42.30182" lon="8.87834">
        <ele>1385.8</ele>
        <time>2015-06-27T13:21:30Z</time>
      </trkpt>
      <trkpt lat="42.30212" lon="8.87828">
        <ele>1385.8</ele>
        <time>2015-06-27T13:21:37Z</time>
      </trkpt>
      <trkpt lat="42.30216" lon="8.87817">
        <ele>1385.2</ele>
        <time>2015-06-27T13:21:45Z</time>
      </trkpt>
      <trkpt lat="42.30218" lon="8.87809">
        <ele>1384.2</ele>
        <time>2015-06-27T13:21:53Z</time>
      </trkpt>
      <trkpt lat="42.30219" lon="8.87802">
        <ele>1383.4</ele>
        <time>2015-06-27T13:22:00Z</time>
      </trkpt>
      <trkpt lat="42.30206" lon="8.87781">
        <ele>1382.6</ele>
        <time>2015-06-27T13:22:16Z</time>
      </trkpt>
      <trkpt lat="42.30207" lon="8.8778">
        <ele>1382.6</ele>
        <time>2015-06-27T13:22:18Z</time>
      </trkpt>
      <trkpt lat="42.30207" lon="8.87777">
        <ele>1382.8</ele>
        <time>2015-06-27T13:22:21Z</time>
      </trkpt>
      <trkpt lat="42.30214" lon="8.87773">
        <ele>1383.2</ele>
        <time>2015-06-27T13:22:31Z</time>
      </trkpt>
      <trkpt lat="42.30231" lon="8.87763">
        <ele>1383</ele>
        <time>2015-06-27T13:22:55Z</time>
      </trkpt>
      <trkpt lat="42.30229" lon="8.87763">
        <ele>1382.8</ele>
        <time>2015-06-27T13:22:58Z</time>
      </trkpt>
      <trkpt lat="42.30231" lon="8.87755">
        <ele>1382.4</ele>
        <time>2015-06-27T13:23:18Z</time>
      </trkpt>
      <trkpt lat="42.30236" lon="8.87723">
        <ele>1383.4</ele>
        <time>2015-06-27T13:23:48Z</time>
      </trkpt>
      <trkpt lat="42.30237" lon="8.87714">
        <ele>1383.6</ele>
        <time>2015-06-27T13:24:05Z</time>
      </trkpt>
      <trkpt lat="42.30241" lon="8.87711">
        <ele>1383.6</ele>
        <time>2015-06-27T13:24:09Z</time>
      </trkpt>
      <trkpt lat="42.30245" lon="8.877">
        <ele>1384.6</ele>
        <time>2015-06-27T13:24:34Z</time>
      </trkpt>
      <trkpt lat="42.3025" lon="8.87693">
        <ele>1386.2</ele>
        <time>2015-06-27T13:24:49Z</time>
      </trkpt>
      <trkpt lat="42.3026" lon="8.87686">
        <ele>1386.8</ele>
        <time>2015-06-27T13:25:06Z</time>
      </trkpt>
      <trkpt lat="42.3029" lon="8.87671">
        <ele>1386.8</ele>
        <time>2015-06-27T13:25:27Z</time>
      </trkpt>
      <trkpt lat="42.30291" lon="8.87669">
        <ele>1387.4</ele>
        <time>2015-06-27T13:25:30Z</time>
      </trkpt>
      <trkpt lat="42.30296" lon="8.87668">
        <ele>1387.8</ele>
        <time>2015-06-27T13:25:35Z</time>
      </trkpt>
      <trkpt lat="42.30298" lon="8.87664">
        <ele>1388.6</ele>
        <time>2015-06-27T13:25:42Z</time>
      </trkpt>
      <trkpt lat="42.30312" lon="8.8766">
        <ele>1389.4</ele>
        <time>2015-06-27T13:25:49Z</time>
      </trkpt>
      <trkpt lat="42.30315" lon="8.87659">
        <ele>1389.8</ele>
        <time>2015-06-27T13:25:52Z</time>
      </trkpt>
      <trkpt lat="42.30317" lon="8.87658">
        <ele>1390.2</ele>
        <time>2015-06-27T13:25:54Z</time>
      </trkpt>
      <trkpt lat="42.30314" lon="8.87653">
        <ele>1390.4</ele>
        <time>2015-06-27T13:25:59Z</time>
      </trkpt>
      <trkpt lat="42.30313" lon="8.87654">
        <ele>1390.6</ele>
        <time>2015-06-27T13:26:01Z</time>
      </trkpt>
      <trkpt lat="42.30316" lon="8.87654">
        <ele>1390.2</ele>
        <time>2015-06-27T13:26:10Z</time>
      </trkpt>
      <trkpt lat="42.3032" lon="8.87653">
        <ele>1389.6</ele>
        <time>2015-06-27T13:26:15Z</time>
      </trkpt>
      <trkpt lat="42.30324" lon="8.87651">
        <ele>1388.6</ele>
        <time>2015-06-27T13:26:19Z</time>
      </trkpt>
      <trkpt lat="42.30324" lon="8.87621">
        <ele>1386.2</ele>
        <time>2015-06-27T13:26:47Z</time>
      </trkpt>
      <trkpt lat="42.30319" lon="8.87611">
        <ele>1386.6</ele>
        <time>2015-06-27T13:26:57Z</time>
      </trkpt>
      <trkpt lat="42.30317" lon="8.87607">
        <ele>1387.4</ele>
        <time>2015-06-27T13:27:02Z</time>
      </trkpt>
      <trkpt lat="42.30318" lon="8.87602">
        <ele>1388.2</ele>
        <time>2015-06-27T13:27:08Z</time>
      </trkpt>
      <trkpt lat="42.30316" lon="8.87593">
        <ele>1389.6</ele>
        <time>2015-06-27T13:27:19Z</time>
      </trkpt>
      <trkpt lat="42.3032" lon="8.87587">
        <ele>1390.8</ele>
        <time>2015-06-27T13:27:26Z</time>
      </trkpt>
      <trkpt lat="42.30323" lon="8.87567">
        <ele>1391.6</ele>
        <time>2015-06-27T13:27:51Z</time>
      </trkpt>
      <trkpt lat="42.30323" lon="8.87565">
        <ele>1391.6</ele>
        <time>2015-06-27T13:27:53Z</time>
      </trkpt>
      <trkpt lat="42.30327" lon="8.87563">
        <ele>1391.4</ele>
        <time>2015-06-27T13:28:10Z</time>
      </trkpt>
      <trkpt lat="42.30306" lon="8.87579">
        <ele>1391.6</ele>
        <time>2015-06-27T13:29:53Z</time>
      </trkpt>
      <trkpt lat="42.30303" lon="8.87577">
        <ele>1392.6</ele>
        <time>2015-06-27T13:29:59Z</time>
      </trkpt>
      <trkpt lat="42.30303" lon="8.87575">
        <ele>1393.6</ele>
        <time>2015-06-27T13:30:05Z</time>
      </trkpt>
      <trkpt lat="42.30301" lon="8.8757">
        <ele>1394.8</ele>
        <time>2015-06-27T13:30:12Z</time>
      </trkpt>
      <trkpt lat="42.30301" lon="8.87565">
        <ele>1396</ele>
        <time>2015-06-27T13:30:19Z</time>
      </trkpt>
      <trkpt lat="42.30302" lon="8.87558">
        <ele>1397.6</ele>
        <time>2015-06-27T13:30:28Z</time>
      </trkpt>
      <trkpt lat="42.30298" lon="8.87549">
        <ele>1398.8</ele>
        <time>2015-06-27T13:30:39Z</time>
      </trkpt>
      <trkpt lat="42.303" lon="8.87547">
        <ele>1399</ele>
        <time>2015-06-27T13:30:41Z</time>
      </trkpt>
      <trkpt lat="42.30303" lon="8.87536">
        <ele>1399.8</ele>
        <time>2015-06-27T13:31:04Z</time>
      </trkpt>
      <trkpt lat="42.30307" lon="8.8753">
        <ele>1401.4</ele>
        <time>2015-06-27T13:31:25Z</time>
      </trkpt>
      <trkpt lat="42.30314" lon="8.87524">
        <ele>1402</ele>
        <time>2015-06-27T13:31:41Z</time>
      </trkpt>
      <trkpt lat="42.30319" lon="8.87523">
        <ele>1403.4</ele>
        <time>2015-06-27T13:31:52Z</time>
      </trkpt>
      <trkpt lat="42.30323" lon="8.87519">
        <ele>1404.2</ele>
        <time>2015-06-27T13:32:00Z</time>
      </trkpt>
      <trkpt lat="42.30326" lon="8.87515">
        <ele>1405.2</ele>
        <time>2015-06-27T13:32:07Z</time>
      </trkpt>
      <trkpt lat="42.30336" lon="8.87505">
        <ele>1407</ele>
        <time>2015-06-27T13:32:23Z</time>
      </trkpt>
      <trkpt lat="42.30339" lon="8.87485">
        <ele>1408.6</ele>
        <time>2015-06-27T13:32:49Z</time>
      </trkpt>
      <trkpt lat="42.30351" lon="8.87484">
        <ele>1408.6</ele>
        <time>2015-06-27T13:33:05Z</time>
      </trkpt>
      <trkpt lat="42.30355" lon="8.8749">
        <ele>1408.6</ele>
        <time>2015-06-27T13:33:13Z</time>
      </trkpt>
      <trkpt lat="42.30371" lon="8.87529">
        <ele>1408.8</ele>
        <time>2015-06-27T13:34:25Z</time>
      </trkpt>
      <trkpt lat="42.30379" lon="8.87537">
        <ele>1408</ele>
        <time>2015-06-27T13:34:43Z</time>
      </trkpt>
      <trkpt lat="42.3038" lon="8.87541">
        <ele>1407.8</ele>
        <time>2015-06-27T13:34:48Z</time>
      </trkpt>
      <trkpt lat="42.30385" lon="8.87549">
        <ele>1407</ele>
        <time>2015-06-27T13:34:57Z</time>
      </trkpt>
      <trkpt lat="42.30391" lon="8.87554">
        <ele>1405.8</ele>
        <time>2015-06-27T13:35:06Z</time>
      </trkpt>
      <trkpt lat="42.30397" lon="8.87558">
        <ele>1405</ele>
        <time>2015-06-27T13:35:13Z</time>
      </trkpt>
      <trkpt lat="42.30399" lon="8.87558">
        <ele>1404.8</ele>
        <time>2015-06-27T13:35:15Z</time>
      </trkpt>
      <trkpt lat="42.30402" lon="8.87555">
        <ele>1404</ele>
        <time>2015-06-27T13:35:19Z</time>
      </trkpt>
      <trkpt lat="42.30403" lon="8.87556">
        <ele>1403.8</ele>
        <time>2015-06-27T13:35:20Z</time>
      </trkpt>
      <trkpt lat="42.30405" lon="8.87556">
        <ele>1403.2</ele>
        <time>2015-06-27T13:35:23Z</time>
      </trkpt>
      <trkpt lat="42.30409" lon="8.8755">
        <ele>1402.2</ele>
        <time>2015-06-27T13:35:42Z</time>
      </trkpt>
      <trkpt lat="42.30413" lon="8.87553">
        <ele>1401.8</ele>
        <time>2015-06-27T13:35:51Z</time>
      </trkpt>
      <trkpt lat="42.30415" lon="8.87555">
        <ele>1400.8</ele>
        <time>2015-06-27T13:35:57Z</time>
      </trkpt>
      <trkpt lat="42.30416" lon="8.87557">
        <ele>1399.6</ele>
        <time>2015-06-27T13:36:05Z</time>
      </trkpt>
      <trkpt lat="42.30416" lon="8.87561">
        <ele>1399</ele>
        <time>2015-06-27T13:36:11Z</time>
      </trkpt>
      <trkpt lat="42.30435" lon="8.87563">
        <ele>1397.8</ele>
        <time>2015-06-27T13:36:39Z</time>
      </trkpt>
      <trkpt lat="42.30439" lon="8.87566">
        <ele>1397.8</ele>
        <time>2015-06-27T13:36:43Z</time>
      </trkpt>
      <trkpt lat="42.30441" lon="8.87568">
        <ele>1397.2</ele>
        <time>2015-06-27T13:36:46Z</time>
      </trkpt>
      <trkpt lat="42.30444" lon="8.8757">
        <ele>1396.4</ele>
        <time>2015-06-27T13:36:50Z</time>
      </trkpt>
      <trkpt lat="42.30445" lon="8.87572">
        <ele>1396</ele>
        <time>2015-06-27T13:36:53Z</time>
      </trkpt>
      <trkpt lat="42.3045" lon="8.87581">
        <ele>1395</ele>
        <time>2015-06-27T13:37:03Z</time>
      </trkpt>
      <trkpt lat="42.30459" lon="8.87592">
        <ele>1394.2</ele>
        <time>2015-06-27T13:37:26Z</time>
      </trkpt>
      <trkpt lat="42.30466" lon="8.87602">
        <ele>1394.6</ele>
        <time>2015-06-27T13:37:37Z</time>
      </trkpt>
      <trkpt lat="42.30468" lon="8.87607">
        <ele>1395.4</ele>
        <time>2015-06-27T13:37:43Z</time>
      </trkpt>
      <trkpt lat="42.30472" lon="8.87609">
        <ele>1396</ele>
        <time>2015-06-27T13:37:50Z</time>
      </trkpt>
      <trkpt lat="42.30471" lon="8.87606">
        <ele>1397</ele>
        <time>2015-06-27T13:38:00Z</time>
      </trkpt>
      <trkpt lat="42.30474" lon="8.87612">
        <ele>1398</ele>
        <time>2015-06-27T13:38:10Z</time>
      </trkpt>
      <trkpt lat="42.30477" lon="8.87621">
        <ele>1399.2</ele>
        <time>2015-06-27T13:38:20Z</time>
      </trkpt>
      <trkpt lat="42.30498" lon="8.87639">
        <ele>1400.6</ele>
        <time>2015-06-27T13:38:56Z</time>
      </trkpt>
      <trkpt lat="42.30501" lon="8.87637">
        <ele>1401.4</ele>
        <time>2015-06-27T13:39:05Z</time>
      </trkpt>
      <trkpt lat="42.30506" lon="8.87643">
        <ele>1402</ele>
        <time>2015-06-27T13:39:58Z</time>
      </trkpt>
      <trkpt lat="42.30526" lon="8.87666">
        <ele>1402.4</ele>
        <time>2015-06-27T13:40:29Z</time>
      </trkpt>
      <trkpt lat="42.30534" lon="8.87673">
        <ele>1403.8</ele>
        <time>2015-06-27T13:40:38Z</time>
      </trkpt>
      <trkpt lat="42.30539" lon="8.87674">
        <ele>1404.2</ele>
        <time>2015-06-27T13:40:43Z</time>
      </trkpt>
      <trkpt lat="42.30541" lon="8.87677">
        <ele>1404.6</ele>
        <time>2015-06-27T13:40:46Z</time>
      </trkpt>
      <trkpt lat="42.30543" lon="8.87677">
        <ele>1404.8</ele>
        <time>2015-06-27T13:40:48Z</time>
      </trkpt>
      <trkpt lat="42.30546" lon="8.87679">
        <ele>1405.8</ele>
        <time>2015-06-27T13:40:54Z</time>
      </trkpt>
      <trkpt lat="42.3055" lon="8.87686">
        <ele>1407</ele>
        <time>2015-06-27T13:41:04Z</time>
      </trkpt>
      <trkpt lat="42.30553" lon="8.8769">
        <ele>1407.6</ele>
        <time>2015-06-27T13:41:10Z</time>
      </trkpt>
      <trkpt lat="42.30559" lon="8.87691">
        <ele>1409.4</ele>
        <time>2015-06-27T13:41:20Z</time>
      </trkpt>
      <trkpt lat="42.30579" lon="8.87699">
        <ele>1410.8</ele>
        <time>2015-06-27T13:41:52Z</time>
      </trkpt>
      <trkpt lat="42.30598" lon="8.87703">
        <ele>1410.8</ele>
        <time>2015-06-27T13:42:20Z</time>
      </trkpt>
      <trkpt lat="42.30601" lon="8.87705">
        <ele>1410.6</ele>
        <time>2015-06-27T13:42:24Z</time>
      </trkpt>
      <trkpt lat="42.30602" lon="8.87705">
        <ele>1410.6</ele>
        <time>2015-06-27T13:42:26Z</time>
      </trkpt>
      <trkpt lat="42.30604" lon="8.87707">
        <ele>1410.2</ele>
        <time>2015-06-27T13:42:29Z</time>
      </trkpt>
      <trkpt lat="42.30613" lon="8.87711">
        <ele>1409.6</ele>
        <time>2015-06-27T13:42:37Z</time>
      </trkpt>
      <trkpt lat="42.30625" lon="8.87715">
        <ele>1410</ele>
        <time>2015-06-27T13:42:53Z</time>
      </trkpt>
      <trkpt lat="42.30629" lon="8.87717">
        <ele>1410.4</ele>
        <time>2015-06-27T13:42:58Z</time>
      </trkpt>
      <trkpt lat="42.3063" lon="8.87718">
        <ele>1410.4</ele>
        <time>2015-06-27T13:42:59Z</time>
      </trkpt>
      <trkpt lat="42.30644" lon="8.87743">
        <ele>1412.4</ele>
        <time>2015-06-27T13:43:28Z</time>
      </trkpt>
      <trkpt lat="42.30654" lon="8.87757">
        <ele>1413.6</ele>
        <time>2015-06-27T13:43:56Z</time>
      </trkpt>
      <trkpt lat="42.30654" lon="8.87757">
        <ele>1414.2</ele>
        <time>2015-06-27T13:44:04Z</time>
      </trkpt>
      <trkpt lat="42.30656" lon="8.87755">
        <ele>1415.2</ele>
        <time>2015-06-27T13:44:20Z</time>
      </trkpt>
      <trkpt lat="42.30656" lon="8.87759">
        <ele>1416.2</ele>
        <time>2015-06-27T13:44:26Z</time>
      </trkpt>
      <trkpt lat="42.30658" lon="8.87762">
        <ele>1417.6</ele>
        <time>2015-06-27T13:44:34Z</time>
      </trkpt>
      <trkpt lat="42.30658" lon="8.87762">
        <ele>1418.6</ele>
        <time>2015-06-27T13:44:41Z</time>
      </trkpt>
      <trkpt lat="42.30662" lon="8.87762">
        <ele>1420</ele>
        <time>2015-06-27T13:44:54Z</time>
      </trkpt>
      <trkpt lat="42.30669" lon="8.87756">
        <ele>1421</ele>
        <time>2015-06-27T13:45:03Z</time>
      </trkpt>
      <trkpt lat="42.30674" lon="8.8775">
        <ele>1422</ele>
        <time>2015-06-27T13:45:11Z</time>
      </trkpt>
      <trkpt lat="42.30679" lon="8.87749">
        <ele>1422.6</ele>
        <time>2015-06-27T13:45:19Z</time>
      </trkpt>
      <trkpt lat="42.30669" lon="8.87756">
        <ele>1423.8</ele>
        <time>2015-06-27T13:45:34Z</time>
      </trkpt>
      <trkpt lat="42.30674" lon="8.87761">
        <ele>1424</ele>
        <time>2015-06-27T13:45:42Z</time>
      </trkpt>
      <trkpt lat="42.30675" lon="8.87759">
        <ele>1424</ele>
        <time>2015-06-27T13:45:43Z</time>
      </trkpt>
      <trkpt lat="42.30677" lon="8.87758">
        <ele>1424</ele>
        <time>2015-06-27T13:45:46Z</time>
      </trkpt>
      <trkpt lat="42.3068" lon="8.87757">
        <ele>1424.2</ele>
        <time>2015-06-27T13:45:48Z</time>
      </trkpt>
      <trkpt lat="42.30683" lon="8.87757">
        <ele>1424.6</ele>
        <time>2015-06-27T13:45:50Z</time>
      </trkpt>
      <trkpt lat="42.30685" lon="8.87757">
        <ele>1424.8</ele>
        <time>2015-06-27T13:45:52Z</time>
      </trkpt>
      <trkpt lat="42.30689" lon="8.87756">
        <ele>1425.2</ele>
        <time>2015-06-27T13:45:57Z</time>
      </trkpt>
      <trkpt lat="42.3069" lon="8.87756">
        <ele>1425.8</ele>
        <time>2015-06-27T13:46:02Z</time>
      </trkpt>
      <trkpt lat="42.30695" lon="8.87756">
        <ele>1426.8</ele>
        <time>2015-06-27T13:46:09Z</time>
      </trkpt>
      <trkpt lat="42.30699" lon="8.87759">
        <ele>1428</ele>
        <time>2015-06-27T13:46:17Z</time>
      </trkpt>
      <trkpt lat="42.30702" lon="8.87761">
        <ele>1428.6</ele>
        <time>2015-06-27T13:46:22Z</time>
      </trkpt>
      <trkpt lat="42.30705" lon="8.87757">
        <ele>1430.2</ele>
        <time>2015-06-27T13:46:31Z</time>
      </trkpt>
      <trkpt lat="42.30708" lon="8.87755">
        <ele>1431</ele>
        <time>2015-06-27T13:46:37Z</time>
      </trkpt>
      <trkpt lat="42.30716" lon="8.87745">
        <ele>1432.4</ele>
        <time>2015-06-27T13:46:46Z</time>
      </trkpt>
      <trkpt lat="42.30723" lon="8.87726">
        <ele>1433.4</ele>
        <time>2015-06-27T13:47:02Z</time>
      </trkpt>
      <trkpt lat="42.30723" lon="8.87705">
        <ele>1434</ele>
        <time>2015-06-27T13:47:10Z</time>
      </trkpt>
      <trkpt lat="42.30723" lon="8.87694">
        <ele>1434</ele>
        <time>2015-06-27T13:47:13Z</time>
      </trkpt>
      <trkpt lat="42.30744" lon="8.87695">
        <ele>1435</ele>
        <time>2015-06-27T13:47:26Z</time>
      </trkpt>
      <trkpt lat="42.30751" lon="8.87696">
        <ele>1435.4</ele>
        <time>2015-06-27T13:47:31Z</time>
      </trkpt>
      <trkpt lat="42.30766" lon="8.87704">
        <ele>1436.8</ele>
        <time>2015-06-27T13:47:43Z</time>
      </trkpt>
      <trkpt lat="42.30767" lon="8.8771">
        <ele>1437.2</ele>
        <time>2015-06-27T13:47:49Z</time>
      </trkpt>
      <trkpt lat="42.3077" lon="8.87714">
        <ele>1438.2</ele>
        <time>2015-06-27T13:47:54Z</time>
      </trkpt>
      <trkpt lat="42.30774" lon="8.87714">
        <ele>1439.2</ele>
        <time>2015-06-27T13:48:02Z</time>
      </trkpt>
      <trkpt lat="42.30775" lon="8.87715">
        <ele>1440.2</ele>
        <time>2015-06-27T13:48:08Z</time>
      </trkpt>
      <trkpt lat="42.30774" lon="8.87713">
        <ele>1441.2</ele>
        <time>2015-06-27T13:48:15Z</time>
      </trkpt>
      <trkpt lat="42.3078" lon="8.87713">
        <ele>1442.2</ele>
        <time>2015-06-27T13:48:23Z</time>
      </trkpt>
      <trkpt lat="42.30783" lon="8.87713">
        <ele>1442.2</ele>
        <time>2015-06-27T13:48:25Z</time>
      </trkpt>
      <trkpt lat="42.30789" lon="8.8771">
        <ele>1443</ele>
        <time>2015-06-27T13:48:34Z</time>
      </trkpt>
      <trkpt lat="42.30791" lon="8.87708">
        <ele>1443.8</ele>
        <time>2015-06-27T13:48:40Z</time>
      </trkpt>
      <trkpt lat="42.30797" lon="8.87705">
        <ele>1445</ele>
        <time>2015-06-27T13:48:50Z</time>
      </trkpt>
      <trkpt lat="42.30801" lon="8.87704">
        <ele>1445.8</ele>
        <time>2015-06-27T13:49:01Z</time>
      </trkpt>
      <trkpt lat="42.308" lon="8.87714">
        <ele>1446.8</ele>
        <time>2015-06-27T13:49:17Z</time>
      </trkpt>
      <trkpt lat="42.308" lon="8.87723">
        <ele>1447.4</ele>
        <time>2015-06-27T13:49:25Z</time>
      </trkpt>
      <trkpt lat="42.30804" lon="8.87726">
        <ele>1448.4</ele>
        <time>2015-06-27T13:49:33Z</time>
      </trkpt>
      <trkpt lat="42.30807" lon="8.8772">
        <ele>1449.4</ele>
        <time>2015-06-27T13:49:42Z</time>
      </trkpt>
      <trkpt lat="42.30812" lon="8.87708">
        <ele>1450.6</ele>
        <time>2015-06-27T13:49:55Z</time>
      </trkpt>
      <trkpt lat="42.30815" lon="8.87695">
        <ele>1451.4</ele>
        <time>2015-06-27T13:50:05Z</time>
      </trkpt>
      <trkpt lat="42.30819" lon="8.87681">
        <ele>1452</ele>
        <time>2015-06-27T13:50:18Z</time>
      </trkpt>
      <trkpt lat="42.30822" lon="8.87677">
        <ele>1453</ele>
        <time>2015-06-27T13:50:27Z</time>
      </trkpt>
      <trkpt lat="42.30826" lon="8.87685">
        <ele>1453.2</ele>
        <time>2015-06-27T13:50:28Z</time>
      </trkpt>
      <trkpt lat="42.3083" lon="8.87691">
        <ele>1453.6</ele>
        <time>2015-06-27T13:50:35Z</time>
      </trkpt>
      <trkpt lat="42.30828" lon="8.87698">
        <ele>1454.8</ele>
        <time>2015-06-27T13:50:43Z</time>
      </trkpt>
      <trkpt lat="42.30831" lon="8.87701">
        <ele>1455.4</ele>
        <time>2015-06-27T13:50:50Z</time>
      </trkpt>
      <trkpt lat="42.30833" lon="8.87698">
        <ele>1456</ele>
        <time>2015-06-27T13:50:54Z</time>
      </trkpt>
      <trkpt lat="42.30833" lon="8.87694">
        <ele>1456.8</ele>
        <time>2015-06-27T13:50:59Z</time>
      </trkpt>
      <trkpt lat="42.30836" lon="8.87691">
        <ele>1457.8</ele>
        <time>2015-06-27T13:51:07Z</time>
      </trkpt>
      <trkpt lat="42.30837" lon="8.87687">
        <ele>1458.4</ele>
        <time>2015-06-27T13:51:12Z</time>
      </trkpt>
      <trkpt lat="42.30838" lon="8.87682">
        <ele>1459.6</ele>
        <time>2015-06-27T13:51:18Z</time>
      </trkpt>
      <trkpt lat="42.30838" lon="8.8768">
        <ele>1459.8</ele>
        <time>2015-06-27T13:51:20Z</time>
      </trkpt>
      <trkpt lat="42.30841" lon="8.87677">
        <ele>1460.8</ele>
        <time>2015-06-27T13:51:28Z</time>
      </trkpt>
      <trkpt lat="42.30844" lon="8.87676">
        <ele>1461.6</ele>
        <time>2015-06-27T13:51:34Z</time>
      </trkpt>
      <trkpt lat="42.30848" lon="8.87675">
        <ele>1462.6</ele>
        <time>2015-06-27T13:51:41Z</time>
      </trkpt>
      <trkpt lat="42.30852" lon="8.87672">
        <ele>1463.4</ele>
        <time>2015-06-27T13:51:47Z</time>
      </trkpt>
      <trkpt lat="42.30856" lon="8.87667">
        <ele>1464.6</ele>
        <time>2015-06-27T13:51:56Z</time>
      </trkpt>
      <trkpt lat="42.30862" lon="8.87666">
        <ele>1466</ele>
        <time>2015-06-27T13:52:10Z</time>
      </trkpt>
      <trkpt lat="42.3087" lon="8.87665">
        <ele>1466.6</ele>
        <time>2015-06-27T13:52:21Z</time>
      </trkpt>
      <trkpt lat="42.30873" lon="8.87663">
        <ele>1467.2</ele>
        <time>2015-06-27T13:52:27Z</time>
      </trkpt>
      <trkpt lat="42.30874" lon="8.87657">
        <ele>1468.4</ele>
        <time>2015-06-27T13:52:33Z</time>
      </trkpt>
      <trkpt lat="42.30874" lon="8.87654">
        <ele>1468.8</ele>
        <time>2015-06-27T13:52:35Z</time>
      </trkpt>
      <trkpt lat="42.30874" lon="8.87647">
        <ele>1469.8</ele>
        <time>2015-06-27T13:52:41Z</time>
      </trkpt>
      <trkpt lat="42.30879" lon="8.87632">
        <ele>1471.2</ele>
        <time>2015-06-27T13:52:56Z</time>
      </trkpt>
      <trkpt lat="42.30882" lon="8.87624">
        <ele>1471.4</ele>
        <time>2015-06-27T13:53:02Z</time>
      </trkpt>
      <trkpt lat="42.30885" lon="8.87622">
        <ele>1471.6</ele>
        <time>2015-06-27T13:53:05Z</time>
      </trkpt>
      <trkpt lat="42.30887" lon="8.87625">
        <ele>1472.2</ele>
        <time>2015-06-27T13:53:07Z</time>
      </trkpt>
      <trkpt lat="42.3089" lon="8.87629">
        <ele>1472.6</ele>
        <time>2015-06-27T13:53:10Z</time>
      </trkpt>
      <trkpt lat="42.3089" lon="8.87626">
        <ele>1473.4</ele>
        <time>2015-06-27T13:53:18Z</time>
      </trkpt>
      <trkpt lat="42.30891" lon="8.87623">
        <ele>1474.4</ele>
        <time>2015-06-27T13:53:24Z</time>
      </trkpt>
      <trkpt lat="42.30893" lon="8.87626">
        <ele>1475</ele>
        <time>2015-06-27T13:53:28Z</time>
      </trkpt>
      <trkpt lat="42.30894" lon="8.87626">
        <ele>1475.2</ele>
        <time>2015-06-27T13:53:30Z</time>
      </trkpt>
      <trkpt lat="42.30896" lon="8.87625">
        <ele>1476.4</ele>
        <time>2015-06-27T13:53:36Z</time>
      </trkpt>
      <trkpt lat="42.30898" lon="8.87621">
        <ele>1477.6</ele>
        <time>2015-06-27T13:53:44Z</time>
      </trkpt>
      <trkpt lat="42.309" lon="8.87617">
        <ele>1478.2</ele>
        <time>2015-06-27T13:53:49Z</time>
      </trkpt>
      <trkpt lat="42.30917" lon="8.87562">
        <ele>1479</ele>
        <time>2015-06-27T13:54:31Z</time>
      </trkpt>
      <trkpt lat="42.30922" lon="8.87556">
        <ele>1478.6</ele>
        <time>2015-06-27T13:54:41Z</time>
      </trkpt>
      <trkpt lat="42.3093" lon="8.87558">
        <ele>1480.2</ele>
        <time>2015-06-27T13:54:52Z</time>
      </trkpt>
      <trkpt lat="42.30932" lon="8.87561">
        <ele>1480.6</ele>
        <time>2015-06-27T13:54:54Z</time>
      </trkpt>
      <trkpt lat="42.30935" lon="8.87561">
        <ele>1481</ele>
        <time>2015-06-27T13:55:00Z</time>
      </trkpt>
      <trkpt lat="42.30941" lon="8.87558">
        <ele>1482.2</ele>
        <time>2015-06-27T13:55:08Z</time>
      </trkpt>
      <trkpt lat="42.30944" lon="8.87555">
        <ele>1482.6</ele>
        <time>2015-06-27T13:55:13Z</time>
      </trkpt>
      <trkpt lat="42.30948" lon="8.87548">
        <ele>1484</ele>
        <time>2015-06-27T13:55:20Z</time>
      </trkpt>
      <trkpt lat="42.30952" lon="8.87521">
        <ele>1485.2</ele>
        <time>2015-06-27T13:55:44Z</time>
      </trkpt>
      <trkpt lat="42.30955" lon="8.8752">
        <ele>1485.6</ele>
        <time>2015-06-27T13:55:51Z</time>
      </trkpt>
      <trkpt lat="42.30958" lon="8.87518">
        <ele>1486.6</ele>
        <time>2015-06-27T13:55:58Z</time>
      </trkpt>
      <trkpt lat="42.30962" lon="8.8752">
        <ele>1487.4</ele>
        <time>2015-06-27T13:56:06Z</time>
      </trkpt>
      <trkpt lat="42.30964" lon="8.87518">
        <ele>1488.2</ele>
        <time>2015-06-27T13:56:12Z</time>
      </trkpt>
      <trkpt lat="42.30966" lon="8.87516">
        <ele>1489.2</ele>
        <time>2015-06-27T13:56:19Z</time>
      </trkpt>
      <trkpt lat="42.30967" lon="8.87519">
        <ele>1490.2</ele>
        <time>2015-06-27T13:56:25Z</time>
      </trkpt>
      <trkpt lat="42.3097" lon="8.87517">
        <ele>1491</ele>
        <time>2015-06-27T13:56:32Z</time>
      </trkpt>
      <trkpt lat="42.30973" lon="8.87522">
        <ele>1492.2</ele>
        <time>2015-06-27T13:56:40Z</time>
      </trkpt>
      <trkpt lat="42.30977" lon="8.87523">
        <ele>1493.2</ele>
        <time>2015-06-27T13:56:46Z</time>
      </trkpt>
      <trkpt lat="42.30979" lon="8.87519">
        <ele>1494.2</ele>
        <time>2015-06-27T13:56:53Z</time>
      </trkpt>
      <trkpt lat="42.30981" lon="8.87514">
        <ele>1495.2</ele>
        <time>2015-06-27T13:57:02Z</time>
      </trkpt>
      <trkpt lat="42.30983" lon="8.87511">
        <ele>1496.4</ele>
        <time>2015-06-27T13:57:09Z</time>
      </trkpt>
      <trkpt lat="42.30986" lon="8.87519">
        <ele>1497.4</ele>
        <time>2015-06-27T13:57:19Z</time>
      </trkpt>
      <trkpt lat="42.30987" lon="8.87523">
        <ele>1498.6</ele>
        <time>2015-06-27T13:57:26Z</time>
      </trkpt>
      <trkpt lat="42.3099" lon="8.87527">
        <ele>1499.4</ele>
        <time>2015-06-27T13:57:43Z</time>
      </trkpt>
      <trkpt lat="42.30993" lon="8.87515">
        <ele>1500.6</ele>
        <time>2015-06-27T13:57:56Z</time>
      </trkpt>
      <trkpt lat="42.30992" lon="8.87503">
        <ele>1501.6</ele>
        <time>2015-06-27T13:58:06Z</time>
      </trkpt>
      <trkpt lat="42.30996" lon="8.87492">
        <ele>1502.6</ele>
        <time>2015-06-27T13:58:22Z</time>
      </trkpt>
      <trkpt lat="42.30994" lon="8.8748">
        <ele>1503.6</ele>
        <time>2015-06-27T13:58:37Z</time>
      </trkpt>
      <trkpt lat="42.3099" lon="8.87479">
        <ele>1504.4</ele>
        <time>2015-06-27T13:58:45Z</time>
      </trkpt>
      <trkpt lat="42.30989" lon="8.87479">
        <ele>1504.4</ele>
        <time>2015-06-27T13:58:46Z</time>
      </trkpt>
      <trkpt lat="42.30991" lon="8.87474">
        <ele>1505.2</ele>
        <time>2015-06-27T13:58:52Z</time>
      </trkpt>
      <trkpt lat="42.30993" lon="8.87456">
        <ele>1506.6</ele>
        <time>2015-06-27T13:59:07Z</time>
      </trkpt>
      <trkpt lat="42.30996" lon="8.87446">
        <ele>1507.2</ele>
        <time>2015-06-27T13:59:16Z</time>
      </trkpt>
      <trkpt lat="42.30997" lon="8.87446">
        <ele>1507.6</ele>
        <time>2015-06-27T13:59:17Z</time>
      </trkpt>
      <trkpt lat="42.31" lon="8.87441">
        <ele>1508.2</ele>
        <time>2015-06-27T13:59:23Z</time>
      </trkpt>
      <trkpt lat="42.31" lon="8.87433">
        <ele>1509.6</ele>
        <time>2015-06-27T13:59:34Z</time>
      </trkpt>
      <trkpt lat="42.30998" lon="8.87411">
        <ele>1510.2</ele>
        <time>2015-06-27T13:59:57Z</time>
      </trkpt>
      <trkpt lat="42.30997" lon="8.87404">
        <ele>1511.2</ele>
        <time>2015-06-27T14:00:07Z</time>
      </trkpt>
      <trkpt lat="42.30995" lon="8.8739">
        <ele>1512.4</ele>
        <time>2015-06-27T14:00:24Z</time>
      </trkpt>
      <trkpt lat="42.30998" lon="8.87383">
        <ele>1513</ele>
        <time>2015-06-27T14:00:34Z</time>
      </trkpt>
      <trkpt lat="42.30997" lon="8.87374">
        <ele>1514.4</ele>
        <time>2015-06-27T14:00:46Z</time>
      </trkpt>
      <trkpt lat="42.30993" lon="8.87367">
        <ele>1515</ele>
        <time>2015-06-27T14:00:54Z</time>
      </trkpt>
      <trkpt lat="42.30986" lon="8.87356">
        <ele>1516.4</ele>
        <time>2015-06-27T14:01:07Z</time>
      </trkpt>
      <trkpt lat="42.30984" lon="8.87344">
        <ele>1517.6</ele>
        <time>2015-06-27T14:01:19Z</time>
      </trkpt>
      <trkpt lat="42.30981" lon="8.87337">
        <ele>1518.6</ele>
        <time>2015-06-27T14:01:28Z</time>
      </trkpt>
      <trkpt lat="42.30981" lon="8.87328">
        <ele>1519.4</ele>
        <time>2015-06-27T14:01:37Z</time>
      </trkpt>
      <trkpt lat="42.30983" lon="8.87321">
        <ele>1520.4</ele>
        <time>2015-06-27T14:01:46Z</time>
      </trkpt>
      <trkpt lat="42.30982" lon="8.87315">
        <ele>1521.2</ele>
        <time>2015-06-27T14:01:53Z</time>
      </trkpt>
      <trkpt lat="42.30979" lon="8.87309">
        <ele>1522.4</ele>
        <time>2015-06-27T14:02:00Z</time>
      </trkpt>
      <trkpt lat="42.3098" lon="8.87299">
        <ele>1523.6</ele>
        <time>2015-06-27T14:02:12Z</time>
      </trkpt>
      <trkpt lat="42.30982" lon="8.8729">
        <ele>1524.8</ele>
        <time>2015-06-27T14:02:26Z</time>
      </trkpt>
      <trkpt lat="42.30983" lon="8.87288">
        <ele>1525.4</ele>
        <time>2015-06-27T14:02:33Z</time>
      </trkpt>
      <trkpt lat="42.30986" lon="8.87286">
        <ele>1526.8</ele>
        <time>2015-06-27T14:02:40Z</time>
      </trkpt>
      <trkpt lat="42.30993" lon="8.87293">
        <ele>1527.8</ele>
        <time>2015-06-27T14:02:51Z</time>
      </trkpt>
      <trkpt lat="42.30997" lon="8.87285">
        <ele>1529.2</ele>
        <time>2015-06-27T14:03:05Z</time>
      </trkpt>
      <trkpt lat="42.30997" lon="8.87273">
        <ele>1530</ele>
        <time>2015-06-27T14:03:19Z</time>
      </trkpt>
      <trkpt lat="42.30988" lon="8.87252">
        <ele>1531.4</ele>
        <time>2015-06-27T14:03:39Z</time>
      </trkpt>
      <trkpt lat="42.30989" lon="8.87244">
        <ele>1532</ele>
        <time>2015-06-27T14:03:53Z</time>
      </trkpt>
      <trkpt lat="42.30996" lon="8.87241">
        <ele>1532.8</ele>
        <time>2015-06-27T14:04:13Z</time>
      </trkpt>
      <trkpt lat="42.30999" lon="8.87236">
        <ele>1534.4</ele>
        <time>2015-06-27T14:04:28Z</time>
      </trkpt>
      <trkpt lat="42.30997" lon="8.87218">
        <ele>1535.6</ele>
        <time>2015-06-27T14:04:50Z</time>
      </trkpt>
      <trkpt lat="42.30994" lon="8.87208">
        <ele>1536.6</ele>
        <time>2015-06-27T14:05:04Z</time>
      </trkpt>
      <trkpt lat="42.30997" lon="8.87212">
        <ele>1537.8</ele>
        <time>2015-06-27T14:05:14Z</time>
      </trkpt>
      <trkpt lat="42.31004" lon="8.87218">
        <ele>1538.8</ele>
        <time>2015-06-27T14:05:28Z</time>
      </trkpt>
      <trkpt lat="42.31005" lon="8.87212">
        <ele>1539.4</ele>
        <time>2015-06-27T14:05:34Z</time>
      </trkpt>
      <trkpt lat="42.31005" lon="8.87201">
        <ele>1541</ele>
        <time>2015-06-27T14:05:45Z</time>
      </trkpt>
      <trkpt lat="42.31005" lon="8.87191">
        <ele>1542.2</ele>
        <time>2015-06-27T14:05:57Z</time>
      </trkpt>
      <trkpt lat="42.31004" lon="8.87181">
        <ele>1543</ele>
        <time>2015-06-27T14:06:09Z</time>
      </trkpt>
      <trkpt lat="42.31006" lon="8.87175">
        <ele>1544.2</ele>
        <time>2015-06-27T14:06:23Z</time>
      </trkpt>
      <trkpt lat="42.31007" lon="8.8717">
        <ele>1545.2</ele>
        <time>2015-06-27T14:06:32Z</time>
      </trkpt>
      <trkpt lat="42.3101" lon="8.87164">
        <ele>1546.4</ele>
        <time>2015-06-27T14:06:44Z</time>
      </trkpt>
      <trkpt lat="42.31013" lon="8.87159">
        <ele>1547.8</ele>
        <time>2015-06-27T14:06:57Z</time>
      </trkpt>
      <trkpt lat="42.31015" lon="8.87156">
        <ele>1548</ele>
        <time>2015-06-27T14:07:03Z</time>
      </trkpt>
      <trkpt lat="42.31015" lon="8.87153">
        <ele>1548.6</ele>
        <time>2015-06-27T14:07:06Z</time>
      </trkpt>
      <trkpt lat="42.31016" lon="8.87148">
        <ele>1549.2</ele>
        <time>2015-06-27T14:07:12Z</time>
      </trkpt>
      <trkpt lat="42.31014" lon="8.8714">
        <ele>1550.8</ele>
        <time>2015-06-27T14:07:25Z</time>
      </trkpt>
      <trkpt lat="42.31012" lon="8.87127">
        <ele>1552.2</ele>
        <time>2015-06-27T14:07:41Z</time>
      </trkpt>
      <trkpt lat="42.3101" lon="8.87118">
        <ele>1553</ele>
        <time>2015-06-27T14:07:54Z</time>
      </trkpt>
      <trkpt lat="42.31011" lon="8.87115">
        <ele>1553.8</ele>
        <time>2015-06-27T14:08:01Z</time>
      </trkpt>
      <trkpt lat="42.31015" lon="8.87109">
        <ele>1555.2</ele>
        <time>2015-06-27T14:08:10Z</time>
      </trkpt>
      <trkpt lat="42.31015" lon="8.87097">
        <ele>1556.4</ele>
        <time>2015-06-27T14:08:25Z</time>
      </trkpt>
      <trkpt lat="42.31016" lon="8.87092">
        <ele>1557</ele>
        <time>2015-06-27T14:08:31Z</time>
      </trkpt>
      <trkpt lat="42.31017" lon="8.87088">
        <ele>1557.8</ele>
        <time>2015-06-27T14:08:37Z</time>
      </trkpt>
      <trkpt lat="42.31018" lon="8.87078">
        <ele>1558.6</ele>
        <time>2015-06-27T14:08:46Z</time>
      </trkpt>
      <trkpt lat="42.31009" lon="8.87065">
        <ele>1559.8</ele>
        <time>2015-06-27T14:09:09Z</time>
      </trkpt>
      <trkpt lat="42.31007" lon="8.87053">
        <ele>1560</ele>
        <time>2015-06-27T14:09:37Z</time>
      </trkpt>
      <trkpt lat="42.31008" lon="8.8705">
        <ele>1561.2</ele>
        <time>2015-06-27T14:09:53Z</time>
      </trkpt>
      <trkpt lat="42.31009" lon="8.8705">
        <ele>1562.2</ele>
        <time>2015-06-27T14:10:01Z</time>
      </trkpt>
      <trkpt lat="42.31022" lon="8.87047">
        <ele>1562.8</ele>
        <time>2015-06-27T14:10:19Z</time>
      </trkpt>
      <trkpt lat="42.31037" lon="8.87043">
        <ele>1563.4</ele>
        <time>2015-06-27T14:10:46Z</time>
      </trkpt>
      <trkpt lat="42.31046" lon="8.87038">
        <ele>1564.6</ele>
        <time>2015-06-27T14:10:58Z</time>
      </trkpt>
      <trkpt lat="42.31049" lon="8.87034">
        <ele>1565.2</ele>
        <time>2015-06-27T14:11:04Z</time>
      </trkpt>
      <trkpt lat="42.31051" lon="8.87031">
        <ele>1565.6</ele>
        <time>2015-06-27T14:11:09Z</time>
      </trkpt>
      <trkpt lat="42.31052" lon="8.87025">
        <ele>1566.4</ele>
        <time>2015-06-27T14:11:16Z</time>
      </trkpt>
      <trkpt lat="42.31054" lon="8.87018">
        <ele>1567.8</ele>
        <time>2015-06-27T14:11:25Z</time>
      </trkpt>
      <trkpt lat="42.31056" lon="8.87013">
        <ele>1568.4</ele>
        <time>2015-06-27T14:11:31Z</time>
      </trkpt>
      <trkpt lat="42.3106" lon="8.87012">
        <ele>1569.8</ele>
        <time>2015-06-27T14:11:39Z</time>
      </trkpt>
      <trkpt lat="42.31065" lon="8.8701">
        <ele>1570.8</ele>
        <time>2015-06-27T14:11:45Z</time>
      </trkpt>
      <trkpt lat="42.31074" lon="8.87007">
        <ele>1572.2</ele>
        <time>2015-06-27T14:11:59Z</time>
      </trkpt>
      <trkpt lat="42.3108" lon="8.87004">
        <ele>1573.2</ele>
        <time>2015-06-27T14:12:07Z</time>
      </trkpt>
      <trkpt lat="42.31083" lon="8.87002">
        <ele>1574</ele>
        <time>2015-06-27T14:12:13Z</time>
      </trkpt>
      <trkpt lat="42.3109" lon="8.86996">
        <ele>1575.8</ele>
        <time>2015-06-27T14:12:27Z</time>
      </trkpt>
      <trkpt lat="42.31098" lon="8.86993">
        <ele>1577</ele>
        <time>2015-06-27T14:12:38Z</time>
      </trkpt>
      <trkpt lat="42.31102" lon="8.8699">
        <ele>1577.8</ele>
        <time>2015-06-27T14:12:45Z</time>
      </trkpt>
      <trkpt lat="42.31108" lon="8.86982">
        <ele>1578.8</ele>
        <time>2015-06-27T14:12:58Z</time>
      </trkpt>
      <trkpt lat="42.31117" lon="8.86973">
        <ele>1579.8</ele>
        <time>2015-06-27T14:13:13Z</time>
      </trkpt>
      <trkpt lat="42.31117" lon="8.86973">
        <ele>1580</ele>
        <time>2015-06-27T14:13:14Z</time>
      </trkpt>
      <trkpt lat="42.31127" lon="8.86963">
        <ele>1581.4</ele>
        <time>2015-06-27T14:13:34Z</time>
      </trkpt>
      <trkpt lat="42.31136" lon="8.86952">
        <ele>1582.6</ele>
        <time>2015-06-27T14:13:51Z</time>
      </trkpt>
      <trkpt lat="42.31145" lon="8.86936">
        <ele>1583.6</ele>
        <time>2015-06-27T14:14:12Z</time>
      </trkpt>
      <trkpt lat="42.31156" lon="8.86926">
        <ele>1584.6</ele>
        <time>2015-06-27T14:14:29Z</time>
      </trkpt>
      <trkpt lat="42.31165" lon="8.86922">
        <ele>1586</ele>
        <time>2015-06-27T14:14:44Z</time>
      </trkpt>
      <trkpt lat="42.3119" lon="8.8692">
        <ele>1587</ele>
        <time>2015-06-27T14:15:09Z</time>
      </trkpt>
      <trkpt lat="42.31199" lon="8.86913">
        <ele>1587.8</ele>
        <time>2015-06-27T14:15:20Z</time>
      </trkpt>
      <trkpt lat="42.31203" lon="8.8691">
        <ele>1588.4</ele>
        <time>2015-06-27T14:15:26Z</time>
      </trkpt>
      <trkpt lat="42.31209" lon="8.86905">
        <ele>1589</ele>
        <time>2015-06-27T14:15:35Z</time>
      </trkpt>
      <trkpt lat="42.31215" lon="8.86903">
        <ele>1589.6</ele>
        <time>2015-06-27T14:15:43Z</time>
      </trkpt>
      <trkpt lat="42.31225" lon="8.86898">
        <ele>1591.2</ele>
        <time>2015-06-27T14:15:58Z</time>
      </trkpt>
      <trkpt lat="42.31228" lon="8.86894">
        <ele>1591.4</ele>
        <time>2015-06-27T14:16:02Z</time>
      </trkpt>
      <trkpt lat="42.31229" lon="8.86893">
        <ele>1591.6</ele>
        <time>2015-06-27T14:16:04Z</time>
      </trkpt>
      <trkpt lat="42.31236" lon="8.86887">
        <ele>1592.8</ele>
        <time>2015-06-27T14:16:16Z</time>
      </trkpt>
      <trkpt lat="42.31237" lon="8.8688">
        <ele>1593.4</ele>
        <time>2015-06-27T14:16:23Z</time>
      </trkpt>
      <trkpt lat="42.31238" lon="8.86877">
        <ele>1593.6</ele>
        <time>2015-06-27T14:16:27Z</time>
      </trkpt>
      <trkpt lat="42.31265" lon="8.86869">
        <ele>1594.4</ele>
        <time>2015-06-27T14:16:58Z</time>
      </trkpt>
      <trkpt lat="42.31295" lon="8.86851">
        <ele>1595.2</ele>
        <time>2015-06-27T14:17:31Z</time>
      </trkpt>
      <trkpt lat="42.31328" lon="8.86825">
        <ele>1596.2</ele>
        <time>2015-06-27T14:18:13Z</time>
      </trkpt>
      <trkpt lat="42.31334" lon="8.86818">
        <ele>1597</ele>
        <time>2015-06-27T14:18:28Z</time>
      </trkpt>
      <trkpt lat="42.31335" lon="8.86814">
        <ele>1597.8</ele>
        <time>2015-06-27T14:18:55Z</time>
      </trkpt>
      <trkpt lat="42.31334" lon="8.86813">
        <ele>1598.2</ele>
        <time>2015-06-27T14:19:10Z</time>
      </trkpt>
      <trkpt lat="42.31351" lon="8.86814">
        <ele>1597</ele>
        <time>2015-06-27T14:20:46Z</time>
      </trkpt>
      <trkpt lat="42.31362" lon="8.86812">
        <ele>1598.2</ele>
        <time>2015-06-27T14:20:57Z</time>
      </trkpt>
      <trkpt lat="42.31405" lon="8.8682">
        <ele>1599.4</ele>
        <time>2015-06-27T14:21:38Z</time>
      </trkpt>
      <trkpt lat="42.31419" lon="8.86821">
        <ele>1600.2</ele>
        <time>2015-06-27T14:21:54Z</time>
      </trkpt>
      <trkpt lat="42.31429" lon="8.86819">
        <ele>1601.2</ele>
        <time>2015-06-27T14:22:06Z</time>
      </trkpt>
      <trkpt lat="42.31448" lon="8.86821">
        <ele>1601.4</ele>
        <time>2015-06-27T14:22:25Z</time>
      </trkpt>
      <trkpt lat="42.31454" lon="8.86822">
        <ele>1602.8</ele>
        <time>2015-06-27T14:22:32Z</time>
      </trkpt>
      <trkpt lat="42.31461" lon="8.86821">
        <ele>1604</ele>
        <time>2015-06-27T14:22:41Z</time>
      </trkpt>
      <trkpt lat="42.31468" lon="8.8682">
        <ele>1604.8</ele>
        <time>2015-06-27T14:22:49Z</time>
      </trkpt>
      <trkpt lat="42.31473" lon="8.86816">
        <ele>1606.2</ele>
        <time>2015-06-27T14:22:58Z</time>
      </trkpt>
      <trkpt lat="42.3148" lon="8.86818">
        <ele>1607.2</ele>
        <time>2015-06-27T14:23:10Z</time>
      </trkpt>
      <trkpt lat="42.31484" lon="8.86819">
        <ele>1607.8</ele>
        <time>2015-06-27T14:23:15Z</time>
      </trkpt>
      <trkpt lat="42.31488" lon="8.86819">
        <ele>1608.8</ele>
        <time>2015-06-27T14:23:21Z</time>
      </trkpt>
      <trkpt lat="42.31496" lon="8.86812">
        <ele>1610</ele>
        <time>2015-06-27T14:23:32Z</time>
      </trkpt>
      <trkpt lat="42.31501" lon="8.86812">
        <ele>1611.2</ele>
        <time>2015-06-27T14:23:40Z</time>
      </trkpt>
      <trkpt lat="42.3151" lon="8.86815">
        <ele>1612.4</ele>
        <time>2015-06-27T14:23:54Z</time>
      </trkpt>
      <trkpt lat="42.31529" lon="8.868">
        <ele>1613</ele>
        <time>2015-06-27T14:24:34Z</time>
      </trkpt>
      <trkpt lat="42.31542" lon="8.86794">
        <ele>1613.8</ele>
        <time>2015-06-27T14:24:46Z</time>
      </trkpt>
      <trkpt lat="42.31563" lon="8.86795">
        <ele>1614.6</ele>
        <time>2015-06-27T14:25:09Z</time>
      </trkpt>
      <trkpt lat="42.31578" lon="8.86788">
        <ele>1615.8</ele>
        <time>2015-06-27T14:25:26Z</time>
      </trkpt>
      <trkpt lat="42.31585" lon="8.86788">
        <ele>1616</ele>
        <time>2015-06-27T14:25:34Z</time>
      </trkpt>
      <trkpt lat="42.31598" lon="8.86792">
        <ele>1616.2</ele>
        <time>2015-06-27T14:25:50Z</time>
      </trkpt>
      <trkpt lat="42.31609" lon="8.86797">
        <ele>1617.6</ele>
        <time>2015-06-27T14:26:00Z</time>
      </trkpt>
      <trkpt lat="42.31617" lon="8.868">
        <ele>1618.2</ele>
        <time>2015-06-27T14:26:09Z</time>
      </trkpt>
      <trkpt lat="42.31633" lon="8.86796">
        <ele>1619.6</ele>
        <time>2015-06-27T14:26:33Z</time>
      </trkpt>
      <trkpt lat="42.31636" lon="8.86798">
        <ele>1619.8</ele>
        <time>2015-06-27T14:26:37Z</time>
      </trkpt>
      <trkpt lat="42.31636" lon="8.86798">
        <ele>1620</ele>
        <time>2015-06-27T14:26:40Z</time>
      </trkpt>
      <trkpt lat="42.31639" lon="8.86803">
        <ele>1620.8</ele>
        <time>2015-06-27T14:26:46Z</time>
      </trkpt>
      <trkpt lat="42.3164" lon="8.86803">
        <ele>1621</ele>
        <time>2015-06-27T14:26:47Z</time>
      </trkpt>
      <trkpt lat="42.31644" lon="8.86807">
        <ele>1622</ele>
        <time>2015-06-27T14:26:55Z</time>
      </trkpt>
      <trkpt lat="42.31649" lon="8.8681">
        <ele>1623</ele>
        <time>2015-06-27T14:27:03Z</time>
      </trkpt>
      <trkpt lat="42.31657" lon="8.8681">
        <ele>1624.4</ele>
        <time>2015-06-27T14:27:14Z</time>
      </trkpt>
      <trkpt lat="42.31661" lon="8.86814">
        <ele>1625</ele>
        <time>2015-06-27T14:27:21Z</time>
      </trkpt>
      <trkpt lat="42.31665" lon="8.86817">
        <ele>1625.8</ele>
        <time>2015-06-27T14:27:27Z</time>
      </trkpt>
      <trkpt lat="42.31672" lon="8.86818">
        <ele>1627.4</ele>
        <time>2015-06-27T14:27:38Z</time>
      </trkpt>
      <trkpt lat="42.31676" lon="8.8682">
        <ele>1628.4</ele>
        <time>2015-06-27T14:27:46Z</time>
      </trkpt>
      <trkpt lat="42.31684" lon="8.86823">
        <ele>1629.6</ele>
        <time>2015-06-27T14:28:00Z</time>
      </trkpt>
      <trkpt lat="42.31686" lon="8.86821">
        <ele>1629.8</ele>
        <time>2015-06-27T14:28:05Z</time>
      </trkpt>
      <trkpt lat="42.3169" lon="8.86814">
        <ele>1631.4</ele>
        <time>2015-06-27T14:28:13Z</time>
      </trkpt>
      <trkpt lat="42.31694" lon="8.86809">
        <ele>1632.2</ele>
        <time>2015-06-27T14:28:20Z</time>
      </trkpt>
      <trkpt lat="42.31705" lon="8.86808">
        <ele>1633.8</ele>
        <time>2015-06-27T14:28:34Z</time>
      </trkpt>
      <trkpt lat="42.31722" lon="8.86811">
        <ele>1634.8</ele>
        <time>2015-06-27T14:28:49Z</time>
      </trkpt>
      <trkpt lat="42.31727" lon="8.86811">
        <ele>1635.4</ele>
        <time>2015-06-27T14:28:59Z</time>
      </trkpt>
      <trkpt lat="42.31735" lon="8.86812">
        <ele>1636.4</ele>
        <time>2015-06-27T14:29:08Z</time>
      </trkpt>
      <trkpt lat="42.31752" lon="8.868">
        <ele>1637.8</ele>
        <time>2015-06-27T14:29:32Z</time>
      </trkpt>
      <trkpt lat="42.31767" lon="8.86811">
        <ele>1638.8</ele>
        <time>2015-06-27T14:29:45Z</time>
      </trkpt>
      <trkpt lat="42.31776" lon="8.86817">
        <ele>1639.6</ele>
        <time>2015-06-27T14:29:58Z</time>
      </trkpt>
      <trkpt lat="42.31779" lon="8.86817">
        <ele>1639.8</ele>
        <time>2015-06-27T14:30:00Z</time>
      </trkpt>
      <trkpt lat="42.31783" lon="8.86822">
        <ele>1640.2</ele>
        <time>2015-06-27T14:30:05Z</time>
      </trkpt>
      <trkpt lat="42.31785" lon="8.86823">
        <ele>1640.2</ele>
        <time>2015-06-27T14:30:07Z</time>
      </trkpt>
      <trkpt lat="42.31788" lon="8.86829">
        <ele>1641.4</ele>
        <time>2015-06-27T14:30:14Z</time>
      </trkpt>
      <trkpt lat="42.31798" lon="8.86839">
        <ele>1642.6</ele>
        <time>2015-06-27T14:30:31Z</time>
      </trkpt>
      <trkpt lat="42.31817" lon="8.86858">
        <ele>1643.8</ele>
        <time>2015-06-27T14:30:56Z</time>
      </trkpt>
      <trkpt lat="42.31824" lon="8.86864">
        <ele>1644.6</ele>
        <time>2015-06-27T14:31:06Z</time>
      </trkpt>
      <trkpt lat="42.3183" lon="8.86874">
        <ele>1645.6</ele>
        <time>2015-06-27T14:31:16Z</time>
      </trkpt>
      <trkpt lat="42.31834" lon="8.86887">
        <ele>1646.8</ele>
        <time>2015-06-27T14:31:29Z</time>
      </trkpt>
      <trkpt lat="42.31848" lon="8.86897">
        <ele>1647.6</ele>
        <time>2015-06-27T14:31:42Z</time>
      </trkpt>
      <trkpt lat="42.31853" lon="8.86901">
        <ele>1648.2</ele>
        <time>2015-06-27T14:31:48Z</time>
      </trkpt>
      <trkpt lat="42.31859" lon="8.86904">
        <ele>1649.4</ele>
        <time>2015-06-27T14:31:55Z</time>
      </trkpt>
      <trkpt lat="42.31862" lon="8.86907">
        <ele>1650.2</ele>
        <time>2015-06-27T14:32:01Z</time>
      </trkpt>
      <trkpt lat="42.31867" lon="8.86917">
        <ele>1651.8</ele>
        <time>2015-06-27T14:32:12Z</time>
      </trkpt>
      <trkpt lat="42.31885" lon="8.86929">
        <ele>1653</ele>
        <time>2015-06-27T14:32:38Z</time>
      </trkpt>
      <trkpt lat="42.31894" lon="8.86933">
        <ele>1654</ele>
        <time>2015-06-27T14:32:50Z</time>
      </trkpt>
      <trkpt lat="42.31907" lon="8.86939">
        <ele>1655.2</ele>
        <time>2015-06-27T14:33:02Z</time>
      </trkpt>
      <trkpt lat="42.31924" lon="8.8695">
        <ele>1656</ele>
        <time>2015-06-27T14:33:22Z</time>
      </trkpt>
      <trkpt lat="42.31933" lon="8.86951">
        <ele>1656.8</ele>
        <time>2015-06-27T14:33:33Z</time>
      </trkpt>
      <trkpt lat="42.31944" lon="8.86948">
        <ele>1657.8</ele>
        <time>2015-06-27T14:34:30Z</time>
      </trkpt>
      <trkpt lat="42.31957" lon="8.86951">
        <ele>1658.4</ele>
        <time>2015-06-27T14:34:42Z</time>
      </trkpt>
      <trkpt lat="42.31971" lon="8.86953">
        <ele>1659.6</ele>
        <time>2015-06-27T14:34:58Z</time>
      </trkpt>
      <trkpt lat="42.31978" lon="8.86954">
        <ele>1660</ele>
        <time>2015-06-27T14:35:07Z</time>
      </trkpt>
      <trkpt lat="42.32003" lon="8.86953">
        <ele>1661.2</ele>
        <time>2015-06-27T14:35:28Z</time>
      </trkpt>
      <trkpt lat="42.32009" lon="8.86949">
        <ele>1661.6</ele>
        <time>2015-06-27T14:35:35Z</time>
      </trkpt>
      <trkpt lat="42.32024" lon="8.86947">
        <ele>1663.2</ele>
        <time>2015-06-27T14:35:50Z</time>
      </trkpt>
      <trkpt lat="42.32031" lon="8.86944">
        <ele>1663.8</ele>
        <time>2015-06-27T14:36:01Z</time>
      </trkpt>
      <trkpt lat="42.32033" lon="8.86944">
        <ele>1664</ele>
        <time>2015-06-27T14:36:03Z</time>
      </trkpt>
      <trkpt lat="42.32035" lon="8.86944">
        <ele>1664.2</ele>
        <time>2015-06-27T14:36:05Z</time>
      </trkpt>
      <trkpt lat="42.3205" lon="8.86942">
        <ele>1665.2</ele>
        <time>2015-06-27T14:36:20Z</time>
      </trkpt>
      <trkpt lat="42.32061" lon="8.86937">
        <ele>1665.8</ele>
        <time>2015-06-27T14:36:32Z</time>
      </trkpt>
      <trkpt lat="42.32067" lon="8.86937">
        <ele>1666.4</ele>
        <time>2015-06-27T14:36:39Z</time>
      </trkpt>
      <trkpt lat="42.32076" lon="8.86936">
        <ele>1667</ele>
        <time>2015-06-27T14:36:47Z</time>
      </trkpt>
      <trkpt lat="42.32091" lon="8.86935">
        <ele>1668.2</ele>
        <time>2015-06-27T14:37:01Z</time>
      </trkpt>
      <trkpt lat="42.32095" lon="8.86936">
        <ele>1668.4</ele>
        <time>2015-06-27T14:37:05Z</time>
      </trkpt>
      <trkpt lat="42.32102" lon="8.86936">
        <ele>1669</ele>
        <time>2015-06-27T14:37:10Z</time>
      </trkpt>
      <trkpt lat="42.32105" lon="8.86935">
        <ele>1669.2</ele>
        <time>2015-06-27T14:37:13Z</time>
      </trkpt>
      <trkpt lat="42.3211" lon="8.86934">
        <ele>1669.6</ele>
        <time>2015-06-27T14:37:19Z</time>
      </trkpt>
      <trkpt lat="42.32114" lon="8.86931">
        <ele>1670</ele>
        <time>2015-06-27T14:37:24Z</time>
      </trkpt>
      <trkpt lat="42.32123" lon="8.86924">
        <ele>1671.6</ele>
        <time>2015-06-27T14:37:36Z</time>
      </trkpt>
      <trkpt lat="42.32138" lon="8.86924">
        <ele>1672.6</ele>
        <time>2015-06-27T14:37:52Z</time>
      </trkpt>
      <trkpt lat="42.32151" lon="8.86917">
        <ele>1673.4</ele>
        <time>2015-06-27T14:38:08Z</time>
      </trkpt>
      <trkpt lat="42.32159" lon="8.86916">
        <ele>1674.4</ele>
        <time>2015-06-27T14:38:19Z</time>
      </trkpt>
      <trkpt lat="42.3216" lon="8.86917">
        <ele>1674.4</ele>
        <time>2015-06-27T14:38:20Z</time>
      </trkpt>
      <trkpt lat="42.32169" lon="8.86917">
        <ele>1675.8</ele>
        <time>2015-06-27T14:38:31Z</time>
      </trkpt>
      <trkpt lat="42.32179" lon="8.86914">
        <ele>1677</ele>
        <time>2015-06-27T14:38:42Z</time>
      </trkpt>
      <trkpt lat="42.3219" lon="8.86911">
        <ele>1678.2</ele>
        <time>2015-06-27T14:38:57Z</time>
      </trkpt>
      <trkpt lat="42.32201" lon="8.8691">
        <ele>1679</ele>
        <time>2015-06-27T14:39:09Z</time>
      </trkpt>
      <trkpt lat="42.32206" lon="8.86909">
        <ele>1680</ele>
        <time>2015-06-27T14:39:19Z</time>
      </trkpt>
      <trkpt lat="42.32212" lon="8.86908">
        <ele>1681.2</ele>
        <time>2015-06-27T14:39:28Z</time>
      </trkpt>
      <trkpt lat="42.32219" lon="8.86909">
        <ele>1682.4</ele>
        <time>2015-06-27T14:39:37Z</time>
      </trkpt>
      <trkpt lat="42.32232" lon="8.86909">
        <ele>1683.6</ele>
        <time>2015-06-27T14:39:52Z</time>
      </trkpt>
      <trkpt lat="42.32241" lon="8.86916">
        <ele>1685.2</ele>
        <time>2015-06-27T14:40:12Z</time>
      </trkpt>
      <trkpt lat="42.32249" lon="8.86913">
        <ele>1686</ele>
        <time>2015-06-27T14:40:24Z</time>
      </trkpt>
      <trkpt lat="42.32254" lon="8.86909">
        <ele>1686.6</ele>
        <time>2015-06-27T14:40:32Z</time>
      </trkpt>
      <trkpt lat="42.3226" lon="8.86904">
        <ele>1687.8</ele>
        <time>2015-06-27T14:40:42Z</time>
      </trkpt>
      <trkpt lat="42.32264" lon="8.86902">
        <ele>1689.2</ele>
        <time>2015-06-27T14:40:52Z</time>
      </trkpt>
      <trkpt lat="42.32267" lon="8.86899">
        <ele>1690.2</ele>
        <time>2015-06-27T14:41:01Z</time>
      </trkpt>
      <trkpt lat="42.32272" lon="8.86898">
        <ele>1691.2</ele>
        <time>2015-06-27T14:41:08Z</time>
      </trkpt>
      <trkpt lat="42.32292" lon="8.86884">
        <ele>1692.8</ele>
        <time>2015-06-27T14:41:36Z</time>
      </trkpt>
      <trkpt lat="42.32302" lon="8.86881">
        <ele>1693.8</ele>
        <time>2015-06-27T14:41:50Z</time>
      </trkpt>
      <trkpt lat="42.32307" lon="8.86878">
        <ele>1694.8</ele>
        <time>2015-06-27T14:41:58Z</time>
      </trkpt>
      <trkpt lat="42.32311" lon="8.8687">
        <ele>1696</ele>
        <time>2015-06-27T14:42:08Z</time>
      </trkpt>
      <trkpt lat="42.32316" lon="8.86862">
        <ele>1697.2</ele>
        <time>2015-06-27T14:42:19Z</time>
      </trkpt>
      <trkpt lat="42.32321" lon="8.86852">
        <ele>1698.2</ele>
        <time>2015-06-27T14:42:32Z</time>
      </trkpt>
      <trkpt lat="42.32324" lon="8.86848">
        <ele>1699.2</ele>
        <time>2015-06-27T14:42:39Z</time>
      </trkpt>
      <trkpt lat="42.32327" lon="8.86843">
        <ele>1700.4</ele>
        <time>2015-06-27T14:42:47Z</time>
      </trkpt>
      <trkpt lat="42.32327" lon="8.86843">
        <ele>1700.6</ele>
        <time>2015-06-27T14:42:48Z</time>
      </trkpt>
      <trkpt lat="42.32331" lon="8.86839">
        <ele>1701.8</ele>
        <time>2015-06-27T14:42:56Z</time>
      </trkpt>
      <trkpt lat="42.32335" lon="8.86835">
        <ele>1702.8</ele>
        <time>2015-06-27T14:43:04Z</time>
      </trkpt>
      <trkpt lat="42.32336" lon="8.86826">
        <ele>1703.8</ele>
        <time>2015-06-27T14:43:14Z</time>
      </trkpt>
      <trkpt lat="42.32336" lon="8.86823">
        <ele>1704.2</ele>
        <time>2015-06-27T14:43:17Z</time>
      </trkpt>
      <trkpt lat="42.32335" lon="8.86819">
        <ele>1704.8</ele>
        <time>2015-06-27T14:43:23Z</time>
      </trkpt>
      <trkpt lat="42.32334" lon="8.86817">
        <ele>1706</ele>
        <time>2015-06-27T14:43:30Z</time>
      </trkpt>
      <trkpt lat="42.32336" lon="8.86816">
        <ele>1707.2</ele>
        <time>2015-06-27T14:43:38Z</time>
      </trkpt>
      <trkpt lat="42.32339" lon="8.8681">
        <ele>1708.6</ele>
        <time>2015-06-27T14:43:47Z</time>
      </trkpt>
      <trkpt lat="42.32338" lon="8.86807">
        <ele>1709.6</ele>
        <time>2015-06-27T14:43:55Z</time>
      </trkpt>
      <trkpt lat="42.32339" lon="8.86804">
        <ele>1710.4</ele>
        <time>2015-06-27T14:44:02Z</time>
      </trkpt>
      <trkpt lat="42.32338" lon="8.86802">
        <ele>1711</ele>
        <time>2015-06-27T14:44:04Z</time>
      </trkpt>
      <trkpt lat="42.32341" lon="8.86801">
        <ele>1712</ele>
        <time>2015-06-27T14:44:11Z</time>
      </trkpt>
      <trkpt lat="42.32342" lon="8.86796">
        <ele>1712.8</ele>
        <time>2015-06-27T14:44:18Z</time>
      </trkpt>
      <trkpt lat="42.32346" lon="8.86791">
        <ele>1714.4</ele>
        <time>2015-06-27T14:44:28Z</time>
      </trkpt>
      <trkpt lat="42.32348" lon="8.86787">
        <ele>1715.4</ele>
        <time>2015-06-27T14:44:37Z</time>
      </trkpt>
      <trkpt lat="42.32351" lon="8.86784">
        <ele>1716.4</ele>
        <time>2015-06-27T14:44:45Z</time>
      </trkpt>
      <trkpt lat="42.32352" lon="8.86777">
        <ele>1717.6</ele>
        <time>2015-06-27T14:44:54Z</time>
      </trkpt>
      <trkpt lat="42.32351" lon="8.86774">
        <ele>1719.2</ele>
        <time>2015-06-27T14:45:06Z</time>
      </trkpt>
      <trkpt lat="42.32357" lon="8.86771">
        <ele>1720.2</ele>
        <time>2015-06-27T14:45:17Z</time>
      </trkpt>
      <trkpt lat="42.32361" lon="8.86768">
        <ele>1721.2</ele>
        <time>2015-06-27T14:45:28Z</time>
      </trkpt>
      <trkpt lat="42.32365" lon="8.86764">
        <ele>1722</ele>
        <time>2015-06-27T14:45:35Z</time>
      </trkpt>
      <trkpt lat="42.32367" lon="8.86759">
        <ele>1723</ele>
        <time>2015-06-27T14:45:40Z</time>
      </trkpt>
      <trkpt lat="42.32367" lon="8.86756">
        <ele>1723.6</ele>
        <time>2015-06-27T14:45:42Z</time>
      </trkpt>
      <trkpt lat="42.32366" lon="8.86755">
        <ele>1724.6</ele>
        <time>2015-06-27T14:45:51Z</time>
      </trkpt>
      <trkpt lat="42.32359" lon="8.86752">
        <ele>1726.2</ele>
        <time>2015-06-27T14:46:07Z</time>
      </trkpt>
      <trkpt lat="42.3236" lon="8.8675">
        <ele>1726.8</ele>
        <time>2015-06-27T14:46:13Z</time>
      </trkpt>
      <trkpt lat="42.3236" lon="8.86745">
        <ele>1728</ele>
        <time>2015-06-27T14:46:20Z</time>
      </trkpt>
      <trkpt lat="42.3236" lon="8.86742">
        <ele>1729.2</ele>
        <time>2015-06-27T14:46:28Z</time>
      </trkpt>
      <trkpt lat="42.32359" lon="8.86737">
        <ele>1730.6</ele>
        <time>2015-06-27T14:46:38Z</time>
      </trkpt>
      <trkpt lat="42.32359" lon="8.86737">
        <ele>1731</ele>
        <time>2015-06-27T14:46:43Z</time>
      </trkpt>
      <trkpt lat="42.32356" lon="8.86735">
        <ele>1732.8</ele>
        <time>2015-06-27T14:46:53Z</time>
      </trkpt>
      <trkpt lat="42.32356" lon="8.86732">
        <ele>1733.4</ele>
        <time>2015-06-27T14:46:59Z</time>
      </trkpt>
      <trkpt lat="42.32353" lon="8.86726">
        <ele>1735</ele>
        <time>2015-06-27T14:47:09Z</time>
      </trkpt>
      <trkpt lat="42.32351" lon="8.86723">
        <ele>1735.8</ele>
        <time>2015-06-27T14:47:16Z</time>
      </trkpt>
      <trkpt lat="42.32351" lon="8.86719">
        <ele>1737</ele>
        <time>2015-06-27T14:47:23Z</time>
      </trkpt>
      <trkpt lat="42.32352" lon="8.86716">
        <ele>1738.6</ele>
        <time>2015-06-27T14:47:32Z</time>
      </trkpt>
      <trkpt lat="42.32353" lon="8.86713">
        <ele>1739.4</ele>
        <time>2015-06-27T14:47:39Z</time>
      </trkpt>
      <trkpt lat="42.32352" lon="8.86711">
        <ele>1740.2</ele>
        <time>2015-06-27T14:47:45Z</time>
      </trkpt>
      <trkpt lat="42.32347" lon="8.86709">
        <ele>1741.6</ele>
        <time>2015-06-27T14:47:54Z</time>
      </trkpt>
      <trkpt lat="42.32345" lon="8.86704">
        <ele>1742.4</ele>
        <time>2015-06-27T14:48:00Z</time>
      </trkpt>
      <trkpt lat="42.32343" lon="8.86701">
        <ele>1743.4</ele>
        <time>2015-06-27T14:48:06Z</time>
      </trkpt>
      <trkpt lat="42.32341" lon="8.86695">
        <ele>1745.2</ele>
        <time>2015-06-27T14:48:16Z</time>
      </trkpt>
      <trkpt lat="42.32339" lon="8.86691">
        <ele>1745.6</ele>
        <time>2015-06-27T14:48:22Z</time>
      </trkpt>
      <trkpt lat="42.32337" lon="8.86688">
        <ele>1747.2</ele>
        <time>2015-06-27T14:48:32Z</time>
      </trkpt>
      <trkpt lat="42.32337" lon="8.86685">
        <ele>1748</ele>
        <time>2015-06-27T14:48:38Z</time>
      </trkpt>
      <trkpt lat="42.32338" lon="8.86685">
        <ele>1748.2</ele>
        <time>2015-06-27T14:48:40Z</time>
      </trkpt>
      <trkpt lat="42.32337" lon="8.8668">
        <ele>1749.4</ele>
        <time>2015-06-27T14:48:46Z</time>
      </trkpt>
      <trkpt lat="42.32337" lon="8.86676">
        <ele>1750</ele>
        <time>2015-06-27T14:48:52Z</time>
      </trkpt>
      <trkpt lat="42.32338" lon="8.86672">
        <ele>1751.2</ele>
        <time>2015-06-27T14:48:58Z</time>
      </trkpt>
      <trkpt lat="42.32339" lon="8.86669">
        <ele>1752.4</ele>
        <time>2015-06-27T14:49:05Z</time>
      </trkpt>
      <trkpt lat="42.3234" lon="8.86665">
        <ele>1753</ele>
        <time>2015-06-27T14:49:10Z</time>
      </trkpt>
      <trkpt lat="42.32339" lon="8.86656">
        <ele>1754.8</ele>
        <time>2015-06-27T14:49:25Z</time>
      </trkpt>
      <trkpt lat="42.32341" lon="8.86657">
        <ele>1755.6</ele>
        <time>2015-06-27T14:49:32Z</time>
      </trkpt>
      <trkpt lat="42.32341" lon="8.86657">
        <ele>1755.6</ele>
        <time>2015-06-27T14:49:33Z</time>
      </trkpt>
      <trkpt lat="42.32341" lon="8.86644">
        <ele>1757</ele>
        <time>2015-06-27T14:50:35Z</time>
      </trkpt>
      <trkpt lat="42.32341" lon="8.8664">
        <ele>1757.4</ele>
        <time>2015-06-27T14:50:40Z</time>
      </trkpt>
      <trkpt lat="42.32343" lon="8.86638">
        <ele>1759</ele>
        <time>2015-06-27T14:50:49Z</time>
      </trkpt>
      <trkpt lat="42.32344" lon="8.86635">
        <ele>1759.6</ele>
        <time>2015-06-27T14:50:54Z</time>
      </trkpt>
      <trkpt lat="42.32345" lon="8.8663">
        <ele>1761.2</ele>
        <time>2015-06-27T14:51:02Z</time>
      </trkpt>
      <trkpt lat="42.32347" lon="8.86626">
        <ele>1762.4</ele>
        <time>2015-06-27T14:51:11Z</time>
      </trkpt>
      <trkpt lat="42.32348" lon="8.86625">
        <ele>1762.8</ele>
        <time>2015-06-27T14:51:14Z</time>
      </trkpt>
      <trkpt lat="42.32349" lon="8.86622">
        <ele>1763.2</ele>
        <time>2015-06-27T14:51:18Z</time>
      </trkpt>
      <trkpt lat="42.3235" lon="8.86618">
        <ele>1764.2</ele>
        <time>2015-06-27T14:51:24Z</time>
      </trkpt>
      <trkpt lat="42.3235" lon="8.86615">
        <ele>1764.8</ele>
        <time>2015-06-27T14:51:28Z</time>
      </trkpt>
      <trkpt lat="42.32349" lon="8.86611">
        <ele>1766.4</ele>
        <time>2015-06-27T14:51:35Z</time>
      </trkpt>
      <trkpt lat="42.3235" lon="8.86607">
        <ele>1767.6</ele>
        <time>2015-06-27T14:51:43Z</time>
      </trkpt>
      <trkpt lat="42.3235" lon="8.86602">
        <ele>1768.6</ele>
        <time>2015-06-27T14:51:51Z</time>
      </trkpt>
      <trkpt lat="42.32348" lon="8.86599">
        <ele>1769.6</ele>
        <time>2015-06-27T14:51:57Z</time>
      </trkpt>
      <trkpt lat="42.32349" lon="8.86595">
        <ele>1770.6</ele>
        <time>2015-06-27T14:52:04Z</time>
      </trkpt>
      <trkpt lat="42.32345" lon="8.8659">
        <ele>1772</ele>
        <time>2015-06-27T14:52:12Z</time>
      </trkpt>
      <trkpt lat="42.32344" lon="8.86586">
        <ele>1772.8</ele>
        <time>2015-06-27T14:52:18Z</time>
      </trkpt>
      <trkpt lat="42.32343" lon="8.86582">
        <ele>1773.6</ele>
        <time>2015-06-27T14:52:23Z</time>
      </trkpt>
      <trkpt lat="42.32341" lon="8.86579">
        <ele>1775.6</ele>
        <time>2015-06-27T14:52:33Z</time>
      </trkpt>
      <trkpt lat="42.32338" lon="8.86577">
        <ele>1776.6</ele>
        <time>2015-06-27T14:52:43Z</time>
      </trkpt>
      <trkpt lat="42.3233" lon="8.86572">
        <ele>1777.8</ele>
        <time>2015-06-27T14:53:02Z</time>
      </trkpt>
      <trkpt lat="42.32321" lon="8.86568">
        <ele>1778.8</ele>
        <time>2015-06-27T14:53:14Z</time>
      </trkpt>
      <trkpt lat="42.32312" lon="8.86565">
        <ele>1779.6</ele>
        <time>2015-06-27T14:53:25Z</time>
      </trkpt>
      <trkpt lat="42.32306" lon="8.86563">
        <ele>1780.6</ele>
        <time>2015-06-27T14:53:33Z</time>
      </trkpt>
      <trkpt lat="42.32301" lon="8.86563">
        <ele>1781.6</ele>
        <time>2015-06-27T14:53:40Z</time>
      </trkpt>
      <trkpt lat="42.32298" lon="8.86561">
        <ele>1782.4</ele>
        <time>2015-06-27T14:53:46Z</time>
      </trkpt>
      <trkpt lat="42.32298" lon="8.8656">
        <ele>1783.4</ele>
        <time>2015-06-27T14:53:53Z</time>
      </trkpt>
      <trkpt lat="42.32302" lon="8.86557">
        <ele>1784.8</ele>
        <time>2015-06-27T14:54:01Z</time>
      </trkpt>
      <trkpt lat="42.32302" lon="8.86551">
        <ele>1786</ele>
        <time>2015-06-27T14:54:09Z</time>
      </trkpt>
      <trkpt lat="42.323" lon="8.86549">
        <ele>1787</ele>
        <time>2015-06-27T14:54:16Z</time>
      </trkpt>
      <trkpt lat="42.32298" lon="8.86544">
        <ele>1787.8</ele>
        <time>2015-06-27T14:54:22Z</time>
      </trkpt>
      <trkpt lat="42.32298" lon="8.86543">
        <ele>1788</ele>
        <time>2015-06-27T14:54:23Z</time>
      </trkpt>
      <trkpt lat="42.32296" lon="8.86539">
        <ele>1789</ele>
        <time>2015-06-27T14:54:29Z</time>
      </trkpt>
      <trkpt lat="42.32295" lon="8.86536">
        <ele>1790.2</ele>
        <time>2015-06-27T14:54:38Z</time>
      </trkpt>
      <trkpt lat="42.32298" lon="8.86538">
        <ele>1791</ele>
        <time>2015-06-27T14:54:45Z</time>
      </trkpt>
      <trkpt lat="42.32303" lon="8.86535">
        <ele>1792.4</ele>
        <time>2015-06-27T14:54:54Z</time>
      </trkpt>
      <trkpt lat="42.32304" lon="8.86529">
        <ele>1793.2</ele>
        <time>2015-06-27T14:55:02Z</time>
      </trkpt>
      <trkpt lat="42.32305" lon="8.86525">
        <ele>1794.6</ele>
        <time>2015-06-27T14:55:16Z</time>
      </trkpt>
      <trkpt lat="42.32304" lon="8.86522">
        <ele>1795.6</ele>
        <time>2015-06-27T14:55:26Z</time>
      </trkpt>
      <trkpt lat="42.32301" lon="8.86518">
        <ele>1796.6</ele>
        <time>2015-06-27T14:55:38Z</time>
      </trkpt>
      <trkpt lat="42.32303" lon="8.86518">
        <ele>1797.2</ele>
        <time>2015-06-27T14:55:45Z</time>
      </trkpt>
      <trkpt lat="42.32305" lon="8.86514">
        <ele>1798.4</ele>
        <time>2015-06-27T14:55:51Z</time>
      </trkpt>
      <trkpt lat="42.32304" lon="8.86508">
        <ele>1799.8</ele>
        <time>2015-06-27T14:56:00Z</time>
      </trkpt>
      <trkpt lat="42.32305" lon="8.86506">
        <ele>1800.6</ele>
        <time>2015-06-27T14:56:06Z</time>
      </trkpt>
      <trkpt lat="42.32306" lon="8.865">
        <ele>1802</ele>
        <time>2015-06-27T14:56:14Z</time>
      </trkpt>
      <trkpt lat="42.32305" lon="8.86495">
        <ele>1802.8</ele>
        <time>2015-06-27T14:56:20Z</time>
      </trkpt>
      <trkpt lat="42.32303" lon="8.86493">
        <ele>1804.4</ele>
        <time>2015-06-27T14:56:29Z</time>
      </trkpt>
      <trkpt lat="42.32301" lon="8.86489">
        <ele>1805.2</ele>
        <time>2015-06-27T14:56:36Z</time>
      </trkpt>
      <trkpt lat="42.32301" lon="8.86484">
        <ele>1806.4</ele>
        <time>2015-06-27T14:56:43Z</time>
      </trkpt>
      <trkpt lat="42.323" lon="8.86477">
        <ele>1807.2</ele>
        <time>2015-06-27T14:56:49Z</time>
      </trkpt>
      <trkpt lat="42.32302" lon="8.86472">
        <ele>1808.6</ele>
        <time>2015-06-27T14:56:56Z</time>
      </trkpt>
      <trkpt lat="42.32304" lon="8.86466">
        <ele>1809.6</ele>
        <time>2015-06-27T14:57:03Z</time>
      </trkpt>
      <trkpt lat="42.32304" lon="8.86462">
        <ele>1810.6</ele>
        <time>2015-06-27T14:57:11Z</time>
      </trkpt>
      <trkpt lat="42.32305" lon="8.86458">
        <ele>1811.8</ele>
        <time>2015-06-27T14:57:18Z</time>
      </trkpt>
      <trkpt lat="42.32305" lon="8.86453">
        <ele>1812.8</ele>
        <time>2015-06-27T14:57:24Z</time>
      </trkpt>
      <trkpt lat="42.32305" lon="8.8645">
        <ele>1813.8</ele>
        <time>2015-06-27T14:57:30Z</time>
      </trkpt>
      <trkpt lat="42.32303" lon="8.86446">
        <ele>1815.2</ele>
        <time>2015-06-27T14:57:38Z</time>
      </trkpt>
      <trkpt lat="42.32301" lon="8.86443">
        <ele>1816.4</ele>
        <time>2015-06-27T14:57:45Z</time>
      </trkpt>
      <trkpt lat="42.32299" lon="8.8644">
        <ele>1817.2</ele>
        <time>2015-06-27T14:57:53Z</time>
      </trkpt>
      <trkpt lat="42.32298" lon="8.86436">
        <ele>1818.4</ele>
        <time>2015-06-27T14:58:00Z</time>
      </trkpt>
      <trkpt lat="42.32299" lon="8.86433">
        <ele>1819.8</ele>
        <time>2015-06-27T14:58:10Z</time>
      </trkpt>
      <trkpt lat="42.32298" lon="8.86428">
        <ele>1820.4</ele>
        <time>2015-06-27T14:58:18Z</time>
      </trkpt>
      <trkpt lat="42.32297" lon="8.86423">
        <ele>1821.6</ele>
        <time>2015-06-27T14:58:24Z</time>
      </trkpt>
      <trkpt lat="42.32297" lon="8.86418">
        <ele>1822.6</ele>
        <time>2015-06-27T14:58:32Z</time>
      </trkpt>
      <trkpt lat="42.32296" lon="8.86413">
        <ele>1823.8</ele>
        <time>2015-06-27T14:58:40Z</time>
      </trkpt>
      <trkpt lat="42.32296" lon="8.86407">
        <ele>1824.8</ele>
        <time>2015-06-27T14:58:48Z</time>
      </trkpt>
      <trkpt lat="42.32299" lon="8.86401">
        <ele>1825.8</ele>
        <time>2015-06-27T14:58:57Z</time>
      </trkpt>
      <trkpt lat="42.32303" lon="8.86399">
        <ele>1827</ele>
        <time>2015-06-27T14:59:05Z</time>
      </trkpt>
      <trkpt lat="42.32308" lon="8.86395">
        <ele>1828</ele>
        <time>2015-06-27T14:59:13Z</time>
      </trkpt>
      <trkpt lat="42.32308" lon="8.86388">
        <ele>1828.8</ele>
        <time>2015-06-27T14:59:19Z</time>
      </trkpt>
      <trkpt lat="42.32307" lon="8.86385">
        <ele>1829.2</ele>
        <time>2015-06-27T14:59:22Z</time>
      </trkpt>
      <trkpt lat="42.32307" lon="8.86378">
        <ele>1830.2</ele>
        <time>2015-06-27T14:59:30Z</time>
      </trkpt>
      <trkpt lat="42.32307" lon="8.86373">
        <ele>1831.2</ele>
        <time>2015-06-27T14:59:37Z</time>
      </trkpt>
      <trkpt lat="42.3231" lon="8.86372">
        <ele>1832</ele>
        <time>2015-06-27T14:59:44Z</time>
      </trkpt>
      <trkpt lat="42.32312" lon="8.86368">
        <ele>1833.2</ele>
        <time>2015-06-27T14:59:51Z</time>
      </trkpt>
      <trkpt lat="42.32313" lon="8.86363">
        <ele>1834.2</ele>
        <time>2015-06-27T14:59:57Z</time>
      </trkpt>
      <trkpt lat="42.32315" lon="8.86359">
        <ele>1835.6</ele>
        <time>2015-06-27T15:00:05Z</time>
      </trkpt>
      <trkpt lat="42.32317" lon="8.86355">
        <ele>1836.6</ele>
        <time>2015-06-27T15:00:13Z</time>
      </trkpt>
      <trkpt lat="42.32319" lon="8.86349">
        <ele>1837.2</ele>
        <time>2015-06-27T15:00:19Z</time>
      </trkpt>
      <trkpt lat="42.3232" lon="8.86342">
        <ele>1838.6</ele>
        <time>2015-06-27T15:00:27Z</time>
      </trkpt>
      <trkpt lat="42.32321" lon="8.86341">
        <ele>1838.8</ele>
        <time>2015-06-27T15:00:29Z</time>
      </trkpt>
      <trkpt lat="42.32322" lon="8.86336">
        <ele>1839.8</ele>
        <time>2015-06-27T15:00:35Z</time>
      </trkpt>
      <trkpt lat="42.32323" lon="8.86327">
        <ele>1840.8</ele>
        <time>2015-06-27T15:00:43Z</time>
      </trkpt>
      <trkpt lat="42.32323" lon="8.86322">
        <ele>1841.6</ele>
        <time>2015-06-27T15:00:50Z</time>
      </trkpt>
      <trkpt lat="42.32324" lon="8.86316">
        <ele>1842.8</ele>
        <time>2015-06-27T15:00:58Z</time>
      </trkpt>
      <trkpt lat="42.32325" lon="8.86312">
        <ele>1843.6</ele>
        <time>2015-06-27T15:01:04Z</time>
      </trkpt>
      <trkpt lat="42.32328" lon="8.8631">
        <ele>1844.8</ele>
        <time>2015-06-27T15:01:11Z</time>
      </trkpt>
      <trkpt lat="42.32331" lon="8.86309">
        <ele>1845.8</ele>
        <time>2015-06-27T15:01:18Z</time>
      </trkpt>
      <trkpt lat="42.32334" lon="8.86304">
        <ele>1846.8</ele>
        <time>2015-06-27T15:01:25Z</time>
      </trkpt>
      <trkpt lat="42.32336" lon="8.86297">
        <ele>1848</ele>
        <time>2015-06-27T15:01:32Z</time>
      </trkpt>
      <trkpt lat="42.32339" lon="8.86285">
        <ele>1849.4</ele>
        <time>2015-06-27T15:01:44Z</time>
      </trkpt>
      <trkpt lat="42.32341" lon="8.86274">
        <ele>1850.4</ele>
        <time>2015-06-27T15:01:54Z</time>
      </trkpt>
      <trkpt lat="42.32342" lon="8.86268">
        <ele>1850.8</ele>
        <time>2015-06-27T15:02:00Z</time>
      </trkpt>
      <trkpt lat="42.32343" lon="8.86263">
        <ele>1851.4</ele>
        <time>2015-06-27T15:02:05Z</time>
      </trkpt>
      <trkpt lat="42.32346" lon="8.86254">
        <ele>1852.2</ele>
        <time>2015-06-27T15:02:15Z</time>
      </trkpt>
      <trkpt lat="42.32346" lon="8.86252">
        <ele>1852.2</ele>
        <time>2015-06-27T15:02:17Z</time>
      </trkpt>
      <trkpt lat="42.3235" lon="8.86245">
        <ele>1853.4</ele>
        <time>2015-06-27T15:02:27Z</time>
      </trkpt>
      <trkpt lat="42.32355" lon="8.86238">
        <ele>1854.4</ele>
        <time>2015-06-27T15:02:36Z</time>
      </trkpt>
      <trkpt lat="42.32361" lon="8.86232">
        <ele>1855.8</ele>
        <time>2015-06-27T15:02:48Z</time>
      </trkpt>
      <trkpt lat="42.32384" lon="8.86232">
        <ele>1856</ele>
        <time>2015-06-27T15:04:11Z</time>
      </trkpt>
      <trkpt lat="42.32398" lon="8.86222">
        <ele>1857.2</ele>
        <time>2015-06-27T15:04:38Z</time>
      </trkpt>
      <trkpt lat="42.32394" lon="8.86201">
        <ele>1856.8</ele>
        <time>2015-06-27T15:05:35Z</time>
      </trkpt>
      <trkpt lat="42.32394" lon="8.86196">
        <ele>1857</ele>
        <time>2015-06-27T15:05:39Z</time>
      </trkpt>
      <trkpt lat="42.32392" lon="8.86189">
        <ele>1857.6</ele>
        <time>2015-06-27T15:05:46Z</time>
      </trkpt>
      <trkpt lat="42.32391" lon="8.86179">
        <ele>1858.2</ele>
        <time>2015-06-27T15:05:53Z</time>
      </trkpt>
      <trkpt lat="42.32391" lon="8.86177">
        <ele>1858.4</ele>
        <time>2015-06-27T15:05:54Z</time>
      </trkpt>
      <trkpt lat="42.32394" lon="8.86156">
        <ele>1858.2</ele>
        <time>2015-06-27T15:06:07Z</time>
      </trkpt>
      <trkpt lat="42.32405" lon="8.86137">
        <ele>1859</ele>
        <time>2015-06-27T15:06:30Z</time>
      </trkpt>
      <trkpt lat="42.32407" lon="8.86134">
        <ele>1859.4</ele>
        <time>2015-06-27T15:06:33Z</time>
      </trkpt>
      <trkpt lat="42.32409" lon="8.86128">
        <ele>1860.4</ele>
        <time>2015-06-27T15:06:42Z</time>
      </trkpt>
      <trkpt lat="42.32451" lon="8.86112">
        <ele>1860</ele>
        <time>2015-06-27T15:07:34Z</time>
      </trkpt>
      <trkpt lat="42.32458" lon="8.86103">
        <ele>1860.8</ele>
        <time>2015-06-27T15:07:45Z</time>
      </trkpt>
      <trkpt lat="42.32459" lon="8.86101">
        <ele>1861</ele>
        <time>2015-06-27T15:07:47Z</time>
      </trkpt>
      <trkpt lat="42.3246" lon="8.86096">
        <ele>1862.2</ele>
        <time>2015-06-27T15:07:55Z</time>
      </trkpt>
      <trkpt lat="42.32462" lon="8.86093">
        <ele>1862.4</ele>
        <time>2015-06-27T15:08:01Z</time>
      </trkpt>
      <trkpt lat="42.32467" lon="8.86091">
        <ele>1864</ele>
        <time>2015-06-27T15:08:10Z</time>
      </trkpt>
      <trkpt lat="42.32471" lon="8.86088">
        <ele>1864.8</ele>
        <time>2015-06-27T15:08:16Z</time>
      </trkpt>
      <trkpt lat="42.32474" lon="8.86084">
        <ele>1866</ele>
        <time>2015-06-27T15:08:24Z</time>
      </trkpt>
      <trkpt lat="42.32478" lon="8.86082">
        <ele>1867.2</ele>
        <time>2015-06-27T15:08:31Z</time>
      </trkpt>
      <trkpt lat="42.32482" lon="8.86078">
        <ele>1868.4</ele>
        <time>2015-06-27T15:08:39Z</time>
      </trkpt>
      <trkpt lat="42.32488" lon="8.86074">
        <ele>1869.6</ele>
        <time>2015-06-27T15:08:49Z</time>
      </trkpt>
      <trkpt lat="42.32493" lon="8.86071">
        <ele>1870.8</ele>
        <time>2015-06-27T15:08:57Z</time>
      </trkpt>
      <trkpt lat="42.325" lon="8.86068">
        <ele>1872</ele>
        <time>2015-06-27T15:09:09Z</time>
      </trkpt>
      <trkpt lat="42.32504" lon="8.86063">
        <ele>1873</ele>
        <time>2015-06-27T15:09:18Z</time>
      </trkpt>
      <trkpt lat="42.32508" lon="8.86062">
        <ele>1873.8</ele>
        <time>2015-06-27T15:09:24Z</time>
      </trkpt>
      <trkpt lat="42.32512" lon="8.86061">
        <ele>1875</ele>
        <time>2015-06-27T15:09:30Z</time>
      </trkpt>
      <trkpt lat="42.3252" lon="8.8606">
        <ele>1876.6</ele>
        <time>2015-06-27T15:09:41Z</time>
      </trkpt>
      <trkpt lat="42.32527" lon="8.86059">
        <ele>1877.4</ele>
        <time>2015-06-27T15:09:51Z</time>
      </trkpt>
      <trkpt lat="42.32532" lon="8.86059">
        <ele>1878.8</ele>
        <time>2015-06-27T15:10:01Z</time>
      </trkpt>
      <trkpt lat="42.32536" lon="8.86059">
        <ele>1879.4</ele>
        <time>2015-06-27T15:10:07Z</time>
      </trkpt>
      <trkpt lat="42.32542" lon="8.86058">
        <ele>1880.6</ele>
        <time>2015-06-27T15:10:15Z</time>
      </trkpt>
      <trkpt lat="42.32548" lon="8.86059">
        <ele>1881.8</ele>
        <time>2015-06-27T15:10:23Z</time>
      </trkpt>
      <trkpt lat="42.32557" lon="8.86058">
        <ele>1883.2</ele>
        <time>2015-06-27T15:10:33Z</time>
      </trkpt>
      <trkpt lat="42.32572" lon="8.86059">
        <ele>1884.2</ele>
        <time>2015-06-27T15:10:49Z</time>
      </trkpt>
      <trkpt lat="42.3258" lon="8.86059">
        <ele>1884.4</ele>
        <time>2015-06-27T15:10:57Z</time>
      </trkpt>
      <trkpt lat="42.32584" lon="8.86058">
        <ele>1884.6</ele>
        <time>2015-06-27T15:11:00Z</time>
      </trkpt>
      <trkpt lat="42.32586" lon="8.86058">
        <ele>1884.8</ele>
        <time>2015-06-27T15:11:02Z</time>
      </trkpt>
      <trkpt lat="42.32589" lon="8.86059">
        <ele>1885</ele>
        <time>2015-06-27T15:11:06Z</time>
      </trkpt>
      <trkpt lat="42.32592" lon="8.86061">
        <ele>1885</ele>
        <time>2015-06-27T15:11:10Z</time>
      </trkpt>
      <trkpt lat="42.32598" lon="8.86064">
        <ele>1887</ele>
        <time>2015-06-27T15:11:18Z</time>
      </trkpt>
      <trkpt lat="42.32604" lon="8.86067">
        <ele>1888.2</ele>
        <time>2015-06-27T15:11:28Z</time>
      </trkpt>
      <trkpt lat="42.32609" lon="8.86069">
        <ele>1889</ele>
        <time>2015-06-27T15:11:35Z</time>
      </trkpt>
      <trkpt lat="42.32614" lon="8.86072">
        <ele>1890</ele>
        <time>2015-06-27T15:11:44Z</time>
      </trkpt>
      <trkpt lat="42.32618" lon="8.86076">
        <ele>1891.4</ele>
        <time>2015-06-27T15:11:54Z</time>
      </trkpt>
      <trkpt lat="42.32627" lon="8.86081">
        <ele>1892.6</ele>
        <time>2015-06-27T15:12:11Z</time>
      </trkpt>
      <trkpt lat="42.32635" lon="8.8608">
        <ele>1893.2</ele>
        <time>2015-06-27T15:12:21Z</time>
      </trkpt>
      <trkpt lat="42.3264" lon="8.86077">
        <ele>1894</ele>
        <time>2015-06-27T15:12:30Z</time>
      </trkpt>
      <trkpt lat="42.32644" lon="8.86074">
        <ele>1894.8</ele>
        <time>2015-06-27T15:12:36Z</time>
      </trkpt>
      <trkpt lat="42.32645" lon="8.86073">
        <ele>1895</ele>
        <time>2015-06-27T15:12:37Z</time>
      </trkpt>
      <trkpt lat="42.32648" lon="8.86071">
        <ele>1896.2</ele>
        <time>2015-06-27T15:12:43Z</time>
      </trkpt>
      <trkpt lat="42.3265" lon="8.86071">
        <ele>1896.6</ele>
        <time>2015-06-27T15:12:47Z</time>
      </trkpt>
      <trkpt lat="42.32655" lon="8.86075">
        <ele>1898.4</ele>
        <time>2015-06-27T15:12:58Z</time>
      </trkpt>
      <trkpt lat="42.32662" lon="8.86072">
        <ele>1899.4</ele>
        <time>2015-06-27T15:13:10Z</time>
      </trkpt>
      <trkpt lat="42.32665" lon="8.86074">
        <ele>1899.8</ele>
        <time>2015-06-27T15:13:15Z</time>
      </trkpt>
      <trkpt lat="42.3267" lon="8.86074">
        <ele>1901</ele>
        <time>2015-06-27T15:13:22Z</time>
      </trkpt>
      <trkpt lat="42.32674" lon="8.86074">
        <ele>1901.6</ele>
        <time>2015-06-27T15:13:27Z</time>
      </trkpt>
      <trkpt lat="42.32679" lon="8.86075">
        <ele>1903.4</ele>
        <time>2015-06-27T15:13:36Z</time>
      </trkpt>
      <trkpt lat="42.32682" lon="8.86076">
        <ele>1904.2</ele>
        <time>2015-06-27T15:13:42Z</time>
      </trkpt>
      <trkpt lat="42.32686" lon="8.86077">
        <ele>1905.2</ele>
        <time>2015-06-27T15:13:49Z</time>
      </trkpt>
      <trkpt lat="42.32692" lon="8.86076">
        <ele>1906.2</ele>
        <time>2015-06-27T15:13:59Z</time>
      </trkpt>
      <trkpt lat="42.32694" lon="8.8608">
        <ele>1907.4</ele>
        <time>2015-06-27T15:14:06Z</time>
      </trkpt>
      <trkpt lat="42.32697" lon="8.8608">
        <ele>1908.4</ele>
        <time>2015-06-27T15:14:14Z</time>
      </trkpt>
      <trkpt lat="42.327" lon="8.86079">
        <ele>1909.4</ele>
        <time>2015-06-27T15:14:23Z</time>
      </trkpt>
      <trkpt lat="42.32703" lon="8.86085">
        <ele>1911</ele>
        <time>2015-06-27T15:14:33Z</time>
      </trkpt>
      <trkpt lat="42.3271" lon="8.8609">
        <ele>1911.6</ele>
        <time>2015-06-27T15:14:44Z</time>
      </trkpt>
      <trkpt lat="42.32715" lon="8.86094">
        <ele>1912.8</ele>
        <time>2015-06-27T15:14:52Z</time>
      </trkpt>
      <trkpt lat="42.3272" lon="8.86098">
        <ele>1913.6</ele>
        <time>2015-06-27T15:14:59Z</time>
      </trkpt>
      <trkpt lat="42.32724" lon="8.86101">
        <ele>1914.4</ele>
        <time>2015-06-27T15:15:09Z</time>
      </trkpt>
      <trkpt lat="42.32727" lon="8.86103">
        <ele>1915.6</ele>
        <time>2015-06-27T15:15:15Z</time>
      </trkpt>
      <trkpt lat="42.32729" lon="8.86104">
        <ele>1915.6</ele>
        <time>2015-06-27T15:15:18Z</time>
      </trkpt>
      <trkpt lat="42.32733" lon="8.86106">
        <ele>1917.8</ele>
        <time>2015-06-27T15:15:27Z</time>
      </trkpt>
      <trkpt lat="42.32739" lon="8.86108">
        <ele>1918.6</ele>
        <time>2015-06-27T15:15:35Z</time>
      </trkpt>
      <trkpt lat="42.32745" lon="8.86106">
        <ele>1919.8</ele>
        <time>2015-06-27T15:15:48Z</time>
      </trkpt>
      <trkpt lat="42.32748" lon="8.86106">
        <ele>1920.8</ele>
        <time>2015-06-27T15:15:55Z</time>
      </trkpt>
      <trkpt lat="42.32751" lon="8.86109">
        <ele>1921.6</ele>
        <time>2015-06-27T15:16:03Z</time>
      </trkpt>
      <trkpt lat="42.32754" lon="8.86112">
        <ele>1922.6</ele>
        <time>2015-06-27T15:16:09Z</time>
      </trkpt>
      <trkpt lat="42.32758" lon="8.86117">
        <ele>1924</ele>
        <time>2015-06-27T15:16:19Z</time>
      </trkpt>
      <trkpt lat="42.32765" lon="8.86122">
        <ele>1924.8</ele>
        <time>2015-06-27T15:16:30Z</time>
      </trkpt>
      <trkpt lat="42.32769" lon="8.86127">
        <ele>1926</ele>
        <time>2015-06-27T15:16:38Z</time>
      </trkpt>
      <trkpt lat="42.32775" lon="8.86133">
        <ele>1927.2</ele>
        <time>2015-06-27T15:16:50Z</time>
      </trkpt>
      <trkpt lat="42.32779" lon="8.86136">
        <ele>1928</ele>
        <time>2015-06-27T15:16:59Z</time>
      </trkpt>
      <trkpt lat="42.3278" lon="8.86138">
        <ele>1928.4</ele>
        <time>2015-06-27T15:17:04Z</time>
      </trkpt>
      <trkpt lat="42.32784" lon="8.8614">
        <ele>1930</ele>
        <time>2015-06-27T15:17:11Z</time>
      </trkpt>
      <trkpt lat="42.32787" lon="8.86142">
        <ele>1930.6</ele>
        <time>2015-06-27T15:17:16Z</time>
      </trkpt>
      <trkpt lat="42.32788" lon="8.86145">
        <ele>1931.4</ele>
        <time>2015-06-27T15:17:20Z</time>
      </trkpt>
      <trkpt lat="42.3279" lon="8.86146">
        <ele>1932.6</ele>
        <time>2015-06-27T15:17:24Z</time>
      </trkpt>
      <trkpt lat="42.32794" lon="8.86148">
        <ele>1934.2</ele>
        <time>2015-06-27T15:17:30Z</time>
      </trkpt>
      <trkpt lat="42.32803" lon="8.86152">
        <ele>1936</ele>
        <time>2015-06-27T15:17:45Z</time>
      </trkpt>
      <trkpt lat="42.32809" lon="8.86152">
        <ele>1936.4</ele>
        <time>2015-06-27T15:17:54Z</time>
      </trkpt>
      <trkpt lat="42.32814" lon="8.86157">
        <ele>1938</ele>
        <time>2015-06-27T15:18:04Z</time>
      </trkpt>
      <trkpt lat="42.3282" lon="8.86163">
        <ele>1939</ele>
        <time>2015-06-27T15:18:19Z</time>
      </trkpt>
      <trkpt lat="42.32826" lon="8.86166">
        <ele>1939.8</ele>
        <time>2015-06-27T15:18:30Z</time>
      </trkpt>
      <trkpt lat="42.32832" lon="8.86165">
        <ele>1940.6</ele>
        <time>2015-06-27T15:18:40Z</time>
      </trkpt>
      <trkpt lat="42.32837" lon="8.86166">
        <ele>1941.6</ele>
        <time>2015-06-27T15:18:48Z</time>
      </trkpt>
      <trkpt lat="42.32841" lon="8.86166">
        <ele>1942.4</ele>
        <time>2015-06-27T15:18:54Z</time>
      </trkpt>
      <trkpt lat="42.32845" lon="8.86166">
        <ele>1943.4</ele>
        <time>2015-06-27T15:19:01Z</time>
      </trkpt>
      <trkpt lat="42.32849" lon="8.86169">
        <ele>1944.8</ele>
        <time>2015-06-27T15:19:11Z</time>
      </trkpt>
      <trkpt lat="42.32853" lon="8.86172">
        <ele>1945.6</ele>
        <time>2015-06-27T15:19:18Z</time>
      </trkpt>
      <trkpt lat="42.32859" lon="8.86172">
        <ele>1946.6</ele>
        <time>2015-06-27T15:19:25Z</time>
      </trkpt>
      <trkpt lat="42.32863" lon="8.86173">
        <ele>1947.8</ele>
        <time>2015-06-27T15:19:33Z</time>
      </trkpt>
      <trkpt lat="42.32872" lon="8.86172">
        <ele>1948.6</ele>
        <time>2015-06-27T15:19:43Z</time>
      </trkpt>
      <trkpt lat="42.32879" lon="8.8617">
        <ele>1949.8</ele>
        <time>2015-06-27T15:19:54Z</time>
      </trkpt>
      <trkpt lat="42.32884" lon="8.8617">
        <ele>1950.6</ele>
        <time>2015-06-27T15:20:00Z</time>
      </trkpt>
      <trkpt lat="42.32891" lon="8.86171">
        <ele>1951</ele>
        <time>2015-06-27T15:21:00Z</time>
      </trkpt>
      <trkpt lat="42.32898" lon="8.8617">
        <ele>1949.4</ele>
        <time>2015-06-27T15:21:08Z</time>
      </trkpt>
      <trkpt lat="42.32906" lon="8.86173">
        <ele>1948.4</ele>
        <time>2015-06-27T15:21:17Z</time>
      </trkpt>
      <trkpt lat="42.3292" lon="8.8617">
        <ele>1947.4</ele>
        <time>2015-06-27T15:21:29Z</time>
      </trkpt>
      <trkpt lat="42.3293" lon="8.86168">
        <ele>1946</ele>
        <time>2015-06-27T15:21:38Z</time>
      </trkpt>
      <trkpt lat="42.32944" lon="8.86171">
        <ele>1944.6</ele>
        <time>2015-06-27T15:21:50Z</time>
      </trkpt>
      <trkpt lat="42.32955" lon="8.86171">
        <ele>1943.4</ele>
        <time>2015-06-27T15:22:00Z</time>
      </trkpt>
      <trkpt lat="42.32961" lon="8.86169">
        <ele>1943</ele>
        <time>2015-06-27T15:22:06Z</time>
      </trkpt>
      <trkpt lat="42.32972" lon="8.86169">
        <ele>1941.4</ele>
        <time>2015-06-27T15:22:15Z</time>
      </trkpt>
      <trkpt lat="42.32979" lon="8.86168">
        <ele>1940.6</ele>
        <time>2015-06-27T15:22:20Z</time>
      </trkpt>
      <trkpt lat="42.32991" lon="8.86166">
        <ele>1939.4</ele>
        <time>2015-06-27T15:22:30Z</time>
      </trkpt>
      <trkpt lat="42.32999" lon="8.86164">
        <ele>1939.2</ele>
        <time>2015-06-27T15:22:36Z</time>
      </trkpt>
      <trkpt lat="42.33011" lon="8.8616">
        <ele>1939.2</ele>
        <time>2015-06-27T15:22:47Z</time>
      </trkpt>
      <trkpt lat="42.33019" lon="8.86159">
        <ele>1939.6</ele>
        <time>2015-06-27T15:22:56Z</time>
      </trkpt>
      <trkpt lat="42.3302" lon="8.8616">
        <ele>1939.6</ele>
        <time>2015-06-27T15:22:57Z</time>
      </trkpt>
      <trkpt lat="42.33022" lon="8.86161">
        <ele>1939.8</ele>
        <time>2015-06-27T15:22:59Z</time>
      </trkpt>
      <trkpt lat="42.33029" lon="8.86163">
        <ele>1940.4</ele>
        <time>2015-06-27T15:23:07Z</time>
      </trkpt>
      <trkpt lat="42.33036" lon="8.86164">
        <ele>1941.8</ele>
        <time>2015-06-27T15:23:16Z</time>
      </trkpt>
      <trkpt lat="42.33042" lon="8.86165">
        <ele>1942.8</ele>
        <time>2015-06-27T15:23:24Z</time>
      </trkpt>
      <trkpt lat="42.33047" lon="8.86167">
        <ele>1943.8</ele>
        <time>2015-06-27T15:23:32Z</time>
      </trkpt>
      <trkpt lat="42.33054" lon="8.86171">
        <ele>1944.8</ele>
        <time>2015-06-27T15:23:42Z</time>
      </trkpt>
      <trkpt lat="42.33064" lon="8.86176">
        <ele>1946.2</ele>
        <time>2015-06-27T15:23:53Z</time>
      </trkpt>
      <trkpt lat="42.33076" lon="8.86177">
        <ele>1947</ele>
        <time>2015-06-27T15:24:05Z</time>
      </trkpt>
      <trkpt lat="42.33086" lon="8.86177">
        <ele>1948.2</ele>
        <time>2015-06-27T15:24:17Z</time>
      </trkpt>
      <trkpt lat="42.33094" lon="8.86179">
        <ele>1949</ele>
        <time>2015-06-27T15:24:27Z</time>
      </trkpt>
      <trkpt lat="42.331" lon="8.86189">
        <ele>1950.2</ele>
        <time>2015-06-27T15:24:40Z</time>
      </trkpt>
      <trkpt lat="42.33106" lon="8.86194">
        <ele>1951</ele>
        <time>2015-06-27T15:24:50Z</time>
      </trkpt>
      <trkpt lat="42.3311" lon="8.86202">
        <ele>1951.8</ele>
        <time>2015-06-27T15:24:57Z</time>
      </trkpt>
      <trkpt lat="42.33121" lon="8.86215">
        <ele>1953.4</ele>
        <time>2015-06-27T15:25:13Z</time>
      </trkpt>
      <trkpt lat="42.3313" lon="8.86219">
        <ele>1954.4</ele>
        <time>2015-06-27T15:25:27Z</time>
      </trkpt>
      <trkpt lat="42.33138" lon="8.86223">
        <ele>1955.4</ele>
        <time>2015-06-27T15:25:38Z</time>
      </trkpt>
      <trkpt lat="42.33142" lon="8.86225">
        <ele>1956</ele>
        <time>2015-06-27T15:25:45Z</time>
      </trkpt>
      <trkpt lat="42.33146" lon="8.86231">
        <ele>1957.4</ele>
        <time>2015-06-27T15:25:53Z</time>
      </trkpt>
      <trkpt lat="42.33153" lon="8.86238">
        <ele>1958.4</ele>
        <time>2015-06-27T15:26:04Z</time>
      </trkpt>
      <trkpt lat="42.3316" lon="8.86244">
        <ele>1959.6</ele>
        <time>2015-06-27T15:26:14Z</time>
      </trkpt>
      <trkpt lat="42.33166" lon="8.86253">
        <ele>1960.6</ele>
        <time>2015-06-27T15:26:25Z</time>
      </trkpt>
      <trkpt lat="42.33172" lon="8.86258">
        <ele>1961.6</ele>
        <time>2015-06-27T15:26:35Z</time>
      </trkpt>
      <trkpt lat="42.33176" lon="8.86261">
        <ele>1962.6</ele>
        <time>2015-06-27T15:26:43Z</time>
      </trkpt>
      <trkpt lat="42.33185" lon="8.86273">
        <ele>1964</ele>
        <time>2015-06-27T15:26:59Z</time>
      </trkpt>
      <trkpt lat="42.3319" lon="8.86282">
        <ele>1965</ele>
        <time>2015-06-27T15:27:09Z</time>
      </trkpt>
      <trkpt lat="42.33196" lon="8.86288">
        <ele>1965.8</ele>
        <time>2015-06-27T15:27:19Z</time>
      </trkpt>
      <trkpt lat="42.33198" lon="8.86289">
        <ele>1965.8</ele>
        <time>2015-06-27T15:27:21Z</time>
      </trkpt>
      <trkpt lat="42.33204" lon="8.86294">
        <ele>1966.8</ele>
        <time>2015-06-27T15:27:31Z</time>
      </trkpt>
      <trkpt lat="42.33209" lon="8.86297">
        <ele>1967.8</ele>
        <time>2015-06-27T15:27:38Z</time>
      </trkpt>
      <trkpt lat="42.33213" lon="8.86302">
        <ele>1969</ele>
        <time>2015-06-27T15:27:48Z</time>
      </trkpt>
      <trkpt lat="42.33217" lon="8.86306">
        <ele>1970</ele>
        <time>2015-06-27T15:27:56Z</time>
      </trkpt>
      <trkpt lat="42.33224" lon="8.86314">
        <ele>1971.2</ele>
        <time>2015-06-27T15:28:08Z</time>
      </trkpt>
      <trkpt lat="42.33232" lon="8.8632">
        <ele>1972.2</ele>
        <time>2015-06-27T15:28:21Z</time>
      </trkpt>
      <trkpt lat="42.33236" lon="8.86322">
        <ele>1972.8</ele>
        <time>2015-06-27T15:28:27Z</time>
      </trkpt>
      <trkpt lat="42.33238" lon="8.86326">
        <ele>1973.6</ele>
        <time>2015-06-27T15:28:32Z</time>
      </trkpt>
      <trkpt lat="42.33245" lon="8.86331">
        <ele>1975.2</ele>
        <time>2015-06-27T15:28:43Z</time>
      </trkpt>
      <trkpt lat="42.33251" lon="8.86333">
        <ele>1976.2</ele>
        <time>2015-06-27T15:28:51Z</time>
      </trkpt>
      <trkpt lat="42.33255" lon="8.86337">
        <ele>1977.2</ele>
        <time>2015-06-27T15:28:58Z</time>
      </trkpt>
      <trkpt lat="42.33259" lon="8.8634">
        <ele>1978.2</ele>
        <time>2015-06-27T15:29:07Z</time>
      </trkpt>
      <trkpt lat="42.33264" lon="8.86343">
        <ele>1979.2</ele>
        <time>2015-06-27T15:29:16Z</time>
      </trkpt>
      <trkpt lat="42.3327" lon="8.86346">
        <ele>1980</ele>
        <time>2015-06-27T15:29:24Z</time>
      </trkpt>
      <trkpt lat="42.33279" lon="8.86356">
        <ele>1981.4</ele>
        <time>2015-06-27T15:29:39Z</time>
      </trkpt>
      <trkpt lat="42.33286" lon="8.86361">
        <ele>1982.4</ele>
        <time>2015-06-27T15:29:48Z</time>
      </trkpt>
      <trkpt lat="42.33298" lon="8.86371">
        <ele>1983.4</ele>
        <time>2015-06-27T15:30:45Z</time>
      </trkpt>
      <trkpt lat="42.33309" lon="8.86383">
        <ele>1984.4</ele>
        <time>2015-06-27T15:31:02Z</time>
      </trkpt>
      <trkpt lat="42.33316" lon="8.86386">
        <ele>1984.8</ele>
        <time>2015-06-27T15:31:11Z</time>
      </trkpt>
      <trkpt lat="42.33322" lon="8.86391">
        <ele>1985.8</ele>
        <time>2015-06-27T15:31:19Z</time>
      </trkpt>
      <trkpt lat="42.33332" lon="8.8641">
        <ele>1987.4</ele>
        <time>2015-06-27T15:31:38Z</time>
      </trkpt>
      <trkpt lat="42.33358" lon="8.86458">
        <ele>1988.2</ele>
        <time>2015-06-27T15:32:30Z</time>
      </trkpt>
      <trkpt lat="42.33374" lon="8.86484">
        <ele>1988.2</ele>
        <time>2015-06-27T15:33:02Z</time>
      </trkpt>
      <trkpt lat="42.33396" lon="8.86538">
        <ele>1988</ele>
        <time>2015-06-27T15:33:43Z</time>
      </trkpt>
      <trkpt lat="42.33416" lon="8.86576">
        <ele>1987.8</ele>
        <time>2015-06-27T15:34:30Z</time>
      </trkpt>
      <trkpt lat="42.33419" lon="8.86583">
        <ele>1986.6</ele>
        <time>2015-06-27T15:34:38Z</time>
      </trkpt>
      <trkpt lat="42.33435" lon="8.86612">
        <ele>1986.2</ele>
        <time>2015-06-27T15:35:13Z</time>
      </trkpt>
      <trkpt lat="42.33438" lon="8.86621">
        <ele>1987.6</ele>
        <time>2015-06-27T15:35:23Z</time>
      </trkpt>
      <trkpt lat="42.33454" lon="8.86677">
        <ele>1988.2</ele>
        <time>2015-06-27T15:36:07Z</time>
      </trkpt>
      <trkpt lat="42.33456" lon="8.86687">
        <ele>1988.8</ele>
        <time>2015-06-27T15:36:14Z</time>
      </trkpt>
      <trkpt lat="42.33457" lon="8.86696">
        <ele>1989.2</ele>
        <time>2015-06-27T15:36:22Z</time>
      </trkpt>
      <trkpt lat="42.33457" lon="8.86697">
        <ele>1989.2</ele>
        <time>2015-06-27T15:36:23Z</time>
      </trkpt>
      <trkpt lat="42.33457" lon="8.86701">
        <ele>1989.6</ele>
        <time>2015-06-27T15:36:26Z</time>
      </trkpt>
      <trkpt lat="42.33457" lon="8.86709">
        <ele>1990.4</ele>
        <time>2015-06-27T15:36:33Z</time>
      </trkpt>
      <trkpt lat="42.33457" lon="8.86715">
        <ele>1991.2</ele>
        <time>2015-06-27T15:36:40Z</time>
      </trkpt>
      <trkpt lat="42.33467" lon="8.86742">
        <ele>1992.6</ele>
        <time>2015-06-27T15:37:06Z</time>
      </trkpt>
      <trkpt lat="42.33472" lon="8.86747">
        <ele>1992.6</ele>
        <time>2015-06-27T15:37:28Z</time>
      </trkpt>
      <trkpt lat="42.33491" lon="8.86796">
        <ele>1993.4</ele>
        <time>2015-06-27T15:38:23Z</time>
      </trkpt>
      <trkpt lat="42.33493" lon="8.86804">
        <ele>1994.6</ele>
        <time>2015-06-27T15:39:01Z</time>
      </trkpt>
      <trkpt lat="42.33492" lon="8.8681">
        <ele>1994</ele>
        <time>2015-06-27T15:39:18Z</time>
      </trkpt>
    </trkseg>
  </trk>
</gpx>